<?xml version="1.0"?>
<gpx creator="GPS Visualizer http://www.gpsvisualizer.com/" version="1.1" xmlns="http://www.topografix.com/GPX/1/1" xmlns:xsi="http://www.w3.org/2001/XMLSchema-instance" xsi:schemaLocation="http://www.topografix.com/GPX/1/1 http://www.topografix.com/GPX/1/1/gpx.xsd">
<trk>
  <name>2014-09-28-01</name>
  <trkseg>
    <trkpt lat="48.496774" lon="2.634913">
      <ele>93.5</ele>
      <time>2014-09-14T07:38:37Z</time>
    </trkpt>
    <trkpt lat="48.496768" lon="2.634917">
      <ele>93.5</ele>
      <time>2014-09-14T07:38:38Z</time>
    </trkpt>
    <trkpt lat="48.496694" lon="2.634803">
      <ele>92.9</ele>
      <time>2014-09-14T07:39:22Z</time>
    </trkpt>
    <trkpt lat="48.496602" lon="2.63489">
      <ele>92.7</ele>
      <time>2014-09-14T07:39:31Z</time>
    </trkpt>
    <trkpt lat="48.496514" lon="2.634973">
      <ele>92.6</ele>
      <time>2014-09-14T07:39:34Z</time>
    </trkpt>
    <trkpt lat="48.496432" lon="2.63505">
      <ele>92.5</ele>
      <time>2014-09-14T07:39:37Z</time>
    </trkpt>
    <trkpt lat="48.49634" lon="2.635141">
      <ele>92.4</ele>
      <time>2014-09-14T07:39:40Z</time>
    </trkpt>
    <trkpt lat="48.49626" lon="2.63521">
      <ele>92.3</ele>
      <time>2014-09-14T07:39:42Z</time>
    </trkpt>
    <trkpt lat="48.496187" lon="2.635297">
      <ele>92.2</ele>
      <time>2014-09-14T07:39:44Z</time>
    </trkpt>
    <trkpt lat="48.496108" lon="2.635397">
      <ele>92.0</ele>
      <time>2014-09-14T07:39:46Z</time>
    </trkpt>
    <trkpt lat="48.496011" lon="2.635522">
      <ele>91.7</ele>
      <time>2014-09-14T07:39:49Z</time>
    </trkpt>
    <trkpt lat="48.495935" lon="2.635635">
      <ele>91.4</ele>
      <time>2014-09-14T07:39:51Z</time>
    </trkpt>
    <trkpt lat="48.495854" lon="2.635733">
      <ele>91.1</ele>
      <time>2014-09-14T07:39:53Z</time>
    </trkpt>
    <trkpt lat="48.495758" lon="2.635852">
      <ele>91.1</ele>
      <time>2014-09-14T07:39:55Z</time>
    </trkpt>
    <trkpt lat="48.495679" lon="2.635976">
      <ele>91.5</ele>
      <time>2014-09-14T07:39:57Z</time>
    </trkpt>
    <trkpt lat="48.495599" lon="2.63606">
      <ele>91.8</ele>
      <time>2014-09-14T07:39:59Z</time>
    </trkpt>
    <trkpt lat="48.495523" lon="2.636163">
      <ele>92.2</ele>
      <time>2014-09-14T07:40:01Z</time>
    </trkpt>
    <trkpt lat="48.495453" lon="2.636264">
      <ele>92.5</ele>
      <time>2014-09-14T07:40:03Z</time>
    </trkpt>
    <trkpt lat="48.495381" lon="2.636355">
      <ele>92.8</ele>
      <time>2014-09-14T07:40:05Z</time>
    </trkpt>
    <trkpt lat="48.495307" lon="2.636438">
      <ele>93.1</ele>
      <time>2014-09-14T07:40:07Z</time>
    </trkpt>
    <trkpt lat="48.495232" lon="2.63655">
      <ele>93.4</ele>
      <time>2014-09-14T07:40:09Z</time>
    </trkpt>
    <trkpt lat="48.49515" lon="2.636647">
      <ele>93.8</ele>
      <time>2014-09-14T07:40:11Z</time>
    </trkpt>
    <trkpt lat="48.495075" lon="2.636756">
      <ele>93.8</ele>
      <time>2014-09-14T07:40:13Z</time>
    </trkpt>
    <trkpt lat="48.495004" lon="2.636844">
      <ele>93.8</ele>
      <time>2014-09-14T07:40:15Z</time>
    </trkpt>
    <trkpt lat="48.494934" lon="2.636931">
      <ele>93.7</ele>
      <time>2014-09-14T07:40:17Z</time>
    </trkpt>
    <trkpt lat="48.494858" lon="2.637035">
      <ele>93.6</ele>
      <time>2014-09-14T07:40:19Z</time>
    </trkpt>
    <trkpt lat="48.494773" lon="2.637111">
      <ele>93.6</ele>
      <time>2014-09-14T07:40:21Z</time>
    </trkpt>
    <trkpt lat="48.494695" lon="2.637208">
      <ele>93.6</ele>
      <time>2014-09-14T07:40:23Z</time>
    </trkpt>
    <trkpt lat="48.494617" lon="2.637304">
      <ele>93.6</ele>
      <time>2014-09-14T07:40:25Z</time>
    </trkpt>
    <trkpt lat="48.494505" lon="2.637427">
      <ele>93.6</ele>
      <time>2014-09-14T07:40:28Z</time>
    </trkpt>
    <trkpt lat="48.494408" lon="2.637549">
      <ele>93.8</ele>
      <time>2014-09-14T07:40:31Z</time>
    </trkpt>
    <trkpt lat="48.49432" lon="2.637643">
      <ele>94.1</ele>
      <time>2014-09-14T07:40:33Z</time>
    </trkpt>
    <trkpt lat="48.49423" lon="2.637765">
      <ele>94.5</ele>
      <time>2014-09-14T07:40:36Z</time>
    </trkpt>
    <trkpt lat="48.494163" lon="2.637862">
      <ele>94.9</ele>
      <time>2014-09-14T07:40:38Z</time>
    </trkpt>
    <trkpt lat="48.494062" lon="2.637977">
      <ele>95.3</ele>
      <time>2014-09-14T07:40:41Z</time>
    </trkpt>
    <trkpt lat="48.493921" lon="2.638173">
      <ele>96.1</ele>
      <time>2014-09-14T07:40:45Z</time>
    </trkpt>
    <trkpt lat="48.493834" lon="2.63827">
      <ele>96.6</ele>
      <time>2014-09-14T07:40:47Z</time>
    </trkpt>
    <trkpt lat="48.493764" lon="2.638372">
      <ele>96.9</ele>
      <time>2014-09-14T07:40:49Z</time>
    </trkpt>
    <trkpt lat="48.493657" lon="2.638501">
      <ele>97.1</ele>
      <time>2014-09-14T07:40:52Z</time>
    </trkpt>
    <trkpt lat="48.493571" lon="2.638619">
      <ele>97.3</ele>
      <time>2014-09-14T07:40:54Z</time>
    </trkpt>
    <trkpt lat="48.493508" lon="2.638721">
      <ele>97.5</ele>
      <time>2014-09-14T07:40:56Z</time>
    </trkpt>
    <trkpt lat="48.493408" lon="2.63887">
      <ele>97.8</ele>
      <time>2014-09-14T07:40:59Z</time>
    </trkpt>
    <trkpt lat="48.493326" lon="2.63896">
      <ele>98.0</ele>
      <time>2014-09-14T07:41:01Z</time>
    </trkpt>
    <trkpt lat="48.493259" lon="2.639103">
      <ele>98.3</ele>
      <time>2014-09-14T07:41:04Z</time>
    </trkpt>
    <trkpt lat="48.493178" lon="2.639253">
      <ele>98.5</ele>
      <time>2014-09-14T07:41:07Z</time>
    </trkpt>
    <trkpt lat="48.493059" lon="2.639369">
      <ele>98.7</ele>
      <time>2014-09-14T07:41:10Z</time>
    </trkpt>
    <trkpt lat="48.492968" lon="2.639445">
      <ele>99.0</ele>
      <time>2014-09-14T07:41:12Z</time>
    </trkpt>
    <trkpt lat="48.492854" lon="2.639543">
      <ele>99.3</ele>
      <time>2014-09-14T07:41:14Z</time>
    </trkpt>
    <trkpt lat="48.492746" lon="2.639648">
      <ele>99.5</ele>
      <time>2014-09-14T07:41:17Z</time>
    </trkpt>
    <trkpt lat="48.492648" lon="2.639749">
      <ele>99.8</ele>
      <time>2014-09-14T07:41:20Z</time>
    </trkpt>
    <trkpt lat="48.492558" lon="2.639857">
      <ele>100.0</ele>
      <time>2014-09-14T07:41:23Z</time>
    </trkpt>
    <trkpt lat="48.492481" lon="2.639938">
      <ele>100.1</ele>
      <time>2014-09-14T07:41:25Z</time>
    </trkpt>
    <trkpt lat="48.49236" lon="2.640052">
      <ele>100.4</ele>
      <time>2014-09-14T07:41:28Z</time>
    </trkpt>
    <trkpt lat="48.492265" lon="2.640193">
      <ele>100.7</ele>
      <time>2014-09-14T07:41:31Z</time>
    </trkpt>
    <trkpt lat="48.492206" lon="2.640302">
      <ele>100.9</ele>
      <time>2014-09-14T07:41:33Z</time>
    </trkpt>
    <trkpt lat="48.49212" lon="2.640437">
      <ele>101.2</ele>
      <time>2014-09-14T07:41:35Z</time>
    </trkpt>
    <trkpt lat="48.492042" lon="2.64053">
      <ele>101.4</ele>
      <time>2014-09-14T07:41:37Z</time>
    </trkpt>
    <trkpt lat="48.491959" lon="2.64064">
      <ele>101.6</ele>
      <time>2014-09-14T07:41:40Z</time>
    </trkpt>
    <trkpt lat="48.491842" lon="2.640749">
      <ele>101.8</ele>
      <time>2014-09-14T07:41:43Z</time>
    </trkpt>
    <trkpt lat="48.491697" lon="2.640939">
      <ele>101.8</ele>
      <time>2014-09-14T07:41:47Z</time>
    </trkpt>
    <trkpt lat="48.491623" lon="2.641041">
      <ele>101.7</ele>
      <time>2014-09-14T07:41:49Z</time>
    </trkpt>
    <trkpt lat="48.491549" lon="2.641124">
      <ele>101.6</ele>
      <time>2014-09-14T07:41:51Z</time>
    </trkpt>
    <trkpt lat="48.491475" lon="2.641229">
      <ele>101.4</ele>
      <time>2014-09-14T07:41:53Z</time>
    </trkpt>
    <trkpt lat="48.491389" lon="2.641304">
      <ele>101.3</ele>
      <time>2014-09-14T07:41:55Z</time>
    </trkpt>
    <trkpt lat="48.491293" lon="2.641448">
      <ele>101.1</ele>
      <time>2014-09-14T07:41:58Z</time>
    </trkpt>
    <trkpt lat="48.491206" lon="2.641554">
      <ele>101.1</ele>
      <time>2014-09-14T07:42:01Z</time>
    </trkpt>
    <trkpt lat="48.491135" lon="2.64164">
      <ele>101.0</ele>
      <time>2014-09-14T07:42:03Z</time>
    </trkpt>
    <trkpt lat="48.491054" lon="2.641707">
      <ele>101.0</ele>
      <time>2014-09-14T07:42:05Z</time>
    </trkpt>
    <trkpt lat="48.49095" lon="2.641853">
      <ele>101.2</ele>
      <time>2014-09-14T07:42:08Z</time>
    </trkpt>
    <trkpt lat="48.490835" lon="2.642014">
      <ele>101.4</ele>
      <time>2014-09-14T07:42:10Z</time>
    </trkpt>
    <trkpt lat="48.490741" lon="2.642131">
      <ele>101.4</ele>
      <time>2014-09-14T07:42:12Z</time>
    </trkpt>
    <trkpt lat="48.490646" lon="2.64225">
      <ele>101.4</ele>
      <time>2014-09-14T07:42:15Z</time>
    </trkpt>
    <trkpt lat="48.490559" lon="2.642369">
      <ele>101.5</ele>
      <time>2014-09-14T07:42:18Z</time>
    </trkpt>
    <trkpt lat="48.490493" lon="2.642473">
      <ele>101.5</ele>
      <time>2014-09-14T07:42:21Z</time>
    </trkpt>
    <trkpt lat="48.490415" lon="2.642556">
      <ele>101.5</ele>
      <time>2014-09-14T07:42:23Z</time>
    </trkpt>
    <trkpt lat="48.490314" lon="2.642645">
      <ele>101.5</ele>
      <time>2014-09-14T07:42:26Z</time>
    </trkpt>
    <trkpt lat="48.490214" lon="2.642789">
      <ele>101.5</ele>
      <time>2014-09-14T07:42:29Z</time>
    </trkpt>
    <trkpt lat="48.490116" lon="2.642915">
      <ele>101.6</ele>
      <time>2014-09-14T07:42:32Z</time>
    </trkpt>
    <trkpt lat="48.490001" lon="2.643063">
      <ele>101.7</ele>
      <time>2014-09-14T07:42:35Z</time>
    </trkpt>
    <trkpt lat="48.489926" lon="2.64317">
      <ele>101.5</ele>
      <time>2014-09-14T07:42:37Z</time>
    </trkpt>
    <trkpt lat="48.489803" lon="2.643325">
      <ele>101.0</ele>
      <time>2014-09-14T07:42:40Z</time>
    </trkpt>
    <trkpt lat="48.489719" lon="2.643427">
      <ele>100.5</ele>
      <time>2014-09-14T07:42:42Z</time>
    </trkpt>
    <trkpt lat="48.489656" lon="2.643571">
      <ele>100.1</ele>
      <time>2014-09-14T07:42:44Z</time>
    </trkpt>
    <trkpt lat="48.489564" lon="2.643847">
      <ele>99.3</ele>
      <time>2014-09-14T07:42:48Z</time>
    </trkpt>
    <trkpt lat="48.489522" lon="2.644026">
      <ele>98.9</ele>
      <time>2014-09-14T07:42:51Z</time>
    </trkpt>
    <trkpt lat="48.489494" lon="2.64422">
      <ele>98.5</ele>
      <time>2014-09-14T07:42:54Z</time>
    </trkpt>
    <trkpt lat="48.489449" lon="2.644358">
      <ele>98.1</ele>
      <time>2014-09-14T07:42:56Z</time>
    </trkpt>
    <trkpt lat="48.489402" lon="2.644537">
      <ele>97.7</ele>
      <time>2014-09-14T07:42:58Z</time>
    </trkpt>
    <trkpt lat="48.489371" lon="2.644672">
      <ele>97.4</ele>
      <time>2014-09-14T07:43:00Z</time>
    </trkpt>
    <trkpt lat="48.489346" lon="2.64483">
      <ele>97.1</ele>
      <time>2014-09-14T07:43:02Z</time>
    </trkpt>
    <trkpt lat="48.489317" lon="2.644972">
      <ele>96.8</ele>
      <time>2014-09-14T07:43:04Z</time>
    </trkpt>
    <trkpt lat="48.489275" lon="2.645143">
      <ele>97.0</ele>
      <time>2014-09-14T07:43:06Z</time>
    </trkpt>
    <trkpt lat="48.489237" lon="2.645305">
      <ele>97.3</ele>
      <time>2014-09-14T07:43:08Z</time>
    </trkpt>
    <trkpt lat="48.489194" lon="2.645456">
      <ele>97.7</ele>
      <time>2014-09-14T07:43:10Z</time>
    </trkpt>
    <trkpt lat="48.489131" lon="2.645634">
      <ele>98.2</ele>
      <time>2014-09-14T07:43:12Z</time>
    </trkpt>
    <trkpt lat="48.489091" lon="2.645794">
      <ele>98.6</ele>
      <time>2014-09-14T07:43:14Z</time>
    </trkpt>
    <trkpt lat="48.489063" lon="2.645956">
      <ele>98.8</ele>
      <time>2014-09-14T07:43:16Z</time>
    </trkpt>
    <trkpt lat="48.489017" lon="2.646114">
      <ele>98.7</ele>
      <time>2014-09-14T07:43:18Z</time>
    </trkpt>
    <trkpt lat="48.488978" lon="2.646266">
      <ele>98.7</ele>
      <time>2014-09-14T07:43:20Z</time>
    </trkpt>
    <trkpt lat="48.488911" lon="2.64646">
      <ele>98.6</ele>
      <time>2014-09-14T07:43:22Z</time>
    </trkpt>
    <trkpt lat="48.488845" lon="2.646611">
      <ele>98.4</ele>
      <time>2014-09-14T07:43:24Z</time>
    </trkpt>
    <trkpt lat="48.488784" lon="2.646725">
      <ele>98.3</ele>
      <time>2014-09-14T07:43:26Z</time>
    </trkpt>
    <trkpt lat="48.488709" lon="2.646871">
      <ele>98.3</ele>
      <time>2014-09-14T07:43:28Z</time>
    </trkpt>
    <trkpt lat="48.488648" lon="2.647002">
      <ele>98.3</ele>
      <time>2014-09-14T07:43:30Z</time>
    </trkpt>
    <trkpt lat="48.488593" lon="2.64712">
      <ele>98.3</ele>
      <time>2014-09-14T07:43:32Z</time>
    </trkpt>
    <trkpt lat="48.488515" lon="2.647277">
      <ele>98.3</ele>
      <time>2014-09-14T07:43:34Z</time>
    </trkpt>
    <trkpt lat="48.48844" lon="2.647419">
      <ele>98.3</ele>
      <time>2014-09-14T07:43:36Z</time>
    </trkpt>
    <trkpt lat="48.488381" lon="2.647553">
      <ele>98.3</ele>
      <time>2014-09-14T07:43:38Z</time>
    </trkpt>
    <trkpt lat="48.488319" lon="2.647696">
      <ele>98.4</ele>
      <time>2014-09-14T07:43:40Z</time>
    </trkpt>
    <trkpt lat="48.48825" lon="2.647831">
      <ele>98.3</ele>
      <time>2014-09-14T07:43:42Z</time>
    </trkpt>
    <trkpt lat="48.488183" lon="2.647967">
      <ele>98.2</ele>
      <time>2014-09-14T07:43:44Z</time>
    </trkpt>
    <trkpt lat="48.488103" lon="2.648131">
      <ele>98.0</ele>
      <time>2014-09-14T07:43:47Z</time>
    </trkpt>
    <trkpt lat="48.487957" lon="2.648427">
      <ele>97.4</ele>
      <time>2014-09-14T07:43:51Z</time>
    </trkpt>
    <trkpt lat="48.487898" lon="2.648542">
      <ele>97.3</ele>
      <time>2014-09-14T07:43:53Z</time>
    </trkpt>
    <trkpt lat="48.487831" lon="2.648697">
      <ele>97.2</ele>
      <time>2014-09-14T07:43:56Z</time>
    </trkpt>
    <trkpt lat="48.487774" lon="2.648807">
      <ele>97.1</ele>
      <time>2014-09-14T07:43:58Z</time>
    </trkpt>
    <trkpt lat="48.487708" lon="2.648974">
      <ele>97.2</ele>
      <time>2014-09-14T07:44:01Z</time>
    </trkpt>
    <trkpt lat="48.487618" lon="2.64914">
      <ele>97.3</ele>
      <time>2014-09-14T07:44:03Z</time>
    </trkpt>
    <trkpt lat="48.487561" lon="2.649252">
      <ele>97.4</ele>
      <time>2014-09-14T07:44:04Z</time>
    </trkpt>
    <trkpt lat="48.487494" lon="2.649398">
      <ele>97.5</ele>
      <time>2014-09-14T07:44:06Z</time>
    </trkpt>
    <trkpt lat="48.487417" lon="2.649573">
      <ele>97.8</ele>
      <time>2014-09-14T07:44:09Z</time>
    </trkpt>
    <trkpt lat="48.48736" lon="2.649689">
      <ele>97.9</ele>
      <time>2014-09-14T07:44:11Z</time>
    </trkpt>
    <trkpt lat="48.487291" lon="2.649822">
      <ele>97.9</ele>
      <time>2014-09-14T07:44:13Z</time>
    </trkpt>
    <trkpt lat="48.487228" lon="2.649934">
      <ele>97.9</ele>
      <time>2014-09-14T07:44:15Z</time>
    </trkpt>
    <trkpt lat="48.487159" lon="2.65008">
      <ele>98.0</ele>
      <time>2014-09-14T07:44:18Z</time>
    </trkpt>
    <trkpt lat="48.487095" lon="2.650188">
      <ele>98.0</ele>
      <time>2014-09-14T07:44:20Z</time>
    </trkpt>
    <trkpt lat="48.487023" lon="2.650295">
      <ele>98.0</ele>
      <time>2014-09-14T07:44:22Z</time>
    </trkpt>
    <trkpt lat="48.486966" lon="2.650433">
      <ele>98.1</ele>
      <time>2014-09-14T07:44:24Z</time>
    </trkpt>
    <trkpt lat="48.486885" lon="2.650581">
      <ele>98.2</ele>
      <time>2014-09-14T07:44:27Z</time>
    </trkpt>
    <trkpt lat="48.486807" lon="2.650727">
      <ele>98.2</ele>
      <time>2014-09-14T07:44:30Z</time>
    </trkpt>
    <trkpt lat="48.486737" lon="2.650888">
      <ele>98.4</ele>
      <time>2014-09-14T07:44:33Z</time>
    </trkpt>
    <trkpt lat="48.486683" lon="2.651035">
      <ele>98.5</ele>
      <time>2014-09-14T07:44:36Z</time>
    </trkpt>
    <trkpt lat="48.486621" lon="2.651187">
      <ele>98.8</ele>
      <time>2014-09-14T07:44:39Z</time>
    </trkpt>
    <trkpt lat="48.486539" lon="2.651336">
      <ele>99.1</ele>
      <time>2014-09-14T07:44:41Z</time>
    </trkpt>
    <trkpt lat="48.48648" lon="2.651442">
      <ele>99.3</ele>
      <time>2014-09-14T07:44:43Z</time>
    </trkpt>
    <trkpt lat="48.486413" lon="2.651597">
      <ele>99.6</ele>
      <time>2014-09-14T07:44:46Z</time>
    </trkpt>
    <trkpt lat="48.486365" lon="2.651716">
      <ele>99.8</ele>
      <time>2014-09-14T07:44:48Z</time>
    </trkpt>
    <trkpt lat="48.486249" lon="2.65196">
      <ele>100.2</ele>
      <time>2014-09-14T07:44:52Z</time>
    </trkpt>
    <trkpt lat="48.48617" lon="2.652113">
      <ele>100.4</ele>
      <time>2014-09-14T07:44:55Z</time>
    </trkpt>
    <trkpt lat="48.486097" lon="2.652262">
      <ele>100.5</ele>
      <time>2014-09-14T07:44:58Z</time>
    </trkpt>
    <trkpt lat="48.48603" lon="2.652407">
      <ele>100.5</ele>
      <time>2014-09-14T07:45:01Z</time>
    </trkpt>
    <trkpt lat="48.485964" lon="2.652575">
      <ele>100.7</ele>
      <time>2014-09-14T07:45:04Z</time>
    </trkpt>
    <trkpt lat="48.48589" lon="2.652744">
      <ele>101.1</ele>
      <time>2014-09-14T07:45:07Z</time>
    </trkpt>
    <trkpt lat="48.4858" lon="2.652897">
      <ele>101.4</ele>
      <time>2014-09-14T07:45:10Z</time>
    </trkpt>
    <trkpt lat="48.485734" lon="2.653033">
      <ele>101.7</ele>
      <time>2014-09-14T07:45:12Z</time>
    </trkpt>
    <trkpt lat="48.485656" lon="2.653186">
      <ele>101.9</ele>
      <time>2014-09-14T07:45:14Z</time>
    </trkpt>
    <trkpt lat="48.485571" lon="2.653358">
      <ele>102.0</ele>
      <time>2014-09-14T07:45:16Z</time>
    </trkpt>
    <trkpt lat="48.485518" lon="2.653519">
      <ele>101.8</ele>
      <time>2014-09-14T07:45:18Z</time>
    </trkpt>
    <trkpt lat="48.48548" lon="2.653667">
      <ele>101.7</ele>
      <time>2014-09-14T07:45:20Z</time>
    </trkpt>
    <trkpt lat="48.485466" lon="2.653832">
      <ele>101.6</ele>
      <time>2014-09-14T07:45:22Z</time>
    </trkpt>
    <trkpt lat="48.485433" lon="2.653996">
      <ele>101.5</ele>
      <time>2014-09-14T07:45:24Z</time>
    </trkpt>
    <trkpt lat="48.485398" lon="2.654161">
      <ele>101.5</ele>
      <time>2014-09-14T07:45:26Z</time>
    </trkpt>
    <trkpt lat="48.485368" lon="2.654315">
      <ele>101.4</ele>
      <time>2014-09-14T07:45:28Z</time>
    </trkpt>
    <trkpt lat="48.485346" lon="2.654471">
      <ele>101.4</ele>
      <time>2014-09-14T07:45:30Z</time>
    </trkpt>
    <trkpt lat="48.485322" lon="2.654628">
      <ele>101.4</ele>
      <time>2014-09-14T07:45:32Z</time>
    </trkpt>
    <trkpt lat="48.485316" lon="2.654773">
      <ele>101.4</ele>
      <time>2014-09-14T07:45:34Z</time>
    </trkpt>
    <trkpt lat="48.485285" lon="2.654942">
      <ele>101.3</ele>
      <time>2014-09-14T07:45:36Z</time>
    </trkpt>
    <trkpt lat="48.485255" lon="2.655103">
      <ele>101.4</ele>
      <time>2014-09-14T07:45:38Z</time>
    </trkpt>
    <trkpt lat="48.485246" lon="2.65525">
      <ele>101.4</ele>
      <time>2014-09-14T07:45:40Z</time>
    </trkpt>
    <trkpt lat="48.485214" lon="2.655444">
      <ele>101.5</ele>
      <time>2014-09-14T07:45:42Z</time>
    </trkpt>
    <trkpt lat="48.485208" lon="2.655581">
      <ele>101.6</ele>
      <time>2014-09-14T07:45:44Z</time>
    </trkpt>
    <trkpt lat="48.485185" lon="2.655732">
      <ele>101.7</ele>
      <time>2014-09-14T07:45:46Z</time>
    </trkpt>
    <trkpt lat="48.485167" lon="2.655872">
      <ele>101.8</ele>
      <time>2014-09-14T07:45:48Z</time>
    </trkpt>
    <trkpt lat="48.485123" lon="2.656196">
      <ele>102.0</ele>
      <time>2014-09-14T07:45:52Z</time>
    </trkpt>
    <trkpt lat="48.485104" lon="2.656346">
      <ele>102.0</ele>
      <time>2014-09-14T07:45:54Z</time>
    </trkpt>
    <trkpt lat="48.485071" lon="2.656503">
      <ele>102.1</ele>
      <time>2014-09-14T07:45:56Z</time>
    </trkpt>
    <trkpt lat="48.48505" lon="2.656656">
      <ele>102.1</ele>
      <time>2014-09-14T07:45:58Z</time>
    </trkpt>
    <trkpt lat="48.485028" lon="2.65682">
      <ele>101.9</ele>
      <time>2014-09-14T07:46:00Z</time>
    </trkpt>
    <trkpt lat="48.485005" lon="2.656975">
      <ele>101.6</ele>
      <time>2014-09-14T07:46:02Z</time>
    </trkpt>
    <trkpt lat="48.48497" lon="2.657139">
      <ele>101.4</ele>
      <time>2014-09-14T07:46:04Z</time>
    </trkpt>
    <trkpt lat="48.48495" lon="2.657299">
      <ele>101.2</ele>
      <time>2014-09-14T07:46:06Z</time>
    </trkpt>
    <trkpt lat="48.484929" lon="2.657451">
      <ele>101.0</ele>
      <time>2014-09-14T07:46:08Z</time>
    </trkpt>
    <trkpt lat="48.484913" lon="2.657601">
      <ele>100.9</ele>
      <time>2014-09-14T07:46:10Z</time>
    </trkpt>
    <trkpt lat="48.484895" lon="2.657762">
      <ele>100.7</ele>
      <time>2014-09-14T07:46:12Z</time>
    </trkpt>
    <trkpt lat="48.484868" lon="2.657914">
      <ele>100.5</ele>
      <time>2014-09-14T07:46:14Z</time>
    </trkpt>
    <trkpt lat="48.484847" lon="2.658057">
      <ele>100.3</ele>
      <time>2014-09-14T07:46:16Z</time>
    </trkpt>
    <trkpt lat="48.484826" lon="2.658214">
      <ele>100.1</ele>
      <time>2014-09-14T07:46:18Z</time>
    </trkpt>
    <trkpt lat="48.484809" lon="2.658365">
      <ele>100.0</ele>
      <time>2014-09-14T07:46:20Z</time>
    </trkpt>
    <trkpt lat="48.484787" lon="2.658531">
      <ele>99.9</ele>
      <time>2014-09-14T07:46:22Z</time>
    </trkpt>
    <trkpt lat="48.484766" lon="2.658686">
      <ele>99.8</ele>
      <time>2014-09-14T07:46:24Z</time>
    </trkpt>
    <trkpt lat="48.48474" lon="2.658843">
      <ele>99.6</ele>
      <time>2014-09-14T07:46:26Z</time>
    </trkpt>
    <trkpt lat="48.484721" lon="2.659001">
      <ele>99.5</ele>
      <time>2014-09-14T07:46:28Z</time>
    </trkpt>
    <trkpt lat="48.484701" lon="2.659142">
      <ele>99.3</ele>
      <time>2014-09-14T07:46:30Z</time>
    </trkpt>
    <trkpt lat="48.484676" lon="2.659301">
      <ele>99.6</ele>
      <time>2014-09-14T07:46:32Z</time>
    </trkpt>
    <trkpt lat="48.484653" lon="2.659463">
      <ele>100.0</ele>
      <time>2014-09-14T07:46:34Z</time>
    </trkpt>
    <trkpt lat="48.484636" lon="2.659612">
      <ele>100.4</ele>
      <time>2014-09-14T07:46:36Z</time>
    </trkpt>
    <trkpt lat="48.484614" lon="2.659755">
      <ele>100.8</ele>
      <time>2014-09-14T07:46:38Z</time>
    </trkpt>
    <trkpt lat="48.484585" lon="2.659884">
      <ele>101.2</ele>
      <time>2014-09-14T07:46:40Z</time>
    </trkpt>
    <trkpt lat="48.484559" lon="2.660033">
      <ele>101.6</ele>
      <time>2014-09-14T07:46:42Z</time>
    </trkpt>
    <trkpt lat="48.484528" lon="2.660168">
      <ele>102.1</ele>
      <time>2014-09-14T07:46:44Z</time>
    </trkpt>
    <trkpt lat="48.484495" lon="2.66033">
      <ele>102.6</ele>
      <time>2014-09-14T07:46:46Z</time>
    </trkpt>
    <trkpt lat="48.484452" lon="2.660541">
      <ele>103.4</ele>
      <time>2014-09-14T07:46:49Z</time>
    </trkpt>
    <trkpt lat="48.48437" lon="2.660883">
      <ele>104.6</ele>
      <time>2014-09-14T07:46:54Z</time>
    </trkpt>
    <trkpt lat="48.484351" lon="2.66103">
      <ele>105.0</ele>
      <time>2014-09-14T07:46:57Z</time>
    </trkpt>
    <trkpt lat="48.48433" lon="2.661204">
      <ele>105.5</ele>
      <time>2014-09-14T07:47:01Z</time>
    </trkpt>
    <trkpt lat="48.484283" lon="2.661355">
      <ele>106.0</ele>
      <time>2014-09-14T07:47:04Z</time>
    </trkpt>
    <trkpt lat="48.484245" lon="2.661515">
      <ele>106.4</ele>
      <time>2014-09-14T07:47:07Z</time>
    </trkpt>
    <trkpt lat="48.484185" lon="2.661662">
      <ele>106.9</ele>
      <time>2014-09-14T07:47:10Z</time>
    </trkpt>
    <trkpt lat="48.484178" lon="2.661831">
      <ele>107.8</ele>
      <time>2014-09-14T07:47:15Z</time>
    </trkpt>
    <trkpt lat="48.484142" lon="2.661982">
      <ele>108.5</ele>
      <time>2014-09-14T07:47:19Z</time>
    </trkpt>
    <trkpt lat="48.484088" lon="2.662107">
      <ele>109.0</ele>
      <time>2014-09-14T07:47:23Z</time>
    </trkpt>
    <trkpt lat="48.48406" lon="2.662257">
      <ele>109.7</ele>
      <time>2014-09-14T07:47:28Z</time>
    </trkpt>
    <trkpt lat="48.48402" lon="2.662402">
      <ele>110.3</ele>
      <time>2014-09-14T07:47:34Z</time>
    </trkpt>
    <trkpt lat="48.483988" lon="2.662534">
      <ele>110.9</ele>
      <time>2014-09-14T07:47:40Z</time>
    </trkpt>
    <trkpt lat="48.483953" lon="2.662669">
      <ele>111.5</ele>
      <time>2014-09-14T07:47:45Z</time>
    </trkpt>
    <trkpt lat="48.483945" lon="2.662819">
      <ele>112.2</ele>
      <time>2014-09-14T07:47:54Z</time>
    </trkpt>
    <trkpt lat="48.483865" lon="2.663125">
      <ele>113.7</ele>
      <time>2014-09-14T07:48:02Z</time>
    </trkpt>
    <trkpt lat="48.483837" lon="2.663257">
      <ele>114.4</ele>
      <time>2014-09-14T07:48:04Z</time>
    </trkpt>
    <trkpt lat="48.483799" lon="2.663421">
      <ele>114.7</ele>
      <time>2014-09-14T07:48:07Z</time>
    </trkpt>
    <trkpt lat="48.483766" lon="2.663552">
      <ele>114.6</ele>
      <time>2014-09-14T07:48:10Z</time>
    </trkpt>
    <trkpt lat="48.483725" lon="2.66368">
      <ele>114.4</ele>
      <time>2014-09-14T07:48:12Z</time>
    </trkpt>
    <trkpt lat="48.483684" lon="2.663861">
      <ele>114.2</ele>
      <time>2014-09-14T07:48:15Z</time>
    </trkpt>
    <trkpt lat="48.483653" lon="2.66399">
      <ele>114.0</ele>
      <time>2014-09-14T07:48:17Z</time>
    </trkpt>
    <trkpt lat="48.483611" lon="2.664139">
      <ele>113.7</ele>
      <time>2014-09-14T07:48:20Z</time>
    </trkpt>
    <trkpt lat="48.483573" lon="2.664307">
      <ele>113.2</ele>
      <time>2014-09-14T07:48:23Z</time>
    </trkpt>
    <trkpt lat="48.483529" lon="2.66444">
      <ele>112.7</ele>
      <time>2014-09-14T07:48:25Z</time>
    </trkpt>
    <trkpt lat="48.483499" lon="2.66457">
      <ele>112.3</ele>
      <time>2014-09-14T07:48:27Z</time>
    </trkpt>
    <trkpt lat="48.483459" lon="2.664749">
      <ele>111.6</ele>
      <time>2014-09-14T07:48:30Z</time>
    </trkpt>
    <trkpt lat="48.483426" lon="2.664893">
      <ele>111.2</ele>
      <time>2014-09-14T07:48:32Z</time>
    </trkpt>
    <trkpt lat="48.483366" lon="2.665057">
      <ele>110.9</ele>
      <time>2014-09-14T07:48:35Z</time>
    </trkpt>
    <trkpt lat="48.483259" lon="2.665075">
      <ele>110.9</ele>
      <time>2014-09-14T07:48:38Z</time>
    </trkpt>
    <trkpt lat="48.483145" lon="2.665111">
      <ele>110.9</ele>
      <time>2014-09-14T07:48:41Z</time>
    </trkpt>
    <trkpt lat="48.48305" lon="2.665087">
      <ele>110.9</ele>
      <time>2014-09-14T07:48:44Z</time>
    </trkpt>
    <trkpt lat="48.482947" lon="2.665051">
      <ele>111.0</ele>
      <time>2014-09-14T07:48:47Z</time>
    </trkpt>
    <trkpt lat="48.482839" lon="2.66501">
      <ele>111.0</ele>
      <time>2014-09-14T07:48:50Z</time>
    </trkpt>
    <trkpt lat="48.482821" lon="2.664873">
      <ele>111.1</ele>
      <time>2014-09-14T07:48:53Z</time>
    </trkpt>
    <trkpt lat="48.482773" lon="2.664751">
      <ele>111.1</ele>
      <time>2014-09-14T07:48:56Z</time>
    </trkpt>
    <trkpt lat="48.482687" lon="2.664477">
      <ele>110.9</ele>
      <time>2014-09-14T07:49:02Z</time>
    </trkpt>
    <trkpt lat="48.482629" lon="2.664301">
      <ele>110.7</ele>
      <time>2014-09-14T07:49:05Z</time>
    </trkpt>
    <trkpt lat="48.482591" lon="2.664141">
      <ele>110.4</ele>
      <time>2014-09-14T07:49:07Z</time>
    </trkpt>
    <trkpt lat="48.482553" lon="2.664004">
      <ele>109.9</ele>
      <time>2014-09-14T07:49:09Z</time>
    </trkpt>
    <trkpt lat="48.482517" lon="2.66381">
      <ele>109.3</ele>
      <time>2014-09-14T07:49:11Z</time>
    </trkpt>
    <trkpt lat="48.48246" lon="2.663617">
      <ele>108.3</ele>
      <time>2014-09-14T07:49:13Z</time>
    </trkpt>
    <trkpt lat="48.482408" lon="2.663452">
      <ele>107.4</ele>
      <time>2014-09-14T07:49:15Z</time>
    </trkpt>
    <trkpt lat="48.482361" lon="2.663243">
      <ele>106.4</ele>
      <time>2014-09-14T07:49:17Z</time>
    </trkpt>
    <trkpt lat="48.482309" lon="2.66302">
      <ele>105.2</ele>
      <time>2014-09-14T07:49:19Z</time>
    </trkpt>
    <trkpt lat="48.482255" lon="2.662788">
      <ele>104.1</ele>
      <time>2014-09-14T07:49:21Z</time>
    </trkpt>
    <trkpt lat="48.482198" lon="2.662606">
      <ele>103.1</ele>
      <time>2014-09-14T07:49:23Z</time>
    </trkpt>
    <trkpt lat="48.482163" lon="2.662391">
      <ele>102.4</ele>
      <time>2014-09-14T07:49:25Z</time>
    </trkpt>
    <trkpt lat="48.482125" lon="2.662193">
      <ele>101.9</ele>
      <time>2014-09-14T07:49:27Z</time>
    </trkpt>
    <trkpt lat="48.482069" lon="2.66202">
      <ele>101.3</ele>
      <time>2014-09-14T07:49:29Z</time>
    </trkpt>
    <trkpt lat="48.482028" lon="2.661895">
      <ele>100.9</ele>
      <time>2014-09-14T07:49:30Z</time>
    </trkpt>
    <trkpt lat="48.481956" lon="2.661692">
      <ele>100.1</ele>
      <time>2014-09-14T07:49:32Z</time>
    </trkpt>
    <trkpt lat="48.481889" lon="2.661489">
      <ele>99.1</ele>
      <time>2014-09-14T07:49:34Z</time>
    </trkpt>
    <trkpt lat="48.481818" lon="2.661291">
      <ele>98.1</ele>
      <time>2014-09-14T07:49:36Z</time>
    </trkpt>
    <trkpt lat="48.481741" lon="2.661074">
      <ele>97.0</ele>
      <time>2014-09-14T07:49:38Z</time>
    </trkpt>
    <trkpt lat="48.481683" lon="2.660883">
      <ele>96.2</ele>
      <time>2014-09-14T07:49:40Z</time>
    </trkpt>
    <trkpt lat="48.481624" lon="2.66069">
      <ele>95.8</ele>
      <time>2014-09-14T07:49:42Z</time>
    </trkpt>
    <trkpt lat="48.48154" lon="2.660523">
      <ele>95.6</ele>
      <time>2014-09-14T07:49:44Z</time>
    </trkpt>
    <trkpt lat="48.481465" lon="2.660306">
      <ele>95.2</ele>
      <time>2014-09-14T07:49:46Z</time>
    </trkpt>
    <trkpt lat="48.481392" lon="2.660109">
      <ele>94.8</ele>
      <time>2014-09-14T07:49:48Z</time>
    </trkpt>
    <trkpt lat="48.481344" lon="2.659869">
      <ele>94.6</ele>
      <time>2014-09-14T07:49:50Z</time>
    </trkpt>
    <trkpt lat="48.481285" lon="2.659707">
      <ele>94.4</ele>
      <time>2014-09-14T07:49:52Z</time>
    </trkpt>
    <trkpt lat="48.481241" lon="2.659531">
      <ele>94.2</ele>
      <time>2014-09-14T07:49:54Z</time>
    </trkpt>
    <trkpt lat="48.481201" lon="2.65938">
      <ele>94.0</ele>
      <time>2014-09-14T07:49:56Z</time>
    </trkpt>
    <trkpt lat="48.481081" lon="2.659083">
      <ele>93.7</ele>
      <time>2014-09-14T07:50:00Z</time>
    </trkpt>
    <trkpt lat="48.481034" lon="2.658963">
      <ele>93.6</ele>
      <time>2014-09-14T07:50:02Z</time>
    </trkpt>
    <trkpt lat="48.480974" lon="2.658803">
      <ele>93.5</ele>
      <time>2014-09-14T07:50:04Z</time>
    </trkpt>
    <trkpt lat="48.480905" lon="2.658678">
      <ele>93.3</ele>
      <time>2014-09-14T07:50:06Z</time>
    </trkpt>
    <trkpt lat="48.480847" lon="2.658552">
      <ele>93.1</ele>
      <time>2014-09-14T07:50:08Z</time>
    </trkpt>
    <trkpt lat="48.480779" lon="2.658353">
      <ele>93.0</ele>
      <time>2014-09-14T07:50:10Z</time>
    </trkpt>
    <trkpt lat="48.480721" lon="2.658197">
      <ele>93.2</ele>
      <time>2014-09-14T07:50:12Z</time>
    </trkpt>
    <trkpt lat="48.480671" lon="2.658046">
      <ele>93.3</ele>
      <time>2014-09-14T07:50:14Z</time>
    </trkpt>
    <trkpt lat="48.48063" lon="2.657897">
      <ele>93.5</ele>
      <time>2014-09-14T07:50:16Z</time>
    </trkpt>
    <trkpt lat="48.480565" lon="2.657744">
      <ele>93.7</ele>
      <time>2014-09-14T07:50:18Z</time>
    </trkpt>
    <trkpt lat="48.480523" lon="2.657562">
      <ele>93.9</ele>
      <time>2014-09-14T07:50:20Z</time>
    </trkpt>
    <trkpt lat="48.480474" lon="2.65738">
      <ele>93.7</ele>
      <time>2014-09-14T07:50:22Z</time>
    </trkpt>
    <trkpt lat="48.48043" lon="2.657234">
      <ele>93.4</ele>
      <time>2014-09-14T07:50:24Z</time>
    </trkpt>
    <trkpt lat="48.480375" lon="2.657074">
      <ele>93.0</ele>
      <time>2014-09-14T07:50:26Z</time>
    </trkpt>
    <trkpt lat="48.480326" lon="2.656937">
      <ele>92.6</ele>
      <time>2014-09-14T07:50:28Z</time>
    </trkpt>
    <trkpt lat="48.480286" lon="2.656724">
      <ele>92.1</ele>
      <time>2014-09-14T07:50:30Z</time>
    </trkpt>
    <trkpt lat="48.480211" lon="2.656572">
      <ele>91.8</ele>
      <time>2014-09-14T07:50:32Z</time>
    </trkpt>
    <trkpt lat="48.480163" lon="2.656435">
      <ele>91.5</ele>
      <time>2014-09-14T07:50:34Z</time>
    </trkpt>
    <trkpt lat="48.480124" lon="2.656295">
      <ele>91.2</ele>
      <time>2014-09-14T07:50:36Z</time>
    </trkpt>
    <trkpt lat="48.480069" lon="2.656142">
      <ele>90.8</ele>
      <time>2014-09-14T07:50:38Z</time>
    </trkpt>
    <trkpt lat="48.480016" lon="2.656026">
      <ele>90.5</ele>
      <time>2014-09-14T07:50:40Z</time>
    </trkpt>
    <trkpt lat="48.479963" lon="2.655882">
      <ele>90.1</ele>
      <time>2014-09-14T07:50:42Z</time>
    </trkpt>
    <trkpt lat="48.479901" lon="2.655764">
      <ele>90.1</ele>
      <time>2014-09-14T07:50:44Z</time>
    </trkpt>
    <trkpt lat="48.479856" lon="2.655569">
      <ele>90.3</ele>
      <time>2014-09-14T07:50:47Z</time>
    </trkpt>
    <trkpt lat="48.479794" lon="2.655444">
      <ele>90.5</ele>
      <time>2014-09-14T07:50:51Z</time>
    </trkpt>
    <trkpt lat="48.479781" lon="2.6553">
      <ele>90.6</ele>
      <time>2014-09-14T07:50:56Z</time>
    </trkpt>
    <trkpt lat="48.47974" lon="2.655163">
      <ele>90.8</ele>
      <time>2014-09-14T07:51:00Z</time>
    </trkpt>
    <trkpt lat="48.479609" lon="2.654949">
      <ele>91.0</ele>
      <time>2014-09-14T07:51:05Z</time>
    </trkpt>
    <trkpt lat="48.479515" lon="2.654881">
      <ele>91.0</ele>
      <time>2014-09-14T07:51:08Z</time>
    </trkpt>
    <trkpt lat="48.479436" lon="2.654732">
      <ele>91.1</ele>
      <time>2014-09-14T07:51:11Z</time>
    </trkpt>
    <trkpt lat="48.479404" lon="2.654569">
      <ele>91.2</ele>
      <time>2014-09-14T07:51:14Z</time>
    </trkpt>
    <trkpt lat="48.479395" lon="2.654422">
      <ele>91.3</ele>
      <time>2014-09-14T07:51:16Z</time>
    </trkpt>
    <trkpt lat="48.479329" lon="2.654255">
      <ele>91.5</ele>
      <time>2014-09-14T07:51:19Z</time>
    </trkpt>
    <trkpt lat="48.479274" lon="2.654148">
      <ele>91.7</ele>
      <time>2014-09-14T07:51:21Z</time>
    </trkpt>
    <trkpt lat="48.479226" lon="2.653974">
      <ele>91.6</ele>
      <time>2014-09-14T07:51:24Z</time>
    </trkpt>
    <trkpt lat="48.479163" lon="2.65382">
      <ele>91.6</ele>
      <time>2014-09-14T07:51:27Z</time>
    </trkpt>
    <trkpt lat="48.47911" lon="2.653646">
      <ele>91.5</ele>
      <time>2014-09-14T07:51:30Z</time>
    </trkpt>
    <trkpt lat="48.479078" lon="2.653495">
      <ele>91.5</ele>
      <time>2014-09-14T07:51:32Z</time>
    </trkpt>
    <trkpt lat="48.479066" lon="2.653348">
      <ele>91.4</ele>
      <time>2014-09-14T07:51:34Z</time>
    </trkpt>
    <trkpt lat="48.47902" lon="2.653197">
      <ele>91.3</ele>
      <time>2014-09-14T07:51:37Z</time>
    </trkpt>
    <trkpt lat="48.47892" lon="2.65317">
      <ele>91.6</ele>
      <time>2014-09-14T07:51:39Z</time>
    </trkpt>
    <trkpt lat="48.478887" lon="2.653022">
      <ele>91.4</ele>
      <time>2014-09-14T07:51:42Z</time>
    </trkpt>
    <trkpt lat="48.47885" lon="2.652897">
      <ele>91.2</ele>
      <time>2014-09-14T07:51:45Z</time>
    </trkpt>
    <trkpt lat="48.47878" lon="2.652805">
      <ele>91.2</ele>
      <time>2014-09-14T07:51:47Z</time>
    </trkpt>
    <trkpt lat="48.478687" lon="2.652697">
      <ele>91.1</ele>
      <time>2014-09-14T07:51:50Z</time>
    </trkpt>
    <trkpt lat="48.478578" lon="2.652742">
      <ele>91.4</ele>
      <time>2014-09-14T07:51:57Z</time>
    </trkpt>
    <trkpt lat="48.478469" lon="2.652785">
      <ele>91.8</ele>
      <time>2014-09-14T07:52:00Z</time>
    </trkpt>
    <trkpt lat="48.478279" lon="2.652859">
      <ele>92.3</ele>
      <time>2014-09-14T07:52:04Z</time>
    </trkpt>
    <trkpt lat="48.478183" lon="2.65291">
      <ele>92.5</ele>
      <time>2014-09-14T07:52:07Z</time>
    </trkpt>
    <trkpt lat="48.478091" lon="2.652988">
      <ele>92.7</ele>
      <time>2014-09-14T07:52:09Z</time>
    </trkpt>
    <trkpt lat="48.477979" lon="2.653071">
      <ele>92.9</ele>
      <time>2014-09-14T07:52:11Z</time>
    </trkpt>
    <trkpt lat="48.477885" lon="2.653147">
      <ele>93.0</ele>
      <time>2014-09-14T07:52:13Z</time>
    </trkpt>
    <trkpt lat="48.477785" lon="2.653209">
      <ele>93.1</ele>
      <time>2014-09-14T07:52:15Z</time>
    </trkpt>
    <trkpt lat="48.477703" lon="2.653275">
      <ele>93.1</ele>
      <time>2014-09-14T07:52:17Z</time>
    </trkpt>
    <trkpt lat="48.477584" lon="2.653387">
      <ele>93.0</ele>
      <time>2014-09-14T07:52:20Z</time>
    </trkpt>
    <trkpt lat="48.477469" lon="2.653487">
      <ele>92.7</ele>
      <time>2014-09-14T07:52:23Z</time>
    </trkpt>
    <trkpt lat="48.477361" lon="2.653578">
      <ele>92.2</ele>
      <time>2014-09-14T07:52:25Z</time>
    </trkpt>
    <trkpt lat="48.477272" lon="2.653653">
      <ele>91.8</ele>
      <time>2014-09-14T07:52:27Z</time>
    </trkpt>
    <trkpt lat="48.477167" lon="2.653722">
      <ele>91.5</ele>
      <time>2014-09-14T07:52:29Z</time>
    </trkpt>
    <trkpt lat="48.477086" lon="2.653809">
      <ele>91.3</ele>
      <time>2014-09-14T07:52:31Z</time>
    </trkpt>
    <trkpt lat="48.476996" lon="2.653874">
      <ele>91.1</ele>
      <time>2014-09-14T07:52:33Z</time>
    </trkpt>
    <trkpt lat="48.476901" lon="2.653943">
      <ele>91.0</ele>
      <time>2014-09-14T07:52:35Z</time>
    </trkpt>
    <trkpt lat="48.476809" lon="2.654027">
      <ele>90.9</ele>
      <time>2014-09-14T07:52:37Z</time>
    </trkpt>
    <trkpt lat="48.476712" lon="2.654083">
      <ele>90.9</ele>
      <time>2014-09-14T07:52:38Z</time>
    </trkpt>
    <trkpt lat="48.476602" lon="2.654169">
      <ele>90.8</ele>
      <time>2014-09-14T07:52:40Z</time>
    </trkpt>
    <trkpt lat="48.476482" lon="2.654286">
      <ele>90.7</ele>
      <time>2014-09-14T07:52:43Z</time>
    </trkpt>
    <trkpt lat="48.476381" lon="2.654374">
      <ele>90.6</ele>
      <time>2014-09-14T07:52:45Z</time>
    </trkpt>
    <trkpt lat="48.476301" lon="2.654457">
      <ele>90.6</ele>
      <time>2014-09-14T07:52:47Z</time>
    </trkpt>
    <trkpt lat="48.47618" lon="2.654576">
      <ele>90.6</ele>
      <time>2014-09-14T07:52:50Z</time>
    </trkpt>
    <trkpt lat="48.476055" lon="2.654665">
      <ele>90.6</ele>
      <time>2014-09-14T07:52:53Z</time>
    </trkpt>
    <trkpt lat="48.475935" lon="2.654758">
      <ele>90.6</ele>
      <time>2014-09-14T07:52:56Z</time>
    </trkpt>
    <trkpt lat="48.475854" lon="2.654832">
      <ele>90.6</ele>
      <time>2014-09-14T07:52:58Z</time>
    </trkpt>
    <trkpt lat="48.475771" lon="2.6549">
      <ele>90.6</ele>
      <time>2014-09-14T07:53:00Z</time>
    </trkpt>
    <trkpt lat="48.47568" lon="2.654975">
      <ele>90.6</ele>
      <time>2014-09-14T07:53:02Z</time>
    </trkpt>
    <trkpt lat="48.475499" lon="2.655161">
      <ele>90.5</ele>
      <time>2014-09-14T07:53:06Z</time>
    </trkpt>
    <trkpt lat="48.475392" lon="2.655248">
      <ele>90.4</ele>
      <time>2014-09-14T07:53:08Z</time>
    </trkpt>
    <trkpt lat="48.475295" lon="2.655345">
      <ele>90.4</ele>
      <time>2014-09-14T07:53:10Z</time>
    </trkpt>
    <trkpt lat="48.475217" lon="2.655422">
      <ele>90.4</ele>
      <time>2014-09-14T07:53:12Z</time>
    </trkpt>
    <trkpt lat="48.47512" lon="2.655499">
      <ele>90.4</ele>
      <time>2014-09-14T07:53:14Z</time>
    </trkpt>
    <trkpt lat="48.475028" lon="2.655558">
      <ele>90.4</ele>
      <time>2014-09-14T07:53:16Z</time>
    </trkpt>
    <trkpt lat="48.474925" lon="2.655643">
      <ele>90.4</ele>
      <time>2014-09-14T07:53:18Z</time>
    </trkpt>
    <trkpt lat="48.47483" lon="2.655726">
      <ele>90.5</ele>
      <time>2014-09-14T07:53:20Z</time>
    </trkpt>
    <trkpt lat="48.47474" lon="2.655817">
      <ele>90.6</ele>
      <time>2014-09-14T07:53:22Z</time>
    </trkpt>
    <trkpt lat="48.474645" lon="2.655896">
      <ele>90.5</ele>
      <time>2014-09-14T07:53:24Z</time>
    </trkpt>
    <trkpt lat="48.474505" lon="2.656001">
      <ele>90.3</ele>
      <time>2014-09-14T07:53:26Z</time>
    </trkpt>
    <trkpt lat="48.474398" lon="2.656097">
      <ele>90.0</ele>
      <time>2014-09-14T07:53:28Z</time>
    </trkpt>
    <trkpt lat="48.474321" lon="2.656179">
      <ele>89.8</ele>
      <time>2014-09-14T07:53:30Z</time>
    </trkpt>
    <trkpt lat="48.474229" lon="2.656296">
      <ele>89.6</ele>
      <time>2014-09-14T07:53:33Z</time>
    </trkpt>
    <trkpt lat="48.474124" lon="2.656394">
      <ele>89.0</ele>
      <time>2014-09-14T07:53:36Z</time>
    </trkpt>
    <trkpt lat="48.474023" lon="2.656453">
      <ele>88.3</ele>
      <time>2014-09-14T07:53:38Z</time>
    </trkpt>
    <trkpt lat="48.473917" lon="2.656566">
      <ele>87.6</ele>
      <time>2014-09-14T07:53:40Z</time>
    </trkpt>
    <trkpt lat="48.473814" lon="2.656641">
      <ele>86.9</ele>
      <time>2014-09-14T07:53:42Z</time>
    </trkpt>
    <trkpt lat="48.473683" lon="2.656732">
      <ele>86.1</ele>
      <time>2014-09-14T07:53:44Z</time>
    </trkpt>
    <trkpt lat="48.473547" lon="2.656825">
      <ele>85.3</ele>
      <time>2014-09-14T07:53:46Z</time>
    </trkpt>
    <trkpt lat="48.473456" lon="2.656885">
      <ele>84.9</ele>
      <time>2014-09-14T07:53:48Z</time>
    </trkpt>
    <trkpt lat="48.473356" lon="2.65697">
      <ele>84.5</ele>
      <time>2014-09-14T07:53:50Z</time>
    </trkpt>
    <trkpt lat="48.473267" lon="2.657042">
      <ele>84.3</ele>
      <time>2014-09-14T07:53:52Z</time>
    </trkpt>
    <trkpt lat="48.473141" lon="2.657128">
      <ele>84.1</ele>
      <time>2014-09-14T07:53:54Z</time>
    </trkpt>
    <trkpt lat="48.473049" lon="2.657211">
      <ele>84.0</ele>
      <time>2014-09-14T07:53:56Z</time>
    </trkpt>
    <trkpt lat="48.472965" lon="2.657278">
      <ele>83.8</ele>
      <time>2014-09-14T07:53:58Z</time>
    </trkpt>
    <trkpt lat="48.472861" lon="2.657382">
      <ele>83.7</ele>
      <time>2014-09-14T07:54:00Z</time>
    </trkpt>
    <trkpt lat="48.472766" lon="2.65746">
      <ele>83.6</ele>
      <time>2014-09-14T07:54:02Z</time>
    </trkpt>
    <trkpt lat="48.47266" lon="2.657542">
      <ele>83.5</ele>
      <time>2014-09-14T07:54:05Z</time>
    </trkpt>
    <trkpt lat="48.472435" lon="2.657767">
      <ele>83.2</ele>
      <time>2014-09-14T07:54:11Z</time>
    </trkpt>
    <trkpt lat="48.472333" lon="2.657829">
      <ele>83.1</ele>
      <time>2014-09-14T07:54:13Z</time>
    </trkpt>
    <trkpt lat="48.472232" lon="2.657911">
      <ele>83.0</ele>
      <time>2014-09-14T07:54:15Z</time>
    </trkpt>
    <trkpt lat="48.47214" lon="2.657972">
      <ele>82.9</ele>
      <time>2014-09-14T07:54:17Z</time>
    </trkpt>
    <trkpt lat="48.47202" lon="2.658111">
      <ele>82.7</ele>
      <time>2014-09-14T07:54:19Z</time>
    </trkpt>
    <trkpt lat="48.471911" lon="2.65819">
      <ele>82.5</ele>
      <time>2014-09-14T07:54:21Z</time>
    </trkpt>
    <trkpt lat="48.471812" lon="2.658272">
      <ele>82.3</ele>
      <time>2014-09-14T07:54:23Z</time>
    </trkpt>
    <trkpt lat="48.471708" lon="2.658341">
      <ele>82.1</ele>
      <time>2014-09-14T07:54:25Z</time>
    </trkpt>
    <trkpt lat="48.471612" lon="2.658428">
      <ele>82.3</ele>
      <time>2014-09-14T07:54:27Z</time>
    </trkpt>
    <trkpt lat="48.471517" lon="2.658521">
      <ele>82.8</ele>
      <time>2014-09-14T07:54:30Z</time>
    </trkpt>
    <trkpt lat="48.471428" lon="2.658579">
      <ele>83.4</ele>
      <time>2014-09-14T07:54:33Z</time>
    </trkpt>
    <trkpt lat="48.471333" lon="2.658641">
      <ele>84.1</ele>
      <time>2014-09-14T07:54:35Z</time>
    </trkpt>
    <trkpt lat="48.47124" lon="2.658713">
      <ele>84.9</ele>
      <time>2014-09-14T07:54:37Z</time>
    </trkpt>
    <trkpt lat="48.471094" lon="2.658762">
      <ele>86.0</ele>
      <time>2014-09-14T07:54:39Z</time>
    </trkpt>
    <trkpt lat="48.470936" lon="2.658796">
      <ele>87.2</ele>
      <time>2014-09-14T07:54:41Z</time>
    </trkpt>
    <trkpt lat="48.470814" lon="2.658787">
      <ele>87.9</ele>
      <time>2014-09-14T07:54:43Z</time>
    </trkpt>
    <trkpt lat="48.47069" lon="2.658791">
      <ele>88.3</ele>
      <time>2014-09-14T07:54:45Z</time>
    </trkpt>
    <trkpt lat="48.470582" lon="2.658798">
      <ele>88.7</ele>
      <time>2014-09-14T07:54:47Z</time>
    </trkpt>
    <trkpt lat="48.470452" lon="2.658792">
      <ele>89.1</ele>
      <time>2014-09-14T07:54:49Z</time>
    </trkpt>
    <trkpt lat="48.47034" lon="2.658795">
      <ele>89.5</ele>
      <time>2014-09-14T07:54:51Z</time>
    </trkpt>
    <trkpt lat="48.470229" lon="2.658804">
      <ele>89.9</ele>
      <time>2014-09-14T07:54:53Z</time>
    </trkpt>
    <trkpt lat="48.470129" lon="2.658811">
      <ele>90.3</ele>
      <time>2014-09-14T07:54:55Z</time>
    </trkpt>
    <trkpt lat="48.470019" lon="2.658788">
      <ele>90.6</ele>
      <time>2014-09-14T07:54:57Z</time>
    </trkpt>
    <trkpt lat="48.469918" lon="2.658764">
      <ele>90.8</ele>
      <time>2014-09-14T07:54:59Z</time>
    </trkpt>
    <trkpt lat="48.46979" lon="2.658746">
      <ele>91.2</ele>
      <time>2014-09-14T07:55:01Z</time>
    </trkpt>
    <trkpt lat="48.469674" lon="2.658739">
      <ele>91.6</ele>
      <time>2014-09-14T07:55:03Z</time>
    </trkpt>
    <trkpt lat="48.46956" lon="2.658724">
      <ele>92.0</ele>
      <time>2014-09-14T07:55:05Z</time>
    </trkpt>
    <trkpt lat="48.469437" lon="2.6587">
      <ele>92.4</ele>
      <time>2014-09-14T07:55:07Z</time>
    </trkpt>
    <trkpt lat="48.469222" lon="2.658681">
      <ele>93.2</ele>
      <time>2014-09-14T07:55:11Z</time>
    </trkpt>
    <trkpt lat="48.469115" lon="2.658685">
      <ele>93.5</ele>
      <time>2014-09-14T07:55:13Z</time>
    </trkpt>
    <trkpt lat="48.469023" lon="2.658665">
      <ele>93.6</ele>
      <time>2014-09-14T07:55:15Z</time>
    </trkpt>
    <trkpt lat="48.468914" lon="2.658656">
      <ele>93.7</ele>
      <time>2014-09-14T07:55:17Z</time>
    </trkpt>
    <trkpt lat="48.468821" lon="2.658643">
      <ele>93.8</ele>
      <time>2014-09-14T07:55:19Z</time>
    </trkpt>
    <trkpt lat="48.468686" lon="2.658597">
      <ele>93.9</ele>
      <time>2014-09-14T07:55:22Z</time>
    </trkpt>
    <trkpt lat="48.468594" lon="2.658598">
      <ele>94.0</ele>
      <time>2014-09-14T07:55:24Z</time>
    </trkpt>
    <trkpt lat="48.468498" lon="2.658607">
      <ele>94.1</ele>
      <time>2014-09-14T07:55:26Z</time>
    </trkpt>
    <trkpt lat="48.468383" lon="2.65858">
      <ele>94.2</ele>
      <time>2014-09-14T07:55:28Z</time>
    </trkpt>
    <trkpt lat="48.468286" lon="2.658551">
      <ele>94.4</ele>
      <time>2014-09-14T07:55:30Z</time>
    </trkpt>
    <trkpt lat="48.468175" lon="2.65853">
      <ele>94.6</ele>
      <time>2014-09-14T07:55:32Z</time>
    </trkpt>
    <trkpt lat="48.46806" lon="2.658516">
      <ele>94.8</ele>
      <time>2014-09-14T07:55:34Z</time>
    </trkpt>
    <trkpt lat="48.467953" lon="2.658503">
      <ele>95.0</ele>
      <time>2014-09-14T07:55:36Z</time>
    </trkpt>
    <trkpt lat="48.467852" lon="2.658508">
      <ele>95.2</ele>
      <time>2014-09-14T07:55:38Z</time>
    </trkpt>
    <trkpt lat="48.467732" lon="2.65851">
      <ele>95.5</ele>
      <time>2014-09-14T07:55:40Z</time>
    </trkpt>
    <trkpt lat="48.467617" lon="2.658536">
      <ele>95.8</ele>
      <time>2014-09-14T07:55:42Z</time>
    </trkpt>
    <trkpt lat="48.467496" lon="2.658494">
      <ele>96.0</ele>
      <time>2014-09-14T07:55:45Z</time>
    </trkpt>
    <trkpt lat="48.467399" lon="2.658476">
      <ele>96.2</ele>
      <time>2014-09-14T07:55:47Z</time>
    </trkpt>
    <trkpt lat="48.467268" lon="2.658466">
      <ele>96.5</ele>
      <time>2014-09-14T07:55:50Z</time>
    </trkpt>
    <trkpt lat="48.467161" lon="2.658451">
      <ele>96.8</ele>
      <time>2014-09-14T07:55:52Z</time>
    </trkpt>
    <trkpt lat="48.467071" lon="2.658435">
      <ele>97.0</ele>
      <time>2014-09-14T07:55:54Z</time>
    </trkpt>
    <trkpt lat="48.466949" lon="2.658428">
      <ele>97.2</ele>
      <time>2014-09-14T07:55:56Z</time>
    </trkpt>
    <trkpt lat="48.466809" lon="2.658371">
      <ele>97.6</ele>
      <time>2014-09-14T07:55:59Z</time>
    </trkpt>
    <trkpt lat="48.466675" lon="2.658378">
      <ele>97.9</ele>
      <time>2014-09-14T07:56:01Z</time>
    </trkpt>
    <trkpt lat="48.466557" lon="2.658378">
      <ele>98.0</ele>
      <time>2014-09-14T07:56:03Z</time>
    </trkpt>
    <trkpt lat="48.466422" lon="2.658358">
      <ele>98.0</ele>
      <time>2014-09-14T07:56:06Z</time>
    </trkpt>
    <trkpt lat="48.466298" lon="2.658374">
      <ele>98.0</ele>
      <time>2014-09-14T07:56:08Z</time>
    </trkpt>
    <trkpt lat="48.466059" lon="2.658371">
      <ele>98.0</ele>
      <time>2014-09-14T07:56:14Z</time>
    </trkpt>
    <trkpt lat="48.465975" lon="2.658418">
      <ele>98.0</ele>
      <time>2014-09-14T07:56:16Z</time>
    </trkpt>
    <trkpt lat="48.465833" lon="2.658473">
      <ele>98.0</ele>
      <time>2014-09-14T07:56:19Z</time>
    </trkpt>
    <trkpt lat="48.465688" lon="2.658499">
      <ele>98.3</ele>
      <time>2014-09-14T07:56:22Z</time>
    </trkpt>
    <trkpt lat="48.465581" lon="2.658468">
      <ele>98.6</ele>
      <time>2014-09-14T07:56:24Z</time>
    </trkpt>
    <trkpt lat="48.465483" lon="2.658399">
      <ele>98.8</ele>
      <time>2014-09-14T07:56:27Z</time>
    </trkpt>
    <trkpt lat="48.465387" lon="2.658425">
      <ele>99.0</ele>
      <time>2014-09-14T07:56:29Z</time>
    </trkpt>
    <trkpt lat="48.465254" lon="2.658472">
      <ele>99.3</ele>
      <time>2014-09-14T07:56:32Z</time>
    </trkpt>
    <trkpt lat="48.465121" lon="2.658481">
      <ele>99.6</ele>
      <time>2014-09-14T07:56:35Z</time>
    </trkpt>
    <trkpt lat="48.465024" lon="2.658498">
      <ele>99.8</ele>
      <time>2014-09-14T07:56:37Z</time>
    </trkpt>
    <trkpt lat="48.464923" lon="2.658514">
      <ele>99.9</ele>
      <time>2014-09-14T07:56:39Z</time>
    </trkpt>
    <trkpt lat="48.464819" lon="2.658498">
      <ele>100.1</ele>
      <time>2014-09-14T07:56:41Z</time>
    </trkpt>
    <trkpt lat="48.464694" lon="2.65845">
      <ele>100.3</ele>
      <time>2014-09-14T07:56:44Z</time>
    </trkpt>
    <trkpt lat="48.464591" lon="2.658458">
      <ele>100.4</ele>
      <time>2014-09-14T07:56:46Z</time>
    </trkpt>
    <trkpt lat="48.464484" lon="2.658522">
      <ele>100.5</ele>
      <time>2014-09-14T07:56:49Z</time>
    </trkpt>
    <trkpt lat="48.464363" lon="2.658633">
      <ele>100.7</ele>
      <time>2014-09-14T07:56:52Z</time>
    </trkpt>
    <trkpt lat="48.464262" lon="2.658746">
      <ele>100.8</ele>
      <time>2014-09-14T07:56:55Z</time>
    </trkpt>
    <trkpt lat="48.464172" lon="2.658811">
      <ele>101.0</ele>
      <time>2014-09-14T07:56:57Z</time>
    </trkpt>
    <trkpt lat="48.46407" lon="2.658876">
      <ele>101.1</ele>
      <time>2014-09-14T07:56:59Z</time>
    </trkpt>
    <trkpt lat="48.463943" lon="2.658999">
      <ele>101.2</ele>
      <time>2014-09-14T07:57:01Z</time>
    </trkpt>
    <trkpt lat="48.463841" lon="2.659072">
      <ele>101.3</ele>
      <time>2014-09-14T07:57:03Z</time>
    </trkpt>
    <trkpt lat="48.463749" lon="2.659128">
      <ele>101.5</ele>
      <time>2014-09-14T07:57:05Z</time>
    </trkpt>
    <trkpt lat="48.463646" lon="2.65918">
      <ele>101.6</ele>
      <time>2014-09-14T07:57:07Z</time>
    </trkpt>
    <trkpt lat="48.463543" lon="2.659243">
      <ele>101.7</ele>
      <time>2014-09-14T07:57:10Z</time>
    </trkpt>
    <trkpt lat="48.463305" lon="2.659432">
      <ele>101.9</ele>
      <time>2014-09-14T07:57:16Z</time>
    </trkpt>
    <trkpt lat="48.463226" lon="2.659502">
      <ele>101.7</ele>
      <time>2014-09-14T07:57:18Z</time>
    </trkpt>
    <trkpt lat="48.46311" lon="2.659612">
      <ele>101.3</ele>
      <time>2014-09-14T07:57:21Z</time>
    </trkpt>
    <trkpt lat="48.463029" lon="2.659679">
      <ele>101.1</ele>
      <time>2014-09-14T07:57:23Z</time>
    </trkpt>
    <trkpt lat="48.462935" lon="2.659743">
      <ele>100.9</ele>
      <time>2014-09-14T07:57:25Z</time>
    </trkpt>
    <trkpt lat="48.462854" lon="2.659809">
      <ele>100.7</ele>
      <time>2014-09-14T07:57:27Z</time>
    </trkpt>
    <trkpt lat="48.462771" lon="2.659891">
      <ele>100.6</ele>
      <time>2014-09-14T07:57:29Z</time>
    </trkpt>
    <trkpt lat="48.46269" lon="2.659976">
      <ele>100.4</ele>
      <time>2014-09-14T07:57:32Z</time>
    </trkpt>
    <trkpt lat="48.462594" lon="2.660025">
      <ele>100.2</ele>
      <time>2014-09-14T07:57:35Z</time>
    </trkpt>
    <trkpt lat="48.462484" lon="2.66011">
      <ele>99.9</ele>
      <time>2014-09-14T07:57:38Z</time>
    </trkpt>
    <trkpt lat="48.462404" lon="2.660179">
      <ele>99.9</ele>
      <time>2014-09-14T07:57:40Z</time>
    </trkpt>
    <trkpt lat="48.462319" lon="2.660268">
      <ele>100.0</ele>
      <time>2014-09-14T07:57:42Z</time>
    </trkpt>
    <trkpt lat="48.462225" lon="2.660337">
      <ele>100.1</ele>
      <time>2014-09-14T07:57:48Z</time>
    </trkpt>
    <trkpt lat="48.462123" lon="2.660348">
      <ele>100.2</ele>
      <time>2014-09-14T07:57:52Z</time>
    </trkpt>
    <trkpt lat="48.462016" lon="2.66037">
      <ele>100.4</ele>
      <time>2014-09-14T07:57:56Z</time>
    </trkpt>
    <trkpt lat="48.461924" lon="2.660414">
      <ele>100.5</ele>
      <time>2014-09-14T07:58:00Z</time>
    </trkpt>
    <trkpt lat="48.461831" lon="2.66046">
      <ele>100.7</ele>
      <time>2014-09-14T07:58:05Z</time>
    </trkpt>
    <trkpt lat="48.461734" lon="2.66047">
      <ele>100.9</ele>
      <time>2014-09-14T07:58:11Z</time>
    </trkpt>
    <trkpt lat="48.461532" lon="2.660476">
      <ele>101.9</ele>
      <time>2014-09-14T07:58:23Z</time>
    </trkpt>
    <trkpt lat="48.461428" lon="2.660454">
      <ele>102.6</ele>
      <time>2014-09-14T07:58:29Z</time>
    </trkpt>
    <trkpt lat="48.46134" lon="2.660397">
      <ele>103.2</ele>
      <time>2014-09-14T07:58:35Z</time>
    </trkpt>
    <trkpt lat="48.46125" lon="2.660374">
      <ele>103.8</ele>
      <time>2014-09-14T07:58:41Z</time>
    </trkpt>
    <trkpt lat="48.461154" lon="2.660407">
      <ele>104.4</ele>
      <time>2014-09-14T07:58:52Z</time>
    </trkpt>
    <trkpt lat="48.461003" lon="2.660463">
      <ele>105.3</ele>
      <time>2014-09-14T07:59:01Z</time>
    </trkpt>
    <trkpt lat="48.460912" lon="2.660515">
      <ele>105.9</ele>
      <time>2014-09-14T07:59:04Z</time>
    </trkpt>
    <trkpt lat="48.460837" lon="2.660593">
      <ele>106.3</ele>
      <time>2014-09-14T07:59:07Z</time>
    </trkpt>
    <trkpt lat="48.460763" lon="2.660691">
      <ele>105.9</ele>
      <time>2014-09-14T07:59:11Z</time>
    </trkpt>
    <trkpt lat="48.460641" lon="2.660966">
      <ele>105.5</ele>
      <time>2014-09-14T07:59:17Z</time>
    </trkpt>
    <trkpt lat="48.460555" lon="2.661047">
      <ele>105.3</ele>
      <time>2014-09-14T07:59:19Z</time>
    </trkpt>
    <trkpt lat="48.460424" lon="2.661119">
      <ele>104.7</ele>
      <time>2014-09-14T07:59:21Z</time>
    </trkpt>
    <trkpt lat="48.460315" lon="2.661205">
      <ele>104.2</ele>
      <time>2014-09-14T07:59:23Z</time>
    </trkpt>
    <trkpt lat="48.460229" lon="2.661248">
      <ele>103.7</ele>
      <time>2014-09-14T07:59:25Z</time>
    </trkpt>
    <trkpt lat="48.460143" lon="2.661342">
      <ele>103.2</ele>
      <time>2014-09-14T07:59:28Z</time>
    </trkpt>
    <trkpt lat="48.460032" lon="2.661398">
      <ele>102.5</ele>
      <time>2014-09-14T07:59:30Z</time>
    </trkpt>
    <trkpt lat="48.459907" lon="2.661419">
      <ele>102.1</ele>
      <time>2014-09-14T07:59:33Z</time>
    </trkpt>
    <trkpt lat="48.459809" lon="2.661407">
      <ele>101.9</ele>
      <time>2014-09-14T07:59:35Z</time>
    </trkpt>
    <trkpt lat="48.459691" lon="2.661362">
      <ele>101.6</ele>
      <time>2014-09-14T07:59:37Z</time>
    </trkpt>
    <trkpt lat="48.459563" lon="2.661325">
      <ele>101.2</ele>
      <time>2014-09-14T07:59:40Z</time>
    </trkpt>
    <trkpt lat="48.459476" lon="2.661292">
      <ele>101.0</ele>
      <time>2014-09-14T07:59:42Z</time>
    </trkpt>
    <trkpt lat="48.459388" lon="2.661204">
      <ele>100.6</ele>
      <time>2014-09-14T07:59:45Z</time>
    </trkpt>
    <trkpt lat="48.459297" lon="2.661149">
      <ele>100.2</ele>
      <time>2014-09-14T07:59:48Z</time>
    </trkpt>
    <trkpt lat="48.459201" lon="2.66108">
      <ele>99.7</ele>
      <time>2014-09-14T07:59:51Z</time>
    </trkpt>
    <trkpt lat="48.459112" lon="2.66101">
      <ele>99.7</ele>
      <time>2014-09-14T07:59:54Z</time>
    </trkpt>
    <trkpt lat="48.45902" lon="2.660927">
      <ele>99.9</ele>
      <time>2014-09-14T07:59:58Z</time>
    </trkpt>
    <trkpt lat="48.458937" lon="2.660853">
      <ele>100.1</ele>
      <time>2014-09-14T08:00:04Z</time>
    </trkpt>
    <trkpt lat="48.458827" lon="2.660791">
      <ele>100.7</ele>
      <time>2014-09-14T08:00:08Z</time>
    </trkpt>
    <trkpt lat="48.45873" lon="2.660734">
      <ele>101.3</ele>
      <time>2014-09-14T08:00:12Z</time>
    </trkpt>
    <trkpt lat="48.458578" lon="2.660592">
      <ele>102.3</ele>
      <time>2014-09-14T08:00:21Z</time>
    </trkpt>
    <trkpt lat="48.458516" lon="2.66047">
      <ele>102.9</ele>
      <time>2014-09-14T08:00:28Z</time>
    </trkpt>
    <trkpt lat="48.458483" lon="2.66034">
      <ele>103.4</ele>
      <time>2014-09-14T08:00:34Z</time>
    </trkpt>
    <trkpt lat="48.458449" lon="2.660209">
      <ele>103.8</ele>
      <time>2014-09-14T08:00:40Z</time>
    </trkpt>
    <trkpt lat="48.458463" lon="2.660064">
      <ele>104.1</ele>
      <time>2014-09-14T08:00:45Z</time>
    </trkpt>
    <trkpt lat="48.458426" lon="2.659921">
      <ele>105.1</ele>
      <time>2014-09-14T08:00:54Z</time>
    </trkpt>
    <trkpt lat="48.458415" lon="2.659765">
      <ele>106.3</ele>
      <time>2014-09-14T08:01:02Z</time>
    </trkpt>
    <trkpt lat="48.458414" lon="2.659627">
      <ele>107.4</ele>
      <time>2014-09-14T08:01:09Z</time>
    </trkpt>
    <trkpt lat="48.458386" lon="2.659487">
      <ele>108.8</ele>
      <time>2014-09-14T08:01:18Z</time>
    </trkpt>
    <trkpt lat="48.458305" lon="2.65923">
      <ele>111.7</ele>
      <time>2014-09-14T08:01:30Z</time>
    </trkpt>
    <trkpt lat="48.458254" lon="2.659104">
      <ele>113.4</ele>
      <time>2014-09-14T08:01:36Z</time>
    </trkpt>
    <trkpt lat="48.458212" lon="2.658977">
      <ele>115.2</ele>
      <time>2014-09-14T08:01:42Z</time>
    </trkpt>
    <trkpt lat="48.458164" lon="2.65884">
      <ele>117.1</ele>
      <time>2014-09-14T08:01:50Z</time>
    </trkpt>
    <trkpt lat="48.4581" lon="2.65871">
      <ele>119.0</ele>
      <time>2014-09-14T08:01:56Z</time>
    </trkpt>
    <trkpt lat="48.45803" lon="2.658609">
      <ele>120.5</ele>
      <time>2014-09-14T08:02:02Z</time>
    </trkpt>
    <trkpt lat="48.45796" lon="2.658495">
      <ele>122.1</ele>
      <time>2014-09-14T08:02:09Z</time>
    </trkpt>
    <trkpt lat="48.4579" lon="2.658388">
      <ele>123.5</ele>
      <time>2014-09-14T08:02:15Z</time>
    </trkpt>
    <trkpt lat="48.457846" lon="2.658265">
      <ele>124.7</ele>
      <time>2014-09-14T08:02:22Z</time>
    </trkpt>
    <trkpt lat="48.457686" lon="2.658122">
      <ele>126.1</ele>
      <time>2014-09-14T08:02:45Z</time>
    </trkpt>
    <trkpt lat="48.457597" lon="2.658063">
      <ele>126.7</ele>
      <time>2014-09-14T08:02:56Z</time>
    </trkpt>
    <trkpt lat="48.457534" lon="2.657958">
      <ele>127.3</ele>
      <time>2014-09-14T08:03:04Z</time>
    </trkpt>
    <trkpt lat="48.457481" lon="2.657841">
      <ele>127.8</ele>
      <time>2014-09-14T08:03:11Z</time>
    </trkpt>
    <trkpt lat="48.457439" lon="2.65771">
      <ele>128.4</ele>
      <time>2014-09-14T08:03:19Z</time>
    </trkpt>
    <trkpt lat="48.45752" lon="2.657597">
      <ele>128.6</ele>
      <time>2014-09-14T08:03:26Z</time>
    </trkpt>
    <trkpt lat="48.457712" lon="2.657512">
      <ele>128.9</ele>
      <time>2014-09-14T08:03:34Z</time>
    </trkpt>
    <trkpt lat="48.45782" lon="2.657482">
      <ele>129.1</ele>
      <time>2014-09-14T08:03:38Z</time>
    </trkpt>
    <trkpt lat="48.457925" lon="2.657459">
      <ele>129.1</ele>
      <time>2014-09-14T08:03:42Z</time>
    </trkpt>
    <trkpt lat="48.458034" lon="2.657437">
      <ele>129.2</ele>
      <time>2014-09-14T08:03:46Z</time>
    </trkpt>
    <trkpt lat="48.458137" lon="2.657412">
      <ele>129.3</ele>
      <time>2014-09-14T08:03:50Z</time>
    </trkpt>
    <trkpt lat="48.458247" lon="2.657393">
      <ele>129.4</ele>
      <time>2014-09-14T08:03:55Z</time>
    </trkpt>
    <trkpt lat="48.458332" lon="2.657337">
      <ele>129.6</ele>
      <time>2014-09-14T08:03:58Z</time>
    </trkpt>
    <trkpt lat="48.458424" lon="2.657251">
      <ele>128.9</ele>
      <time>2014-09-14T08:04:02Z</time>
    </trkpt>
    <trkpt lat="48.458501" lon="2.657131">
      <ele>128.6</ele>
      <time>2014-09-14T08:04:06Z</time>
    </trkpt>
    <trkpt lat="48.458565" lon="2.656988">
      <ele>128.6</ele>
      <time>2014-09-14T08:04:10Z</time>
    </trkpt>
    <trkpt lat="48.45862" lon="2.656873">
      <ele>128.8</ele>
      <time>2014-09-14T08:04:13Z</time>
    </trkpt>
    <trkpt lat="48.458696" lon="2.656741">
      <ele>128.9</ele>
      <time>2014-09-14T08:04:17Z</time>
    </trkpt>
    <trkpt lat="48.458755" lon="2.656612">
      <ele>129.1</ele>
      <time>2014-09-14T08:04:20Z</time>
    </trkpt>
    <trkpt lat="48.458822" lon="2.65648">
      <ele>129.1</ele>
      <time>2014-09-14T08:04:23Z</time>
    </trkpt>
    <trkpt lat="48.458885" lon="2.656379">
      <ele>129.1</ele>
      <time>2014-09-14T08:04:25Z</time>
    </trkpt>
    <trkpt lat="48.458955" lon="2.656242">
      <ele>129.2</ele>
      <time>2014-09-14T08:04:28Z</time>
    </trkpt>
    <trkpt lat="48.459128" lon="2.655948">
      <ele>129.6</ele>
      <time>2014-09-14T08:04:34Z</time>
    </trkpt>
    <trkpt lat="48.459169" lon="2.655814">
      <ele>130.0</ele>
      <time>2014-09-14T08:04:37Z</time>
    </trkpt>
    <trkpt lat="48.459238" lon="2.6557">
      <ele>129.2</ele>
      <time>2014-09-14T08:04:39Z</time>
    </trkpt>
    <trkpt lat="48.459297" lon="2.655584">
      <ele>128.6</ele>
      <time>2014-09-14T08:04:41Z</time>
    </trkpt>
    <trkpt lat="48.459343" lon="2.655421">
      <ele>128.4</ele>
      <time>2014-09-14T08:04:44Z</time>
    </trkpt>
    <trkpt lat="48.459397" lon="2.655244">
      <ele>128.3</ele>
      <time>2014-09-14T08:04:47Z</time>
    </trkpt>
    <trkpt lat="48.459449" lon="2.655058">
      <ele>128.4</ele>
      <time>2014-09-14T08:04:50Z</time>
    </trkpt>
    <trkpt lat="48.45949" lon="2.654889">
      <ele>128.1</ele>
      <time>2014-09-14T08:04:53Z</time>
    </trkpt>
    <trkpt lat="48.459551" lon="2.654758">
      <ele>127.5</ele>
      <time>2014-09-14T08:04:55Z</time>
    </trkpt>
    <trkpt lat="48.459606" lon="2.654566">
      <ele>127.0</ele>
      <time>2014-09-14T08:04:58Z</time>
    </trkpt>
    <trkpt lat="48.459612" lon="2.654354">
      <ele>127.1</ele>
      <time>2014-09-14T08:05:01Z</time>
    </trkpt>
    <trkpt lat="48.459638" lon="2.654183">
      <ele>127.0</ele>
      <time>2014-09-14T08:05:04Z</time>
    </trkpt>
    <trkpt lat="48.459669" lon="2.65403">
      <ele>126.3</ele>
      <time>2014-09-14T08:05:07Z</time>
    </trkpt>
    <trkpt lat="48.459585" lon="2.653928">
      <ele>126.6</ele>
      <time>2014-09-14T08:05:09Z</time>
    </trkpt>
    <trkpt lat="48.45952" lon="2.653772">
      <ele>126.7</ele>
      <time>2014-09-14T08:05:12Z</time>
    </trkpt>
    <trkpt lat="48.459453" lon="2.653669">
      <ele>127.0</ele>
      <time>2014-09-14T08:05:14Z</time>
    </trkpt>
    <trkpt lat="48.459372" lon="2.653583">
      <ele>127.5</ele>
      <time>2014-09-14T08:05:16Z</time>
    </trkpt>
    <trkpt lat="48.459268" lon="2.653499">
      <ele>128.4</ele>
      <time>2014-09-14T08:05:18Z</time>
    </trkpt>
    <trkpt lat="48.459136" lon="2.653432">
      <ele>129.3</ele>
      <time>2014-09-14T08:05:20Z</time>
    </trkpt>
    <trkpt lat="48.459025" lon="2.653403">
      <ele>129.5</ele>
      <time>2014-09-14T08:05:22Z</time>
    </trkpt>
    <trkpt lat="48.458918" lon="2.653403">
      <ele>129.7</ele>
      <time>2014-09-14T08:05:24Z</time>
    </trkpt>
    <trkpt lat="48.458799" lon="2.653399">
      <ele>130.0</ele>
      <time>2014-09-14T08:05:26Z</time>
    </trkpt>
    <trkpt lat="48.458681" lon="2.653417">
      <ele>130.2</ele>
      <time>2014-09-14T08:05:28Z</time>
    </trkpt>
    <trkpt lat="48.458568" lon="2.653433">
      <ele>130.5</ele>
      <time>2014-09-14T08:05:30Z</time>
    </trkpt>
    <trkpt lat="48.458375" lon="2.653446">
      <ele>130.9</ele>
      <time>2014-09-14T08:05:34Z</time>
    </trkpt>
    <trkpt lat="48.45827" lon="2.653435">
      <ele>131.0</ele>
      <time>2014-09-14T08:05:36Z</time>
    </trkpt>
    <trkpt lat="48.458166" lon="2.653417">
      <ele>131.0</ele>
      <time>2014-09-14T08:05:38Z</time>
    </trkpt>
    <trkpt lat="48.458049" lon="2.653356">
      <ele>131.0</ele>
      <time>2014-09-14T08:05:40Z</time>
    </trkpt>
    <trkpt lat="48.45793" lon="2.653299">
      <ele>131.0</ele>
      <time>2014-09-14T08:05:42Z</time>
    </trkpt>
    <trkpt lat="48.457811" lon="2.653194">
      <ele>130.9</ele>
      <time>2014-09-14T08:05:45Z</time>
    </trkpt>
    <trkpt lat="48.45772" lon="2.653079">
      <ele>131.0</ele>
      <time>2014-09-14T08:05:48Z</time>
    </trkpt>
    <trkpt lat="48.457658" lon="2.652926">
      <ele>131.1</ele>
      <time>2014-09-14T08:05:51Z</time>
    </trkpt>
    <trkpt lat="48.457599" lon="2.652799">
      <ele>131.3</ele>
      <time>2014-09-14T08:05:53Z</time>
    </trkpt>
    <trkpt lat="48.457574" lon="2.652664">
      <ele>131.5</ele>
      <time>2014-09-14T08:05:55Z</time>
    </trkpt>
    <trkpt lat="48.457633" lon="2.652542">
      <ele>131.3</ele>
      <time>2014-09-14T08:05:56Z</time>
    </trkpt>
    <trkpt lat="48.457644" lon="2.652403">
      <ele>131.3</ele>
      <time>2014-09-14T08:05:58Z</time>
    </trkpt>
    <trkpt lat="48.457685" lon="2.652266">
      <ele>131.2</ele>
      <time>2014-09-14T08:06:00Z</time>
    </trkpt>
    <trkpt lat="48.457746" lon="2.652074">
      <ele>131.1</ele>
      <time>2014-09-14T08:06:02Z</time>
    </trkpt>
    <trkpt lat="48.457816" lon="2.651917">
      <ele>131.0</ele>
      <time>2014-09-14T08:06:04Z</time>
    </trkpt>
    <trkpt lat="48.457894" lon="2.651776">
      <ele>130.9</ele>
      <time>2014-09-14T08:06:06Z</time>
    </trkpt>
    <trkpt lat="48.457984" lon="2.651642">
      <ele>130.9</ele>
      <time>2014-09-14T08:06:08Z</time>
    </trkpt>
    <trkpt lat="48.458084" lon="2.651556">
      <ele>130.7</ele>
      <time>2014-09-14T08:06:10Z</time>
    </trkpt>
    <trkpt lat="48.45819" lon="2.651486">
      <ele>130.5</ele>
      <time>2014-09-14T08:06:12Z</time>
    </trkpt>
    <trkpt lat="48.458297" lon="2.651422">
      <ele>130.4</ele>
      <time>2014-09-14T08:06:14Z</time>
    </trkpt>
    <trkpt lat="48.458396" lon="2.651358">
      <ele>129.7</ele>
      <time>2014-09-14T08:06:16Z</time>
    </trkpt>
    <trkpt lat="48.458486" lon="2.651285">
      <ele>128.8</ele>
      <time>2014-09-14T08:06:18Z</time>
    </trkpt>
    <trkpt lat="48.458568" lon="2.651168">
      <ele>128.1</ele>
      <time>2014-09-14T08:06:20Z</time>
    </trkpt>
    <trkpt lat="48.458618" lon="2.651026">
      <ele>127.9</ele>
      <time>2014-09-14T08:06:22Z</time>
    </trkpt>
    <trkpt lat="48.45864" lon="2.650892">
      <ele>127.9</ele>
      <time>2014-09-14T08:06:24Z</time>
    </trkpt>
    <trkpt lat="48.458634" lon="2.650733">
      <ele>128.0</ele>
      <time>2014-09-14T08:06:27Z</time>
    </trkpt>
    <trkpt lat="48.458599" lon="2.650606">
      <ele>128.3</ele>
      <time>2014-09-14T08:06:29Z</time>
    </trkpt>
    <trkpt lat="48.458558" lon="2.650456">
      <ele>128.6</ele>
      <time>2014-09-14T08:06:31Z</time>
    </trkpt>
    <trkpt lat="48.45843" lon="2.650193">
      <ele>129.9</ele>
      <time>2014-09-14T08:06:36Z</time>
    </trkpt>
    <trkpt lat="48.45837" lon="2.650074">
      <ele>130.6</ele>
      <time>2014-09-14T08:06:38Z</time>
    </trkpt>
    <trkpt lat="48.458294" lon="2.649945">
      <ele>131.1</ele>
      <time>2014-09-14T08:06:40Z</time>
    </trkpt>
    <trkpt lat="48.458224" lon="2.64984">
      <ele>131.3</ele>
      <time>2014-09-14T08:06:42Z</time>
    </trkpt>
    <trkpt lat="48.458161" lon="2.649712">
      <ele>131.4</ele>
      <time>2014-09-14T08:06:44Z</time>
    </trkpt>
    <trkpt lat="48.458102" lon="2.649577">
      <ele>131.6</ele>
      <time>2014-09-14T08:06:46Z</time>
    </trkpt>
    <trkpt lat="48.458056" lon="2.649451">
      <ele>131.7</ele>
      <time>2014-09-14T08:06:48Z</time>
    </trkpt>
    <trkpt lat="48.458052" lon="2.649229">
      <ele>131.7</ele>
      <time>2014-09-14T08:06:51Z</time>
    </trkpt>
    <trkpt lat="48.458057" lon="2.649075">
      <ele>131.7</ele>
      <time>2014-09-14T08:06:53Z</time>
    </trkpt>
    <trkpt lat="48.458093" lon="2.648912">
      <ele>131.6</ele>
      <time>2014-09-14T08:06:55Z</time>
    </trkpt>
    <trkpt lat="48.458151" lon="2.648741">
      <ele>131.4</ele>
      <time>2014-09-14T08:06:57Z</time>
    </trkpt>
    <trkpt lat="48.458231" lon="2.648605">
      <ele>131.2</ele>
      <time>2014-09-14T08:06:59Z</time>
    </trkpt>
    <trkpt lat="48.458342" lon="2.648473">
      <ele>130.9</ele>
      <time>2014-09-14T08:07:01Z</time>
    </trkpt>
    <trkpt lat="48.458455" lon="2.648407">
      <ele>130.2</ele>
      <time>2014-09-14T08:07:03Z</time>
    </trkpt>
    <trkpt lat="48.458546" lon="2.648332">
      <ele>129.7</ele>
      <time>2014-09-14T08:07:05Z</time>
    </trkpt>
    <trkpt lat="48.458642" lon="2.648275">
      <ele>129.3</ele>
      <time>2014-09-14T08:07:07Z</time>
    </trkpt>
    <trkpt lat="48.458734" lon="2.648218">
      <ele>129.0</ele>
      <time>2014-09-14T08:07:09Z</time>
    </trkpt>
    <trkpt lat="48.458829" lon="2.648169">
      <ele>128.7</ele>
      <time>2014-09-14T08:07:11Z</time>
    </trkpt>
    <trkpt lat="48.458922" lon="2.648117">
      <ele>128.5</ele>
      <time>2014-09-14T08:07:13Z</time>
    </trkpt>
    <trkpt lat="48.459013" lon="2.648076">
      <ele>128.2</ele>
      <time>2014-09-14T08:07:15Z</time>
    </trkpt>
    <trkpt lat="48.459135" lon="2.648061">
      <ele>127.8</ele>
      <time>2014-09-14T08:07:17Z</time>
    </trkpt>
    <trkpt lat="48.45924" lon="2.648002">
      <ele>126.7</ele>
      <time>2014-09-14T08:07:19Z</time>
    </trkpt>
    <trkpt lat="48.459333" lon="2.647903">
      <ele>125.7</ele>
      <time>2014-09-14T08:07:21Z</time>
    </trkpt>
    <trkpt lat="48.459407" lon="2.647777">
      <ele>125.0</ele>
      <time>2014-09-14T08:07:23Z</time>
    </trkpt>
    <trkpt lat="48.459442" lon="2.64764">
      <ele>125.0</ele>
      <time>2014-09-14T08:07:26Z</time>
    </trkpt>
    <trkpt lat="48.459476" lon="2.647493">
      <ele>125.1</ele>
      <time>2014-09-14T08:07:28Z</time>
    </trkpt>
    <trkpt lat="48.459491" lon="2.647294">
      <ele>125.1</ele>
      <time>2014-09-14T08:07:31Z</time>
    </trkpt>
    <trkpt lat="48.459512" lon="2.647006">
      <ele>125.1</ele>
      <time>2014-09-14T08:07:35Z</time>
    </trkpt>
    <trkpt lat="48.459471" lon="2.64684">
      <ele>126.0</ele>
      <time>2014-09-14T08:07:37Z</time>
    </trkpt>
    <trkpt lat="48.45948" lon="2.646682">
      <ele>126.1</ele>
      <time>2014-09-14T08:07:39Z</time>
    </trkpt>
    <trkpt lat="48.459472" lon="2.646501">
      <ele>126.3</ele>
      <time>2014-09-14T08:07:42Z</time>
    </trkpt>
    <trkpt lat="48.459455" lon="2.646347">
      <ele>126.5</ele>
      <time>2014-09-14T08:07:44Z</time>
    </trkpt>
    <trkpt lat="48.459397" lon="2.646226">
      <ele>127.3</ele>
      <time>2014-09-14T08:07:46Z</time>
    </trkpt>
    <trkpt lat="48.459376" lon="2.646071">
      <ele>127.6</ele>
      <time>2014-09-14T08:07:48Z</time>
    </trkpt>
    <trkpt lat="48.459338" lon="2.645924">
      <ele>128.0</ele>
      <time>2014-09-14T08:07:50Z</time>
    </trkpt>
    <trkpt lat="48.45927" lon="2.645759">
      <ele>128.7</ele>
      <time>2014-09-14T08:07:52Z</time>
    </trkpt>
    <trkpt lat="48.459207" lon="2.645626">
      <ele>129.5</ele>
      <time>2014-09-14T08:07:54Z</time>
    </trkpt>
    <trkpt lat="48.459172" lon="2.64549">
      <ele>129.9</ele>
      <time>2014-09-14T08:07:56Z</time>
    </trkpt>
    <trkpt lat="48.459083" lon="2.645344">
      <ele>130.3</ele>
      <time>2014-09-14T08:07:59Z</time>
    </trkpt>
    <trkpt lat="48.459078" lon="2.645137">
      <ele>130.3</ele>
      <time>2014-09-14T08:08:01Z</time>
    </trkpt>
    <trkpt lat="48.459058" lon="2.644961">
      <ele>130.3</ele>
      <time>2014-09-14T08:08:03Z</time>
    </trkpt>
    <trkpt lat="48.459029" lon="2.644782">
      <ele>130.2</ele>
      <time>2014-09-14T08:08:05Z</time>
    </trkpt>
    <trkpt lat="48.458996" lon="2.644625">
      <ele>130.2</ele>
      <time>2014-09-14T08:08:07Z</time>
    </trkpt>
    <trkpt lat="48.459003" lon="2.644459">
      <ele>129.9</ele>
      <time>2014-09-14T08:08:09Z</time>
    </trkpt>
    <trkpt lat="48.459018" lon="2.644319">
      <ele>129.7</ele>
      <time>2014-09-14T08:08:11Z</time>
    </trkpt>
    <trkpt lat="48.459029" lon="2.644175">
      <ele>129.5</ele>
      <time>2014-09-14T08:08:13Z</time>
    </trkpt>
    <trkpt lat="48.459056" lon="2.644017">
      <ele>129.6</ele>
      <time>2014-09-14T08:08:15Z</time>
    </trkpt>
    <trkpt lat="48.459096" lon="2.643806">
      <ele>129.7</ele>
      <time>2014-09-14T08:08:17Z</time>
    </trkpt>
    <trkpt lat="48.459145" lon="2.643595">
      <ele>129.8</ele>
      <time>2014-09-14T08:08:19Z</time>
    </trkpt>
    <trkpt lat="48.459193" lon="2.643434">
      <ele>129.5</ele>
      <time>2014-09-14T08:08:21Z</time>
    </trkpt>
    <trkpt lat="48.459242" lon="2.643279">
      <ele>128.8</ele>
      <time>2014-09-14T08:08:23Z</time>
    </trkpt>
    <trkpt lat="48.459282" lon="2.643105">
      <ele>128.1</ele>
      <time>2014-09-14T08:08:26Z</time>
    </trkpt>
    <trkpt lat="48.459328" lon="2.642948">
      <ele>127.2</ele>
      <time>2014-09-14T08:08:28Z</time>
    </trkpt>
    <trkpt lat="48.459366" lon="2.642781">
      <ele>126.5</ele>
      <time>2014-09-14T08:08:30Z</time>
    </trkpt>
    <trkpt lat="48.459392" lon="2.642635">
      <ele>125.9</ele>
      <time>2014-09-14T08:08:32Z</time>
    </trkpt>
    <trkpt lat="48.459392" lon="2.642321">
      <ele>125.8</ele>
      <time>2014-09-14T08:08:36Z</time>
    </trkpt>
    <trkpt lat="48.459414" lon="2.642148">
      <ele>125.6</ele>
      <time>2014-09-14T08:08:38Z</time>
    </trkpt>
    <trkpt lat="48.459452" lon="2.641976">
      <ele>125.1</ele>
      <time>2014-09-14T08:08:40Z</time>
    </trkpt>
    <trkpt lat="48.459492" lon="2.641752">
      <ele>124.7</ele>
      <time>2014-09-14T08:08:42Z</time>
    </trkpt>
    <trkpt lat="48.459515" lon="2.641594">
      <ele>124.2</ele>
      <time>2014-09-14T08:08:44Z</time>
    </trkpt>
    <trkpt lat="48.45947" lon="2.641461">
      <ele>124.4</ele>
      <time>2014-09-14T08:08:46Z</time>
    </trkpt>
    <trkpt lat="48.459389" lon="2.641306">
      <ele>125.0</ele>
      <time>2014-09-14T08:08:49Z</time>
    </trkpt>
    <trkpt lat="48.459255" lon="2.641274">
      <ele>126.5</ele>
      <time>2014-09-14T08:08:52Z</time>
    </trkpt>
    <trkpt lat="48.459148" lon="2.641235">
      <ele>127.6</ele>
      <time>2014-09-14T08:08:55Z</time>
    </trkpt>
    <trkpt lat="48.459052" lon="2.641211">
      <ele>128.1</ele>
      <time>2014-09-14T08:08:58Z</time>
    </trkpt>
    <trkpt lat="48.458953" lon="2.641184">
      <ele>128.7</ele>
      <time>2014-09-14T08:09:01Z</time>
    </trkpt>
    <trkpt lat="48.458856" lon="2.641158">
      <ele>129.2</ele>
      <time>2014-09-14T08:09:04Z</time>
    </trkpt>
    <trkpt lat="48.458736" lon="2.641146">
      <ele>129.9</ele>
      <time>2014-09-14T08:09:08Z</time>
    </trkpt>
    <trkpt lat="48.458624" lon="2.641135">
      <ele>130.6</ele>
      <time>2014-09-14T08:09:11Z</time>
    </trkpt>
    <trkpt lat="48.458509" lon="2.641138">
      <ele>131.3</ele>
      <time>2014-09-14T08:09:14Z</time>
    </trkpt>
    <trkpt lat="48.458392" lon="2.641154">
      <ele>132.2</ele>
      <time>2014-09-14T08:09:17Z</time>
    </trkpt>
    <trkpt lat="48.458278" lon="2.641151">
      <ele>132.8</ele>
      <time>2014-09-14T08:09:20Z</time>
    </trkpt>
    <trkpt lat="48.458158" lon="2.641145">
      <ele>133.4</ele>
      <time>2014-09-14T08:09:23Z</time>
    </trkpt>
    <trkpt lat="48.458072" lon="2.641105">
      <ele>133.8</ele>
      <time>2014-09-14T08:09:25Z</time>
    </trkpt>
    <trkpt lat="48.45796" lon="2.641009">
      <ele>134.2</ele>
      <time>2014-09-14T08:09:28Z</time>
    </trkpt>
    <trkpt lat="48.457879" lon="2.640889">
      <ele>134.4</ele>
      <time>2014-09-14T08:09:31Z</time>
    </trkpt>
    <trkpt lat="48.457829" lon="2.640737">
      <ele>134.2</ele>
      <time>2014-09-14T08:09:34Z</time>
    </trkpt>
    <trkpt lat="48.457708" lon="2.640445">
      <ele>134.2</ele>
      <time>2014-09-14T08:09:40Z</time>
    </trkpt>
    <trkpt lat="48.45765" lon="2.64031">
      <ele>134.5</ele>
      <time>2014-09-14T08:09:43Z</time>
    </trkpt>
    <trkpt lat="48.457592" lon="2.640161">
      <ele>134.9</ele>
      <time>2014-09-14T08:09:46Z</time>
    </trkpt>
    <trkpt lat="48.457545" lon="2.640039">
      <ele>135.4</ele>
      <time>2014-09-14T08:09:48Z</time>
    </trkpt>
    <trkpt lat="48.457506" lon="2.639881">
      <ele>135.6</ele>
      <time>2014-09-14T08:09:51Z</time>
    </trkpt>
    <trkpt lat="48.457503" lon="2.639696">
      <ele>135.2</ele>
      <time>2014-09-14T08:09:54Z</time>
    </trkpt>
    <trkpt lat="48.457565" lon="2.639571">
      <ele>133.9</ele>
      <time>2014-09-14T08:09:56Z</time>
    </trkpt>
    <trkpt lat="48.457588" lon="2.639428">
      <ele>133.1</ele>
      <time>2014-09-14T08:09:58Z</time>
    </trkpt>
    <trkpt lat="48.457603" lon="2.639287">
      <ele>132.5</ele>
      <time>2014-09-14T08:10:00Z</time>
    </trkpt>
    <trkpt lat="48.457597" lon="2.639149">
      <ele>132.1</ele>
      <time>2014-09-14T08:10:02Z</time>
    </trkpt>
    <trkpt lat="48.457621" lon="2.639003">
      <ele>130.7</ele>
      <time>2014-09-14T08:10:04Z</time>
    </trkpt>
    <trkpt lat="48.457672" lon="2.638817">
      <ele>128.6</ele>
      <time>2014-09-14T08:10:06Z</time>
    </trkpt>
    <trkpt lat="48.457683" lon="2.63866">
      <ele>127.5</ele>
      <time>2014-09-14T08:10:08Z</time>
    </trkpt>
    <trkpt lat="48.457619" lon="2.638482">
      <ele>127.3</ele>
      <time>2014-09-14T08:10:11Z</time>
    </trkpt>
    <trkpt lat="48.457552" lon="2.638364">
      <ele>127.5</ele>
      <time>2014-09-14T08:10:13Z</time>
    </trkpt>
    <trkpt lat="48.4574" lon="2.638413">
      <ele>128.7</ele>
      <time>2014-09-14T08:10:15Z</time>
    </trkpt>
    <trkpt lat="48.457315" lon="2.638519">
      <ele>129.6</ele>
      <time>2014-09-14T08:10:17Z</time>
    </trkpt>
    <trkpt lat="48.457258" lon="2.638649">
      <ele>130.7</ele>
      <time>2014-09-14T08:10:19Z</time>
    </trkpt>
    <trkpt lat="48.457208" lon="2.638788">
      <ele>131.8</ele>
      <time>2014-09-14T08:10:21Z</time>
    </trkpt>
    <trkpt lat="48.457165" lon="2.63891">
      <ele>132.8</ele>
      <time>2014-09-14T08:10:23Z</time>
    </trkpt>
    <trkpt lat="48.457086" lon="2.639066">
      <ele>134.2</ele>
      <time>2014-09-14T08:10:26Z</time>
    </trkpt>
    <trkpt lat="48.457007" lon="2.639151">
      <ele>135.1</ele>
      <time>2014-09-14T08:10:28Z</time>
    </trkpt>
    <trkpt lat="48.456881" lon="2.63922">
      <ele>135.7</ele>
      <time>2014-09-14T08:10:31Z</time>
    </trkpt>
    <trkpt lat="48.456774" lon="2.639271">
      <ele>136.1</ele>
      <time>2014-09-14T08:10:33Z</time>
    </trkpt>
    <trkpt lat="48.45668" lon="2.6393">
      <ele>136.4</ele>
      <time>2014-09-14T08:10:35Z</time>
    </trkpt>
    <trkpt lat="48.456481" lon="2.639287">
      <ele>136.2</ele>
      <time>2014-09-14T08:10:39Z</time>
    </trkpt>
    <trkpt lat="48.456384" lon="2.639241">
      <ele>135.9</ele>
      <time>2014-09-14T08:10:41Z</time>
    </trkpt>
    <trkpt lat="48.456296" lon="2.639183">
      <ele>135.6</ele>
      <time>2014-09-14T08:10:43Z</time>
    </trkpt>
    <trkpt lat="48.456242" lon="2.639051">
      <ele>134.7</ele>
      <time>2014-09-14T08:10:45Z</time>
    </trkpt>
    <trkpt lat="48.456191" lon="2.638909">
      <ele>133.6</ele>
      <time>2014-09-14T08:10:47Z</time>
    </trkpt>
    <trkpt lat="48.456137" lon="2.638767">
      <ele>132.6</ele>
      <time>2014-09-14T08:10:49Z</time>
    </trkpt>
    <trkpt lat="48.45606" lon="2.638684">
      <ele>132.1</ele>
      <time>2014-09-14T08:10:51Z</time>
    </trkpt>
    <trkpt lat="48.45595" lon="2.638696">
      <ele>132.2</ele>
      <time>2014-09-14T08:10:53Z</time>
    </trkpt>
    <trkpt lat="48.455841" lon="2.638754">
      <ele>132.5</ele>
      <time>2014-09-14T08:10:55Z</time>
    </trkpt>
    <trkpt lat="48.455734" lon="2.638762">
      <ele>133.0</ele>
      <time>2014-09-14T08:10:57Z</time>
    </trkpt>
    <trkpt lat="48.455637" lon="2.638757">
      <ele>133.4</ele>
      <time>2014-09-14T08:10:59Z</time>
    </trkpt>
    <trkpt lat="48.455532" lon="2.638625">
      <ele>133.2</ele>
      <time>2014-09-14T08:11:02Z</time>
    </trkpt>
    <trkpt lat="48.455452" lon="2.638553">
      <ele>133.2</ele>
      <time>2014-09-14T08:11:04Z</time>
    </trkpt>
    <trkpt lat="48.455359" lon="2.63851">
      <ele>133.5</ele>
      <time>2014-09-14T08:11:06Z</time>
    </trkpt>
    <trkpt lat="48.455264" lon="2.638487">
      <ele>134.0</ele>
      <time>2014-09-14T08:11:08Z</time>
    </trkpt>
    <trkpt lat="48.455171" lon="2.638474">
      <ele>134.4</ele>
      <time>2014-09-14T08:11:10Z</time>
    </trkpt>
    <trkpt lat="48.455075" lon="2.638485">
      <ele>135.0</ele>
      <time>2014-09-14T08:11:12Z</time>
    </trkpt>
    <trkpt lat="48.454967" lon="2.63848">
      <ele>135.5</ele>
      <time>2014-09-14T08:11:14Z</time>
    </trkpt>
    <trkpt lat="48.454879" lon="2.638425">
      <ele>135.8</ele>
      <time>2014-09-14T08:11:16Z</time>
    </trkpt>
    <trkpt lat="48.454809" lon="2.638325">
      <ele>135.9</ele>
      <time>2014-09-14T08:11:18Z</time>
    </trkpt>
    <trkpt lat="48.454742" lon="2.638229">
      <ele>135.7</ele>
      <time>2014-09-14T08:11:20Z</time>
    </trkpt>
    <trkpt lat="48.454671" lon="2.638103">
      <ele>135.5</ele>
      <time>2014-09-14T08:11:22Z</time>
    </trkpt>
    <trkpt lat="48.454604" lon="2.63799">
      <ele>135.4</ele>
      <time>2014-09-14T08:11:24Z</time>
    </trkpt>
    <trkpt lat="48.454541" lon="2.63788">
      <ele>135.4</ele>
      <time>2014-09-14T08:11:26Z</time>
    </trkpt>
    <trkpt lat="48.454451" lon="2.637759">
      <ele>135.6</ele>
      <time>2014-09-14T08:11:28Z</time>
    </trkpt>
    <trkpt lat="48.45439" lon="2.637632">
      <ele>135.6</ele>
      <time>2014-09-14T08:11:30Z</time>
    </trkpt>
    <trkpt lat="48.454346" lon="2.637481">
      <ele>135.4</ele>
      <time>2014-09-14T08:11:33Z</time>
    </trkpt>
    <trkpt lat="48.454324" lon="2.637295">
      <ele>134.7</ele>
      <time>2014-09-14T08:11:35Z</time>
    </trkpt>
    <trkpt lat="48.454299" lon="2.637152">
      <ele>134.3</ele>
      <time>2014-09-14T08:11:37Z</time>
    </trkpt>
    <trkpt lat="48.454208" lon="2.636777">
      <ele>133.8</ele>
      <time>2014-09-14T08:11:42Z</time>
    </trkpt>
    <trkpt lat="48.454153" lon="2.636642">
      <ele>133.8</ele>
      <time>2014-09-14T08:11:44Z</time>
    </trkpt>
    <trkpt lat="48.454071" lon="2.636515">
      <ele>132.8</ele>
      <time>2014-09-14T08:11:46Z</time>
    </trkpt>
    <trkpt lat="48.454001" lon="2.636405">
      <ele>131.8</ele>
      <time>2014-09-14T08:11:48Z</time>
    </trkpt>
    <trkpt lat="48.453852" lon="2.636339">
      <ele>131.5</ele>
      <time>2014-09-14T08:11:51Z</time>
    </trkpt>
    <trkpt lat="48.453755" lon="2.636334">
      <ele>131.6</ele>
      <time>2014-09-14T08:11:53Z</time>
    </trkpt>
    <trkpt lat="48.453646" lon="2.63635">
      <ele>132.0</ele>
      <time>2014-09-14T08:11:55Z</time>
    </trkpt>
    <trkpt lat="48.453547" lon="2.636394">
      <ele>132.6</ele>
      <time>2014-09-14T08:11:57Z</time>
    </trkpt>
    <trkpt lat="48.453452" lon="2.636436">
      <ele>133.3</ele>
      <time>2014-09-14T08:11:59Z</time>
    </trkpt>
    <trkpt lat="48.453349" lon="2.636497">
      <ele>134.1</ele>
      <time>2014-09-14T08:12:01Z</time>
    </trkpt>
    <trkpt lat="48.453249" lon="2.636557">
      <ele>134.9</ele>
      <time>2014-09-14T08:12:03Z</time>
    </trkpt>
    <trkpt lat="48.453149" lon="2.636601">
      <ele>135.4</ele>
      <time>2014-09-14T08:12:05Z</time>
    </trkpt>
    <trkpt lat="48.453039" lon="2.636593">
      <ele>135.4</ele>
      <time>2014-09-14T08:12:08Z</time>
    </trkpt>
    <trkpt lat="48.452927" lon="2.636551">
      <ele>135.1</ele>
      <time>2014-09-14T08:12:10Z</time>
    </trkpt>
    <trkpt lat="48.452845" lon="2.636438">
      <ele>134.3</ele>
      <time>2014-09-14T08:12:12Z</time>
    </trkpt>
    <trkpt lat="48.45276" lon="2.636328">
      <ele>133.7</ele>
      <time>2014-09-14T08:12:14Z</time>
    </trkpt>
    <trkpt lat="48.452693" lon="2.636198">
      <ele>133.1</ele>
      <time>2014-09-14T08:12:16Z</time>
    </trkpt>
    <trkpt lat="48.452624" lon="2.636085">
      <ele>132.7</ele>
      <time>2014-09-14T08:12:18Z</time>
    </trkpt>
    <trkpt lat="48.452531" lon="2.636002">
      <ele>132.7</ele>
      <time>2014-09-14T08:12:20Z</time>
    </trkpt>
    <trkpt lat="48.452436" lon="2.636013">
      <ele>133.2</ele>
      <time>2014-09-14T08:12:22Z</time>
    </trkpt>
    <trkpt lat="48.452322" lon="2.636034">
      <ele>133.8</ele>
      <time>2014-09-14T08:12:24Z</time>
    </trkpt>
    <trkpt lat="48.452219" lon="2.636062">
      <ele>134.4</ele>
      <time>2014-09-14T08:12:26Z</time>
    </trkpt>
    <trkpt lat="48.452105" lon="2.636053">
      <ele>135.0</ele>
      <time>2014-09-14T08:12:28Z</time>
    </trkpt>
    <trkpt lat="48.452026" lon="2.635948">
      <ele>134.8</ele>
      <time>2014-09-14T08:12:30Z</time>
    </trkpt>
    <trkpt lat="48.451967" lon="2.63579">
      <ele>134.2</ele>
      <time>2014-09-14T08:12:33Z</time>
    </trkpt>
    <trkpt lat="48.451944" lon="2.635645">
      <ele>133.0</ele>
      <time>2014-09-14T08:12:36Z</time>
    </trkpt>
    <trkpt lat="48.451973" lon="2.63546">
      <ele>131.3</ele>
      <time>2014-09-14T08:12:39Z</time>
    </trkpt>
    <trkpt lat="48.451987" lon="2.635163">
      <ele>128.6</ele>
      <time>2014-09-14T08:12:43Z</time>
    </trkpt>
    <trkpt lat="48.452011" lon="2.635029">
      <ele>127.4</ele>
      <time>2014-09-14T08:12:45Z</time>
    </trkpt>
    <trkpt lat="48.45205" lon="2.634897">
      <ele>126.6</ele>
      <time>2014-09-14T08:12:47Z</time>
    </trkpt>
    <trkpt lat="48.452078" lon="2.634729">
      <ele>125.7</ele>
      <time>2014-09-14T08:12:49Z</time>
    </trkpt>
    <trkpt lat="48.452079" lon="2.634565">
      <ele>124.9</ele>
      <time>2014-09-14T08:12:51Z</time>
    </trkpt>
    <trkpt lat="48.452073" lon="2.634415">
      <ele>124.2</ele>
      <time>2014-09-14T08:12:53Z</time>
    </trkpt>
    <trkpt lat="48.452064" lon="2.634226">
      <ele>123.3</ele>
      <time>2014-09-14T08:12:56Z</time>
    </trkpt>
    <trkpt lat="48.452046" lon="2.634032">
      <ele>121.9</ele>
      <time>2014-09-14T08:12:59Z</time>
    </trkpt>
    <trkpt lat="48.452067" lon="2.633892">
      <ele>120.7</ele>
      <time>2014-09-14T08:13:02Z</time>
    </trkpt>
    <trkpt lat="48.452094" lon="2.633735">
      <ele>119.4</ele>
      <time>2014-09-14T08:13:05Z</time>
    </trkpt>
    <trkpt lat="48.452075" lon="2.63342">
      <ele>116.7</ele>
      <time>2014-09-28T08:15:39Z</time>
    </trkpt>
    <trkpt lat="48.452088" lon="2.63341">
      <ele>116.7</ele>
      <time>2014-09-28T08:15:40Z</time>
    </trkpt>
    <trkpt lat="48.452133" lon="2.633539">
      <ele>117.8</ele>
      <time>2014-09-28T08:16:13Z</time>
    </trkpt>
    <trkpt lat="48.452103" lon="2.633678">
      <ele>118.9</ele>
      <time>2014-09-28T08:16:21Z</time>
    </trkpt>
    <trkpt lat="48.452057" lon="2.633825">
      <ele>120.1</ele>
      <time>2014-09-28T08:16:25Z</time>
    </trkpt>
    <trkpt lat="48.452015" lon="2.634004">
      <ele>121.6</ele>
      <time>2014-09-28T08:16:29Z</time>
    </trkpt>
    <trkpt lat="48.451994" lon="2.634179">
      <ele>123.1</ele>
      <time>2014-09-28T08:16:32Z</time>
    </trkpt>
    <trkpt lat="48.452005" lon="2.634377">
      <ele>124.1</ele>
      <time>2014-09-28T08:16:35Z</time>
    </trkpt>
    <trkpt lat="48.452021" lon="2.634513">
      <ele>124.7</ele>
      <time>2014-09-28T08:16:37Z</time>
    </trkpt>
    <trkpt lat="48.452035" lon="2.634658">
      <ele>125.4</ele>
      <time>2014-09-28T08:16:39Z</time>
    </trkpt>
    <trkpt lat="48.452019" lon="2.634792">
      <ele>126.1</ele>
      <time>2014-09-28T08:16:41Z</time>
    </trkpt>
    <trkpt lat="48.452015" lon="2.634931">
      <ele>126.8</ele>
      <time>2014-09-28T08:16:43Z</time>
    </trkpt>
    <trkpt lat="48.451981" lon="2.635111">
      <ele>128.2</ele>
      <time>2014-09-28T08:16:46Z</time>
    </trkpt>
    <trkpt lat="48.451937" lon="2.635231">
      <ele>129.4</ele>
      <time>2014-09-28T08:16:48Z</time>
    </trkpt>
    <trkpt lat="48.451856" lon="2.635343">
      <ele>130.7</ele>
      <time>2014-09-28T08:16:52Z</time>
    </trkpt>
    <trkpt lat="48.451784" lon="2.635492">
      <ele>132.3</ele>
      <time>2014-09-28T08:16:55Z</time>
    </trkpt>
    <trkpt lat="48.451777" lon="2.635643">
      <ele>133.7</ele>
      <time>2014-09-28T08:16:58Z</time>
    </trkpt>
    <trkpt lat="48.45178" lon="2.635782">
      <ele>135.0</ele>
      <time>2014-09-28T08:17:02Z</time>
    </trkpt>
    <trkpt lat="48.451771" lon="2.63592">
      <ele>135.9</ele>
      <time>2014-09-28T08:17:05Z</time>
    </trkpt>
    <trkpt lat="48.45176" lon="2.636125">
      <ele>137.0</ele>
      <time>2014-09-28T08:17:08Z</time>
    </trkpt>
    <trkpt lat="48.451731" lon="2.636268">
      <ele>137.8</ele>
      <time>2014-09-28T08:17:12Z</time>
    </trkpt>
    <trkpt lat="48.451633" lon="2.636369">
      <ele>138.1</ele>
      <time>2014-09-28T08:17:16Z</time>
    </trkpt>
    <trkpt lat="48.451555" lon="2.636455">
      <ele>137.6</ele>
      <time>2014-09-28T08:17:19Z</time>
    </trkpt>
    <trkpt lat="48.451463" lon="2.636556">
      <ele>137.1</ele>
      <time>2014-09-28T08:17:22Z</time>
    </trkpt>
    <trkpt lat="48.451394" lon="2.636659">
      <ele>137.0</ele>
      <time>2014-09-28T08:17:24Z</time>
    </trkpt>
    <trkpt lat="48.45133" lon="2.636757">
      <ele>136.5</ele>
      <time>2014-09-28T08:17:26Z</time>
    </trkpt>
    <trkpt lat="48.451284" lon="2.636941">
      <ele>136.5</ele>
      <time>2014-09-28T08:17:29Z</time>
    </trkpt>
    <trkpt lat="48.451212" lon="2.637101">
      <ele>136.2</ele>
      <time>2014-09-28T08:17:32Z</time>
    </trkpt>
    <trkpt lat="48.451144" lon="2.63721">
      <ele>136.0</ele>
      <time>2014-09-28T08:17:34Z</time>
    </trkpt>
    <trkpt lat="48.451107" lon="2.637347">
      <ele>136.1</ele>
      <time>2014-09-28T08:17:36Z</time>
    </trkpt>
    <trkpt lat="48.451055" lon="2.637476">
      <ele>136.2</ele>
      <time>2014-09-28T08:17:38Z</time>
    </trkpt>
    <trkpt lat="48.451018" lon="2.637607">
      <ele>136.2</ele>
      <time>2014-09-28T08:17:40Z</time>
    </trkpt>
    <trkpt lat="48.450977" lon="2.637761">
      <ele>136.2</ele>
      <time>2014-09-28T08:17:42Z</time>
    </trkpt>
    <trkpt lat="48.450948" lon="2.638057">
      <ele>136.4</ele>
      <time>2014-09-28T08:17:46Z</time>
    </trkpt>
    <trkpt lat="48.45094" lon="2.638201">
      <ele>136.5</ele>
      <time>2014-09-28T08:17:48Z</time>
    </trkpt>
    <trkpt lat="48.450933" lon="2.638359">
      <ele>136.5</ele>
      <time>2014-09-28T08:17:50Z</time>
    </trkpt>
    <trkpt lat="48.450949" lon="2.638498">
      <ele>136.4</ele>
      <time>2014-09-28T08:17:52Z</time>
    </trkpt>
    <trkpt lat="48.45094" lon="2.638701">
      <ele>135.9</ele>
      <time>2014-09-28T08:17:55Z</time>
    </trkpt>
    <trkpt lat="48.450938" lon="2.638844">
      <ele>135.6</ele>
      <time>2014-09-28T08:17:57Z</time>
    </trkpt>
    <trkpt lat="48.450962" lon="2.63899">
      <ele>135.6</ele>
      <time>2014-09-28T08:17:59Z</time>
    </trkpt>
    <trkpt lat="48.450947" lon="2.639165">
      <ele>135.1</ele>
      <time>2014-09-28T08:18:01Z</time>
    </trkpt>
    <trkpt lat="48.450975" lon="2.639298">
      <ele>135.6</ele>
      <time>2014-09-28T08:18:03Z</time>
    </trkpt>
    <trkpt lat="48.450993" lon="2.639446">
      <ele>136.1</ele>
      <time>2014-09-28T08:18:05Z</time>
    </trkpt>
    <trkpt lat="48.451037" lon="2.639575">
      <ele>136.7</ele>
      <time>2014-09-28T08:18:07Z</time>
    </trkpt>
    <trkpt lat="48.451101" lon="2.639772">
      <ele>137.6</ele>
      <time>2014-09-28T08:18:10Z</time>
    </trkpt>
    <trkpt lat="48.451141" lon="2.639954">
      <ele>138.1</ele>
      <time>2014-09-28T08:18:13Z</time>
    </trkpt>
    <trkpt lat="48.451142" lon="2.640156">
      <ele>138.6</ele>
      <time>2014-09-28T08:18:15Z</time>
    </trkpt>
    <trkpt lat="48.451075" lon="2.640347">
      <ele>138.6</ele>
      <time>2014-09-28T08:18:17Z</time>
    </trkpt>
    <trkpt lat="48.451027" lon="2.640531">
      <ele>138.9</ele>
      <time>2014-09-28T08:18:19Z</time>
    </trkpt>
    <trkpt lat="48.450955" lon="2.640706">
      <ele>139.0</ele>
      <time>2014-09-28T08:18:21Z</time>
    </trkpt>
    <trkpt lat="48.450937" lon="2.640855">
      <ele>139.5</ele>
      <time>2014-09-28T08:18:23Z</time>
    </trkpt>
    <trkpt lat="48.450888" lon="2.641004">
      <ele>140.2</ele>
      <time>2014-09-28T08:18:26Z</time>
    </trkpt>
    <trkpt lat="48.450828" lon="2.641124">
      <ele>140.7</ele>
      <time>2014-09-28T08:18:29Z</time>
    </trkpt>
    <trkpt lat="48.450763" lon="2.641254">
      <ele>141.3</ele>
      <time>2014-09-28T08:18:32Z</time>
    </trkpt>
    <trkpt lat="48.45067" lon="2.641325">
      <ele>141.4</ele>
      <time>2014-09-28T08:18:34Z</time>
    </trkpt>
    <trkpt lat="48.450577" lon="2.641403">
      <ele>141.5</ele>
      <time>2014-09-28T08:18:36Z</time>
    </trkpt>
    <trkpt lat="48.450503" lon="2.641493">
      <ele>141.8</ele>
      <time>2014-09-28T08:18:38Z</time>
    </trkpt>
    <trkpt lat="48.450415" lon="2.64164">
      <ele>142.3</ele>
      <time>2014-09-28T08:18:41Z</time>
    </trkpt>
    <trkpt lat="48.45033" lon="2.641726">
      <ele>142.4</ele>
      <time>2014-09-28T08:18:43Z</time>
    </trkpt>
    <trkpt lat="48.450194" lon="2.641985">
      <ele>142.6</ele>
      <time>2014-09-28T08:18:49Z</time>
    </trkpt>
    <trkpt lat="48.45014" lon="2.64212">
      <ele>142.7</ele>
      <time>2014-09-28T08:18:51Z</time>
    </trkpt>
    <trkpt lat="48.450056" lon="2.642238">
      <ele>142.6</ele>
      <time>2014-09-28T08:18:53Z</time>
    </trkpt>
    <trkpt lat="48.449971" lon="2.642338">
      <ele>142.5</ele>
      <time>2014-09-28T08:18:55Z</time>
    </trkpt>
    <trkpt lat="48.449869" lon="2.642454">
      <ele>142.4</ele>
      <time>2014-09-28T08:18:57Z</time>
    </trkpt>
    <trkpt lat="48.449805" lon="2.642569">
      <ele>142.4</ele>
      <time>2014-09-28T08:18:59Z</time>
    </trkpt>
    <trkpt lat="48.449715" lon="2.642647">
      <ele>142.1</ele>
      <time>2014-09-28T08:19:01Z</time>
    </trkpt>
    <trkpt lat="48.449628" lon="2.642768">
      <ele>141.9</ele>
      <time>2014-09-28T08:19:04Z</time>
    </trkpt>
    <trkpt lat="48.449576" lon="2.642894">
      <ele>141.7</ele>
      <time>2014-09-28T08:19:06Z</time>
    </trkpt>
    <trkpt lat="48.449494" lon="2.643041">
      <ele>141.3</ele>
      <time>2014-09-28T08:19:08Z</time>
    </trkpt>
    <trkpt lat="48.449422" lon="2.643177">
      <ele>140.9</ele>
      <time>2014-09-28T08:19:10Z</time>
    </trkpt>
    <trkpt lat="48.449388" lon="2.643338">
      <ele>140.6</ele>
      <time>2014-09-28T08:19:12Z</time>
    </trkpt>
    <trkpt lat="48.449442" lon="2.643516">
      <ele>141.1</ele>
      <time>2014-09-28T08:19:15Z</time>
    </trkpt>
    <trkpt lat="48.449487" lon="2.643638">
      <ele>141.5</ele>
      <time>2014-09-28T08:19:17Z</time>
    </trkpt>
    <trkpt lat="48.449531" lon="2.643825">
      <ele>142.1</ele>
      <time>2014-09-28T08:19:20Z</time>
    </trkpt>
    <trkpt lat="48.449583" lon="2.643941">
      <ele>142.7</ele>
      <time>2014-09-28T08:19:22Z</time>
    </trkpt>
    <trkpt lat="48.449632" lon="2.644067">
      <ele>143.4</ele>
      <time>2014-09-28T08:19:24Z</time>
    </trkpt>
    <trkpt lat="48.44965" lon="2.644213">
      <ele>143.7</ele>
      <time>2014-09-28T08:19:26Z</time>
    </trkpt>
    <trkpt lat="48.449672" lon="2.644369">
      <ele>143.6</ele>
      <time>2014-09-28T08:19:28Z</time>
    </trkpt>
    <trkpt lat="48.449684" lon="2.64451">
      <ele>143.4</ele>
      <time>2014-09-28T08:19:30Z</time>
    </trkpt>
    <trkpt lat="48.449638" lon="2.64466">
      <ele>142.5</ele>
      <time>2014-09-28T08:19:32Z</time>
    </trkpt>
    <trkpt lat="48.449657" lon="2.644797">
      <ele>142.4</ele>
      <time>2014-09-28T08:19:34Z</time>
    </trkpt>
    <trkpt lat="48.449652" lon="2.644949">
      <ele>141.9</ele>
      <time>2014-09-28T08:19:36Z</time>
    </trkpt>
    <trkpt lat="48.449657" lon="2.645153">
      <ele>141.6</ele>
      <time>2014-09-28T08:19:39Z</time>
    </trkpt>
    <trkpt lat="48.449661" lon="2.645317">
      <ele>141.4</ele>
      <time>2014-09-28T08:19:41Z</time>
    </trkpt>
    <trkpt lat="48.449684" lon="2.645512">
      <ele>141.4</ele>
      <time>2014-09-28T08:19:43Z</time>
    </trkpt>
    <trkpt lat="48.449708" lon="2.645675">
      <ele>141.4</ele>
      <time>2014-09-28T08:19:45Z</time>
    </trkpt>
    <trkpt lat="48.449702" lon="2.645994">
      <ele>141.6</ele>
      <time>2014-09-28T08:19:49Z</time>
    </trkpt>
    <trkpt lat="48.449673" lon="2.646141">
      <ele>141.8</ele>
      <time>2014-09-28T08:19:51Z</time>
    </trkpt>
    <trkpt lat="48.44967" lon="2.646296">
      <ele>142.3</ele>
      <time>2014-09-28T08:19:53Z</time>
    </trkpt>
    <trkpt lat="48.449661" lon="2.64651">
      <ele>143.0</ele>
      <time>2014-09-28T08:19:56Z</time>
    </trkpt>
    <trkpt lat="48.449662" lon="2.646663">
      <ele>143.6</ele>
      <time>2014-09-28T08:19:58Z</time>
    </trkpt>
    <trkpt lat="48.449673" lon="2.646802">
      <ele>144.0</ele>
      <time>2014-09-28T08:20:00Z</time>
    </trkpt>
    <trkpt lat="48.449651" lon="2.646973">
      <ele>144.4</ele>
      <time>2014-09-28T08:20:05Z</time>
    </trkpt>
    <trkpt lat="48.449664" lon="2.647125">
      <ele>144.9</ele>
      <time>2014-09-28T08:20:08Z</time>
    </trkpt>
    <trkpt lat="48.44967" lon="2.647299">
      <ele>145.4</ele>
      <time>2014-09-28T08:20:12Z</time>
    </trkpt>
    <trkpt lat="48.449657" lon="2.647473">
      <ele>145.9</ele>
      <time>2014-09-28T08:20:16Z</time>
    </trkpt>
    <trkpt lat="48.449693" lon="2.64764">
      <ele>146.6</ele>
      <time>2014-09-28T08:20:19Z</time>
    </trkpt>
    <trkpt lat="48.449705" lon="2.647778">
      <ele>147.0</ele>
      <time>2014-09-28T08:20:22Z</time>
    </trkpt>
    <trkpt lat="48.449747" lon="2.647941">
      <ele>147.7</ele>
      <time>2014-09-28T08:20:26Z</time>
    </trkpt>
    <trkpt lat="48.449796" lon="2.648071">
      <ele>148.3</ele>
      <time>2014-09-28T08:20:28Z</time>
    </trkpt>
    <trkpt lat="48.44981" lon="2.648247">
      <ele>148.9</ele>
      <time>2014-09-28T08:20:31Z</time>
    </trkpt>
    <trkpt lat="48.449843" lon="2.648426">
      <ele>149.4</ele>
      <time>2014-09-28T08:20:34Z</time>
    </trkpt>
    <trkpt lat="48.449883" lon="2.648616">
      <ele>149.8</ele>
      <time>2014-09-28T08:20:37Z</time>
    </trkpt>
    <trkpt lat="48.449913" lon="2.648756">
      <ele>150.1</ele>
      <time>2014-09-28T08:20:39Z</time>
    </trkpt>
    <trkpt lat="48.449951" lon="2.648886">
      <ele>150.5</ele>
      <time>2014-09-28T08:20:41Z</time>
    </trkpt>
    <trkpt lat="48.44998" lon="2.649059">
      <ele>150.8</ele>
      <time>2014-09-28T08:20:44Z</time>
    </trkpt>
    <trkpt lat="48.450025" lon="2.649204">
      <ele>151.0</ele>
      <time>2014-09-28T08:20:46Z</time>
    </trkpt>
    <trkpt lat="48.450119" lon="2.649544">
      <ele>150.8</ele>
      <time>2014-09-28T08:20:51Z</time>
    </trkpt>
    <trkpt lat="48.450155" lon="2.649697">
      <ele>150.8</ele>
      <time>2014-09-28T08:20:54Z</time>
    </trkpt>
    <trkpt lat="48.45021" lon="2.649886">
      <ele>150.8</ele>
      <time>2014-09-28T08:20:57Z</time>
    </trkpt>
    <trkpt lat="48.450226" lon="2.650059">
      <ele>150.7</ele>
      <time>2014-09-28T08:21:00Z</time>
    </trkpt>
    <trkpt lat="48.450253" lon="2.650211">
      <ele>150.7</ele>
      <time>2014-09-28T08:21:02Z</time>
    </trkpt>
    <trkpt lat="48.450291" lon="2.650383">
      <ele>150.6</ele>
      <time>2014-09-28T08:21:05Z</time>
    </trkpt>
    <trkpt lat="48.45032" lon="2.650587">
      <ele>150.4</ele>
      <time>2014-09-28T08:21:08Z</time>
    </trkpt>
    <trkpt lat="48.450326" lon="2.650764">
      <ele>150.3</ele>
      <time>2014-09-28T08:21:10Z</time>
    </trkpt>
    <trkpt lat="48.450362" lon="2.650892">
      <ele>150.2</ele>
      <time>2014-09-28T08:21:12Z</time>
    </trkpt>
    <trkpt lat="48.450378" lon="2.65109">
      <ele>149.9</ele>
      <time>2014-09-28T08:21:15Z</time>
    </trkpt>
    <trkpt lat="48.450418" lon="2.651252">
      <ele>149.7</ele>
      <time>2014-09-28T08:21:18Z</time>
    </trkpt>
    <trkpt lat="48.45045" lon="2.651432">
      <ele>149.5</ele>
      <time>2014-09-28T08:21:21Z</time>
    </trkpt>
    <trkpt lat="48.450464" lon="2.651614">
      <ele>149.1</ele>
      <time>2014-09-28T08:21:23Z</time>
    </trkpt>
    <trkpt lat="48.4505" lon="2.651768">
      <ele>148.9</ele>
      <time>2014-09-28T08:21:26Z</time>
    </trkpt>
    <trkpt lat="48.450548" lon="2.651934">
      <ele>148.8</ele>
      <time>2014-09-28T08:21:28Z</time>
    </trkpt>
    <trkpt lat="48.450573" lon="2.65209">
      <ele>148.7</ele>
      <time>2014-09-28T08:21:30Z</time>
    </trkpt>
    <trkpt lat="48.450612" lon="2.652218">
      <ele>148.5</ele>
      <time>2014-09-28T08:21:32Z</time>
    </trkpt>
    <trkpt lat="48.450637" lon="2.652406">
      <ele>148.3</ele>
      <time>2014-09-28T08:21:35Z</time>
    </trkpt>
    <trkpt lat="48.450674" lon="2.652564">
      <ele>148.1</ele>
      <time>2014-09-28T08:21:38Z</time>
    </trkpt>
    <trkpt lat="48.450703" lon="2.652703">
      <ele>147.9</ele>
      <time>2014-09-28T08:21:40Z</time>
    </trkpt>
    <trkpt lat="48.450713" lon="2.65286">
      <ele>147.7</ele>
      <time>2014-09-28T08:21:42Z</time>
    </trkpt>
    <trkpt lat="48.450757" lon="2.653048">
      <ele>147.4</ele>
      <time>2014-09-28T08:21:45Z</time>
    </trkpt>
    <trkpt lat="48.450796" lon="2.653273">
      <ele>147.1</ele>
      <time>2014-09-28T08:21:48Z</time>
    </trkpt>
    <trkpt lat="48.45086" lon="2.653562">
      <ele>147.2</ele>
      <time>2014-09-28T08:21:52Z</time>
    </trkpt>
    <trkpt lat="48.450885" lon="2.653692">
      <ele>147.3</ele>
      <time>2014-09-28T08:21:54Z</time>
    </trkpt>
    <trkpt lat="48.4509" lon="2.653859">
      <ele>147.5</ele>
      <time>2014-09-28T08:21:57Z</time>
    </trkpt>
    <trkpt lat="48.450931" lon="2.653989">
      <ele>147.6</ele>
      <time>2014-09-28T08:21:59Z</time>
    </trkpt>
    <trkpt lat="48.450963" lon="2.654144">
      <ele>147.7</ele>
      <time>2014-09-28T08:22:02Z</time>
    </trkpt>
    <trkpt lat="48.451002" lon="2.654319">
      <ele>147.7</ele>
      <time>2014-09-28T08:22:05Z</time>
    </trkpt>
    <trkpt lat="48.451035" lon="2.654489">
      <ele>147.7</ele>
      <time>2014-09-28T08:22:08Z</time>
    </trkpt>
    <trkpt lat="48.451085" lon="2.654664">
      <ele>147.6</ele>
      <time>2014-09-28T08:22:11Z</time>
    </trkpt>
    <trkpt lat="48.451135" lon="2.654826">
      <ele>147.5</ele>
      <time>2014-09-28T08:22:14Z</time>
    </trkpt>
    <trkpt lat="48.451181" lon="2.65501">
      <ele>147.3</ele>
      <time>2014-09-28T08:22:17Z</time>
    </trkpt>
    <trkpt lat="48.451223" lon="2.655198">
      <ele>147.5</ele>
      <time>2014-09-28T08:22:20Z</time>
    </trkpt>
    <trkpt lat="48.451244" lon="2.655384">
      <ele>147.7</ele>
      <time>2014-09-28T08:22:23Z</time>
    </trkpt>
    <trkpt lat="48.451292" lon="2.655516">
      <ele>147.8</ele>
      <time>2014-09-28T08:22:25Z</time>
    </trkpt>
    <trkpt lat="48.451358" lon="2.655659">
      <ele>147.8</ele>
      <time>2014-09-28T08:22:28Z</time>
    </trkpt>
    <trkpt lat="48.451379" lon="2.655886">
      <ele>148.0</ele>
      <time>2014-09-28T08:22:31Z</time>
    </trkpt>
    <trkpt lat="48.451423" lon="2.656021">
      <ele>147.9</ele>
      <time>2014-09-28T08:22:33Z</time>
    </trkpt>
    <trkpt lat="48.451449" lon="2.656196">
      <ele>147.8</ele>
      <time>2014-09-28T08:22:36Z</time>
    </trkpt>
    <trkpt lat="48.451477" lon="2.656351">
      <ele>147.7</ele>
      <time>2014-09-28T08:22:38Z</time>
    </trkpt>
    <trkpt lat="48.451491" lon="2.656486">
      <ele>147.6</ele>
      <time>2014-09-28T08:22:40Z</time>
    </trkpt>
    <trkpt lat="48.451526" lon="2.656668">
      <ele>147.5</ele>
      <time>2014-09-28T08:22:43Z</time>
    </trkpt>
    <trkpt lat="48.451575" lon="2.656849">
      <ele>147.4</ele>
      <time>2014-09-28T08:22:46Z</time>
    </trkpt>
    <trkpt lat="48.451598" lon="2.656988">
      <ele>147.3</ele>
      <time>2014-09-28T08:22:48Z</time>
    </trkpt>
    <trkpt lat="48.451623" lon="2.657193">
      <ele>147.2</ele>
      <time>2014-09-28T08:22:51Z</time>
    </trkpt>
    <trkpt lat="48.451694" lon="2.657488">
      <ele>147.0</ele>
      <time>2014-09-28T08:22:55Z</time>
    </trkpt>
    <trkpt lat="48.451695" lon="2.657643">
      <ele>147.2</ele>
      <time>2014-09-28T08:22:57Z</time>
    </trkpt>
    <trkpt lat="48.451706" lon="2.657779">
      <ele>147.3</ele>
      <time>2014-09-28T08:22:59Z</time>
    </trkpt>
    <trkpt lat="48.451717" lon="2.657922">
      <ele>147.4</ele>
      <time>2014-09-28T08:23:01Z</time>
    </trkpt>
    <trkpt lat="48.451749" lon="2.658085">
      <ele>147.5</ele>
      <time>2014-09-28T08:23:04Z</time>
    </trkpt>
    <trkpt lat="48.451807" lon="2.658218">
      <ele>147.4</ele>
      <time>2014-09-28T08:23:07Z</time>
    </trkpt>
    <trkpt lat="48.451838" lon="2.658373">
      <ele>147.3</ele>
      <time>2014-09-28T08:23:10Z</time>
    </trkpt>
    <trkpt lat="48.451878" lon="2.658512">
      <ele>147.0</ele>
      <time>2014-09-28T08:23:12Z</time>
    </trkpt>
    <trkpt lat="48.4519" lon="2.658669">
      <ele>146.7</ele>
      <time>2014-09-28T08:23:15Z</time>
    </trkpt>
    <trkpt lat="48.45195" lon="2.658783">
      <ele>146.2</ele>
      <time>2014-09-28T08:23:17Z</time>
    </trkpt>
    <trkpt lat="48.451978" lon="2.658959">
      <ele>145.8</ele>
      <time>2014-09-28T08:23:20Z</time>
    </trkpt>
    <trkpt lat="48.451983" lon="2.659122">
      <ele>145.4</ele>
      <time>2014-09-28T08:23:23Z</time>
    </trkpt>
    <trkpt lat="48.451992" lon="2.659307">
      <ele>145.0</ele>
      <time>2014-09-28T08:23:26Z</time>
    </trkpt>
    <trkpt lat="48.451994" lon="2.659461">
      <ele>144.8</ele>
      <time>2014-09-28T08:23:29Z</time>
    </trkpt>
    <trkpt lat="48.45198" lon="2.6596">
      <ele>144.7</ele>
      <time>2014-09-28T08:23:33Z</time>
    </trkpt>
    <trkpt lat="48.451973" lon="2.659772">
      <ele>144.4</ele>
      <time>2014-09-28T08:23:39Z</time>
    </trkpt>
    <trkpt lat="48.451976" lon="2.659936">
      <ele>144.1</ele>
      <time>2014-09-28T08:23:43Z</time>
    </trkpt>
    <trkpt lat="48.451939" lon="2.660099">
      <ele>144.2</ele>
      <time>2014-09-28T08:23:47Z</time>
    </trkpt>
    <trkpt lat="48.451902" lon="2.660239">
      <ele>144.3</ele>
      <time>2014-09-28T08:23:50Z</time>
    </trkpt>
    <trkpt lat="48.451861" lon="2.660406">
      <ele>144.4</ele>
      <time>2014-09-28T08:23:53Z</time>
    </trkpt>
    <trkpt lat="48.451799" lon="2.660751">
      <ele>144.2</ele>
      <time>2014-09-28T08:23:59Z</time>
    </trkpt>
    <trkpt lat="48.451773" lon="2.660881">
      <ele>144.1</ele>
      <time>2014-09-28T08:24:01Z</time>
    </trkpt>
    <trkpt lat="48.451714" lon="2.660987">
      <ele>144.1</ele>
      <time>2014-09-28T08:24:03Z</time>
    </trkpt>
    <trkpt lat="48.451695" lon="2.661131">
      <ele>143.8</ele>
      <time>2014-09-28T08:24:05Z</time>
    </trkpt>
    <trkpt lat="48.45163" lon="2.661257">
      <ele>143.7</ele>
      <time>2014-09-28T08:24:07Z</time>
    </trkpt>
    <trkpt lat="48.451601" lon="2.661404">
      <ele>143.3</ele>
      <time>2014-09-28T08:24:09Z</time>
    </trkpt>
    <trkpt lat="48.451558" lon="2.661525">
      <ele>143.1</ele>
      <time>2014-09-28T08:24:11Z</time>
    </trkpt>
    <trkpt lat="48.451519" lon="2.661722">
      <ele>142.7</ele>
      <time>2014-09-28T08:24:14Z</time>
    </trkpt>
    <trkpt lat="48.451483" lon="2.661851">
      <ele>142.4</ele>
      <time>2014-09-28T08:24:16Z</time>
    </trkpt>
    <trkpt lat="48.4514" lon="2.661998">
      <ele>142.4</ele>
      <time>2014-09-28T08:24:18Z</time>
    </trkpt>
    <trkpt lat="48.451369" lon="2.662145">
      <ele>142.1</ele>
      <time>2014-09-28T08:24:20Z</time>
    </trkpt>
    <trkpt lat="48.451336" lon="2.662334">
      <ele>141.6</ele>
      <time>2014-09-28T08:24:23Z</time>
    </trkpt>
    <trkpt lat="48.451291" lon="2.662455">
      <ele>141.4</ele>
      <time>2014-09-28T08:24:25Z</time>
    </trkpt>
    <trkpt lat="48.451237" lon="2.662638">
      <ele>141.3</ele>
      <time>2014-09-28T08:24:28Z</time>
    </trkpt>
    <trkpt lat="48.451199" lon="2.662832">
      <ele>141.1</ele>
      <time>2014-09-28T08:24:31Z</time>
    </trkpt>
    <trkpt lat="48.451155" lon="2.663008">
      <ele>141.0</ele>
      <time>2014-09-28T08:24:34Z</time>
    </trkpt>
    <trkpt lat="48.451132" lon="2.663166">
      <ele>140.8</ele>
      <time>2014-09-28T08:24:36Z</time>
    </trkpt>
    <trkpt lat="48.451102" lon="2.663317">
      <ele>140.8</ele>
      <time>2014-09-28T08:24:38Z</time>
    </trkpt>
    <trkpt lat="48.451054" lon="2.663438">
      <ele>141.2</ele>
      <time>2014-09-28T08:24:40Z</time>
    </trkpt>
    <trkpt lat="48.450995" lon="2.663596">
      <ele>141.7</ele>
      <time>2014-09-28T08:24:43Z</time>
    </trkpt>
    <trkpt lat="48.450963" lon="2.663729">
      <ele>142.0</ele>
      <time>2014-09-28T08:24:45Z</time>
    </trkpt>
    <trkpt lat="48.450888" lon="2.663897">
      <ele>142.6</ele>
      <time>2014-09-28T08:24:48Z</time>
    </trkpt>
    <trkpt lat="48.450865" lon="2.664039">
      <ele>142.8</ele>
      <time>2014-09-28T08:24:50Z</time>
    </trkpt>
    <trkpt lat="48.450817" lon="2.664228">
      <ele>143.0</ele>
      <time>2014-09-28T08:24:53Z</time>
    </trkpt>
    <trkpt lat="48.450793" lon="2.664371">
      <ele>142.9</ele>
      <time>2014-09-28T08:24:55Z</time>
    </trkpt>
    <trkpt lat="48.450741" lon="2.664707">
      <ele>142.7</ele>
      <time>2014-09-28T08:25:00Z</time>
    </trkpt>
    <trkpt lat="48.450725" lon="2.664845">
      <ele>142.6</ele>
      <time>2014-09-28T08:25:02Z</time>
    </trkpt>
    <trkpt lat="48.450699" lon="2.664985">
      <ele>142.5</ele>
      <time>2014-09-28T08:25:04Z</time>
    </trkpt>
    <trkpt lat="48.450656" lon="2.665115">
      <ele>142.4</ele>
      <time>2014-09-28T08:25:06Z</time>
    </trkpt>
    <trkpt lat="48.450563" lon="2.665278">
      <ele>142.5</ele>
      <time>2014-09-28T08:25:09Z</time>
    </trkpt>
    <trkpt lat="48.450524" lon="2.665435">
      <ele>142.5</ele>
      <time>2014-09-28T08:25:11Z</time>
    </trkpt>
    <trkpt lat="48.450498" lon="2.665583">
      <ele>142.4</ele>
      <time>2014-09-28T08:25:13Z</time>
    </trkpt>
    <trkpt lat="48.450465" lon="2.665725">
      <ele>142.4</ele>
      <time>2014-09-28T08:25:15Z</time>
    </trkpt>
    <trkpt lat="48.450416" lon="2.665847">
      <ele>142.6</ele>
      <time>2014-09-28T08:25:17Z</time>
    </trkpt>
    <trkpt lat="48.450348" lon="2.665998">
      <ele>143.5</ele>
      <time>2014-09-28T08:25:19Z</time>
    </trkpt>
    <trkpt lat="48.450298" lon="2.666125">
      <ele>144.4</ele>
      <time>2014-09-28T08:25:21Z</time>
    </trkpt>
    <trkpt lat="48.450241" lon="2.666258">
      <ele>145.3</ele>
      <time>2014-09-28T08:25:23Z</time>
    </trkpt>
    <trkpt lat="48.450216" lon="2.666428">
      <ele>146.2</ele>
      <time>2014-09-28T08:25:26Z</time>
    </trkpt>
    <trkpt lat="48.45027" lon="2.666556">
      <ele>146.3</ele>
      <time>2014-09-28T08:25:29Z</time>
    </trkpt>
    <trkpt lat="48.450341" lon="2.666652">
      <ele>146.1</ele>
      <time>2014-09-28T08:25:32Z</time>
    </trkpt>
    <trkpt lat="48.450446" lon="2.666767">
      <ele>145.8</ele>
      <time>2014-09-28T08:25:34Z</time>
    </trkpt>
    <trkpt lat="48.450558" lon="2.666867">
      <ele>145.6</ele>
      <time>2014-09-28T08:25:37Z</time>
    </trkpt>
    <trkpt lat="48.450636" lon="2.666939">
      <ele>145.6</ele>
      <time>2014-09-28T08:25:39Z</time>
    </trkpt>
    <trkpt lat="48.450714" lon="2.66701">
      <ele>145.6</ele>
      <time>2014-09-28T08:25:41Z</time>
    </trkpt>
    <trkpt lat="48.450812" lon="2.667091">
      <ele>145.7</ele>
      <time>2014-09-28T08:25:43Z</time>
    </trkpt>
    <trkpt lat="48.45092" lon="2.667207">
      <ele>145.8</ele>
      <time>2014-09-28T08:25:46Z</time>
    </trkpt>
    <trkpt lat="48.451001" lon="2.667313">
      <ele>146.0</ele>
      <time>2014-09-28T08:25:48Z</time>
    </trkpt>
    <trkpt lat="48.451103" lon="2.667441">
      <ele>146.0</ele>
      <time>2014-09-28T08:25:51Z</time>
    </trkpt>
    <trkpt lat="48.451242" lon="2.66754">
      <ele>145.2</ele>
      <time>2014-09-28T08:25:54Z</time>
    </trkpt>
    <trkpt lat="48.451326" lon="2.667611">
      <ele>144.7</ele>
      <time>2014-09-28T08:25:56Z</time>
    </trkpt>
    <trkpt lat="48.451524" lon="2.667855">
      <ele>144.1</ele>
      <time>2014-09-28T08:26:02Z</time>
    </trkpt>
    <trkpt lat="48.451602" lon="2.667939">
      <ele>144.1</ele>
      <time>2014-09-28T08:26:04Z</time>
    </trkpt>
    <trkpt lat="48.451706" lon="2.667989">
      <ele>143.7</ele>
      <time>2014-09-28T08:26:06Z</time>
    </trkpt>
    <trkpt lat="48.451815" lon="2.668087">
      <ele>143.4</ele>
      <time>2014-09-28T08:26:09Z</time>
    </trkpt>
    <trkpt lat="48.451897" lon="2.668163">
      <ele>143.0</ele>
      <time>2014-09-28T08:26:11Z</time>
    </trkpt>
    <trkpt lat="48.451976" lon="2.668251">
      <ele>142.7</ele>
      <time>2014-09-28T08:26:13Z</time>
    </trkpt>
    <trkpt lat="48.452065" lon="2.668341">
      <ele>142.2</ele>
      <time>2014-09-28T08:26:15Z</time>
    </trkpt>
    <trkpt lat="48.452188" lon="2.66847">
      <ele>141.1</ele>
      <time>2014-09-28T08:26:18Z</time>
    </trkpt>
    <trkpt lat="48.452299" lon="2.668607">
      <ele>140.2</ele>
      <time>2014-09-28T08:26:21Z</time>
    </trkpt>
    <trkpt lat="48.452391" lon="2.668696">
      <ele>139.4</ele>
      <time>2014-09-28T08:26:23Z</time>
    </trkpt>
    <trkpt lat="48.45247" lon="2.66878">
      <ele>138.8</ele>
      <time>2014-09-28T08:26:25Z</time>
    </trkpt>
    <trkpt lat="48.452576" lon="2.668893">
      <ele>138.4</ele>
      <time>2014-09-28T08:26:28Z</time>
    </trkpt>
    <trkpt lat="48.452683" lon="2.669008">
      <ele>138.1</ele>
      <time>2014-09-28T08:26:32Z</time>
    </trkpt>
    <trkpt lat="48.452746" lon="2.669114">
      <ele>137.8</ele>
      <time>2014-09-28T08:26:35Z</time>
    </trkpt>
    <trkpt lat="48.4528" lon="2.669249">
      <ele>137.7</ele>
      <time>2014-09-28T08:26:38Z</time>
    </trkpt>
    <trkpt lat="48.452855" lon="2.669422">
      <ele>137.5</ele>
      <time>2014-09-28T08:26:40Z</time>
    </trkpt>
    <trkpt lat="48.452895" lon="2.669579">
      <ele>137.4</ele>
      <time>2014-09-28T08:26:43Z</time>
    </trkpt>
    <trkpt lat="48.452924" lon="2.669731">
      <ele>137.3</ele>
      <time>2014-09-28T08:26:46Z</time>
    </trkpt>
    <trkpt lat="48.452963" lon="2.669904">
      <ele>137.1</ele>
      <time>2014-09-28T08:26:49Z</time>
    </trkpt>
    <trkpt lat="48.452996" lon="2.670047">
      <ele>136.8</ele>
      <time>2014-09-28T08:26:51Z</time>
    </trkpt>
    <trkpt lat="48.453018" lon="2.670196">
      <ele>136.3</ele>
      <time>2014-09-28T08:26:53Z</time>
    </trkpt>
    <trkpt lat="48.453056" lon="2.670356">
      <ele>135.8</ele>
      <time>2014-09-28T08:26:56Z</time>
    </trkpt>
    <trkpt lat="48.45309" lon="2.670655">
      <ele>135.0</ele>
      <time>2014-09-28T08:27:04Z</time>
    </trkpt>
    <trkpt lat="48.453114" lon="2.670812">
      <ele>134.6</ele>
      <time>2014-09-28T08:27:08Z</time>
    </trkpt>
    <trkpt lat="48.453114" lon="2.670971">
      <ele>134.8</ele>
      <time>2014-09-28T08:27:13Z</time>
    </trkpt>
    <trkpt lat="48.453121" lon="2.671165">
      <ele>135.1</ele>
      <time>2014-09-28T08:27:16Z</time>
    </trkpt>
    <trkpt lat="48.453145" lon="2.67131">
      <ele>135.2</ele>
      <time>2014-09-28T08:27:18Z</time>
    </trkpt>
    <trkpt lat="48.453177" lon="2.671438">
      <ele>135.3</ele>
      <time>2014-09-28T08:27:21Z</time>
    </trkpt>
    <trkpt lat="48.453196" lon="2.671607">
      <ele>135.5</ele>
      <time>2014-09-28T08:27:26Z</time>
    </trkpt>
    <trkpt lat="48.453214" lon="2.67176">
      <ele>135.7</ele>
      <time>2014-09-28T08:27:30Z</time>
    </trkpt>
    <trkpt lat="48.453243" lon="2.671896">
      <ele>135.9</ele>
      <time>2014-09-28T08:27:33Z</time>
    </trkpt>
    <trkpt lat="48.453288" lon="2.67207">
      <ele>136.1</ele>
      <time>2014-09-28T08:27:36Z</time>
    </trkpt>
    <trkpt lat="48.453336" lon="2.672228">
      <ele>136.3</ele>
      <time>2014-09-28T08:27:39Z</time>
    </trkpt>
    <trkpt lat="48.453373" lon="2.672403">
      <ele>136.6</ele>
      <time>2014-09-28T08:27:41Z</time>
    </trkpt>
    <trkpt lat="48.453412" lon="2.672565">
      <ele>136.5</ele>
      <time>2014-09-28T08:27:43Z</time>
    </trkpt>
    <trkpt lat="48.453451" lon="2.672696">
      <ele>135.9</ele>
      <time>2014-09-28T08:27:45Z</time>
    </trkpt>
    <trkpt lat="48.453506" lon="2.672814">
      <ele>135.4</ele>
      <time>2014-09-28T08:27:47Z</time>
    </trkpt>
    <trkpt lat="48.453573" lon="2.672953">
      <ele>134.8</ele>
      <time>2014-09-28T08:27:49Z</time>
    </trkpt>
    <trkpt lat="48.453628" lon="2.673114">
      <ele>134.2</ele>
      <time>2014-09-28T08:27:51Z</time>
    </trkpt>
    <trkpt lat="48.453694" lon="2.673284">
      <ele>133.7</ele>
      <time>2014-09-28T08:27:53Z</time>
    </trkpt>
    <trkpt lat="48.453781" lon="2.673432">
      <ele>132.8</ele>
      <time>2014-09-28T08:27:55Z</time>
    </trkpt>
    <trkpt lat="48.453863" lon="2.673578">
      <ele>131.8</ele>
      <time>2014-09-28T08:27:57Z</time>
    </trkpt>
    <trkpt lat="48.454027" lon="2.673906">
      <ele>129.6</ele>
      <time>2014-09-28T08:28:01Z</time>
    </trkpt>
    <trkpt lat="48.454083" lon="2.67406">
      <ele>128.7</ele>
      <time>2014-09-28T08:28:03Z</time>
    </trkpt>
    <trkpt lat="48.454145" lon="2.674206">
      <ele>127.7</ele>
      <time>2014-09-28T08:28:05Z</time>
    </trkpt>
    <trkpt lat="48.454206" lon="2.674352">
      <ele>126.2</ele>
      <time>2014-09-28T08:28:07Z</time>
    </trkpt>
    <trkpt lat="48.454273" lon="2.674475">
      <ele>124.7</ele>
      <time>2014-09-28T08:28:09Z</time>
    </trkpt>
    <trkpt lat="48.454384" lon="2.674646">
      <ele>122.6</ele>
      <time>2014-09-28T08:28:12Z</time>
    </trkpt>
    <trkpt lat="48.454477" lon="2.674746">
      <ele>121.2</ele>
      <time>2014-09-28T08:28:14Z</time>
    </trkpt>
    <trkpt lat="48.454571" lon="2.674873">
      <ele>119.6</ele>
      <time>2014-09-28T08:28:16Z</time>
    </trkpt>
    <trkpt lat="48.454662" lon="2.674956">
      <ele>118.4</ele>
      <time>2014-09-28T08:28:19Z</time>
    </trkpt>
    <trkpt lat="48.45475" lon="2.675034">
      <ele>117.3</ele>
      <time>2014-09-28T08:28:22Z</time>
    </trkpt>
    <trkpt lat="48.454852" lon="2.675045">
      <ele>116.7</ele>
      <time>2014-09-28T08:28:25Z</time>
    </trkpt>
    <trkpt lat="48.454949" lon="2.675095">
      <ele>115.8</ele>
      <time>2014-09-28T08:28:29Z</time>
    </trkpt>
    <trkpt lat="48.455064" lon="2.675192">
      <ele>114.3</ele>
      <time>2014-09-28T08:28:34Z</time>
    </trkpt>
    <trkpt lat="48.455176" lon="2.675284">
      <ele>112.7</ele>
      <time>2014-09-28T08:28:38Z</time>
    </trkpt>
    <trkpt lat="48.455274" lon="2.67538">
      <ele>111.3</ele>
      <time>2014-09-28T08:28:41Z</time>
    </trkpt>
    <trkpt lat="48.455359" lon="2.675454">
      <ele>110.3</ele>
      <time>2014-09-28T08:28:43Z</time>
    </trkpt>
    <trkpt lat="48.455455" lon="2.675539">
      <ele>109.2</ele>
      <time>2014-09-28T08:28:45Z</time>
    </trkpt>
    <trkpt lat="48.455576" lon="2.675634">
      <ele>108.0</ele>
      <time>2014-09-28T08:28:48Z</time>
    </trkpt>
    <trkpt lat="48.455663" lon="2.675682">
      <ele>107.2</ele>
      <time>2014-09-28T08:28:50Z</time>
    </trkpt>
    <trkpt lat="48.455759" lon="2.675748">
      <ele>106.5</ele>
      <time>2014-09-28T08:28:52Z</time>
    </trkpt>
    <trkpt lat="48.455873" lon="2.675861">
      <ele>105.7</ele>
      <time>2014-09-28T08:28:55Z</time>
    </trkpt>
    <trkpt lat="48.45596" lon="2.675922">
      <ele>105.0</ele>
      <time>2014-09-28T08:28:57Z</time>
    </trkpt>
    <trkpt lat="48.456134" lon="2.676084">
      <ele>103.8</ele>
      <time>2014-09-28T08:29:01Z</time>
    </trkpt>
    <trkpt lat="48.456241" lon="2.676166">
      <ele>103.1</ele>
      <time>2014-09-28T08:29:04Z</time>
    </trkpt>
    <trkpt lat="48.456353" lon="2.676241">
      <ele>102.4</ele>
      <time>2014-09-28T08:29:07Z</time>
    </trkpt>
    <trkpt lat="48.456446" lon="2.676293">
      <ele>101.8</ele>
      <time>2014-09-28T08:29:09Z</time>
    </trkpt>
    <trkpt lat="48.456528" lon="2.67636">
      <ele>101.4</ele>
      <time>2014-09-28T08:29:11Z</time>
    </trkpt>
    <trkpt lat="48.456612" lon="2.676438">
      <ele>101.0</ele>
      <time>2014-09-28T08:29:14Z</time>
    </trkpt>
    <trkpt lat="48.456722" lon="2.676506">
      <ele>100.9</ele>
      <time>2014-09-28T08:29:17Z</time>
    </trkpt>
    <trkpt lat="48.456809" lon="2.676573">
      <ele>101.1</ele>
      <time>2014-09-28T08:29:19Z</time>
    </trkpt>
    <trkpt lat="48.456922" lon="2.676673">
      <ele>101.3</ele>
      <time>2014-09-28T08:29:21Z</time>
    </trkpt>
    <trkpt lat="48.457002" lon="2.676753">
      <ele>101.4</ele>
      <time>2014-09-28T08:29:23Z</time>
    </trkpt>
    <trkpt lat="48.457086" lon="2.676855">
      <ele>101.5</ele>
      <time>2014-09-28T08:29:26Z</time>
    </trkpt>
    <trkpt lat="48.457168" lon="2.676941">
      <ele>101.5</ele>
      <time>2014-09-28T08:29:28Z</time>
    </trkpt>
    <trkpt lat="48.457259" lon="2.677019">
      <ele>101.5</ele>
      <time>2014-09-28T08:29:30Z</time>
    </trkpt>
    <trkpt lat="48.457355" lon="2.677103">
      <ele>101.5</ele>
      <time>2014-09-28T08:29:32Z</time>
    </trkpt>
    <trkpt lat="48.457445" lon="2.677176">
      <ele>101.4</ele>
      <time>2014-09-28T08:29:34Z</time>
    </trkpt>
    <trkpt lat="48.457537" lon="2.677245">
      <ele>101.4</ele>
      <time>2014-09-28T08:29:36Z</time>
    </trkpt>
    <trkpt lat="48.457647" lon="2.67736">
      <ele>101.5</ele>
      <time>2014-09-28T08:29:39Z</time>
    </trkpt>
    <trkpt lat="48.457733" lon="2.677415">
      <ele>101.7</ele>
      <time>2014-09-28T08:29:41Z</time>
    </trkpt>
    <trkpt lat="48.457845" lon="2.677511">
      <ele>101.8</ele>
      <time>2014-09-28T08:29:44Z</time>
    </trkpt>
    <trkpt lat="48.457967" lon="2.677581">
      <ele>101.8</ele>
      <time>2014-09-28T08:29:47Z</time>
    </trkpt>
    <trkpt lat="48.458045" lon="2.677649">
      <ele>101.6</ele>
      <time>2014-09-28T08:29:49Z</time>
    </trkpt>
    <trkpt lat="48.458161" lon="2.677731">
      <ele>101.4</ele>
      <time>2014-09-28T08:29:52Z</time>
    </trkpt>
    <trkpt lat="48.458273" lon="2.677809">
      <ele>101.1</ele>
      <time>2014-09-28T08:29:55Z</time>
    </trkpt>
    <trkpt lat="48.458359" lon="2.677907">
      <ele>100.5</ele>
      <time>2014-09-28T08:29:58Z</time>
    </trkpt>
    <trkpt lat="48.458518" lon="2.678055">
      <ele>99.4</ele>
      <time>2014-09-28T08:30:02Z</time>
    </trkpt>
    <trkpt lat="48.458613" lon="2.678101">
      <ele>99.0</ele>
      <time>2014-09-28T08:30:05Z</time>
    </trkpt>
    <trkpt lat="48.458696" lon="2.678162">
      <ele>98.5</ele>
      <time>2014-09-28T08:30:08Z</time>
    </trkpt>
    <trkpt lat="48.458752" lon="2.678328">
      <ele>97.5</ele>
      <time>2014-09-28T08:30:13Z</time>
    </trkpt>
    <trkpt lat="48.458812" lon="2.678463">
      <ele>97.4</ele>
      <time>2014-09-28T08:30:16Z</time>
    </trkpt>
    <trkpt lat="48.458859" lon="2.678592">
      <ele>97.4</ele>
      <time>2014-09-28T08:30:18Z</time>
    </trkpt>
    <trkpt lat="48.458916" lon="2.678739">
      <ele>97.5</ele>
      <time>2014-09-28T08:30:21Z</time>
    </trkpt>
    <trkpt lat="48.45896" lon="2.678861">
      <ele>97.7</ele>
      <time>2014-09-28T08:30:24Z</time>
    </trkpt>
    <trkpt lat="48.459004" lon="2.678992">
      <ele>98.0</ele>
      <time>2014-09-28T08:30:27Z</time>
    </trkpt>
    <trkpt lat="48.459032" lon="2.679143">
      <ele>98.3</ele>
      <time>2014-09-28T08:30:30Z</time>
    </trkpt>
    <trkpt lat="48.459069" lon="2.679282">
      <ele>99.2</ele>
      <time>2014-09-28T08:30:34Z</time>
    </trkpt>
    <trkpt lat="48.45912" lon="2.679408">
      <ele>100.2</ele>
      <time>2014-09-28T08:30:37Z</time>
    </trkpt>
    <trkpt lat="48.459179" lon="2.67953">
      <ele>101.1</ele>
      <time>2014-09-28T08:30:41Z</time>
    </trkpt>
    <trkpt lat="48.459267" lon="2.679607">
      <ele>101.1</ele>
      <time>2014-09-28T08:30:50Z</time>
    </trkpt>
    <trkpt lat="48.459317" lon="2.679725">
      <ele>101.4</ele>
      <time>2014-09-28T08:30:56Z</time>
    </trkpt>
    <trkpt lat="48.459312" lon="2.679869">
      <ele>102.1</ele>
      <time>2014-09-28T08:31:02Z</time>
    </trkpt>
    <trkpt lat="48.45932" lon="2.680182">
      <ele>103.2</ele>
      <time>2014-09-28T08:31:14Z</time>
    </trkpt>
    <trkpt lat="48.459309" lon="2.680359">
      <ele>103.8</ele>
      <time>2014-09-28T08:31:20Z</time>
    </trkpt>
    <trkpt lat="48.459294" lon="2.680521">
      <ele>104.4</ele>
      <time>2014-09-28T08:31:24Z</time>
    </trkpt>
    <trkpt lat="48.459294" lon="2.680663">
      <ele>104.8</ele>
      <time>2014-09-28T08:31:27Z</time>
    </trkpt>
    <trkpt lat="48.459275" lon="2.68081">
      <ele>105.3</ele>
      <time>2014-09-28T08:31:31Z</time>
    </trkpt>
    <trkpt lat="48.45933" lon="2.681009">
      <ele>105.1</ele>
      <time>2014-09-28T08:31:35Z</time>
    </trkpt>
    <trkpt lat="48.459352" lon="2.681154">
      <ele>105.0</ele>
      <time>2014-09-28T08:31:38Z</time>
    </trkpt>
    <trkpt lat="48.459367" lon="2.6813">
      <ele>105.0</ele>
      <time>2014-09-28T08:31:42Z</time>
    </trkpt>
    <trkpt lat="48.459384" lon="2.681448">
      <ele>104.9</ele>
      <time>2014-09-28T08:31:46Z</time>
    </trkpt>
    <trkpt lat="48.459397" lon="2.681585">
      <ele>104.8</ele>
      <time>2014-09-28T08:31:49Z</time>
    </trkpt>
    <trkpt lat="48.459453" lon="2.681731">
      <ele>104.1</ele>
      <time>2014-09-28T08:31:54Z</time>
    </trkpt>
    <trkpt lat="48.459529" lon="2.68183">
      <ele>103.2</ele>
      <time>2014-09-28T08:31:57Z</time>
    </trkpt>
    <trkpt lat="48.459636" lon="2.681901">
      <ele>101.9</ele>
      <time>2014-09-28T08:32:04Z</time>
    </trkpt>
    <trkpt lat="48.459808" lon="2.682093">
      <ele>99.5</ele>
      <time>2014-09-28T08:32:09Z</time>
    </trkpt>
    <trkpt lat="48.459911" lon="2.682206">
      <ele>98.1</ele>
      <time>2014-09-28T08:32:12Z</time>
    </trkpt>
    <trkpt lat="48.460001" lon="2.682306">
      <ele>96.7</ele>
      <time>2014-09-28T08:32:14Z</time>
    </trkpt>
    <trkpt lat="48.460098" lon="2.682388">
      <ele>95.8</ele>
      <time>2014-09-28T08:32:16Z</time>
    </trkpt>
    <trkpt lat="48.460204" lon="2.682447">
      <ele>94.9</ele>
      <time>2014-09-28T08:32:19Z</time>
    </trkpt>
    <trkpt lat="48.460289" lon="2.682574">
      <ele>94.0</ele>
      <time>2014-09-28T08:32:22Z</time>
    </trkpt>
    <trkpt lat="48.460381" lon="2.682673">
      <ele>93.2</ele>
      <time>2014-09-28T08:32:25Z</time>
    </trkpt>
    <trkpt lat="48.460458" lon="2.68278">
      <ele>92.5</ele>
      <time>2014-09-28T08:32:29Z</time>
    </trkpt>
    <trkpt lat="48.4605" lon="2.68291">
      <ele>92.0</ele>
      <time>2014-09-28T08:32:33Z</time>
    </trkpt>
    <trkpt lat="48.460603" lon="2.682986">
      <ele>91.6</ele>
      <time>2014-09-28T08:32:36Z</time>
    </trkpt>
    <trkpt lat="48.460621" lon="2.68312">
      <ele>91.3</ele>
      <time>2014-09-28T08:33:38Z</time>
    </trkpt>
    <trkpt lat="48.460641" lon="2.683426">
      <ele>91.1</ele>
      <time>2014-09-28T08:33:45Z</time>
    </trkpt>
    <trkpt lat="48.460641" lon="2.683639">
      <ele>91.3</ele>
      <time>2014-09-28T08:33:49Z</time>
    </trkpt>
    <trkpt lat="48.460611" lon="2.683842">
      <ele>91.4</ele>
      <time>2014-09-28T08:33:52Z</time>
    </trkpt>
    <trkpt lat="48.460618" lon="2.684023">
      <ele>91.6</ele>
      <time>2014-09-28T08:33:55Z</time>
    </trkpt>
    <trkpt lat="48.460607" lon="2.684225">
      <ele>91.7</ele>
      <time>2014-09-28T08:33:58Z</time>
    </trkpt>
    <trkpt lat="48.460559" lon="2.684387">
      <ele>91.4</ele>
      <time>2014-09-28T08:34:01Z</time>
    </trkpt>
    <trkpt lat="48.460506" lon="2.684596">
      <ele>91.1</ele>
      <time>2014-09-28T08:34:04Z</time>
    </trkpt>
    <trkpt lat="48.460514" lon="2.684777">
      <ele>90.9</ele>
      <time>2014-09-28T08:34:06Z</time>
    </trkpt>
    <trkpt lat="48.460504" lon="2.684919">
      <ele>90.7</ele>
      <time>2014-09-28T08:34:08Z</time>
    </trkpt>
    <trkpt lat="48.46048" lon="2.685116">
      <ele>90.6</ele>
      <time>2014-09-28T08:34:11Z</time>
    </trkpt>
    <trkpt lat="48.460451" lon="2.685245">
      <ele>90.5</ele>
      <time>2014-09-28T08:34:13Z</time>
    </trkpt>
    <trkpt lat="48.460437" lon="2.685382">
      <ele>90.5</ele>
      <time>2014-09-28T08:34:15Z</time>
    </trkpt>
    <trkpt lat="48.460385" lon="2.685568">
      <ele>90.5</ele>
      <time>2014-09-28T08:34:18Z</time>
    </trkpt>
    <trkpt lat="48.460378" lon="2.685739">
      <ele>90.5</ele>
      <time>2014-09-28T08:34:21Z</time>
    </trkpt>
    <trkpt lat="48.460364" lon="2.685907">
      <ele>90.5</ele>
      <time>2014-09-28T08:34:24Z</time>
    </trkpt>
    <trkpt lat="48.460324" lon="2.686087">
      <ele>90.7</ele>
      <time>2014-09-28T08:34:27Z</time>
    </trkpt>
    <trkpt lat="48.460296" lon="2.686247">
      <ele>90.9</ele>
      <time>2014-09-28T08:34:29Z</time>
    </trkpt>
    <trkpt lat="48.460284" lon="2.686398">
      <ele>91.0</ele>
      <time>2014-09-28T08:34:31Z</time>
    </trkpt>
    <trkpt lat="48.460286" lon="2.686539">
      <ele>91.2</ele>
      <time>2014-09-28T08:34:33Z</time>
    </trkpt>
    <trkpt lat="48.460261" lon="2.686735">
      <ele>91.5</ele>
      <time>2014-09-28T08:34:36Z</time>
    </trkpt>
    <trkpt lat="48.460238" lon="2.686904">
      <ele>91.9</ele>
      <time>2014-09-28T08:34:38Z</time>
    </trkpt>
    <trkpt lat="48.460196" lon="2.687084">
      <ele>92.2</ele>
      <time>2014-09-28T08:34:40Z</time>
    </trkpt>
    <trkpt lat="48.460156" lon="2.687405">
      <ele>93.0</ele>
      <time>2014-09-28T08:34:45Z</time>
    </trkpt>
    <trkpt lat="48.460131" lon="2.6876">
      <ele>93.3</ele>
      <time>2014-09-28T08:34:48Z</time>
    </trkpt>
    <trkpt lat="48.460117" lon="2.687795">
      <ele>93.5</ele>
      <time>2014-09-28T08:34:51Z</time>
    </trkpt>
    <trkpt lat="48.460096" lon="2.68799">
      <ele>93.8</ele>
      <time>2014-09-28T08:34:54Z</time>
    </trkpt>
    <trkpt lat="48.460087" lon="2.688176">
      <ele>94.0</ele>
      <time>2014-09-28T08:34:57Z</time>
    </trkpt>
    <trkpt lat="48.460066" lon="2.688353">
      <ele>94.1</ele>
      <time>2014-09-28T08:35:00Z</time>
    </trkpt>
    <trkpt lat="48.460025" lon="2.688481">
      <ele>93.9</ele>
      <time>2014-09-28T08:35:02Z</time>
    </trkpt>
    <trkpt lat="48.460013" lon="2.688644">
      <ele>93.7</ele>
      <time>2014-09-28T08:35:04Z</time>
    </trkpt>
    <trkpt lat="48.459954" lon="2.688834">
      <ele>93.2</ele>
      <time>2014-09-28T08:35:07Z</time>
    </trkpt>
    <trkpt lat="48.459917" lon="2.688965">
      <ele>92.9</ele>
      <time>2014-09-28T08:35:09Z</time>
    </trkpt>
    <trkpt lat="48.459912" lon="2.689132">
      <ele>92.7</ele>
      <time>2014-09-28T08:35:11Z</time>
    </trkpt>
    <trkpt lat="48.459892" lon="2.689295">
      <ele>92.2</ele>
      <time>2014-09-28T08:35:13Z</time>
    </trkpt>
    <trkpt lat="48.459879" lon="2.689445">
      <ele>91.8</ele>
      <time>2014-09-28T08:35:15Z</time>
    </trkpt>
    <trkpt lat="48.459838" lon="2.689589">
      <ele>91.4</ele>
      <time>2014-09-28T08:35:17Z</time>
    </trkpt>
    <trkpt lat="48.459828" lon="2.689751">
      <ele>91.0</ele>
      <time>2014-09-28T08:35:19Z</time>
    </trkpt>
    <trkpt lat="48.459816" lon="2.689939">
      <ele>90.6</ele>
      <time>2014-09-28T08:35:22Z</time>
    </trkpt>
    <trkpt lat="48.459761" lon="2.690141">
      <ele>90.5</ele>
      <time>2014-09-28T08:35:25Z</time>
    </trkpt>
    <trkpt lat="48.459751" lon="2.690288">
      <ele>90.6</ele>
      <time>2014-09-28T08:35:27Z</time>
    </trkpt>
    <trkpt lat="48.459713" lon="2.690435">
      <ele>90.7</ele>
      <time>2014-09-28T08:35:29Z</time>
    </trkpt>
    <trkpt lat="48.459685" lon="2.690572">
      <ele>90.8</ele>
      <time>2014-09-28T08:35:31Z</time>
    </trkpt>
    <trkpt lat="48.459662" lon="2.690727">
      <ele>91.0</ele>
      <time>2014-09-28T08:35:33Z</time>
    </trkpt>
    <trkpt lat="48.459647" lon="2.690919">
      <ele>90.9</ele>
      <time>2014-09-28T08:35:36Z</time>
    </trkpt>
    <trkpt lat="48.459623" lon="2.691078">
      <ele>90.6</ele>
      <time>2014-09-28T08:35:39Z</time>
    </trkpt>
    <trkpt lat="48.459596" lon="2.691244">
      <ele>90.4</ele>
      <time>2014-09-28T08:35:42Z</time>
    </trkpt>
    <trkpt lat="48.459573" lon="2.691586">
      <ele>89.8</ele>
      <time>2014-09-28T08:35:49Z</time>
    </trkpt>
    <trkpt lat="48.459546" lon="2.691767">
      <ele>89.7</ele>
      <time>2014-09-28T08:35:51Z</time>
    </trkpt>
    <trkpt lat="48.459516" lon="2.691909">
      <ele>89.6</ele>
      <time>2014-09-28T08:35:53Z</time>
    </trkpt>
    <trkpt lat="48.459526" lon="2.692068">
      <ele>89.1</ele>
      <time>2014-09-28T08:35:55Z</time>
    </trkpt>
    <trkpt lat="48.459528" lon="2.692235">
      <ele>88.6</ele>
      <time>2014-09-28T08:35:57Z</time>
    </trkpt>
    <trkpt lat="48.459497" lon="2.692526">
      <ele>88.2</ele>
      <time>2014-09-28T08:36:01Z</time>
    </trkpt>
    <trkpt lat="48.45945" lon="2.692725">
      <ele>88.2</ele>
      <time>2014-09-28T08:36:03Z</time>
    </trkpt>
    <trkpt lat="48.459408" lon="2.692857">
      <ele>88.2</ele>
      <time>2014-09-28T08:36:05Z</time>
    </trkpt>
    <trkpt lat="48.45939" lon="2.693014">
      <ele>87.9</ele>
      <time>2014-09-28T08:36:07Z</time>
    </trkpt>
    <trkpt lat="48.459345" lon="2.693214">
      <ele>87.7</ele>
      <time>2014-09-28T08:36:10Z</time>
    </trkpt>
    <trkpt lat="48.459318" lon="2.693386">
      <ele>87.4</ele>
      <time>2014-09-28T08:36:13Z</time>
    </trkpt>
    <trkpt lat="48.459298" lon="2.693544">
      <ele>87.4</ele>
      <time>2014-09-28T08:36:16Z</time>
    </trkpt>
    <trkpt lat="48.459281" lon="2.693732">
      <ele>87.4</ele>
      <time>2014-09-28T08:36:19Z</time>
    </trkpt>
    <trkpt lat="48.459245" lon="2.693876">
      <ele>87.3</ele>
      <time>2014-09-28T08:36:22Z</time>
    </trkpt>
    <trkpt lat="48.459224" lon="2.694051">
      <ele>87.2</ele>
      <time>2014-09-28T08:36:25Z</time>
    </trkpt>
    <trkpt lat="48.459187" lon="2.694229">
      <ele>87.2</ele>
      <time>2014-09-28T08:36:28Z</time>
    </trkpt>
    <trkpt lat="48.459176" lon="2.694387">
      <ele>87.8</ele>
      <time>2014-09-28T08:36:30Z</time>
    </trkpt>
    <trkpt lat="48.459139" lon="2.694548">
      <ele>88.5</ele>
      <time>2014-09-28T08:36:32Z</time>
    </trkpt>
    <trkpt lat="48.459125" lon="2.694772">
      <ele>89.4</ele>
      <time>2014-09-28T08:36:35Z</time>
    </trkpt>
    <trkpt lat="48.45911" lon="2.694965">
      <ele>90.1</ele>
      <time>2014-09-28T08:36:38Z</time>
    </trkpt>
    <trkpt lat="48.459086" lon="2.695156">
      <ele>89.9</ele>
      <time>2014-09-28T08:36:41Z</time>
    </trkpt>
    <trkpt lat="48.459043" lon="2.695373">
      <ele>89.5</ele>
      <time>2014-09-28T08:36:44Z</time>
    </trkpt>
    <trkpt lat="48.458988" lon="2.695728">
      <ele>88.9</ele>
      <time>2014-09-28T08:36:49Z</time>
    </trkpt>
    <trkpt lat="48.458978" lon="2.695924">
      <ele>88.3</ele>
      <time>2014-09-28T08:36:51Z</time>
    </trkpt>
    <trkpt lat="48.458955" lon="2.696121">
      <ele>87.5</ele>
      <time>2014-09-28T08:36:53Z</time>
    </trkpt>
    <trkpt lat="48.458913" lon="2.696281">
      <ele>86.9</ele>
      <time>2014-09-28T08:36:55Z</time>
    </trkpt>
    <trkpt lat="48.458874" lon="2.69646">
      <ele>86.3</ele>
      <time>2014-09-28T08:36:57Z</time>
    </trkpt>
    <trkpt lat="48.458847" lon="2.696597">
      <ele>85.8</ele>
      <time>2014-09-28T08:36:59Z</time>
    </trkpt>
    <trkpt lat="48.458831" lon="2.696777">
      <ele>85.4</ele>
      <time>2014-09-28T08:37:02Z</time>
    </trkpt>
    <trkpt lat="48.458815" lon="2.696924">
      <ele>85.2</ele>
      <time>2014-09-28T08:37:04Z</time>
    </trkpt>
    <trkpt lat="48.4588" lon="2.697077">
      <ele>84.9</ele>
      <time>2014-09-28T08:37:06Z</time>
    </trkpt>
    <trkpt lat="48.458783" lon="2.697214">
      <ele>84.6</ele>
      <time>2014-09-28T08:37:08Z</time>
    </trkpt>
    <trkpt lat="48.458762" lon="2.697369">
      <ele>84.3</ele>
      <time>2014-09-28T08:37:11Z</time>
    </trkpt>
    <trkpt lat="48.458739" lon="2.697523">
      <ele>84.1</ele>
      <time>2014-09-28T08:37:14Z</time>
    </trkpt>
    <trkpt lat="48.458703" lon="2.697686">
      <ele>84.4</ele>
      <time>2014-09-28T08:37:17Z</time>
    </trkpt>
    <trkpt lat="48.458695" lon="2.697847">
      <ele>84.8</ele>
      <time>2014-09-28T08:37:20Z</time>
    </trkpt>
    <trkpt lat="48.458675" lon="2.698055">
      <ele>85.2</ele>
      <time>2014-09-28T08:37:23Z</time>
    </trkpt>
    <trkpt lat="48.45866" lon="2.698241">
      <ele>85.6</ele>
      <time>2014-09-28T08:37:26Z</time>
    </trkpt>
    <trkpt lat="48.458641" lon="2.698415">
      <ele>86.0</ele>
      <time>2014-09-28T08:37:29Z</time>
    </trkpt>
    <trkpt lat="48.458618" lon="2.698562">
      <ele>86.3</ele>
      <time>2014-09-28T08:37:31Z</time>
    </trkpt>
    <trkpt lat="48.458583" lon="2.698735">
      <ele>86.8</ele>
      <time>2014-09-28T08:37:33Z</time>
    </trkpt>
    <trkpt lat="48.458559" lon="2.698867">
      <ele>87.1</ele>
      <time>2014-09-28T08:37:35Z</time>
    </trkpt>
    <trkpt lat="48.458528" lon="2.699067">
      <ele>87.7</ele>
      <time>2014-09-28T08:37:38Z</time>
    </trkpt>
    <trkpt lat="48.458508" lon="2.699254">
      <ele>88.1</ele>
      <time>2014-09-28T08:37:41Z</time>
    </trkpt>
    <trkpt lat="48.458475" lon="2.699433">
      <ele>88.3</ele>
      <time>2014-09-28T08:37:44Z</time>
    </trkpt>
    <trkpt lat="48.458423" lon="2.699772">
      <ele>88.6</ele>
      <time>2014-09-28T08:37:50Z</time>
    </trkpt>
    <trkpt lat="48.458396" lon="2.699917">
      <ele>88.8</ele>
      <time>2014-09-28T08:37:53Z</time>
    </trkpt>
    <trkpt lat="48.458354" lon="2.700053">
      <ele>89.0</ele>
      <time>2014-09-28T08:37:56Z</time>
    </trkpt>
    <trkpt lat="48.458289" lon="2.700166">
      <ele>89.4</ele>
      <time>2014-09-28T08:37:59Z</time>
    </trkpt>
    <trkpt lat="48.458253" lon="2.700336">
      <ele>89.6</ele>
      <time>2014-09-28T08:38:12Z</time>
    </trkpt>
    <trkpt lat="48.4582" lon="2.70045">
      <ele>89.9</ele>
      <time>2014-09-28T08:38:16Z</time>
    </trkpt>
    <trkpt lat="48.458214" lon="2.700619">
      <ele>89.8</ele>
      <time>2014-09-28T08:38:20Z</time>
    </trkpt>
    <trkpt lat="48.458198" lon="2.700754">
      <ele>89.8</ele>
      <time>2014-09-28T08:38:23Z</time>
    </trkpt>
    <trkpt lat="48.458228" lon="2.700931">
      <ele>90.2</ele>
      <time>2014-09-28T08:38:26Z</time>
    </trkpt>
    <trkpt lat="48.458203" lon="2.701069">
      <ele>91.0</ele>
      <time>2014-09-28T08:38:29Z</time>
    </trkpt>
    <trkpt lat="48.458158" lon="2.701235">
      <ele>92.1</ele>
      <time>2014-09-28T08:38:32Z</time>
    </trkpt>
    <trkpt lat="48.45814" lon="2.701415">
      <ele>93.0</ele>
      <time>2014-09-28T08:38:35Z</time>
    </trkpt>
    <trkpt lat="48.458126" lon="2.701597">
      <ele>93.9</ele>
      <time>2014-09-28T08:38:38Z</time>
    </trkpt>
    <trkpt lat="48.458115" lon="2.701759">
      <ele>94.4</ele>
      <time>2014-09-28T08:38:41Z</time>
    </trkpt>
    <trkpt lat="48.458086" lon="2.701937">
      <ele>94.7</ele>
      <time>2014-09-28T08:38:44Z</time>
    </trkpt>
    <trkpt lat="48.458085" lon="2.702081">
      <ele>94.8</ele>
      <time>2014-09-28T08:38:46Z</time>
    </trkpt>
    <trkpt lat="48.458034" lon="2.702407">
      <ele>95.2</ele>
      <time>2014-09-28T08:38:51Z</time>
    </trkpt>
    <trkpt lat="48.458012" lon="2.702599">
      <ele>94.9</ele>
      <time>2014-09-28T08:38:53Z</time>
    </trkpt>
    <trkpt lat="48.45801" lon="2.702761">
      <ele>94.4</ele>
      <time>2014-09-28T08:38:55Z</time>
    </trkpt>
    <trkpt lat="48.457982" lon="2.702893">
      <ele>93.9</ele>
      <time>2014-09-28T08:38:57Z</time>
    </trkpt>
    <trkpt lat="48.45797" lon="2.703049">
      <ele>93.4</ele>
      <time>2014-09-28T08:38:59Z</time>
    </trkpt>
    <trkpt lat="48.457961" lon="2.703204">
      <ele>92.9</ele>
      <time>2014-09-28T08:39:01Z</time>
    </trkpt>
    <trkpt lat="48.457946" lon="2.703381">
      <ele>92.6</ele>
      <time>2014-09-28T08:39:04Z</time>
    </trkpt>
    <trkpt lat="48.457929" lon="2.703524">
      <ele>92.9</ele>
      <time>2014-09-28T08:39:06Z</time>
    </trkpt>
    <trkpt lat="48.457906" lon="2.70367">
      <ele>93.1</ele>
      <time>2014-09-28T08:39:08Z</time>
    </trkpt>
    <trkpt lat="48.457863" lon="2.70386">
      <ele>93.4</ele>
      <time>2014-09-28T08:39:11Z</time>
    </trkpt>
    <trkpt lat="48.457857" lon="2.704003">
      <ele>93.7</ele>
      <time>2014-09-28T08:39:13Z</time>
    </trkpt>
    <trkpt lat="48.457846" lon="2.704163">
      <ele>94.0</ele>
      <time>2014-09-28T08:39:16Z</time>
    </trkpt>
    <trkpt lat="48.457836" lon="2.704306">
      <ele>94.1</ele>
      <time>2014-09-28T08:39:18Z</time>
    </trkpt>
    <trkpt lat="48.457819" lon="2.704507">
      <ele>94.2</ele>
      <time>2014-09-28T08:39:20Z</time>
    </trkpt>
    <trkpt lat="48.457787" lon="2.704704">
      <ele>94.2</ele>
      <time>2014-09-28T08:39:23Z</time>
    </trkpt>
    <trkpt lat="48.457752" lon="2.704888">
      <ele>94.3</ele>
      <time>2014-09-28T08:39:25Z</time>
    </trkpt>
    <trkpt lat="48.457737" lon="2.705068">
      <ele>94.3</ele>
      <time>2014-09-28T08:39:27Z</time>
    </trkpt>
    <trkpt lat="48.45771" lon="2.705222">
      <ele>94.3</ele>
      <time>2014-09-28T08:39:29Z</time>
    </trkpt>
    <trkpt lat="48.457695" lon="2.705365">
      <ele>94.2</ele>
      <time>2014-09-28T08:39:31Z</time>
    </trkpt>
    <trkpt lat="48.457648" lon="2.705494">
      <ele>94.2</ele>
      <time>2014-09-28T08:39:33Z</time>
    </trkpt>
    <trkpt lat="48.457654" lon="2.705671">
      <ele>94.2</ele>
      <time>2014-09-28T08:39:36Z</time>
    </trkpt>
    <trkpt lat="48.457636" lon="2.705845">
      <ele>94.2</ele>
      <time>2014-09-28T08:39:39Z</time>
    </trkpt>
    <trkpt lat="48.457581" lon="2.705977">
      <ele>94.0</ele>
      <time>2014-09-28T08:39:41Z</time>
    </trkpt>
    <trkpt lat="48.457543" lon="2.706112">
      <ele>94.0</ele>
      <time>2014-09-28T08:39:43Z</time>
    </trkpt>
    <trkpt lat="48.45754" lon="2.706298">
      <ele>94.0</ele>
      <time>2014-09-28T08:39:46Z</time>
    </trkpt>
    <trkpt lat="48.457519" lon="2.706477">
      <ele>94.0</ele>
      <time>2014-09-28T08:39:49Z</time>
    </trkpt>
    <trkpt lat="48.457489" lon="2.706834">
      <ele>94.6</ele>
      <time>2014-09-28T08:39:55Z</time>
    </trkpt>
    <trkpt lat="48.457479" lon="2.706971">
      <ele>95.2</ele>
      <time>2014-09-28T08:39:58Z</time>
    </trkpt>
    <trkpt lat="48.457471" lon="2.707116">
      <ele>95.7</ele>
      <time>2014-09-28T08:40:01Z</time>
    </trkpt>
    <trkpt lat="48.457508" lon="2.707278">
      <ele>96.1</ele>
      <time>2014-09-28T08:40:04Z</time>
    </trkpt>
    <trkpt lat="48.457576" lon="2.707418">
      <ele>95.8</ele>
      <time>2014-09-28T08:40:07Z</time>
    </trkpt>
    <trkpt lat="48.457631" lon="2.70755">
      <ele>95.4</ele>
      <time>2014-09-28T08:40:09Z</time>
    </trkpt>
    <trkpt lat="48.45771" lon="2.707675">
      <ele>94.7</ele>
      <time>2014-09-28T08:40:11Z</time>
    </trkpt>
    <trkpt lat="48.45778" lon="2.707771">
      <ele>94.0</ele>
      <time>2014-09-28T08:40:13Z</time>
    </trkpt>
    <trkpt lat="48.457853" lon="2.707909">
      <ele>93.2</ele>
      <time>2014-09-28T08:40:15Z</time>
    </trkpt>
    <trkpt lat="48.457912" lon="2.708037">
      <ele>92.5</ele>
      <time>2014-09-28T08:40:17Z</time>
    </trkpt>
    <trkpt lat="48.457979" lon="2.708168">
      <ele>91.7</ele>
      <time>2014-09-28T08:40:19Z</time>
    </trkpt>
    <trkpt lat="48.458046" lon="2.708287">
      <ele>90.8</ele>
      <time>2014-09-28T08:40:21Z</time>
    </trkpt>
    <trkpt lat="48.458111" lon="2.708408">
      <ele>90.2</ele>
      <time>2014-09-28T08:40:23Z</time>
    </trkpt>
    <trkpt lat="48.458177" lon="2.708542">
      <ele>90.1</ele>
      <time>2014-09-28T08:40:25Z</time>
    </trkpt>
    <trkpt lat="48.458229" lon="2.708666">
      <ele>90.2</ele>
      <time>2014-09-28T08:40:27Z</time>
    </trkpt>
    <trkpt lat="48.458303" lon="2.70879">
      <ele>90.2</ele>
      <time>2014-09-28T08:40:29Z</time>
    </trkpt>
    <trkpt lat="48.458355" lon="2.708918">
      <ele>90.8</ele>
      <time>2014-09-28T08:40:31Z</time>
    </trkpt>
    <trkpt lat="48.458427" lon="2.709044">
      <ele>91.3</ele>
      <time>2014-09-28T08:40:33Z</time>
    </trkpt>
    <trkpt lat="48.458495" lon="2.709143">
      <ele>91.5</ele>
      <time>2014-09-28T08:40:35Z</time>
    </trkpt>
    <trkpt lat="48.458561" lon="2.709265">
      <ele>91.6</ele>
      <time>2014-09-28T08:40:37Z</time>
    </trkpt>
    <trkpt lat="48.458657" lon="2.709419">
      <ele>91.7</ele>
      <time>2014-09-28T08:40:40Z</time>
    </trkpt>
    <trkpt lat="48.458725" lon="2.709545">
      <ele>92.0</ele>
      <time>2014-09-28T08:40:42Z</time>
    </trkpt>
    <trkpt lat="48.458818" lon="2.709679">
      <ele>92.1</ele>
      <time>2014-09-28T08:40:44Z</time>
    </trkpt>
    <trkpt lat="48.458889" lon="2.709805">
      <ele>92.4</ele>
      <time>2014-09-28T08:40:46Z</time>
    </trkpt>
    <trkpt lat="48.45895" lon="2.709923">
      <ele>92.8</ele>
      <time>2014-09-28T08:40:48Z</time>
    </trkpt>
    <trkpt lat="48.459025" lon="2.710056">
      <ele>93.0</ele>
      <time>2014-09-28T08:40:50Z</time>
    </trkpt>
    <trkpt lat="48.459147" lon="2.71032">
      <ele>92.9</ele>
      <time>2014-09-28T08:40:54Z</time>
    </trkpt>
    <trkpt lat="48.459223" lon="2.710445">
      <ele>92.6</ele>
      <time>2014-09-28T08:40:56Z</time>
    </trkpt>
    <trkpt lat="48.459289" lon="2.710572">
      <ele>92.2</ele>
      <time>2014-09-28T08:40:58Z</time>
    </trkpt>
    <trkpt lat="48.459352" lon="2.710701">
      <ele>91.9</ele>
      <time>2014-09-28T08:41:00Z</time>
    </trkpt>
    <trkpt lat="48.45942" lon="2.71083">
      <ele>91.6</ele>
      <time>2014-09-28T08:41:02Z</time>
    </trkpt>
    <trkpt lat="48.459481" lon="2.710969">
      <ele>91.7</ele>
      <time>2014-09-28T08:41:04Z</time>
    </trkpt>
    <trkpt lat="48.459548" lon="2.711101">
      <ele>91.7</ele>
      <time>2014-09-28T08:41:06Z</time>
    </trkpt>
    <trkpt lat="48.459609" lon="2.711238">
      <ele>92.0</ele>
      <time>2014-09-28T08:41:08Z</time>
    </trkpt>
    <trkpt lat="48.459668" lon="2.711362">
      <ele>92.2</ele>
      <time>2014-09-28T08:41:10Z</time>
    </trkpt>
    <trkpt lat="48.459732" lon="2.711486">
      <ele>92.5</ele>
      <time>2014-09-28T08:41:12Z</time>
    </trkpt>
    <trkpt lat="48.459823" lon="2.711631">
      <ele>92.8</ele>
      <time>2014-09-28T08:41:15Z</time>
    </trkpt>
    <trkpt lat="48.459882" lon="2.711747">
      <ele>93.3</ele>
      <time>2014-09-28T08:41:17Z</time>
    </trkpt>
    <trkpt lat="48.459952" lon="2.711894">
      <ele>94.1</ele>
      <time>2014-09-28T08:41:19Z</time>
    </trkpt>
    <trkpt lat="48.460011" lon="2.71201">
      <ele>94.8</ele>
      <time>2014-09-28T08:41:21Z</time>
    </trkpt>
    <trkpt lat="48.460067" lon="2.712138">
      <ele>95.6</ele>
      <time>2014-09-28T08:41:23Z</time>
    </trkpt>
    <trkpt lat="48.460134" lon="2.712263">
      <ele>96.2</ele>
      <time>2014-09-28T08:41:25Z</time>
    </trkpt>
    <trkpt lat="48.460208" lon="2.71241">
      <ele>96.8</ele>
      <time>2014-09-28T08:41:28Z</time>
    </trkpt>
    <trkpt lat="48.460287" lon="2.712571">
      <ele>97.2</ele>
      <time>2014-09-28T08:41:31Z</time>
    </trkpt>
    <trkpt lat="48.460352" lon="2.712681">
      <ele>97.2</ele>
      <time>2014-09-28T08:41:33Z</time>
    </trkpt>
    <trkpt lat="48.460405" lon="2.712802">
      <ele>97.3</ele>
      <time>2014-09-28T08:41:35Z</time>
    </trkpt>
    <trkpt lat="48.460481" lon="2.712917">
      <ele>97.3</ele>
      <time>2014-09-28T08:41:37Z</time>
    </trkpt>
    <trkpt lat="48.460559" lon="2.713059">
      <ele>97.4</ele>
      <time>2014-09-28T08:41:40Z</time>
    </trkpt>
    <trkpt lat="48.460642" lon="2.71319">
      <ele>97.5</ele>
      <time>2014-09-28T08:41:43Z</time>
    </trkpt>
    <trkpt lat="48.460709" lon="2.713326">
      <ele>97.7</ele>
      <time>2014-09-28T08:41:46Z</time>
    </trkpt>
    <trkpt lat="48.460759" lon="2.713454">
      <ele>97.9</ele>
      <time>2014-09-28T08:41:49Z</time>
    </trkpt>
    <trkpt lat="48.460843" lon="2.713597">
      <ele>98.3</ele>
      <time>2014-09-28T08:41:52Z</time>
    </trkpt>
    <trkpt lat="48.461019" lon="2.713894">
      <ele>100.3</ele>
      <time>2014-09-28T08:41:57Z</time>
    </trkpt>
    <trkpt lat="48.461086" lon="2.714029">
      <ele>101.2</ele>
      <time>2014-09-28T08:41:59Z</time>
    </trkpt>
    <trkpt lat="48.46118" lon="2.714174">
      <ele>102.2</ele>
      <time>2014-09-28T08:42:01Z</time>
    </trkpt>
    <trkpt lat="48.461269" lon="2.714307">
      <ele>102.6</ele>
      <time>2014-09-28T08:42:03Z</time>
    </trkpt>
    <trkpt lat="48.461355" lon="2.714445">
      <ele>102.8</ele>
      <time>2014-09-28T08:42:05Z</time>
    </trkpt>
    <trkpt lat="48.461435" lon="2.714601">
      <ele>102.9</ele>
      <time>2014-09-28T08:42:07Z</time>
    </trkpt>
    <trkpt lat="48.461503" lon="2.714721">
      <ele>103.0</ele>
      <time>2014-09-28T08:42:09Z</time>
    </trkpt>
    <trkpt lat="48.461579" lon="2.71486">
      <ele>103.0</ele>
      <time>2014-09-28T08:42:11Z</time>
    </trkpt>
    <trkpt lat="48.461636" lon="2.714973">
      <ele>103.0</ele>
      <time>2014-09-28T08:42:13Z</time>
    </trkpt>
    <trkpt lat="48.461706" lon="2.715105">
      <ele>102.7</ele>
      <time>2014-09-28T08:42:15Z</time>
    </trkpt>
    <trkpt lat="48.461757" lon="2.7153">
      <ele>102.3</ele>
      <time>2014-09-28T08:42:18Z</time>
    </trkpt>
    <trkpt lat="48.461822" lon="2.715422">
      <ele>101.6</ele>
      <time>2014-09-28T08:42:20Z</time>
    </trkpt>
    <trkpt lat="48.461892" lon="2.715544">
      <ele>100.8</ele>
      <time>2014-09-28T08:42:22Z</time>
    </trkpt>
    <trkpt lat="48.461963" lon="2.715661">
      <ele>99.8</ele>
      <time>2014-09-28T08:42:24Z</time>
    </trkpt>
    <trkpt lat="48.462021" lon="2.715838">
      <ele>98.8</ele>
      <time>2014-09-28T08:42:27Z</time>
    </trkpt>
    <trkpt lat="48.462078" lon="2.715946">
      <ele>98.5</ele>
      <time>2014-09-28T08:42:32Z</time>
    </trkpt>
    <trkpt lat="48.462148" lon="2.716054">
      <ele>98.1</ele>
      <time>2014-09-28T08:42:35Z</time>
    </trkpt>
    <trkpt lat="48.462235" lon="2.716204">
      <ele>97.7</ele>
      <time>2014-09-28T08:42:38Z</time>
    </trkpt>
    <trkpt lat="48.462302" lon="2.716333">
      <ele>97.5</ele>
      <time>2014-09-28T08:42:40Z</time>
    </trkpt>
    <trkpt lat="48.462355" lon="2.716449">
      <ele>97.4</ele>
      <time>2014-09-28T08:42:42Z</time>
    </trkpt>
    <trkpt lat="48.462433" lon="2.716595">
      <ele>97.3</ele>
      <time>2014-09-28T08:42:44Z</time>
    </trkpt>
    <trkpt lat="48.462499" lon="2.716717">
      <ele>97.3</ele>
      <time>2014-09-28T08:42:46Z</time>
    </trkpt>
    <trkpt lat="48.462564" lon="2.716839">
      <ele>97.2</ele>
      <time>2014-09-28T08:42:48Z</time>
    </trkpt>
    <trkpt lat="48.46265" lon="2.716975">
      <ele>97.0</ele>
      <time>2014-09-28T08:42:50Z</time>
    </trkpt>
    <trkpt lat="48.462706" lon="2.717095">
      <ele>96.9</ele>
      <time>2014-09-28T08:42:52Z</time>
    </trkpt>
    <trkpt lat="48.462764" lon="2.717203">
      <ele>96.7</ele>
      <time>2014-09-28T08:42:54Z</time>
    </trkpt>
    <trkpt lat="48.46287" lon="2.717454">
      <ele>96.4</ele>
      <time>2014-09-28T08:42:58Z</time>
    </trkpt>
    <trkpt lat="48.462921" lon="2.717578">
      <ele>96.3</ele>
      <time>2014-09-28T08:43:00Z</time>
    </trkpt>
    <trkpt lat="48.46298" lon="2.71772">
      <ele>96.1</ele>
      <time>2014-09-28T08:43:02Z</time>
    </trkpt>
    <trkpt lat="48.463043" lon="2.71784">
      <ele>95.9</ele>
      <time>2014-09-28T08:43:04Z</time>
    </trkpt>
    <trkpt lat="48.463089" lon="2.717962">
      <ele>95.8</ele>
      <time>2014-09-28T08:43:06Z</time>
    </trkpt>
    <trkpt lat="48.463178" lon="2.718097">
      <ele>95.1</ele>
      <time>2014-09-28T08:43:08Z</time>
    </trkpt>
    <trkpt lat="48.463258" lon="2.718232">
      <ele>94.6</ele>
      <time>2014-09-28T08:43:10Z</time>
    </trkpt>
    <trkpt lat="48.463338" lon="2.718369">
      <ele>94.2</ele>
      <time>2014-09-28T08:43:12Z</time>
    </trkpt>
    <trkpt lat="48.463409" lon="2.718493">
      <ele>94.3</ele>
      <time>2014-09-28T08:43:14Z</time>
    </trkpt>
    <trkpt lat="48.463466" lon="2.718605">
      <ele>94.4</ele>
      <time>2014-09-28T08:43:16Z</time>
    </trkpt>
    <trkpt lat="48.463532" lon="2.718705">
      <ele>94.2</ele>
      <time>2014-09-28T08:43:18Z</time>
    </trkpt>
    <trkpt lat="48.463617" lon="2.71884">
      <ele>94.0</ele>
      <time>2014-09-28T08:43:20Z</time>
    </trkpt>
    <trkpt lat="48.463692" lon="2.718959">
      <ele>93.8</ele>
      <time>2014-09-28T08:43:22Z</time>
    </trkpt>
    <trkpt lat="48.463775" lon="2.719099">
      <ele>93.4</ele>
      <time>2014-09-28T08:43:24Z</time>
    </trkpt>
    <trkpt lat="48.463848" lon="2.719224">
      <ele>93.2</ele>
      <time>2014-09-28T08:43:26Z</time>
    </trkpt>
    <trkpt lat="48.463898" lon="2.719346">
      <ele>93.5</ele>
      <time>2014-09-28T08:43:28Z</time>
    </trkpt>
    <trkpt lat="48.463963" lon="2.719467">
      <ele>93.6</ele>
      <time>2014-09-28T08:43:30Z</time>
    </trkpt>
    <trkpt lat="48.464035" lon="2.719582">
      <ele>93.8</ele>
      <time>2014-09-28T08:43:32Z</time>
    </trkpt>
    <trkpt lat="48.464104" lon="2.71974">
      <ele>94.4</ele>
      <time>2014-09-28T08:43:34Z</time>
    </trkpt>
    <trkpt lat="48.464177" lon="2.719878">
      <ele>95.0</ele>
      <time>2014-09-28T08:43:36Z</time>
    </trkpt>
    <trkpt lat="48.464252" lon="2.719974">
      <ele>96.2</ele>
      <time>2014-09-28T08:43:38Z</time>
    </trkpt>
    <trkpt lat="48.464334" lon="2.720064">
      <ele>97.1</ele>
      <time>2014-09-28T08:43:40Z</time>
    </trkpt>
    <trkpt lat="48.464396" lon="2.720184">
      <ele>98.0</ele>
      <time>2014-09-28T08:43:42Z</time>
    </trkpt>
    <trkpt lat="48.464468" lon="2.720316">
      <ele>98.9</ele>
      <time>2014-09-28T08:43:44Z</time>
    </trkpt>
    <trkpt lat="48.464534" lon="2.720446">
      <ele>99.7</ele>
      <time>2014-09-28T08:43:46Z</time>
    </trkpt>
    <trkpt lat="48.464598" lon="2.720577">
      <ele>100.5</ele>
      <time>2014-09-28T08:43:48Z</time>
    </trkpt>
    <trkpt lat="48.464673" lon="2.720682">
      <ele>101.0</ele>
      <time>2014-09-28T08:43:50Z</time>
    </trkpt>
    <trkpt lat="48.464739" lon="2.720805">
      <ele>101.6</ele>
      <time>2014-09-28T08:43:52Z</time>
    </trkpt>
    <trkpt lat="48.464828" lon="2.720948">
      <ele>102.1</ele>
      <time>2014-09-28T08:43:54Z</time>
    </trkpt>
    <trkpt lat="48.464958" lon="2.72121">
      <ele>102.9</ele>
      <time>2014-09-28T08:43:58Z</time>
    </trkpt>
    <trkpt lat="48.465033" lon="2.721352">
      <ele>103.2</ele>
      <time>2014-09-28T08:44:00Z</time>
    </trkpt>
    <trkpt lat="48.465105" lon="2.721497">
      <ele>103.3</ele>
      <time>2014-09-28T08:44:02Z</time>
    </trkpt>
    <trkpt lat="48.465176" lon="2.721625">
      <ele>103.3</ele>
      <time>2014-09-28T08:44:04Z</time>
    </trkpt>
    <trkpt lat="48.465237" lon="2.721742">
      <ele>103.2</ele>
      <time>2014-09-28T08:44:06Z</time>
    </trkpt>
    <trkpt lat="48.465296" lon="2.721869">
      <ele>103.1</ele>
      <time>2014-09-28T08:44:08Z</time>
    </trkpt>
    <trkpt lat="48.465371" lon="2.722005">
      <ele>103.0</ele>
      <time>2014-09-28T08:44:10Z</time>
    </trkpt>
    <trkpt lat="48.465458" lon="2.722145">
      <ele>103.0</ele>
      <time>2014-09-28T08:44:12Z</time>
    </trkpt>
    <trkpt lat="48.465533" lon="2.722277">
      <ele>103.0</ele>
      <time>2014-09-28T08:44:14Z</time>
    </trkpt>
    <trkpt lat="48.4656" lon="2.722441">
      <ele>103.2</ele>
      <time>2014-09-28T08:44:16Z</time>
    </trkpt>
    <trkpt lat="48.465668" lon="2.722589">
      <ele>102.8</ele>
      <time>2014-09-28T08:44:18Z</time>
    </trkpt>
    <trkpt lat="48.465715" lon="2.722712">
      <ele>102.2</ele>
      <time>2014-09-28T08:44:20Z</time>
    </trkpt>
    <trkpt lat="48.465799" lon="2.722855">
      <ele>101.4</ele>
      <time>2014-09-28T08:44:22Z</time>
    </trkpt>
    <trkpt lat="48.465881" lon="2.723004">
      <ele>99.7</ele>
      <time>2014-09-28T08:44:24Z</time>
    </trkpt>
    <trkpt lat="48.465961" lon="2.723148">
      <ele>97.6</ele>
      <time>2014-09-28T08:44:26Z</time>
    </trkpt>
    <trkpt lat="48.466055" lon="2.723296">
      <ele>95.2</ele>
      <time>2014-09-28T08:44:28Z</time>
    </trkpt>
    <trkpt lat="48.466135" lon="2.723435">
      <ele>93.3</ele>
      <time>2014-09-28T08:44:30Z</time>
    </trkpt>
    <trkpt lat="48.466206" lon="2.723621">
      <ele>91.7</ele>
      <time>2014-09-28T08:44:32Z</time>
    </trkpt>
    <trkpt lat="48.466281" lon="2.723762">
      <ele>90.2</ele>
      <time>2014-09-28T08:44:34Z</time>
    </trkpt>
    <trkpt lat="48.466373" lon="2.723906">
      <ele>88.6</ele>
      <time>2014-09-28T08:44:36Z</time>
    </trkpt>
    <trkpt lat="48.466445" lon="2.724049">
      <ele>87.3</ele>
      <time>2014-09-28T08:44:38Z</time>
    </trkpt>
    <trkpt lat="48.466488" lon="2.724194">
      <ele>86.5</ele>
      <time>2014-09-28T08:44:40Z</time>
    </trkpt>
    <trkpt lat="48.466587" lon="2.724386">
      <ele>84.8</ele>
      <time>2014-09-28T08:44:42Z</time>
    </trkpt>
    <trkpt lat="48.466683" lon="2.724544">
      <ele>83.5</ele>
      <time>2014-09-28T08:44:44Z</time>
    </trkpt>
    <trkpt lat="48.466776" lon="2.724701">
      <ele>83.0</ele>
      <time>2014-09-28T08:44:46Z</time>
    </trkpt>
    <trkpt lat="48.466861" lon="2.724866">
      <ele>82.5</ele>
      <time>2014-09-28T08:44:48Z</time>
    </trkpt>
    <trkpt lat="48.466956" lon="2.725029">
      <ele>81.9</ele>
      <time>2014-09-28T08:44:50Z</time>
    </trkpt>
    <trkpt lat="48.467051" lon="2.725204">
      <ele>81.5</ele>
      <time>2014-09-28T08:44:52Z</time>
    </trkpt>
    <trkpt lat="48.467133" lon="2.725359">
      <ele>81.1</ele>
      <time>2014-09-28T08:44:54Z</time>
    </trkpt>
    <trkpt lat="48.467331" lon="2.725715">
      <ele>80.4</ele>
      <time>2014-09-28T08:44:58Z</time>
    </trkpt>
    <trkpt lat="48.467426" lon="2.725904">
      <ele>80.1</ele>
      <time>2014-09-28T08:45:00Z</time>
    </trkpt>
    <trkpt lat="48.46752" lon="2.72608">
      <ele>79.6</ele>
      <time>2014-09-28T08:45:02Z</time>
    </trkpt>
    <trkpt lat="48.467612" lon="2.726262">
      <ele>78.7</ele>
      <time>2014-09-28T08:45:04Z</time>
    </trkpt>
    <trkpt lat="48.467707" lon="2.726447">
      <ele>77.8</ele>
      <time>2014-09-28T08:45:06Z</time>
    </trkpt>
    <trkpt lat="48.467809" lon="2.726634">
      <ele>76.8</ele>
      <time>2014-09-28T08:45:08Z</time>
    </trkpt>
    <trkpt lat="48.467914" lon="2.726809">
      <ele>75.6</ele>
      <time>2014-09-28T08:45:10Z</time>
    </trkpt>
    <trkpt lat="48.468004" lon="2.726989">
      <ele>74.4</ele>
      <time>2014-09-28T08:45:12Z</time>
    </trkpt>
    <trkpt lat="48.46811" lon="2.727178">
      <ele>73.2</ele>
      <time>2014-09-28T08:45:14Z</time>
    </trkpt>
    <trkpt lat="48.468209" lon="2.727365">
      <ele>72.1</ele>
      <time>2014-09-28T08:45:16Z</time>
    </trkpt>
    <trkpt lat="48.468309" lon="2.727534">
      <ele>71.1</ele>
      <time>2014-09-28T08:45:18Z</time>
    </trkpt>
    <trkpt lat="48.468413" lon="2.727711">
      <ele>70.6</ele>
      <time>2014-09-28T08:45:20Z</time>
    </trkpt>
    <trkpt lat="48.468502" lon="2.727889">
      <ele>70.4</ele>
      <time>2014-09-28T08:45:22Z</time>
    </trkpt>
    <trkpt lat="48.468592" lon="2.728072">
      <ele>70.3</ele>
      <time>2014-09-28T08:45:24Z</time>
    </trkpt>
    <trkpt lat="48.468696" lon="2.728262">
      <ele>70.4</ele>
      <time>2014-09-28T08:45:26Z</time>
    </trkpt>
    <trkpt lat="48.468782" lon="2.728428">
      <ele>70.5</ele>
      <time>2014-09-28T08:45:28Z</time>
    </trkpt>
    <trkpt lat="48.468865" lon="2.72861">
      <ele>70.3</ele>
      <time>2014-09-28T08:45:30Z</time>
    </trkpt>
    <trkpt lat="48.468955" lon="2.728774">
      <ele>70.1</ele>
      <time>2014-09-28T08:45:32Z</time>
    </trkpt>
    <trkpt lat="48.469038" lon="2.72892">
      <ele>69.8</ele>
      <time>2014-09-28T08:45:34Z</time>
    </trkpt>
    <trkpt lat="48.469184" lon="2.7292">
      <ele>69.1</ele>
      <time>2014-09-28T08:45:37Z</time>
    </trkpt>
    <trkpt lat="48.469272" lon="2.729355">
      <ele>69.4</ele>
      <time>2014-09-28T08:45:39Z</time>
    </trkpt>
    <trkpt lat="48.469361" lon="2.729531">
      <ele>69.6</ele>
      <time>2014-09-28T08:45:41Z</time>
    </trkpt>
    <trkpt lat="48.469488" lon="2.729818">
      <ele>70.0</ele>
      <time>2014-09-28T08:45:44Z</time>
    </trkpt>
    <trkpt lat="48.469575" lon="2.729986">
      <ele>70.0</ele>
      <time>2014-09-28T08:45:46Z</time>
    </trkpt>
    <trkpt lat="48.469665" lon="2.730153">
      <ele>70.2</ele>
      <time>2014-09-28T08:45:48Z</time>
    </trkpt>
    <trkpt lat="48.469741" lon="2.730314">
      <ele>70.5</ele>
      <time>2014-09-28T08:45:50Z</time>
    </trkpt>
    <trkpt lat="48.469821" lon="2.730462">
      <ele>70.6</ele>
      <time>2014-09-28T08:45:52Z</time>
    </trkpt>
    <trkpt lat="48.469899" lon="2.730595">
      <ele>70.7</ele>
      <time>2014-09-28T08:45:54Z</time>
    </trkpt>
    <trkpt lat="48.469977" lon="2.730724">
      <ele>70.7</ele>
      <time>2014-09-28T08:45:56Z</time>
    </trkpt>
    <trkpt lat="48.470116" lon="2.731007">
      <ele>70.7</ele>
      <time>2014-09-28T08:46:00Z</time>
    </trkpt>
    <trkpt lat="48.470178" lon="2.731133">
      <ele>70.7</ele>
      <time>2014-09-28T08:46:02Z</time>
    </trkpt>
    <trkpt lat="48.470277" lon="2.731246">
      <ele>70.3</ele>
      <time>2014-09-28T08:46:06Z</time>
    </trkpt>
    <trkpt lat="48.470355" lon="2.731358">
      <ele>70.2</ele>
      <time>2014-09-28T08:46:09Z</time>
    </trkpt>
    <trkpt lat="48.470416" lon="2.731517">
      <ele>70.4</ele>
      <time>2014-09-28T08:46:12Z</time>
    </trkpt>
    <trkpt lat="48.470475" lon="2.73162">
      <ele>70.4</ele>
      <time>2014-09-28T08:46:14Z</time>
    </trkpt>
    <trkpt lat="48.470544" lon="2.731718">
      <ele>70.3</ele>
      <time>2014-09-28T08:46:16Z</time>
    </trkpt>
    <trkpt lat="48.470599" lon="2.731831">
      <ele>70.5</ele>
      <time>2014-09-28T08:46:18Z</time>
    </trkpt>
    <trkpt lat="48.470663" lon="2.731977">
      <ele>70.9</ele>
      <time>2014-09-28T08:46:20Z</time>
    </trkpt>
    <trkpt lat="48.470726" lon="2.732108">
      <ele>71.2</ele>
      <time>2014-09-28T08:46:22Z</time>
    </trkpt>
    <trkpt lat="48.470775" lon="2.732285">
      <ele>72.0</ele>
      <time>2014-09-28T08:46:24Z</time>
    </trkpt>
    <trkpt lat="48.470849" lon="2.732429">
      <ele>72.5</ele>
      <time>2014-09-28T08:46:26Z</time>
    </trkpt>
    <trkpt lat="48.470916" lon="2.732571">
      <ele>72.5</ele>
      <time>2014-09-28T08:46:28Z</time>
    </trkpt>
    <trkpt lat="48.470978" lon="2.732764">
      <ele>72.0</ele>
      <time>2014-09-28T08:46:31Z</time>
    </trkpt>
    <trkpt lat="48.471059" lon="2.732922">
      <ele>71.4</ele>
      <time>2014-09-28T08:46:33Z</time>
    </trkpt>
    <trkpt lat="48.471125" lon="2.733078">
      <ele>70.8</ele>
      <time>2014-09-28T08:46:35Z</time>
    </trkpt>
    <trkpt lat="48.471252" lon="2.733296">
      <ele>69.5</ele>
      <time>2014-09-28T08:46:38Z</time>
    </trkpt>
    <trkpt lat="48.471289" lon="2.733521">
      <ele>68.8</ele>
      <time>2014-09-28T08:46:40Z</time>
    </trkpt>
    <trkpt lat="48.471353" lon="2.733712">
      <ele>68.0</ele>
      <time>2014-09-28T08:46:42Z</time>
    </trkpt>
    <trkpt lat="48.471426" lon="2.733899">
      <ele>67.2</ele>
      <time>2014-09-28T08:46:44Z</time>
    </trkpt>
    <trkpt lat="48.471472" lon="2.734079">
      <ele>66.8</ele>
      <time>2014-09-28T08:46:46Z</time>
    </trkpt>
    <trkpt lat="48.471525" lon="2.734245">
      <ele>66.4</ele>
      <time>2014-09-28T08:46:48Z</time>
    </trkpt>
    <trkpt lat="48.47159" lon="2.734408">
      <ele>65.9</ele>
      <time>2014-09-28T08:46:50Z</time>
    </trkpt>
    <trkpt lat="48.471694" lon="2.734607">
      <ele>65.6</ele>
      <time>2014-09-28T08:46:53Z</time>
    </trkpt>
    <trkpt lat="48.471739" lon="2.734773">
      <ele>65.7</ele>
      <time>2014-09-28T08:46:55Z</time>
    </trkpt>
    <trkpt lat="48.471792" lon="2.734958">
      <ele>66.0</ele>
      <time>2014-09-28T08:46:57Z</time>
    </trkpt>
    <trkpt lat="48.471905" lon="2.735282">
      <ele>67.2</ele>
      <time>2014-09-28T08:47:01Z</time>
    </trkpt>
    <trkpt lat="48.471979" lon="2.735454">
      <ele>68.3</ele>
      <time>2014-09-28T08:47:03Z</time>
    </trkpt>
    <trkpt lat="48.472052" lon="2.735613">
      <ele>69.5</ele>
      <time>2014-09-28T08:47:05Z</time>
    </trkpt>
    <trkpt lat="48.472143" lon="2.735843">
      <ele>71.4</ele>
      <time>2014-09-28T08:47:08Z</time>
    </trkpt>
    <trkpt lat="48.472192" lon="2.736001">
      <ele>71.7</ele>
      <time>2014-09-28T08:47:10Z</time>
    </trkpt>
    <trkpt lat="48.472252" lon="2.736131">
      <ele>72.2</ele>
      <time>2014-09-28T08:47:12Z</time>
    </trkpt>
    <trkpt lat="48.472337" lon="2.736397">
      <ele>72.6</ele>
      <time>2014-09-28T08:47:15Z</time>
    </trkpt>
    <trkpt lat="48.472373" lon="2.736539">
      <ele>72.6</ele>
      <time>2014-09-28T08:47:17Z</time>
    </trkpt>
    <trkpt lat="48.472441" lon="2.736707">
      <ele>72.9</ele>
      <time>2014-09-28T08:47:20Z</time>
    </trkpt>
    <trkpt lat="48.472506" lon="2.736882">
      <ele>72.4</ele>
      <time>2014-09-28T08:47:23Z</time>
    </trkpt>
    <trkpt lat="48.472579" lon="2.737016">
      <ele>71.5</ele>
      <time>2014-09-28T08:47:26Z</time>
    </trkpt>
    <trkpt lat="48.47263" lon="2.737141">
      <ele>70.8</ele>
      <time>2014-09-28T08:47:28Z</time>
    </trkpt>
    <trkpt lat="48.472713" lon="2.737296">
      <ele>70.1</ele>
      <time>2014-09-28T08:47:31Z</time>
    </trkpt>
    <trkpt lat="48.472798" lon="2.737482">
      <ele>69.5</ele>
      <time>2014-09-28T08:47:36Z</time>
    </trkpt>
    <trkpt lat="48.472864" lon="2.737602">
      <ele>69.7</ele>
      <time>2014-09-28T08:47:40Z</time>
    </trkpt>
    <trkpt lat="48.472907" lon="2.737757">
      <ele>69.8</ele>
      <time>2014-09-28T08:47:43Z</time>
    </trkpt>
    <trkpt lat="48.472966" lon="2.737897">
      <ele>70.0</ele>
      <time>2014-09-28T08:47:46Z</time>
    </trkpt>
    <trkpt lat="48.473001" lon="2.738038">
      <ele>70.0</ele>
      <time>2014-09-28T08:47:48Z</time>
    </trkpt>
    <trkpt lat="48.473065" lon="2.738167">
      <ele>70.2</ele>
      <time>2014-09-28T08:47:50Z</time>
    </trkpt>
    <trkpt lat="48.473142" lon="2.738337">
      <ele>70.3</ele>
      <time>2014-09-28T08:47:53Z</time>
    </trkpt>
    <trkpt lat="48.473205" lon="2.73846">
      <ele>70.6</ele>
      <time>2014-09-28T08:47:55Z</time>
    </trkpt>
    <trkpt lat="48.473262" lon="2.738594">
      <ele>70.8</ele>
      <time>2014-09-28T08:47:57Z</time>
    </trkpt>
    <trkpt lat="48.473286" lon="2.738725">
      <ele>70.9</ele>
      <time>2014-09-28T08:47:59Z</time>
    </trkpt>
    <trkpt lat="48.473372" lon="2.738989">
      <ele>71.0</ele>
      <time>2014-09-28T08:48:03Z</time>
    </trkpt>
    <trkpt lat="48.473441" lon="2.739136">
      <ele>70.9</ele>
      <time>2014-09-28T08:48:05Z</time>
    </trkpt>
    <trkpt lat="48.4735" lon="2.73925">
      <ele>70.9</ele>
      <time>2014-09-28T08:48:07Z</time>
    </trkpt>
    <trkpt lat="48.473553" lon="2.73938">
      <ele>71.0</ele>
      <time>2014-09-28T08:48:09Z</time>
    </trkpt>
    <trkpt lat="48.473604" lon="2.739551">
      <ele>71.1</ele>
      <time>2014-09-28T08:48:11Z</time>
    </trkpt>
    <trkpt lat="48.473649" lon="2.739675">
      <ele>71.2</ele>
      <time>2014-09-28T08:48:13Z</time>
    </trkpt>
    <trkpt lat="48.473706" lon="2.73983">
      <ele>71.3</ele>
      <time>2014-09-28T08:48:15Z</time>
    </trkpt>
    <trkpt lat="48.473747" lon="2.73997">
      <ele>71.5</ele>
      <time>2014-09-28T08:48:17Z</time>
    </trkpt>
    <trkpt lat="48.473811" lon="2.740106">
      <ele>71.4</ele>
      <time>2014-09-28T08:48:19Z</time>
    </trkpt>
    <trkpt lat="48.47386" lon="2.740244">
      <ele>71.4</ele>
      <time>2014-09-28T08:48:21Z</time>
    </trkpt>
    <trkpt lat="48.473915" lon="2.740377">
      <ele>71.5</ele>
      <time>2014-09-28T08:48:23Z</time>
    </trkpt>
    <trkpt lat="48.47399" lon="2.740505">
      <ele>71.6</ele>
      <time>2014-09-28T08:48:25Z</time>
    </trkpt>
    <trkpt lat="48.474035" lon="2.740663">
      <ele>71.7</ele>
      <time>2014-09-28T08:48:27Z</time>
    </trkpt>
    <trkpt lat="48.474081" lon="2.740787">
      <ele>71.9</ele>
      <time>2014-09-28T08:48:29Z</time>
    </trkpt>
    <trkpt lat="48.47414" lon="2.740923">
      <ele>71.7</ele>
      <time>2014-09-28T08:48:32Z</time>
    </trkpt>
    <trkpt lat="48.474191" lon="2.741037">
      <ele>71.2</ele>
      <time>2014-09-28T08:48:34Z</time>
    </trkpt>
    <trkpt lat="48.474228" lon="2.741161">
      <ele>70.8</ele>
      <time>2014-09-28T08:48:36Z</time>
    </trkpt>
    <trkpt lat="48.474284" lon="2.741283">
      <ele>70.3</ele>
      <time>2014-09-28T08:48:38Z</time>
    </trkpt>
    <trkpt lat="48.474317" lon="2.741414">
      <ele>69.9</ele>
      <time>2014-09-28T08:48:40Z</time>
    </trkpt>
    <trkpt lat="48.474361" lon="2.741602">
      <ele>69.2</ele>
      <time>2014-09-28T08:48:45Z</time>
    </trkpt>
    <trkpt lat="48.474394" lon="2.741756">
      <ele>69.0</ele>
      <time>2014-09-28T08:48:50Z</time>
    </trkpt>
    <trkpt lat="48.47445" lon="2.741897">
      <ele>69.0</ele>
      <time>2014-09-28T08:48:54Z</time>
    </trkpt>
    <trkpt lat="48.474509" lon="2.742043">
      <ele>69.0</ele>
      <time>2014-09-28T08:48:57Z</time>
    </trkpt>
    <trkpt lat="48.474565" lon="2.742161">
      <ele>69.0</ele>
      <time>2014-09-28T08:49:00Z</time>
    </trkpt>
    <trkpt lat="48.474706" lon="2.74249">
      <ele>69.0</ele>
      <time>2014-09-28T08:49:06Z</time>
    </trkpt>
    <trkpt lat="48.47477" lon="2.742591">
      <ele>69.1</ele>
      <time>2014-09-28T08:49:08Z</time>
    </trkpt>
    <trkpt lat="48.474846" lon="2.742767">
      <ele>69.3</ele>
      <time>2014-09-28T08:49:11Z</time>
    </trkpt>
    <trkpt lat="48.474899" lon="2.742906">
      <ele>69.5</ele>
      <time>2014-09-28T08:49:13Z</time>
    </trkpt>
    <trkpt lat="48.474963" lon="2.743075">
      <ele>69.7</ele>
      <time>2014-09-28T08:49:15Z</time>
    </trkpt>
    <trkpt lat="48.474997" lon="2.743218">
      <ele>69.9</ele>
      <time>2014-09-28T08:49:17Z</time>
    </trkpt>
    <trkpt lat="48.475046" lon="2.743344">
      <ele>69.7</ele>
      <time>2014-09-28T08:49:19Z</time>
    </trkpt>
    <trkpt lat="48.475093" lon="2.743467">
      <ele>69.2</ele>
      <time>2014-09-28T08:49:21Z</time>
    </trkpt>
    <trkpt lat="48.475153" lon="2.743609">
      <ele>68.6</ele>
      <time>2014-09-28T08:49:23Z</time>
    </trkpt>
    <trkpt lat="48.47521" lon="2.743742">
      <ele>68.0</ele>
      <time>2014-09-28T08:49:25Z</time>
    </trkpt>
    <trkpt lat="48.475272" lon="2.74389">
      <ele>67.3</ele>
      <time>2014-09-28T08:49:27Z</time>
    </trkpt>
    <trkpt lat="48.475321" lon="2.744042">
      <ele>66.6</ele>
      <time>2014-09-28T08:49:29Z</time>
    </trkpt>
    <trkpt lat="48.475386" lon="2.744181">
      <ele>65.7</ele>
      <time>2014-09-28T08:49:31Z</time>
    </trkpt>
    <trkpt lat="48.475447" lon="2.744328">
      <ele>65.0</ele>
      <time>2014-09-28T08:49:33Z</time>
    </trkpt>
    <trkpt lat="48.4755" lon="2.744495">
      <ele>64.2</ele>
      <time>2014-09-28T08:49:35Z</time>
    </trkpt>
    <trkpt lat="48.475572" lon="2.744657">
      <ele>63.4</ele>
      <time>2014-09-28T08:49:37Z</time>
    </trkpt>
    <trkpt lat="48.475637" lon="2.744803">
      <ele>62.7</ele>
      <time>2014-09-28T08:49:39Z</time>
    </trkpt>
    <trkpt lat="48.475694" lon="2.744929">
      <ele>62.1</ele>
      <time>2014-09-28T08:49:41Z</time>
    </trkpt>
    <trkpt lat="48.475757" lon="2.745093">
      <ele>61.5</ele>
      <time>2014-09-28T08:49:43Z</time>
    </trkpt>
    <trkpt lat="48.475812" lon="2.745223">
      <ele>61.2</ele>
      <time>2014-09-28T08:49:45Z</time>
    </trkpt>
    <trkpt lat="48.475866" lon="2.745391">
      <ele>60.9</ele>
      <time>2014-09-28T08:49:47Z</time>
    </trkpt>
    <trkpt lat="48.475933" lon="2.745522">
      <ele>60.8</ele>
      <time>2014-09-28T08:49:49Z</time>
    </trkpt>
    <trkpt lat="48.475991" lon="2.74564">
      <ele>60.6</ele>
      <time>2014-09-28T08:49:51Z</time>
    </trkpt>
    <trkpt lat="48.476049" lon="2.745801">
      <ele>60.5</ele>
      <time>2014-09-28T08:49:53Z</time>
    </trkpt>
    <trkpt lat="48.476101" lon="2.745942">
      <ele>60.4</ele>
      <time>2014-09-28T08:49:55Z</time>
    </trkpt>
    <trkpt lat="48.476156" lon="2.746099">
      <ele>60.2</ele>
      <time>2014-09-28T08:49:57Z</time>
    </trkpt>
    <trkpt lat="48.476216" lon="2.746263">
      <ele>59.9</ele>
      <time>2014-09-28T08:49:59Z</time>
    </trkpt>
    <trkpt lat="48.47627" lon="2.746385">
      <ele>59.6</ele>
      <time>2014-09-28T08:50:01Z</time>
    </trkpt>
    <trkpt lat="48.476388" lon="2.746677">
      <ele>58.7</ele>
      <time>2014-09-28T08:50:05Z</time>
    </trkpt>
    <trkpt lat="48.476426" lon="2.746806">
      <ele>58.4</ele>
      <time>2014-09-28T08:50:07Z</time>
    </trkpt>
    <trkpt lat="48.476491" lon="2.746993">
      <ele>58.0</ele>
      <time>2014-09-28T08:50:10Z</time>
    </trkpt>
    <trkpt lat="48.476549" lon="2.747157">
      <ele>57.6</ele>
      <time>2014-09-28T08:50:12Z</time>
    </trkpt>
    <trkpt lat="48.476609" lon="2.747309">
      <ele>57.3</ele>
      <time>2014-09-28T08:50:14Z</time>
    </trkpt>
    <trkpt lat="48.476676" lon="2.747461">
      <ele>57.0</ele>
      <time>2014-09-28T08:50:16Z</time>
    </trkpt>
    <trkpt lat="48.476744" lon="2.747596">
      <ele>57.0</ele>
      <time>2014-09-28T08:50:18Z</time>
    </trkpt>
    <trkpt lat="48.476792" lon="2.747741">
      <ele>57.0</ele>
      <time>2014-09-28T08:50:20Z</time>
    </trkpt>
    <trkpt lat="48.476844" lon="2.747903">
      <ele>57.1</ele>
      <time>2014-09-28T08:50:22Z</time>
    </trkpt>
    <trkpt lat="48.476888" lon="2.748026">
      <ele>57.2</ele>
      <time>2014-09-28T08:50:24Z</time>
    </trkpt>
    <trkpt lat="48.476948" lon="2.748174">
      <ele>57.3</ele>
      <time>2014-09-28T08:50:26Z</time>
    </trkpt>
    <trkpt lat="48.476996" lon="2.748333">
      <ele>57.4</ele>
      <time>2014-09-28T08:50:28Z</time>
    </trkpt>
    <trkpt lat="48.477052" lon="2.748481">
      <ele>57.9</ele>
      <time>2014-09-28T08:50:30Z</time>
    </trkpt>
    <trkpt lat="48.477126" lon="2.748628">
      <ele>58.4</ele>
      <time>2014-09-28T08:50:32Z</time>
    </trkpt>
    <trkpt lat="48.477178" lon="2.748756">
      <ele>58.8</ele>
      <time>2014-09-28T08:50:34Z</time>
    </trkpt>
    <trkpt lat="48.477214" lon="2.748918">
      <ele>59.3</ele>
      <time>2014-09-28T08:50:36Z</time>
    </trkpt>
    <trkpt lat="48.477266" lon="2.749091">
      <ele>59.8</ele>
      <time>2014-09-28T08:50:38Z</time>
    </trkpt>
    <trkpt lat="48.477334" lon="2.749219">
      <ele>60.2</ele>
      <time>2014-09-28T08:50:40Z</time>
    </trkpt>
    <trkpt lat="48.477393" lon="2.749373">
      <ele>60.6</ele>
      <time>2014-09-28T08:50:42Z</time>
    </trkpt>
    <trkpt lat="48.477452" lon="2.749569">
      <ele>61.0</ele>
      <time>2014-09-28T08:50:44Z</time>
    </trkpt>
    <trkpt lat="48.477512" lon="2.749742">
      <ele>61.4</ele>
      <time>2014-09-28T08:50:46Z</time>
    </trkpt>
    <trkpt lat="48.477573" lon="2.749893">
      <ele>61.8</ele>
      <time>2014-09-28T08:50:48Z</time>
    </trkpt>
    <trkpt lat="48.47765" lon="2.75005">
      <ele>62.0</ele>
      <time>2014-09-28T08:50:50Z</time>
    </trkpt>
    <trkpt lat="48.477701" lon="2.750194">
      <ele>62.2</ele>
      <time>2014-09-28T08:50:52Z</time>
    </trkpt>
    <trkpt lat="48.477762" lon="2.750348">
      <ele>62.3</ele>
      <time>2014-09-28T08:50:54Z</time>
    </trkpt>
    <trkpt lat="48.477826" lon="2.750519">
      <ele>62.4</ele>
      <time>2014-09-28T08:50:56Z</time>
    </trkpt>
    <trkpt lat="48.477889" lon="2.750698">
      <ele>62.4</ele>
      <time>2014-09-28T08:50:58Z</time>
    </trkpt>
    <trkpt lat="48.477939" lon="2.75082">
      <ele>62.5</ele>
      <time>2014-09-28T08:51:00Z</time>
    </trkpt>
    <trkpt lat="48.477983" lon="2.750953">
      <ele>62.4</ele>
      <time>2014-09-28T08:51:02Z</time>
    </trkpt>
    <trkpt lat="48.478131" lon="2.751267">
      <ele>62.0</ele>
      <time>2014-09-28T08:51:08Z</time>
    </trkpt>
    <trkpt lat="48.47819" lon="2.751404">
      <ele>61.7</ele>
      <time>2014-09-28T08:51:11Z</time>
    </trkpt>
    <trkpt lat="48.478262" lon="2.751591">
      <ele>61.3</ele>
      <time>2014-09-28T08:51:14Z</time>
    </trkpt>
    <trkpt lat="48.478317" lon="2.751739">
      <ele>61.1</ele>
      <time>2014-09-28T08:51:16Z</time>
    </trkpt>
    <trkpt lat="48.478373" lon="2.751902">
      <ele>60.9</ele>
      <time>2014-09-28T08:51:18Z</time>
    </trkpt>
    <trkpt lat="48.478443" lon="2.752061">
      <ele>60.7</ele>
      <time>2014-09-28T08:51:20Z</time>
    </trkpt>
    <trkpt lat="48.478514" lon="2.75225">
      <ele>60.6</ele>
      <time>2014-09-28T08:51:22Z</time>
    </trkpt>
    <trkpt lat="48.478583" lon="2.752402">
      <ele>60.4</ele>
      <time>2014-09-28T08:51:24Z</time>
    </trkpt>
    <trkpt lat="48.478652" lon="2.752582">
      <ele>60.1</ele>
      <time>2014-09-28T08:51:26Z</time>
    </trkpt>
    <trkpt lat="48.47871" lon="2.752766">
      <ele>59.6</ele>
      <time>2014-09-28T08:51:28Z</time>
    </trkpt>
    <trkpt lat="48.478749" lon="2.752926">
      <ele>59.2</ele>
      <time>2014-09-28T08:51:30Z</time>
    </trkpt>
    <trkpt lat="48.478823" lon="2.753109">
      <ele>58.7</ele>
      <time>2014-09-28T08:51:32Z</time>
    </trkpt>
    <trkpt lat="48.478903" lon="2.753295">
      <ele>58.0</ele>
      <time>2014-09-28T08:51:34Z</time>
    </trkpt>
    <trkpt lat="48.47896" lon="2.753434">
      <ele>57.5</ele>
      <time>2014-09-28T08:51:36Z</time>
    </trkpt>
    <trkpt lat="48.479026" lon="2.753581">
      <ele>56.9</ele>
      <time>2014-09-28T08:51:38Z</time>
    </trkpt>
    <trkpt lat="48.479095" lon="2.753737">
      <ele>56.3</ele>
      <time>2014-09-28T08:51:40Z</time>
    </trkpt>
    <trkpt lat="48.479182" lon="2.753871">
      <ele>55.7</ele>
      <time>2014-09-28T08:51:42Z</time>
    </trkpt>
    <trkpt lat="48.479259" lon="2.754046">
      <ele>55.5</ele>
      <time>2014-09-28T08:51:44Z</time>
    </trkpt>
    <trkpt lat="48.47932" lon="2.754196">
      <ele>55.4</ele>
      <time>2014-09-28T08:51:46Z</time>
    </trkpt>
    <trkpt lat="48.479363" lon="2.754362">
      <ele>55.6</ele>
      <time>2014-09-28T08:51:48Z</time>
    </trkpt>
    <trkpt lat="48.479434" lon="2.754507">
      <ele>55.8</ele>
      <time>2014-09-28T08:51:50Z</time>
    </trkpt>
    <trkpt lat="48.479507" lon="2.7547">
      <ele>55.9</ele>
      <time>2014-09-28T08:51:52Z</time>
    </trkpt>
    <trkpt lat="48.479554" lon="2.754848">
      <ele>56.0</ele>
      <time>2014-09-28T08:51:54Z</time>
    </trkpt>
    <trkpt lat="48.479625" lon="2.754989">
      <ele>56.0</ele>
      <time>2014-09-28T08:51:56Z</time>
    </trkpt>
    <trkpt lat="48.479663" lon="2.755159">
      <ele>56.0</ele>
      <time>2014-09-28T08:51:58Z</time>
    </trkpt>
    <trkpt lat="48.479716" lon="2.755328">
      <ele>56.0</ele>
      <time>2014-09-28T08:52:00Z</time>
    </trkpt>
    <trkpt lat="48.47977" lon="2.755473">
      <ele>56.0</ele>
      <time>2014-09-28T08:52:02Z</time>
    </trkpt>
    <trkpt lat="48.479895" lon="2.755761">
      <ele>56.0</ele>
      <time>2014-09-28T08:52:06Z</time>
    </trkpt>
    <trkpt lat="48.479968" lon="2.755914">
      <ele>55.8</ele>
      <time>2014-09-28T08:52:08Z</time>
    </trkpt>
    <trkpt lat="48.480047" lon="2.756062">
      <ele>55.3</ele>
      <time>2014-09-28T08:52:10Z</time>
    </trkpt>
    <trkpt lat="48.480087" lon="2.756217">
      <ele>54.9</ele>
      <time>2014-09-28T08:52:12Z</time>
    </trkpt>
    <trkpt lat="48.480139" lon="2.756375">
      <ele>54.4</ele>
      <time>2014-09-28T08:52:14Z</time>
    </trkpt>
    <trkpt lat="48.480205" lon="2.756555">
      <ele>54.0</ele>
      <time>2014-09-28T08:52:16Z</time>
    </trkpt>
    <trkpt lat="48.480292" lon="2.756752">
      <ele>53.7</ele>
      <time>2014-09-28T08:52:18Z</time>
    </trkpt>
    <trkpt lat="48.480356" lon="2.75695">
      <ele>53.9</ele>
      <time>2014-09-28T08:52:20Z</time>
    </trkpt>
    <trkpt lat="48.48042" lon="2.757101">
      <ele>54.0</ele>
      <time>2014-09-28T08:52:22Z</time>
    </trkpt>
    <trkpt lat="48.480467" lon="2.757256">
      <ele>54.2</ele>
      <time>2014-09-28T08:52:24Z</time>
    </trkpt>
    <trkpt lat="48.480549" lon="2.757408">
      <ele>54.5</ele>
      <time>2014-09-28T08:52:26Z</time>
    </trkpt>
    <trkpt lat="48.480623" lon="2.757543">
      <ele>54.6</ele>
      <time>2014-09-28T08:52:28Z</time>
    </trkpt>
    <trkpt lat="48.48069" lon="2.75771">
      <ele>54.1</ele>
      <time>2014-09-28T08:52:30Z</time>
    </trkpt>
    <trkpt lat="48.480727" lon="2.757891">
      <ele>53.5</ele>
      <time>2014-09-28T08:52:32Z</time>
    </trkpt>
    <trkpt lat="48.480779" lon="2.758044">
      <ele>53.0</ele>
      <time>2014-09-28T08:52:34Z</time>
    </trkpt>
    <trkpt lat="48.480835" lon="2.758189">
      <ele>52.5</ele>
      <time>2014-09-28T08:52:36Z</time>
    </trkpt>
    <trkpt lat="48.480899" lon="2.758363">
      <ele>51.3</ele>
      <time>2014-09-28T08:52:38Z</time>
    </trkpt>
    <trkpt lat="48.480946" lon="2.758541">
      <ele>50.5</ele>
      <time>2014-09-28T08:52:40Z</time>
    </trkpt>
    <trkpt lat="48.481026" lon="2.758729">
      <ele>49.3</ele>
      <time>2014-09-28T08:52:42Z</time>
    </trkpt>
    <trkpt lat="48.481092" lon="2.758913">
      <ele>48.3</ele>
      <time>2014-09-28T08:52:44Z</time>
    </trkpt>
    <trkpt lat="48.481169" lon="2.759083">
      <ele>47.3</ele>
      <time>2014-09-28T08:52:46Z</time>
    </trkpt>
    <trkpt lat="48.481252" lon="2.759234">
      <ele>46.6</ele>
      <time>2014-09-28T08:52:48Z</time>
    </trkpt>
    <trkpt lat="48.481314" lon="2.759384">
      <ele>46.5</ele>
      <time>2014-09-28T08:52:50Z</time>
    </trkpt>
    <trkpt lat="48.481357" lon="2.759541">
      <ele>46.5</ele>
      <time>2014-09-28T08:52:52Z</time>
    </trkpt>
    <trkpt lat="48.481403" lon="2.759694">
      <ele>46.5</ele>
      <time>2014-09-28T08:52:54Z</time>
    </trkpt>
    <trkpt lat="48.48145" lon="2.75994">
      <ele>46.7</ele>
      <time>2014-09-28T08:52:57Z</time>
    </trkpt>
    <trkpt lat="48.481517" lon="2.760051">
      <ele>46.4</ele>
      <time>2014-09-28T08:52:59Z</time>
    </trkpt>
    <trkpt lat="48.481576" lon="2.760206">
      <ele>46.4</ele>
      <time>2014-09-28T08:53:02Z</time>
    </trkpt>
    <trkpt lat="48.481658" lon="2.760297">
      <ele>46.1</ele>
      <time>2014-09-28T08:53:04Z</time>
    </trkpt>
    <trkpt lat="48.48178" lon="2.760081">
      <ele>44.8</ele>
      <time>2014-09-28T08:53:13Z</time>
    </trkpt>
    <trkpt lat="48.48185" lon="2.759935">
      <ele>44.3</ele>
      <time>2014-09-28T08:53:16Z</time>
    </trkpt>
    <trkpt lat="48.481929" lon="2.759801">
      <ele>44.0</ele>
      <time>2014-09-28T08:53:19Z</time>
    </trkpt>
    <trkpt lat="48.481996" lon="2.759696">
      <ele>43.8</ele>
      <time>2014-09-28T08:53:21Z</time>
    </trkpt>
    <trkpt lat="48.482079" lon="2.759518">
      <ele>43.8</ele>
      <time>2014-09-28T08:53:24Z</time>
    </trkpt>
    <trkpt lat="48.482148" lon="2.759366">
      <ele>43.9</ele>
      <time>2014-09-28T08:53:27Z</time>
    </trkpt>
    <trkpt lat="48.482217" lon="2.759254">
      <ele>44.2</ele>
      <time>2014-09-28T08:53:29Z</time>
    </trkpt>
    <trkpt lat="48.482309" lon="2.759132">
      <ele>44.5</ele>
      <time>2014-09-28T08:53:32Z</time>
    </trkpt>
    <trkpt lat="48.48238" lon="2.758985">
      <ele>44.6</ele>
      <time>2014-09-28T08:53:35Z</time>
    </trkpt>
    <trkpt lat="48.482436" lon="2.758829">
      <ele>44.5</ele>
      <time>2014-09-28T08:53:38Z</time>
    </trkpt>
    <trkpt lat="48.482507" lon="2.758696">
      <ele>44.5</ele>
      <time>2014-09-28T08:53:40Z</time>
    </trkpt>
    <trkpt lat="48.48258" lon="2.758584">
      <ele>44.5</ele>
      <time>2014-09-28T08:53:43Z</time>
    </trkpt>
    <trkpt lat="48.482641" lon="2.758424">
      <ele>44.5</ele>
      <time>2014-09-28T08:53:45Z</time>
    </trkpt>
    <trkpt lat="48.48266" lon="2.758251">
      <ele>44.3</ele>
      <time>2014-09-28T08:53:48Z</time>
    </trkpt>
    <trkpt lat="48.482685" lon="2.758114">
      <ele>44.2</ele>
      <time>2014-09-28T08:53:50Z</time>
    </trkpt>
    <trkpt lat="48.482753" lon="2.757991">
      <ele>44.3</ele>
      <time>2014-09-28T08:53:52Z</time>
    </trkpt>
    <trkpt lat="48.482816" lon="2.757883">
      <ele>44.4</ele>
      <time>2014-09-28T08:53:54Z</time>
    </trkpt>
    <trkpt lat="48.482864" lon="2.757734">
      <ele>44.5</ele>
      <time>2014-09-28T08:53:56Z</time>
    </trkpt>
    <trkpt lat="48.482916" lon="2.757561">
      <ele>44.5</ele>
      <time>2014-09-28T08:53:59Z</time>
    </trkpt>
    <trkpt lat="48.48297" lon="2.75744">
      <ele>45.1</ele>
      <time>2014-09-28T08:54:01Z</time>
    </trkpt>
    <trkpt lat="48.483024" lon="2.757308">
      <ele>46.2</ele>
      <time>2014-09-28T08:54:03Z</time>
    </trkpt>
    <trkpt lat="48.483081" lon="2.757121">
      <ele>47.6</ele>
      <time>2014-09-28T08:54:06Z</time>
    </trkpt>
    <trkpt lat="48.483222" lon="2.756825">
      <ele>49.9</ele>
      <time>2014-09-28T08:54:11Z</time>
    </trkpt>
    <trkpt lat="48.483267" lon="2.7567">
      <ele>50.7</ele>
      <time>2014-09-28T08:54:16Z</time>
    </trkpt>
    <trkpt lat="48.483328" lon="2.756586">
      <ele>51.3</ele>
      <time>2014-09-28T08:55:01Z</time>
    </trkpt>
    <trkpt lat="48.48341" lon="2.756508">
      <ele>51.0</ele>
      <time>2014-09-28T08:55:08Z</time>
    </trkpt>
    <trkpt lat="48.483502" lon="2.756248">
      <ele>51.0</ele>
      <time>2014-09-28T08:55:15Z</time>
    </trkpt>
    <trkpt lat="48.483549" lon="2.756131">
      <ele>50.9</ele>
      <time>2014-09-28T08:55:19Z</time>
    </trkpt>
    <trkpt lat="48.483591" lon="2.756004">
      <ele>50.8</ele>
      <time>2014-09-28T08:55:22Z</time>
    </trkpt>
    <trkpt lat="48.483634" lon="2.755852">
      <ele>50.7</ele>
      <time>2014-09-28T08:55:25Z</time>
    </trkpt>
    <trkpt lat="48.483691" lon="2.755709">
      <ele>50.3</ele>
      <time>2014-09-28T08:55:27Z</time>
    </trkpt>
    <trkpt lat="48.48377" lon="2.755586">
      <ele>49.8</ele>
      <time>2014-09-28T08:55:29Z</time>
    </trkpt>
    <trkpt lat="48.48387" lon="2.755481">
      <ele>49.0</ele>
      <time>2014-09-28T08:55:32Z</time>
    </trkpt>
    <trkpt lat="48.483938" lon="2.755357">
      <ele>48.7</ele>
      <time>2014-09-28T08:55:35Z</time>
    </trkpt>
    <trkpt lat="48.483986" lon="2.755235">
      <ele>48.6</ele>
      <time>2014-09-28T08:55:37Z</time>
    </trkpt>
    <trkpt lat="48.484006" lon="2.755102">
      <ele>48.9</ele>
      <time>2014-09-28T08:55:39Z</time>
    </trkpt>
    <trkpt lat="48.484038" lon="2.754922">
      <ele>49.1</ele>
      <time>2014-09-28T08:55:43Z</time>
    </trkpt>
    <trkpt lat="48.484075" lon="2.754761">
      <ele>49.4</ele>
      <time>2014-09-28T08:55:46Z</time>
    </trkpt>
    <trkpt lat="48.484153" lon="2.754557">
      <ele>49.7</ele>
      <time>2014-09-28T08:55:49Z</time>
    </trkpt>
    <trkpt lat="48.484205" lon="2.75444">
      <ele>49.6</ele>
      <time>2014-09-28T08:55:51Z</time>
    </trkpt>
    <trkpt lat="48.48422" lon="2.754255">
      <ele>50.1</ele>
      <time>2014-09-28T08:55:53Z</time>
    </trkpt>
    <trkpt lat="48.484292" lon="2.754056">
      <ele>49.9</ele>
      <time>2014-09-28T08:55:55Z</time>
    </trkpt>
    <trkpt lat="48.484356" lon="2.753896">
      <ele>49.7</ele>
      <time>2014-09-28T08:55:58Z</time>
    </trkpt>
    <trkpt lat="48.484416" lon="2.753679">
      <ele>49.7</ele>
      <time>2014-09-28T08:56:01Z</time>
    </trkpt>
    <trkpt lat="48.484479" lon="2.753506">
      <ele>49.5</ele>
      <time>2014-09-28T08:56:03Z</time>
    </trkpt>
    <trkpt lat="48.48453" lon="2.753382">
      <ele>49.4</ele>
      <time>2014-09-28T08:56:05Z</time>
    </trkpt>
    <trkpt lat="48.48458" lon="2.753262">
      <ele>49.3</ele>
      <time>2014-09-28T08:56:07Z</time>
    </trkpt>
    <trkpt lat="48.484646" lon="2.753147">
      <ele>49.1</ele>
      <time>2014-09-28T08:56:09Z</time>
    </trkpt>
    <trkpt lat="48.484739" lon="2.752817">
      <ele>49.6</ele>
      <time>2014-09-28T08:56:14Z</time>
    </trkpt>
    <trkpt lat="48.484755" lon="2.752654">
      <ele>50.1</ele>
      <time>2014-09-28T08:56:17Z</time>
    </trkpt>
    <trkpt lat="48.484793" lon="2.752522">
      <ele>50.4</ele>
      <time>2014-09-28T08:56:20Z</time>
    </trkpt>
    <trkpt lat="48.484837" lon="2.75238">
      <ele>50.3</ele>
      <time>2014-09-28T08:56:24Z</time>
    </trkpt>
    <trkpt lat="48.484806" lon="2.752227">
      <ele>50.6</ele>
      <time>2014-09-28T08:56:30Z</time>
    </trkpt>
    <trkpt lat="48.484733" lon="2.752067">
      <ele>51.1</ele>
      <time>2014-09-28T08:56:37Z</time>
    </trkpt>
    <trkpt lat="48.48467" lon="2.75197">
      <ele>51.5</ele>
      <time>2014-09-28T08:56:39Z</time>
    </trkpt>
    <trkpt lat="48.484606" lon="2.751865">
      <ele>51.9</ele>
      <time>2014-09-28T08:56:42Z</time>
    </trkpt>
    <trkpt lat="48.484498" lon="2.75169">
      <ele>52.4</ele>
      <time>2014-09-28T08:56:46Z</time>
    </trkpt>
    <trkpt lat="48.484409" lon="2.751578">
      <ele>52.7</ele>
      <time>2014-09-28T08:56:49Z</time>
    </trkpt>
    <trkpt lat="48.484296" lon="2.751454">
      <ele>53.0</ele>
      <time>2014-09-28T08:56:52Z</time>
    </trkpt>
    <trkpt lat="48.484414" lon="2.751471">
      <ele>52.6</ele>
      <time>2014-09-28T08:56:58Z</time>
    </trkpt>
    <trkpt lat="48.484521" lon="2.751514">
      <ele>52.2</ele>
      <time>2014-09-28T08:57:00Z</time>
    </trkpt>
    <trkpt lat="48.484635" lon="2.751567">
      <ele>51.7</ele>
      <time>2014-09-28T08:57:03Z</time>
    </trkpt>
    <trkpt lat="48.484732" lon="2.751591">
      <ele>51.3</ele>
      <time>2014-09-28T08:57:06Z</time>
    </trkpt>
    <trkpt lat="48.484831" lon="2.751602">
      <ele>50.8</ele>
      <time>2014-09-28T08:57:09Z</time>
    </trkpt>
    <trkpt lat="48.484946" lon="2.751729">
      <ele>50.2</ele>
      <time>2014-09-28T08:57:12Z</time>
    </trkpt>
    <trkpt lat="48.485154" lon="2.751835">
      <ele>48.5</ele>
      <time>2014-09-28T08:57:18Z</time>
    </trkpt>
    <trkpt lat="48.485262" lon="2.751894">
      <ele>47.6</ele>
      <time>2014-09-28T08:57:21Z</time>
    </trkpt>
    <trkpt lat="48.485384" lon="2.751942">
      <ele>46.6</ele>
      <time>2014-09-28T08:57:24Z</time>
    </trkpt>
    <trkpt lat="48.485491" lon="2.752006">
      <ele>45.7</ele>
      <time>2014-09-28T08:57:27Z</time>
    </trkpt>
    <trkpt lat="48.48561" lon="2.752079">
      <ele>44.7</ele>
      <time>2014-09-28T08:57:30Z</time>
    </trkpt>
    <trkpt lat="48.485705" lon="2.752122">
      <ele>44.0</ele>
      <time>2014-09-28T08:57:32Z</time>
    </trkpt>
    <trkpt lat="48.485792" lon="2.752171">
      <ele>43.3</ele>
      <time>2014-09-28T08:57:34Z</time>
    </trkpt>
    <trkpt lat="48.485921" lon="2.752239">
      <ele>43.2</ele>
      <time>2014-09-28T08:57:37Z</time>
    </trkpt>
    <trkpt lat="48.486057" lon="2.75232">
      <ele>43.7</ele>
      <time>2014-09-28T08:57:40Z</time>
    </trkpt>
    <trkpt lat="48.486151" lon="2.752383">
      <ele>44.0</ele>
      <time>2014-09-28T08:57:42Z</time>
    </trkpt>
    <trkpt lat="48.486303" lon="2.752462">
      <ele>44.6</ele>
      <time>2014-09-28T08:57:45Z</time>
    </trkpt>
    <trkpt lat="48.48641" lon="2.752526">
      <ele>45.1</ele>
      <time>2014-09-28T08:57:47Z</time>
    </trkpt>
    <trkpt lat="48.486517" lon="2.752576">
      <ele>45.5</ele>
      <time>2014-09-28T08:57:49Z</time>
    </trkpt>
    <trkpt lat="48.486614" lon="2.752655">
      <ele>46.0</ele>
      <time>2014-09-28T08:57:51Z</time>
    </trkpt>
    <trkpt lat="48.486731" lon="2.752707">
      <ele>47.1</ele>
      <time>2014-09-28T08:57:53Z</time>
    </trkpt>
    <trkpt lat="48.486828" lon="2.752756">
      <ele>48.4</ele>
      <time>2014-09-28T08:57:55Z</time>
    </trkpt>
    <trkpt lat="48.486924" lon="2.752782">
      <ele>49.7</ele>
      <time>2014-09-28T08:57:57Z</time>
    </trkpt>
    <trkpt lat="48.487043" lon="2.752788">
      <ele>51.3</ele>
      <time>2014-09-28T08:58:00Z</time>
    </trkpt>
    <trkpt lat="48.487143" lon="2.752767">
      <ele>52.6</ele>
      <time>2014-09-28T08:58:02Z</time>
    </trkpt>
    <trkpt lat="48.487251" lon="2.75269">
      <ele>53.7</ele>
      <time>2014-09-28T08:58:06Z</time>
    </trkpt>
    <trkpt lat="48.48735" lon="2.752606">
      <ele>54.6</ele>
      <time>2014-09-28T08:58:09Z</time>
    </trkpt>
    <trkpt lat="48.487436" lon="2.752508">
      <ele>55.3</ele>
      <time>2014-09-28T08:58:12Z</time>
    </trkpt>
    <trkpt lat="48.48757" lon="2.752233">
      <ele>57.3</ele>
      <time>2014-09-28T08:58:19Z</time>
    </trkpt>
    <trkpt lat="48.48761" lon="2.752081">
      <ele>58.0</ele>
      <time>2014-09-28T08:58:23Z</time>
    </trkpt>
    <trkpt lat="48.487637" lon="2.751901">
      <ele>58.3</ele>
      <time>2014-09-28T08:58:27Z</time>
    </trkpt>
    <trkpt lat="48.487632" lon="2.75174">
      <ele>57.8</ele>
      <time>2014-09-28T08:58:30Z</time>
    </trkpt>
    <trkpt lat="48.487652" lon="2.751604">
      <ele>58.0</ele>
      <time>2014-09-28T08:58:33Z</time>
    </trkpt>
    <trkpt lat="48.487666" lon="2.751456">
      <ele>57.9</ele>
      <time>2014-09-28T08:58:36Z</time>
    </trkpt>
    <trkpt lat="48.487687" lon="2.751276">
      <ele>58.0</ele>
      <time>2014-09-28T08:58:40Z</time>
    </trkpt>
    <trkpt lat="48.487709" lon="2.751133">
      <ele>58.2</ele>
      <time>2014-09-28T08:58:43Z</time>
    </trkpt>
    <trkpt lat="48.487733" lon="2.750959">
      <ele>58.4</ele>
      <time>2014-09-28T08:58:47Z</time>
    </trkpt>
    <trkpt lat="48.487809" lon="2.750839">
      <ele>60.3</ele>
      <time>2014-09-28T08:58:50Z</time>
    </trkpt>
    <trkpt lat="48.487859" lon="2.750722">
      <ele>61.4</ele>
      <time>2014-09-28T08:58:53Z</time>
    </trkpt>
    <trkpt lat="48.487911" lon="2.750575">
      <ele>62.4</ele>
      <time>2014-09-28T08:58:57Z</time>
    </trkpt>
    <trkpt lat="48.487948" lon="2.750443">
      <ele>63.0</ele>
      <time>2014-09-28T08:59:00Z</time>
    </trkpt>
    <trkpt lat="48.487987" lon="2.750316">
      <ele>63.5</ele>
      <time>2014-09-28T08:59:03Z</time>
    </trkpt>
    <trkpt lat="48.488032" lon="2.750154">
      <ele>64.1</ele>
      <time>2014-09-28T08:59:07Z</time>
    </trkpt>
    <trkpt lat="48.488071" lon="2.749987">
      <ele>64.3</ele>
      <time>2014-09-28T08:59:11Z</time>
    </trkpt>
    <trkpt lat="48.488106" lon="2.749839">
      <ele>64.3</ele>
      <time>2014-09-28T08:59:15Z</time>
    </trkpt>
    <trkpt lat="48.488235" lon="2.74956">
      <ele>65.5</ele>
      <time>2014-09-28T08:59:23Z</time>
    </trkpt>
    <trkpt lat="48.488322" lon="2.749473">
      <ele>66.9</ele>
      <time>2014-09-28T08:59:27Z</time>
    </trkpt>
    <trkpt lat="48.488431" lon="2.749487">
      <ele>69.1</ele>
      <time>2014-09-28T08:59:31Z</time>
    </trkpt>
    <trkpt lat="48.488537" lon="2.749539">
      <ele>71.3</ele>
      <time>2014-09-28T08:59:35Z</time>
    </trkpt>
    <trkpt lat="48.48863" lon="2.749609">
      <ele>73.3</ele>
      <time>2014-09-28T08:59:39Z</time>
    </trkpt>
    <trkpt lat="48.488701" lon="2.749741">
      <ele>75.1</ele>
      <time>2014-09-28T08:59:43Z</time>
    </trkpt>
    <trkpt lat="48.488758" lon="2.749846">
      <ele>76.5</ele>
      <time>2014-09-28T08:59:46Z</time>
    </trkpt>
    <trkpt lat="48.4888" lon="2.749987">
      <ele>77.7</ele>
      <time>2014-09-28T08:59:50Z</time>
    </trkpt>
    <trkpt lat="48.488854" lon="2.750131">
      <ele>79.0</ele>
      <time>2014-09-28T08:59:54Z</time>
    </trkpt>
    <trkpt lat="48.488908" lon="2.750267">
      <ele>80.2</ele>
      <time>2014-09-28T08:59:58Z</time>
    </trkpt>
    <trkpt lat="48.488883" lon="2.750417">
      <ele>80.4</ele>
      <time>2014-09-28T09:00:00Z</time>
    </trkpt>
    <trkpt lat="48.488901" lon="2.750576">
      <ele>81.2</ele>
      <time>2014-09-28T09:00:04Z</time>
    </trkpt>
    <trkpt lat="48.488948" lon="2.750728">
      <ele>82.3</ele>
      <time>2014-09-28T09:00:08Z</time>
    </trkpt>
    <trkpt lat="48.488994" lon="2.750872">
      <ele>83.1</ele>
      <time>2014-09-28T09:00:12Z</time>
    </trkpt>
    <trkpt lat="48.489054" lon="2.751023">
      <ele>83.4</ele>
      <time>2014-09-28T09:00:15Z</time>
    </trkpt>
    <trkpt lat="48.489127" lon="2.751313">
      <ele>83.5</ele>
      <time>2014-09-28T09:00:24Z</time>
    </trkpt>
    <trkpt lat="48.489127" lon="2.751477">
      <ele>83.1</ele>
      <time>2014-09-28T09:00:28Z</time>
    </trkpt>
    <trkpt lat="48.489147" lon="2.751616">
      <ele>83.0</ele>
      <time>2014-09-28T09:00:31Z</time>
    </trkpt>
    <trkpt lat="48.489154" lon="2.751757">
      <ele>82.8</ele>
      <time>2014-09-28T09:00:34Z</time>
    </trkpt>
    <trkpt lat="48.489186" lon="2.751886">
      <ele>82.7</ele>
      <time>2014-09-28T09:00:37Z</time>
    </trkpt>
    <trkpt lat="48.48923" lon="2.752045">
      <ele>82.5</ele>
      <time>2014-09-28T09:00:41Z</time>
    </trkpt>
    <trkpt lat="48.489232" lon="2.752216">
      <ele>82.3</ele>
      <time>2014-09-28T09:00:46Z</time>
    </trkpt>
    <trkpt lat="48.489254" lon="2.752377">
      <ele>82.1</ele>
      <time>2014-09-28T09:00:50Z</time>
    </trkpt>
    <trkpt lat="48.489284" lon="2.75252">
      <ele>82.0</ele>
      <time>2014-09-28T09:00:55Z</time>
    </trkpt>
    <trkpt lat="48.489286" lon="2.752665">
      <ele>82.2</ele>
      <time>2014-09-28T09:00:58Z</time>
    </trkpt>
    <trkpt lat="48.489295" lon="2.752837">
      <ele>82.3</ele>
      <time>2014-09-28T09:01:01Z</time>
    </trkpt>
    <trkpt lat="48.489288" lon="2.753002">
      <ele>82.5</ele>
      <time>2014-09-28T09:01:04Z</time>
    </trkpt>
    <trkpt lat="48.489284" lon="2.753151">
      <ele>82.7</ele>
      <time>2014-09-28T09:01:07Z</time>
    </trkpt>
    <trkpt lat="48.48928" lon="2.753296">
      <ele>82.8</ele>
      <time>2014-09-28T09:01:10Z</time>
    </trkpt>
    <trkpt lat="48.489269" lon="2.753453">
      <ele>83.0</ele>
      <time>2014-09-28T09:01:13Z</time>
    </trkpt>
    <trkpt lat="48.48926" lon="2.753631">
      <ele>83.2</ele>
      <time>2014-09-28T09:01:16Z</time>
    </trkpt>
    <trkpt lat="48.489253" lon="2.754013">
      <ele>83.6</ele>
      <time>2014-09-28T09:01:22Z</time>
    </trkpt>
    <trkpt lat="48.489257" lon="2.754156">
      <ele>83.8</ele>
      <time>2014-09-28T09:01:24Z</time>
    </trkpt>
    <trkpt lat="48.489235" lon="2.754367">
      <ele>83.8</ele>
      <time>2014-09-28T09:01:27Z</time>
    </trkpt>
    <trkpt lat="48.489223" lon="2.754504">
      <ele>83.9</ele>
      <time>2014-09-28T09:01:29Z</time>
    </trkpt>
    <trkpt lat="48.489216" lon="2.754662">
      <ele>83.9</ele>
      <time>2014-09-28T09:01:31Z</time>
    </trkpt>
    <trkpt lat="48.489205" lon="2.754805">
      <ele>83.9</ele>
      <time>2014-09-28T09:01:33Z</time>
    </trkpt>
    <trkpt lat="48.489194" lon="2.754941">
      <ele>83.9</ele>
      <time>2014-09-28T09:01:35Z</time>
    </trkpt>
    <trkpt lat="48.489191" lon="2.75508">
      <ele>83.9</ele>
      <time>2014-09-28T09:01:37Z</time>
    </trkpt>
    <trkpt lat="48.489176" lon="2.755224">
      <ele>84.0</ele>
      <time>2014-09-28T09:01:39Z</time>
    </trkpt>
    <trkpt lat="48.489149" lon="2.755404">
      <ele>83.9</ele>
      <time>2014-09-28T09:01:42Z</time>
    </trkpt>
    <trkpt lat="48.489141" lon="2.755553">
      <ele>83.9</ele>
      <time>2014-09-28T09:01:44Z</time>
    </trkpt>
    <trkpt lat="48.489137" lon="2.755704">
      <ele>83.9</ele>
      <time>2014-09-28T09:01:46Z</time>
    </trkpt>
    <trkpt lat="48.489132" lon="2.755852">
      <ele>83.9</ele>
      <time>2014-09-28T09:01:48Z</time>
    </trkpt>
    <trkpt lat="48.489157" lon="2.755986">
      <ele>84.3</ele>
      <time>2014-09-28T09:01:50Z</time>
    </trkpt>
    <trkpt lat="48.489194" lon="2.756206">
      <ele>84.9</ele>
      <time>2014-09-28T09:01:53Z</time>
    </trkpt>
    <trkpt lat="48.489296" lon="2.75635">
      <ele>85.5</ele>
      <time>2014-09-28T09:01:56Z</time>
    </trkpt>
    <trkpt lat="48.489378" lon="2.75644">
      <ele>86.0</ele>
      <time>2014-09-28T09:01:58Z</time>
    </trkpt>
    <trkpt lat="48.489461" lon="2.756519">
      <ele>86.5</ele>
      <time>2014-09-28T09:02:00Z</time>
    </trkpt>
    <trkpt lat="48.489573" lon="2.756651">
      <ele>87.4</ele>
      <time>2014-09-28T09:02:03Z</time>
    </trkpt>
    <trkpt lat="48.48966" lon="2.756759">
      <ele>87.6</ele>
      <time>2014-09-28T09:02:05Z</time>
    </trkpt>
    <trkpt lat="48.489725" lon="2.756856">
      <ele>87.7</ele>
      <time>2014-09-28T09:02:07Z</time>
    </trkpt>
    <trkpt lat="48.489783" lon="2.756966">
      <ele>87.8</ele>
      <time>2014-09-28T09:02:09Z</time>
    </trkpt>
    <trkpt lat="48.489866" lon="2.757113">
      <ele>87.9</ele>
      <time>2014-09-28T09:02:12Z</time>
    </trkpt>
    <trkpt lat="48.489954" lon="2.757276">
      <ele>88.1</ele>
      <time>2014-09-28T09:02:15Z</time>
    </trkpt>
    <trkpt lat="48.490006" lon="2.757413">
      <ele>88.2</ele>
      <time>2014-09-28T09:02:17Z</time>
    </trkpt>
    <trkpt lat="48.490093" lon="2.757798">
      <ele>87.8</ele>
      <time>2014-09-28T09:02:23Z</time>
    </trkpt>
    <trkpt lat="48.490129" lon="2.757936">
      <ele>87.7</ele>
      <time>2014-09-28T09:02:25Z</time>
    </trkpt>
    <trkpt lat="48.490169" lon="2.75808">
      <ele>87.6</ele>
      <time>2014-09-28T09:02:27Z</time>
    </trkpt>
    <trkpt lat="48.49019" lon="2.758242">
      <ele>87.3</ele>
      <time>2014-09-28T09:02:29Z</time>
    </trkpt>
    <trkpt lat="48.490204" lon="2.758413">
      <ele>87.0</ele>
      <time>2014-09-28T09:02:31Z</time>
    </trkpt>
    <trkpt lat="48.490224" lon="2.758555">
      <ele>86.9</ele>
      <time>2014-09-28T09:02:33Z</time>
    </trkpt>
    <trkpt lat="48.490257" lon="2.758688">
      <ele>86.9</ele>
      <time>2014-09-28T09:02:35Z</time>
    </trkpt>
    <trkpt lat="48.490303" lon="2.758874">
      <ele>87.0</ele>
      <time>2014-09-28T09:02:38Z</time>
    </trkpt>
    <trkpt lat="48.490346" lon="2.759062">
      <ele>87.0</ele>
      <time>2014-09-28T09:02:41Z</time>
    </trkpt>
    <trkpt lat="48.490412" lon="2.759181">
      <ele>87.4</ele>
      <time>2014-09-28T09:02:43Z</time>
    </trkpt>
    <trkpt lat="48.490468" lon="2.759294">
      <ele>87.9</ele>
      <time>2014-09-28T09:02:45Z</time>
    </trkpt>
    <trkpt lat="48.490522" lon="2.759427">
      <ele>88.2</ele>
      <time>2014-09-28T09:02:47Z</time>
    </trkpt>
    <trkpt lat="48.490627" lon="2.759574">
      <ele>88.8</ele>
      <time>2014-09-28T09:02:50Z</time>
    </trkpt>
    <trkpt lat="48.490703" lon="2.759655">
      <ele>89.2</ele>
      <time>2014-09-28T09:02:52Z</time>
    </trkpt>
    <trkpt lat="48.490806" lon="2.759763">
      <ele>89.7</ele>
      <time>2014-09-28T09:02:55Z</time>
    </trkpt>
    <trkpt lat="48.4909" lon="2.759867">
      <ele>90.0</ele>
      <time>2014-09-28T09:02:58Z</time>
    </trkpt>
    <trkpt lat="48.49098" lon="2.759941">
      <ele>90.4</ele>
      <time>2014-09-28T09:03:00Z</time>
    </trkpt>
    <trkpt lat="48.491087" lon="2.760073">
      <ele>90.8</ele>
      <time>2014-09-28T09:03:03Z</time>
    </trkpt>
    <trkpt lat="48.491156" lon="2.760179">
      <ele>91.0</ele>
      <time>2014-09-28T09:03:05Z</time>
    </trkpt>
    <trkpt lat="48.491222" lon="2.760288">
      <ele>91.1</ele>
      <time>2014-09-28T09:03:07Z</time>
    </trkpt>
    <trkpt lat="48.491282" lon="2.760397">
      <ele>91.1</ele>
      <time>2014-09-28T09:03:09Z</time>
    </trkpt>
    <trkpt lat="48.491364" lon="2.760563">
      <ele>91.0</ele>
      <time>2014-09-28T09:03:12Z</time>
    </trkpt>
    <trkpt lat="48.49142" lon="2.760694">
      <ele>90.8</ele>
      <time>2014-09-28T09:03:14Z</time>
    </trkpt>
    <trkpt lat="48.491475" lon="2.760811">
      <ele>90.7</ele>
      <time>2014-09-28T09:03:16Z</time>
    </trkpt>
    <trkpt lat="48.491512" lon="2.760956">
      <ele>90.1</ele>
      <time>2014-09-28T09:03:18Z</time>
    </trkpt>
    <trkpt lat="48.491631" lon="2.761273">
      <ele>88.6</ele>
      <time>2014-09-28T09:03:23Z</time>
    </trkpt>
    <trkpt lat="48.491685" lon="2.761389">
      <ele>88.1</ele>
      <time>2014-09-28T09:03:25Z</time>
    </trkpt>
    <trkpt lat="48.491746" lon="2.76154">
      <ele>87.5</ele>
      <time>2014-09-28T09:03:27Z</time>
    </trkpt>
    <trkpt lat="48.491837" lon="2.761748">
      <ele>87.4</ele>
      <time>2014-09-28T09:03:30Z</time>
    </trkpt>
    <trkpt lat="48.491888" lon="2.761893">
      <ele>87.7</ele>
      <time>2014-09-28T09:03:32Z</time>
    </trkpt>
    <trkpt lat="48.491947" lon="2.76201">
      <ele>88.1</ele>
      <time>2014-09-28T09:03:33Z</time>
    </trkpt>
    <trkpt lat="48.492041" lon="2.762277">
      <ele>88.7</ele>
      <time>2014-09-28T09:03:38Z</time>
    </trkpt>
    <trkpt lat="48.492122" lon="2.762447">
      <ele>89.4</ele>
      <time>2014-09-28T09:03:41Z</time>
    </trkpt>
    <trkpt lat="48.492216" lon="2.7627">
      <ele>89.6</ele>
      <time>2014-09-28T09:03:45Z</time>
    </trkpt>
    <trkpt lat="48.492259" lon="2.762857">
      <ele>89.5</ele>
      <time>2014-09-28T09:03:47Z</time>
    </trkpt>
    <trkpt lat="48.492326" lon="2.763073">
      <ele>89.2</ele>
      <time>2014-09-28T09:03:49Z</time>
    </trkpt>
    <trkpt lat="48.492356" lon="2.763375">
      <ele>88.2</ele>
      <time>2014-09-28T09:03:54Z</time>
    </trkpt>
    <trkpt lat="48.492383" lon="2.763543">
      <ele>88.0</ele>
      <time>2014-09-28T09:03:56Z</time>
    </trkpt>
    <trkpt lat="48.492419" lon="2.763696">
      <ele>87.8</ele>
      <time>2014-09-28T09:03:58Z</time>
    </trkpt>
    <trkpt lat="48.492437" lon="2.76385">
      <ele>87.5</ele>
      <time>2014-09-28T09:04:00Z</time>
    </trkpt>
    <trkpt lat="48.492469" lon="2.763993">
      <ele>87.3</ele>
      <time>2014-09-28T09:04:02Z</time>
    </trkpt>
    <trkpt lat="48.492489" lon="2.764134">
      <ele>87.0</ele>
      <time>2014-09-28T09:04:04Z</time>
    </trkpt>
    <trkpt lat="48.492516" lon="2.764282">
      <ele>86.7</ele>
      <time>2014-09-28T09:04:06Z</time>
    </trkpt>
    <trkpt lat="48.492541" lon="2.76444">
      <ele>86.2</ele>
      <time>2014-09-28T09:04:08Z</time>
    </trkpt>
    <trkpt lat="48.492572" lon="2.764579">
      <ele>85.9</ele>
      <time>2014-09-28T09:04:10Z</time>
    </trkpt>
    <trkpt lat="48.492602" lon="2.764726">
      <ele>85.4</ele>
      <time>2014-09-28T09:04:12Z</time>
    </trkpt>
    <trkpt lat="48.492629" lon="2.764921">
      <ele>84.8</ele>
      <time>2014-09-28T09:04:15Z</time>
    </trkpt>
    <trkpt lat="48.492652" lon="2.765114">
      <ele>84.7</ele>
      <time>2014-09-28T09:04:18Z</time>
    </trkpt>
    <trkpt lat="48.492693" lon="2.765298">
      <ele>85.2</ele>
      <time>2014-09-28T09:04:21Z</time>
    </trkpt>
    <trkpt lat="48.492743" lon="2.765592">
      <ele>85.7</ele>
      <time>2014-09-28T09:04:25Z</time>
    </trkpt>
    <trkpt lat="48.492768" lon="2.765746">
      <ele>85.9</ele>
      <time>2014-09-28T09:04:27Z</time>
    </trkpt>
    <trkpt lat="48.492788" lon="2.765888">
      <ele>86.1</ele>
      <time>2014-09-28T09:04:29Z</time>
    </trkpt>
    <trkpt lat="48.492819" lon="2.766026">
      <ele>86.3</ele>
      <time>2014-09-28T09:04:31Z</time>
    </trkpt>
    <trkpt lat="48.492848" lon="2.76618">
      <ele>86.5</ele>
      <time>2014-09-28T09:04:33Z</time>
    </trkpt>
    <trkpt lat="48.492869" lon="2.766336">
      <ele>86.7</ele>
      <time>2014-09-28T09:04:35Z</time>
    </trkpt>
    <trkpt lat="48.49289" lon="2.766481">
      <ele>86.8</ele>
      <time>2014-09-28T09:04:37Z</time>
    </trkpt>
    <trkpt lat="48.492915" lon="2.766632">
      <ele>87.0</ele>
      <time>2014-09-28T09:04:39Z</time>
    </trkpt>
    <trkpt lat="48.492947" lon="2.76678">
      <ele>86.9</ele>
      <time>2014-09-28T09:04:41Z</time>
    </trkpt>
    <trkpt lat="48.492969" lon="2.766934">
      <ele>86.8</ele>
      <time>2014-09-28T09:04:43Z</time>
    </trkpt>
    <trkpt lat="48.49299" lon="2.767098">
      <ele>86.7</ele>
      <time>2014-09-28T09:04:45Z</time>
    </trkpt>
    <trkpt lat="48.493014" lon="2.767256">
      <ele>86.6</ele>
      <time>2014-09-28T09:04:47Z</time>
    </trkpt>
    <trkpt lat="48.493029" lon="2.767423">
      <ele>86.5</ele>
      <time>2014-09-28T09:04:49Z</time>
    </trkpt>
    <trkpt lat="48.493049" lon="2.767587">
      <ele>86.4</ele>
      <time>2014-09-28T09:04:51Z</time>
    </trkpt>
    <trkpt lat="48.493075" lon="2.767755">
      <ele>86.3</ele>
      <time>2014-09-28T09:04:53Z</time>
    </trkpt>
    <trkpt lat="48.493094" lon="2.76791">
      <ele>86.3</ele>
      <time>2014-09-28T09:04:55Z</time>
    </trkpt>
    <trkpt lat="48.493103" lon="2.768048">
      <ele>86.3</ele>
      <time>2014-09-28T09:04:57Z</time>
    </trkpt>
    <trkpt lat="48.493112" lon="2.768194">
      <ele>86.3</ele>
      <time>2014-09-28T09:04:59Z</time>
    </trkpt>
    <trkpt lat="48.493128" lon="2.768365">
      <ele>86.2</ele>
      <time>2014-09-28T09:05:01Z</time>
    </trkpt>
    <trkpt lat="48.493135" lon="2.768519">
      <ele>86.2</ele>
      <time>2014-09-28T09:05:03Z</time>
    </trkpt>
    <trkpt lat="48.493147" lon="2.768659">
      <ele>86.2</ele>
      <time>2014-09-28T09:05:05Z</time>
    </trkpt>
    <trkpt lat="48.493142" lon="2.768801">
      <ele>86.2</ele>
      <time>2014-09-28T09:05:07Z</time>
    </trkpt>
    <trkpt lat="48.493136" lon="2.768963">
      <ele>86.2</ele>
      <time>2014-09-28T09:05:09Z</time>
    </trkpt>
    <trkpt lat="48.493151" lon="2.769113">
      <ele>86.2</ele>
      <time>2014-09-28T09:05:11Z</time>
    </trkpt>
    <trkpt lat="48.493167" lon="2.76927">
      <ele>86.0</ele>
      <time>2014-09-28T09:05:13Z</time>
    </trkpt>
    <trkpt lat="48.493172" lon="2.769432">
      <ele>85.8</ele>
      <time>2014-09-28T09:05:15Z</time>
    </trkpt>
    <trkpt lat="48.493181" lon="2.769593">
      <ele>85.5</ele>
      <time>2014-09-28T09:05:17Z</time>
    </trkpt>
    <trkpt lat="48.493194" lon="2.769768">
      <ele>85.2</ele>
      <time>2014-09-28T09:05:19Z</time>
    </trkpt>
    <trkpt lat="48.493215" lon="2.769917">
      <ele>85.0</ele>
      <time>2014-09-28T09:05:21Z</time>
    </trkpt>
    <trkpt lat="48.493231" lon="2.770071">
      <ele>84.7</ele>
      <time>2014-09-28T09:05:23Z</time>
    </trkpt>
    <trkpt lat="48.493291" lon="2.770348">
      <ele>84.1</ele>
      <time>2014-09-28T09:05:27Z</time>
    </trkpt>
    <trkpt lat="48.493281" lon="2.77052">
      <ele>83.7</ele>
      <time>2014-09-28T09:05:29Z</time>
    </trkpt>
    <trkpt lat="48.493286" lon="2.770689">
      <ele>83.2</ele>
      <time>2014-09-28T09:05:31Z</time>
    </trkpt>
    <trkpt lat="48.493341" lon="2.770855">
      <ele>83.0</ele>
      <time>2014-09-28T09:05:34Z</time>
    </trkpt>
    <trkpt lat="48.493407" lon="2.771072">
      <ele>83.3</ele>
      <time>2014-09-28T09:05:37Z</time>
    </trkpt>
    <trkpt lat="48.493458" lon="2.771221">
      <ele>83.4</ele>
      <time>2014-09-28T09:05:39Z</time>
    </trkpt>
    <trkpt lat="48.493503" lon="2.771376">
      <ele>83.5</ele>
      <time>2014-09-28T09:05:41Z</time>
    </trkpt>
    <trkpt lat="48.493558" lon="2.771507">
      <ele>83.6</ele>
      <time>2014-09-28T09:05:43Z</time>
    </trkpt>
    <trkpt lat="48.493614" lon="2.771638">
      <ele>83.6</ele>
      <time>2014-09-28T09:05:45Z</time>
    </trkpt>
    <trkpt lat="48.493661" lon="2.771771">
      <ele>83.5</ele>
      <time>2014-09-28T09:05:47Z</time>
    </trkpt>
    <trkpt lat="48.493725" lon="2.77191">
      <ele>83.4</ele>
      <time>2014-09-28T09:05:49Z</time>
    </trkpt>
    <trkpt lat="48.493768" lon="2.772046">
      <ele>83.3</ele>
      <time>2014-09-28T09:05:51Z</time>
    </trkpt>
    <trkpt lat="48.493813" lon="2.772175">
      <ele>83.2</ele>
      <time>2014-09-28T09:05:53Z</time>
    </trkpt>
    <trkpt lat="48.493867" lon="2.772314">
      <ele>83.1</ele>
      <time>2014-09-28T09:05:55Z</time>
    </trkpt>
    <trkpt lat="48.493924" lon="2.772435">
      <ele>83.0</ele>
      <time>2014-09-28T09:05:57Z</time>
    </trkpt>
    <trkpt lat="48.493979" lon="2.772555">
      <ele>83.1</ele>
      <time>2014-09-28T09:05:59Z</time>
    </trkpt>
    <trkpt lat="48.494018" lon="2.772679">
      <ele>83.2</ele>
      <time>2014-09-28T09:06:01Z</time>
    </trkpt>
    <trkpt lat="48.494067" lon="2.772824">
      <ele>83.4</ele>
      <time>2014-09-28T09:06:03Z</time>
    </trkpt>
    <trkpt lat="48.494129" lon="2.772988">
      <ele>83.6</ele>
      <time>2014-09-28T09:06:06Z</time>
    </trkpt>
    <trkpt lat="48.494202" lon="2.773165">
      <ele>83.8</ele>
      <time>2014-09-28T09:06:09Z</time>
    </trkpt>
    <trkpt lat="48.494247" lon="2.773308">
      <ele>84.1</ele>
      <time>2014-09-28T09:06:11Z</time>
    </trkpt>
    <trkpt lat="48.494291" lon="2.773427">
      <ele>84.3</ele>
      <time>2014-09-28T09:06:13Z</time>
    </trkpt>
    <trkpt lat="48.494357" lon="2.773597">
      <ele>84.7</ele>
      <time>2014-09-28T09:06:16Z</time>
    </trkpt>
    <trkpt lat="48.494416" lon="2.773718">
      <ele>84.9</ele>
      <time>2014-09-28T09:06:18Z</time>
    </trkpt>
    <trkpt lat="48.494463" lon="2.773835">
      <ele>85.1</ele>
      <time>2014-09-28T09:06:20Z</time>
    </trkpt>
    <trkpt lat="48.494503" lon="2.773977">
      <ele>85.3</ele>
      <time>2014-09-28T09:06:22Z</time>
    </trkpt>
    <trkpt lat="48.494553" lon="2.77412">
      <ele>85.5</ele>
      <time>2014-09-28T09:06:24Z</time>
    </trkpt>
    <trkpt lat="48.494664" lon="2.774437">
      <ele>85.6</ele>
      <time>2014-09-28T09:06:29Z</time>
    </trkpt>
    <trkpt lat="48.494716" lon="2.774572">
      <ele>85.7</ele>
      <time>2014-09-28T09:06:31Z</time>
    </trkpt>
    <trkpt lat="48.494765" lon="2.774701">
      <ele>85.7</ele>
      <time>2014-09-28T09:06:33Z</time>
    </trkpt>
    <trkpt lat="48.494818" lon="2.774825">
      <ele>85.8</ele>
      <time>2014-09-28T09:06:35Z</time>
    </trkpt>
    <trkpt lat="48.494897" lon="2.775001">
      <ele>86.0</ele>
      <time>2014-09-28T09:06:38Z</time>
    </trkpt>
    <trkpt lat="48.494959" lon="2.77513">
      <ele>86.3</ele>
      <time>2014-09-28T09:06:40Z</time>
    </trkpt>
    <trkpt lat="48.495023" lon="2.775253">
      <ele>86.7</ele>
      <time>2014-09-28T09:06:42Z</time>
    </trkpt>
    <trkpt lat="48.49509" lon="2.775379">
      <ele>87.1</ele>
      <time>2014-09-28T09:06:44Z</time>
    </trkpt>
    <trkpt lat="48.495153" lon="2.775512">
      <ele>87.5</ele>
      <time>2014-09-28T09:06:46Z</time>
    </trkpt>
    <trkpt lat="48.495222" lon="2.775637">
      <ele>87.9</ele>
      <time>2014-09-28T09:06:47Z</time>
    </trkpt>
    <trkpt lat="48.4953" lon="2.775752">
      <ele>88.2</ele>
      <time>2014-09-28T09:06:50Z</time>
    </trkpt>
    <trkpt lat="48.49537" lon="2.775856">
      <ele>88.4</ele>
      <time>2014-09-28T09:06:52Z</time>
    </trkpt>
    <trkpt lat="48.49547" lon="2.776049">
      <ele>88.3</ele>
      <time>2014-09-28T09:06:55Z</time>
    </trkpt>
    <trkpt lat="48.495548" lon="2.776165">
      <ele>88.3</ele>
      <time>2014-09-28T09:06:57Z</time>
    </trkpt>
    <trkpt lat="48.495662" lon="2.776324">
      <ele>88.2</ele>
      <time>2014-09-28T09:06:59Z</time>
    </trkpt>
    <trkpt lat="48.495731" lon="2.776432">
      <ele>88.2</ele>
      <time>2014-09-28T09:07:01Z</time>
    </trkpt>
    <trkpt lat="48.495859" lon="2.776632">
      <ele>88.1</ele>
      <time>2014-09-28T09:07:04Z</time>
    </trkpt>
    <trkpt lat="48.495946" lon="2.776806">
      <ele>88.2</ele>
      <time>2014-09-28T09:07:06Z</time>
    </trkpt>
    <trkpt lat="48.496063" lon="2.776978">
      <ele>88.2</ele>
      <time>2014-09-28T09:07:09Z</time>
    </trkpt>
    <trkpt lat="48.496183" lon="2.777129">
      <ele>88.2</ele>
      <time>2014-09-28T09:07:11Z</time>
    </trkpt>
    <trkpt lat="48.496252" lon="2.77725">
      <ele>88.1</ele>
      <time>2014-09-28T09:07:13Z</time>
    </trkpt>
    <trkpt lat="48.496345" lon="2.77737">
      <ele>88.0</ele>
      <time>2014-09-28T09:07:15Z</time>
    </trkpt>
    <trkpt lat="48.496408" lon="2.77751">
      <ele>87.6</ele>
      <time>2014-09-28T09:07:17Z</time>
    </trkpt>
    <trkpt lat="48.496493" lon="2.777654">
      <ele>86.9</ele>
      <time>2014-09-28T09:07:19Z</time>
    </trkpt>
    <trkpt lat="48.496566" lon="2.777777">
      <ele>86.3</ele>
      <time>2014-09-28T09:07:21Z</time>
    </trkpt>
    <trkpt lat="48.496647" lon="2.777895">
      <ele>85.6</ele>
      <time>2014-09-28T09:07:23Z</time>
    </trkpt>
    <trkpt lat="48.496746" lon="2.77803">
      <ele>84.7</ele>
      <time>2014-09-28T09:07:25Z</time>
    </trkpt>
    <trkpt lat="48.496913" lon="2.77829">
      <ele>83.2</ele>
      <time>2014-09-28T09:07:29Z</time>
    </trkpt>
    <trkpt lat="48.497001" lon="2.778422">
      <ele>82.9</ele>
      <time>2014-09-28T09:07:31Z</time>
    </trkpt>
    <trkpt lat="48.497088" lon="2.778564">
      <ele>82.7</ele>
      <time>2014-09-28T09:07:33Z</time>
    </trkpt>
    <trkpt lat="48.497175" lon="2.778706">
      <ele>82.6</ele>
      <time>2014-09-28T09:07:35Z</time>
    </trkpt>
    <trkpt lat="48.497259" lon="2.778863">
      <ele>82.4</ele>
      <time>2014-09-28T09:07:37Z</time>
    </trkpt>
    <trkpt lat="48.497336" lon="2.77903">
      <ele>82.2</ele>
      <time>2014-09-28T09:07:39Z</time>
    </trkpt>
    <trkpt lat="48.497408" lon="2.779195">
      <ele>82.0</ele>
      <time>2014-09-28T09:07:41Z</time>
    </trkpt>
    <trkpt lat="48.49748" lon="2.779343">
      <ele>82.0</ele>
      <time>2014-09-28T09:07:43Z</time>
    </trkpt>
    <trkpt lat="48.497553" lon="2.779473">
      <ele>82.0</ele>
      <time>2014-09-28T09:07:45Z</time>
    </trkpt>
    <trkpt lat="48.497641" lon="2.779591">
      <ele>82.1</ele>
      <time>2014-09-28T09:07:47Z</time>
    </trkpt>
    <trkpt lat="48.497735" lon="2.779705">
      <ele>82.1</ele>
      <time>2014-09-28T09:07:49Z</time>
    </trkpt>
    <trkpt lat="48.497738" lon="2.779877">
      <ele>82.0</ele>
      <time>2014-09-28T09:07:50Z</time>
    </trkpt>
    <trkpt lat="48.497773" lon="2.780049">
      <ele>81.9</ele>
      <time>2014-09-28T09:07:53Z</time>
    </trkpt>
    <trkpt lat="48.497824" lon="2.780213">
      <ele>81.5</ele>
      <time>2014-09-28T09:07:55Z</time>
    </trkpt>
    <trkpt lat="48.497887" lon="2.78039">
      <ele>81.1</ele>
      <time>2014-09-28T09:07:57Z</time>
    </trkpt>
    <trkpt lat="48.497957" lon="2.780531">
      <ele>80.7</ele>
      <time>2014-09-28T09:07:59Z</time>
    </trkpt>
    <trkpt lat="48.49804" lon="2.780702">
      <ele>80.3</ele>
      <time>2014-09-28T09:08:01Z</time>
    </trkpt>
    <trkpt lat="48.498108" lon="2.780878">
      <ele>79.8</ele>
      <time>2014-09-28T09:08:03Z</time>
    </trkpt>
    <trkpt lat="48.498178" lon="2.781051">
      <ele>79.2</ele>
      <time>2014-09-28T09:08:05Z</time>
    </trkpt>
    <trkpt lat="48.498248" lon="2.781234">
      <ele>78.6</ele>
      <time>2014-09-28T09:08:07Z</time>
    </trkpt>
    <trkpt lat="48.49833" lon="2.781419">
      <ele>77.9</ele>
      <time>2014-09-28T09:08:09Z</time>
    </trkpt>
    <trkpt lat="48.498402" lon="2.781617">
      <ele>77.6</ele>
      <time>2014-09-28T09:08:11Z</time>
    </trkpt>
    <trkpt lat="48.498483" lon="2.78179">
      <ele>78.1</ele>
      <time>2014-09-28T09:08:13Z</time>
    </trkpt>
    <trkpt lat="48.498556" lon="2.781953">
      <ele>78.6</ele>
      <time>2014-09-28T09:08:15Z</time>
    </trkpt>
    <trkpt lat="48.498651" lon="2.782207">
      <ele>79.0</ele>
      <time>2014-09-28T09:08:18Z</time>
    </trkpt>
    <trkpt lat="48.498718" lon="2.782373">
      <ele>79.0</ele>
      <time>2014-09-28T09:08:20Z</time>
    </trkpt>
    <trkpt lat="48.49878" lon="2.782527">
      <ele>79.0</ele>
      <time>2014-09-28T09:08:22Z</time>
    </trkpt>
    <trkpt lat="48.498846" lon="2.782683">
      <ele>78.9</ele>
      <time>2014-09-28T09:08:24Z</time>
    </trkpt>
    <trkpt lat="48.49891" lon="2.782825">
      <ele>78.7</ele>
      <time>2014-09-28T09:08:26Z</time>
    </trkpt>
    <trkpt lat="48.499048" lon="2.783136">
      <ele>78.3</ele>
      <time>2014-09-28T09:08:30Z</time>
    </trkpt>
    <trkpt lat="48.499108" lon="2.783275">
      <ele>78.1</ele>
      <time>2014-09-28T09:08:32Z</time>
    </trkpt>
    <trkpt lat="48.499189" lon="2.783412">
      <ele>78.3</ele>
      <time>2014-09-28T09:08:34Z</time>
    </trkpt>
    <trkpt lat="48.499264" lon="2.783555">
      <ele>78.9</ele>
      <time>2014-09-28T09:08:36Z</time>
    </trkpt>
    <trkpt lat="48.499351" lon="2.783667">
      <ele>79.4</ele>
      <time>2014-09-28T09:08:38Z</time>
    </trkpt>
    <trkpt lat="48.499439" lon="2.783779">
      <ele>79.9</ele>
      <time>2014-09-28T09:08:40Z</time>
    </trkpt>
    <trkpt lat="48.499532" lon="2.783876">
      <ele>80.2</ele>
      <time>2014-09-28T09:08:42Z</time>
    </trkpt>
    <trkpt lat="48.499612" lon="2.783975">
      <ele>80.4</ele>
      <time>2014-09-28T09:08:44Z</time>
    </trkpt>
    <trkpt lat="48.499692" lon="2.784066">
      <ele>80.6</ele>
      <time>2014-09-28T09:08:46Z</time>
    </trkpt>
    <trkpt lat="48.499772" lon="2.784165">
      <ele>80.7</ele>
      <time>2014-09-28T09:08:48Z</time>
    </trkpt>
    <trkpt lat="48.499853" lon="2.784265">
      <ele>80.7</ele>
      <time>2014-09-28T09:08:50Z</time>
    </trkpt>
    <trkpt lat="48.499946" lon="2.784391">
      <ele>80.7</ele>
      <time>2014-09-28T09:08:52Z</time>
    </trkpt>
    <trkpt lat="48.500007" lon="2.784525">
      <ele>80.6</ele>
      <time>2014-09-28T09:08:54Z</time>
    </trkpt>
    <trkpt lat="48.500078" lon="2.78467">
      <ele>80.8</ele>
      <time>2014-09-28T09:08:56Z</time>
    </trkpt>
    <trkpt lat="48.500141" lon="2.784813">
      <ele>80.9</ele>
      <time>2014-09-28T09:08:58Z</time>
    </trkpt>
    <trkpt lat="48.500209" lon="2.784954">
      <ele>81.1</ele>
      <time>2014-09-28T09:09:00Z</time>
    </trkpt>
    <trkpt lat="48.500271" lon="2.78509">
      <ele>81.3</ele>
      <time>2014-09-28T09:09:02Z</time>
    </trkpt>
    <trkpt lat="48.500336" lon="2.785218">
      <ele>81.7</ele>
      <time>2014-09-28T09:09:04Z</time>
    </trkpt>
    <trkpt lat="48.500391" lon="2.785359">
      <ele>81.9</ele>
      <time>2014-09-28T09:09:06Z</time>
    </trkpt>
    <trkpt lat="48.500455" lon="2.785487">
      <ele>82.1</ele>
      <time>2014-09-28T09:09:08Z</time>
    </trkpt>
    <trkpt lat="48.500524" lon="2.785604">
      <ele>82.3</ele>
      <time>2014-09-28T09:09:10Z</time>
    </trkpt>
    <trkpt lat="48.50063" lon="2.78579">
      <ele>82.5</ele>
      <time>2014-09-28T09:09:13Z</time>
    </trkpt>
    <trkpt lat="48.500699" lon="2.785907">
      <ele>82.6</ele>
      <time>2014-09-28T09:09:15Z</time>
    </trkpt>
    <trkpt lat="48.500792" lon="2.786112">
      <ele>82.5</ele>
      <time>2014-09-28T09:09:18Z</time>
    </trkpt>
    <trkpt lat="48.500879" lon="2.78633">
      <ele>82.6</ele>
      <time>2014-09-28T09:09:21Z</time>
    </trkpt>
    <trkpt lat="48.50093" lon="2.786468">
      <ele>82.7</ele>
      <time>2014-09-28T09:09:23Z</time>
    </trkpt>
    <trkpt lat="48.500975" lon="2.786622">
      <ele>82.7</ele>
      <time>2014-09-28T09:09:25Z</time>
    </trkpt>
    <trkpt lat="48.501012" lon="2.786774">
      <ele>82.9</ele>
      <time>2014-09-28T09:09:27Z</time>
    </trkpt>
    <trkpt lat="48.50111" lon="2.78706">
      <ele>83.3</ele>
      <time>2014-09-28T09:09:31Z</time>
    </trkpt>
    <trkpt lat="48.501156" lon="2.787201">
      <ele>83.5</ele>
      <time>2014-09-28T09:09:33Z</time>
    </trkpt>
    <trkpt lat="48.501198" lon="2.787344">
      <ele>83.8</ele>
      <time>2014-09-28T09:09:35Z</time>
    </trkpt>
    <trkpt lat="48.501242" lon="2.78749">
      <ele>84.0</ele>
      <time>2014-09-28T09:09:37Z</time>
    </trkpt>
    <trkpt lat="48.501283" lon="2.787632">
      <ele>84.1</ele>
      <time>2014-09-28T09:09:39Z</time>
    </trkpt>
    <trkpt lat="48.501296" lon="2.78779">
      <ele>84.2</ele>
      <time>2014-09-28T09:09:41Z</time>
    </trkpt>
    <trkpt lat="48.501353" lon="2.787924">
      <ele>84.4</ele>
      <time>2014-09-28T09:09:43Z</time>
    </trkpt>
    <trkpt lat="48.501412" lon="2.788045">
      <ele>84.5</ele>
      <time>2014-09-28T09:09:45Z</time>
    </trkpt>
    <trkpt lat="48.501485" lon="2.788149">
      <ele>84.7</ele>
      <time>2014-09-28T09:09:47Z</time>
    </trkpt>
    <trkpt lat="48.501582" lon="2.788289">
      <ele>84.8</ele>
      <time>2014-09-28T09:09:50Z</time>
    </trkpt>
    <trkpt lat="48.501652" lon="2.788376">
      <ele>84.9</ele>
      <time>2014-09-28T09:09:52Z</time>
    </trkpt>
    <trkpt lat="48.501762" lon="2.788488">
      <ele>84.8</ele>
      <time>2014-09-28T09:09:55Z</time>
    </trkpt>
    <trkpt lat="48.501872" lon="2.788589">
      <ele>84.8</ele>
      <time>2014-09-28T09:09:58Z</time>
    </trkpt>
    <trkpt lat="48.501998" lon="2.788672">
      <ele>84.9</ele>
      <time>2014-09-28T09:10:01Z</time>
    </trkpt>
    <trkpt lat="48.502088" lon="2.788756">
      <ele>85.0</ele>
      <time>2014-09-28T09:10:03Z</time>
    </trkpt>
    <trkpt lat="48.502173" lon="2.788849">
      <ele>85.1</ele>
      <time>2014-09-28T09:10:05Z</time>
    </trkpt>
    <trkpt lat="48.502264" lon="2.78896">
      <ele>85.3</ele>
      <time>2014-09-28T09:10:07Z</time>
    </trkpt>
    <trkpt lat="48.502336" lon="2.789082">
      <ele>85.4</ele>
      <time>2014-09-28T09:10:09Z</time>
    </trkpt>
    <trkpt lat="48.50241" lon="2.789199">
      <ele>85.6</ele>
      <time>2014-09-28T09:10:11Z</time>
    </trkpt>
    <trkpt lat="48.502485" lon="2.789311">
      <ele>85.6</ele>
      <time>2014-09-28T09:10:13Z</time>
    </trkpt>
    <trkpt lat="48.502564" lon="2.789436">
      <ele>85.5</ele>
      <time>2014-09-28T09:10:15Z</time>
    </trkpt>
    <trkpt lat="48.502649" lon="2.789551">
      <ele>85.5</ele>
      <time>2014-09-28T09:10:17Z</time>
    </trkpt>
    <trkpt lat="48.502725" lon="2.789663">
      <ele>85.5</ele>
      <time>2014-09-28T09:10:19Z</time>
    </trkpt>
    <trkpt lat="48.502799" lon="2.789793">
      <ele>85.5</ele>
      <time>2014-09-28T09:10:21Z</time>
    </trkpt>
    <trkpt lat="48.502865" lon="2.789937">
      <ele>85.4</ele>
      <time>2014-09-28T09:10:23Z</time>
    </trkpt>
    <trkpt lat="48.502934" lon="2.790061">
      <ele>85.4</ele>
      <time>2014-09-28T09:10:25Z</time>
    </trkpt>
    <trkpt lat="48.503011" lon="2.790184">
      <ele>85.4</ele>
      <time>2014-09-28T09:10:27Z</time>
    </trkpt>
    <trkpt lat="48.503093" lon="2.79029">
      <ele>85.6</ele>
      <time>2014-09-28T09:10:29Z</time>
    </trkpt>
    <trkpt lat="48.50325" lon="2.790528">
      <ele>85.9</ele>
      <time>2014-09-28T09:10:33Z</time>
    </trkpt>
    <trkpt lat="48.503323" lon="2.790642">
      <ele>86.2</ele>
      <time>2014-09-28T09:10:35Z</time>
    </trkpt>
    <trkpt lat="48.5034" lon="2.790766">
      <ele>86.4</ele>
      <time>2014-09-28T09:10:37Z</time>
    </trkpt>
    <trkpt lat="48.50347" lon="2.790892">
      <ele>86.6</ele>
      <time>2014-09-28T09:10:39Z</time>
    </trkpt>
    <trkpt lat="48.503535" lon="2.791022">
      <ele>86.8</ele>
      <time>2014-09-28T09:10:41Z</time>
    </trkpt>
    <trkpt lat="48.503625" lon="2.791214">
      <ele>87.1</ele>
      <time>2014-09-28T09:10:44Z</time>
    </trkpt>
    <trkpt lat="48.503684" lon="2.791362">
      <ele>87.3</ele>
      <time>2014-09-28T09:10:46Z</time>
    </trkpt>
    <trkpt lat="48.503742" lon="2.791511">
      <ele>87.5</ele>
      <time>2014-09-28T09:10:48Z</time>
    </trkpt>
    <trkpt lat="48.503801" lon="2.791669">
      <ele>87.8</ele>
      <time>2014-09-28T09:10:50Z</time>
    </trkpt>
    <trkpt lat="48.503856" lon="2.791795">
      <ele>87.7</ele>
      <time>2014-09-28T09:10:52Z</time>
    </trkpt>
    <trkpt lat="48.503913" lon="2.791923">
      <ele>87.7</ele>
      <time>2014-09-28T09:10:54Z</time>
    </trkpt>
    <trkpt lat="48.503951" lon="2.792057">
      <ele>87.5</ele>
      <time>2014-09-28T09:10:56Z</time>
    </trkpt>
    <trkpt lat="48.504009" lon="2.792224">
      <ele>87.5</ele>
      <time>2014-09-28T09:10:59Z</time>
    </trkpt>
    <trkpt lat="48.504068" lon="2.79237">
      <ele>87.5</ele>
      <time>2014-09-28T09:11:03Z</time>
    </trkpt>
    <trkpt lat="48.504055" lon="2.792527">
      <ele>87.0</ele>
      <time>2014-09-28T09:11:08Z</time>
    </trkpt>
    <trkpt lat="48.504068" lon="2.792674">
      <ele>86.9</ele>
      <time>2014-09-28T09:11:35Z</time>
    </trkpt>
    <trkpt lat="48.503991" lon="2.792974">
      <ele>85.8</ele>
      <time>2014-09-28T09:11:41Z</time>
    </trkpt>
    <trkpt lat="48.503845" lon="2.793173">
      <ele>84.2</ele>
      <time>2014-09-28T09:11:45Z</time>
    </trkpt>
    <trkpt lat="48.503738" lon="2.793301">
      <ele>82.9</ele>
      <time>2014-09-28T09:11:47Z</time>
    </trkpt>
    <trkpt lat="48.503636" lon="2.79345">
      <ele>81.9</ele>
      <time>2014-09-28T09:11:49Z</time>
    </trkpt>
    <trkpt lat="48.503518" lon="2.793583">
      <ele>80.9</ele>
      <time>2014-09-28T09:11:51Z</time>
    </trkpt>
    <trkpt lat="48.503391" lon="2.793728">
      <ele>79.9</ele>
      <time>2014-09-28T09:11:53Z</time>
    </trkpt>
    <trkpt lat="48.50326" lon="2.793894">
      <ele>79.6</ele>
      <time>2014-09-28T09:11:55Z</time>
    </trkpt>
    <trkpt lat="48.503126" lon="2.794057">
      <ele>79.7</ele>
      <time>2014-09-28T09:11:57Z</time>
    </trkpt>
    <trkpt lat="48.503006" lon="2.794239">
      <ele>80.0</ele>
      <time>2014-09-28T09:11:59Z</time>
    </trkpt>
    <trkpt lat="48.502909" lon="2.794391">
      <ele>80.3</ele>
      <time>2014-09-28T09:12:01Z</time>
    </trkpt>
    <trkpt lat="48.502786" lon="2.794475">
      <ele>80.6</ele>
      <time>2014-09-28T09:12:04Z</time>
    </trkpt>
    <trkpt lat="48.502694" lon="2.794469">
      <ele>80.8</ele>
      <time>2014-09-28T09:12:36Z</time>
    </trkpt>
    <trkpt lat="48.502489" lon="2.794523">
      <ele>81.3</ele>
      <time>2014-09-28T09:13:09Z</time>
    </trkpt>
    <trkpt lat="48.502374" lon="2.794491">
      <ele>81.9</ele>
      <time>2014-09-28T09:13:13Z</time>
    </trkpt>
    <trkpt lat="48.502278" lon="2.794446">
      <ele>82.2</ele>
      <time>2014-09-28T09:13:16Z</time>
    </trkpt>
    <trkpt lat="48.502178" lon="2.794404">
      <ele>82.7</ele>
      <time>2014-09-28T09:13:19Z</time>
    </trkpt>
    <trkpt lat="48.502061" lon="2.794402">
      <ele>83.3</ele>
      <time>2014-09-28T09:13:22Z</time>
    </trkpt>
    <trkpt lat="48.50192" lon="2.794339">
      <ele>84.0</ele>
      <time>2014-09-28T09:13:26Z</time>
    </trkpt>
    <trkpt lat="48.501828" lon="2.794301">
      <ele>84.4</ele>
      <time>2014-09-28T09:13:29Z</time>
    </trkpt>
    <trkpt lat="48.501718" lon="2.794287">
      <ele>85.0</ele>
      <time>2014-09-28T09:13:32Z</time>
    </trkpt>
    <trkpt lat="48.501627" lon="2.794244">
      <ele>85.3</ele>
      <time>2014-09-28T09:13:35Z</time>
    </trkpt>
    <trkpt lat="48.501513" lon="2.794235">
      <ele>85.7</ele>
      <time>2014-09-28T09:13:39Z</time>
    </trkpt>
    <trkpt lat="48.501302" lon="2.794256">
      <ele>86.4</ele>
      <time>2014-09-28T09:13:46Z</time>
    </trkpt>
    <trkpt lat="48.501209" lon="2.794273">
      <ele>86.8</ele>
      <time>2014-09-28T09:13:49Z</time>
    </trkpt>
    <trkpt lat="48.501099" lon="2.794283">
      <ele>87.1</ele>
      <time>2014-09-28T09:13:52Z</time>
    </trkpt>
    <trkpt lat="48.500989" lon="2.794291">
      <ele>87.5</ele>
      <time>2014-09-28T09:13:55Z</time>
    </trkpt>
    <trkpt lat="48.500875" lon="2.794305">
      <ele>87.9</ele>
      <time>2014-09-28T09:13:58Z</time>
    </trkpt>
    <trkpt lat="48.500764" lon="2.794277">
      <ele>87.8</ele>
      <time>2014-09-28T09:14:01Z</time>
    </trkpt>
    <trkpt lat="48.500651" lon="2.794217">
      <ele>87.6</ele>
      <time>2014-09-28T09:14:04Z</time>
    </trkpt>
    <trkpt lat="48.500532" lon="2.79415">
      <ele>87.2</ele>
      <time>2014-09-28T09:14:07Z</time>
    </trkpt>
    <trkpt lat="48.500413" lon="2.794086">
      <ele>86.8</ele>
      <time>2014-09-28T09:14:10Z</time>
    </trkpt>
    <trkpt lat="48.500291" lon="2.794007">
      <ele>86.5</ele>
      <time>2014-09-28T09:14:13Z</time>
    </trkpt>
    <trkpt lat="48.500208" lon="2.793949">
      <ele>86.3</ele>
      <time>2014-09-28T09:14:15Z</time>
    </trkpt>
    <trkpt lat="48.500124" lon="2.793881">
      <ele>86.1</ele>
      <time>2014-09-28T09:14:17Z</time>
    </trkpt>
    <trkpt lat="48.500001" lon="2.793787">
      <ele>86.0</ele>
      <time>2014-09-28T09:14:20Z</time>
    </trkpt>
    <trkpt lat="48.499879" lon="2.793705">
      <ele>86.0</ele>
      <time>2014-09-28T09:14:23Z</time>
    </trkpt>
    <trkpt lat="48.499755" lon="2.793619">
      <ele>85.9</ele>
      <time>2014-09-28T09:14:26Z</time>
    </trkpt>
    <trkpt lat="48.499668" lon="2.793578">
      <ele>85.8</ele>
      <time>2014-09-28T09:14:28Z</time>
    </trkpt>
    <trkpt lat="48.499575" lon="2.79351">
      <ele>85.7</ele>
      <time>2014-09-28T09:14:30Z</time>
    </trkpt>
    <trkpt lat="48.499486" lon="2.793444">
      <ele>85.5</ele>
      <time>2014-09-28T09:14:32Z</time>
    </trkpt>
    <trkpt lat="48.499388" lon="2.793375">
      <ele>85.3</ele>
      <time>2014-09-28T09:14:34Z</time>
    </trkpt>
    <trkpt lat="48.49929" lon="2.793299">
      <ele>85.2</ele>
      <time>2014-09-28T09:14:36Z</time>
    </trkpt>
    <trkpt lat="48.499195" lon="2.793224">
      <ele>85.2</ele>
      <time>2014-09-28T09:14:38Z</time>
    </trkpt>
    <trkpt lat="48.499044" lon="2.79311">
      <ele>85.5</ele>
      <time>2014-09-28T09:14:41Z</time>
    </trkpt>
    <trkpt lat="48.498867" lon="2.79296">
      <ele>86.0</ele>
      <time>2014-09-28T09:14:45Z</time>
    </trkpt>
    <trkpt lat="48.498737" lon="2.79287">
      <ele>86.3</ele>
      <time>2014-09-28T09:14:48Z</time>
    </trkpt>
    <trkpt lat="48.498607" lon="2.7928">
      <ele>86.6</ele>
      <time>2014-09-28T09:14:51Z</time>
    </trkpt>
    <trkpt lat="48.498491" lon="2.792723">
      <ele>86.8</ele>
      <time>2014-09-28T09:14:54Z</time>
    </trkpt>
    <trkpt lat="48.498396" lon="2.792606">
      <ele>86.9</ele>
      <time>2014-09-28T09:14:57Z</time>
    </trkpt>
    <trkpt lat="48.498296" lon="2.792549">
      <ele>87.0</ele>
      <time>2014-09-28T09:15:00Z</time>
    </trkpt>
    <trkpt lat="48.498261" lon="2.79242">
      <ele>87.2</ele>
      <time>2014-09-28T09:15:04Z</time>
    </trkpt>
    <trkpt lat="48.498222" lon="2.792285">
      <ele>87.3</ele>
      <time>2014-09-28T09:15:07Z</time>
    </trkpt>
    <trkpt lat="48.498132" lon="2.792148">
      <ele>87.5</ele>
      <time>2014-09-28T09:15:10Z</time>
    </trkpt>
    <trkpt lat="48.498047" lon="2.792008">
      <ele>87.5</ele>
      <time>2014-09-28T09:15:13Z</time>
    </trkpt>
    <trkpt lat="48.497983" lon="2.791894">
      <ele>87.5</ele>
      <time>2014-09-28T09:15:16Z</time>
    </trkpt>
    <trkpt lat="48.497917" lon="2.791785">
      <ele>87.5</ele>
      <time>2014-09-28T09:15:19Z</time>
    </trkpt>
    <trkpt lat="48.497848" lon="2.791696">
      <ele>87.4</ele>
      <time>2014-09-28T09:15:22Z</time>
    </trkpt>
    <trkpt lat="48.497785" lon="2.791583">
      <ele>87.4</ele>
      <time>2014-09-28T09:15:26Z</time>
    </trkpt>
    <trkpt lat="48.497755" lon="2.791449">
      <ele>87.4</ele>
      <time>2014-09-28T09:15:30Z</time>
    </trkpt>
    <trkpt lat="48.497726" lon="2.791308">
      <ele>87.4</ele>
      <time>2014-09-28T09:15:33Z</time>
    </trkpt>
    <trkpt lat="48.497679" lon="2.791174">
      <ele>87.3</ele>
      <time>2014-09-28T09:15:35Z</time>
    </trkpt>
    <trkpt lat="48.497599" lon="2.791059">
      <ele>87.2</ele>
      <time>2014-09-28T09:15:38Z</time>
    </trkpt>
    <trkpt lat="48.497569" lon="2.79087">
      <ele>87.2</ele>
      <time>2014-09-28T09:15:41Z</time>
    </trkpt>
    <trkpt lat="48.49755" lon="2.790712">
      <ele>87.7</ele>
      <time>2014-09-28T09:15:43Z</time>
    </trkpt>
    <trkpt lat="48.497524" lon="2.790424">
      <ele>89.0</ele>
      <time>2014-09-28T09:15:47Z</time>
    </trkpt>
    <trkpt lat="48.497472" lon="2.790275">
      <ele>89.7</ele>
      <time>2014-09-28T09:15:50Z</time>
    </trkpt>
    <trkpt lat="48.497429" lon="2.790152">
      <ele>90.2</ele>
      <time>2014-09-28T09:15:53Z</time>
    </trkpt>
    <trkpt lat="48.497398" lon="2.790009">
      <ele>90.8</ele>
      <time>2014-09-28T09:15:56Z</time>
    </trkpt>
    <trkpt lat="48.497378" lon="2.789864">
      <ele>90.8</ele>
      <time>2014-09-28T09:15:59Z</time>
    </trkpt>
    <trkpt lat="48.49735" lon="2.789692">
      <ele>90.8</ele>
      <time>2014-09-28T09:19:40Z</time>
    </trkpt>
    <trkpt lat="48.497368" lon="2.789356">
      <ele>90.7</ele>
      <time>2014-09-28T09:19:45Z</time>
    </trkpt>
    <trkpt lat="48.497362" lon="2.78917">
      <ele>90.7</ele>
      <time>2014-09-28T09:19:48Z</time>
    </trkpt>
    <trkpt lat="48.497329" lon="2.788952">
      <ele>89.7</ele>
      <time>2014-09-28T09:19:50Z</time>
    </trkpt>
    <trkpt lat="48.497322" lon="2.788741">
      <ele>88.7</ele>
      <time>2014-09-28T09:19:52Z</time>
    </trkpt>
    <trkpt lat="48.497243" lon="2.788507">
      <ele>87.3</ele>
      <time>2014-09-28T09:19:54Z</time>
    </trkpt>
    <trkpt lat="48.497174" lon="2.788375">
      <ele>86.3</ele>
      <time>2014-09-28T09:19:59Z</time>
    </trkpt>
    <trkpt lat="48.497165" lon="2.788224">
      <ele>86.1</ele>
      <time>2014-09-28T09:20:01Z</time>
    </trkpt>
    <trkpt lat="48.497122" lon="2.788093">
      <ele>85.9</ele>
      <time>2014-09-28T09:20:05Z</time>
    </trkpt>
    <trkpt lat="48.497081" lon="2.787962">
      <ele>85.7</ele>
      <time>2014-09-28T09:20:08Z</time>
    </trkpt>
    <trkpt lat="48.497021" lon="2.787855">
      <ele>85.4</ele>
      <time>2014-09-28T09:20:11Z</time>
    </trkpt>
    <trkpt lat="48.497004" lon="2.787718">
      <ele>85.3</ele>
      <time>2014-09-28T09:20:14Z</time>
    </trkpt>
    <trkpt lat="48.496968" lon="2.787579">
      <ele>85.1</ele>
      <time>2014-09-28T09:20:17Z</time>
    </trkpt>
    <trkpt lat="48.496943" lon="2.787444">
      <ele>84.8</ele>
      <time>2014-09-28T09:20:19Z</time>
    </trkpt>
    <trkpt lat="48.496886" lon="2.787234">
      <ele>83.5</ele>
      <time>2014-09-28T09:20:22Z</time>
    </trkpt>
    <trkpt lat="48.496869" lon="2.787092">
      <ele>82.9</ele>
      <time>2014-09-28T09:20:24Z</time>
    </trkpt>
    <trkpt lat="48.496843" lon="2.786936">
      <ele>82.1</ele>
      <time>2014-09-28T09:20:26Z</time>
    </trkpt>
    <trkpt lat="48.49678" lon="2.786722">
      <ele>80.9</ele>
      <time>2014-09-28T09:20:28Z</time>
    </trkpt>
    <trkpt lat="48.496754" lon="2.786581">
      <ele>79.8</ele>
      <time>2014-09-28T09:20:31Z</time>
    </trkpt>
    <trkpt lat="48.496711" lon="2.786402">
      <ele>78.3</ele>
      <time>2014-09-28T09:20:34Z</time>
    </trkpt>
    <trkpt lat="48.49668" lon="2.786198">
      <ele>76.7</ele>
      <time>2014-09-28T09:20:37Z</time>
    </trkpt>
    <trkpt lat="48.496713" lon="2.78607">
      <ele>75.7</ele>
      <time>2014-09-28T09:20:39Z</time>
    </trkpt>
    <trkpt lat="48.496716" lon="2.785871">
      <ele>74.2</ele>
      <time>2014-09-28T09:20:43Z</time>
    </trkpt>
    <trkpt lat="48.49652" lon="2.785744">
      <ele>74.0</ele>
      <time>2014-09-28T09:21:31Z</time>
    </trkpt>
    <trkpt lat="48.496422" lon="2.785708">
      <ele>74.2</ele>
      <time>2014-09-28T09:21:33Z</time>
    </trkpt>
    <trkpt lat="48.496323" lon="2.785648">
      <ele>74.5</ele>
      <time>2014-09-28T09:21:36Z</time>
    </trkpt>
    <trkpt lat="48.496207" lon="2.785597">
      <ele>74.9</ele>
      <time>2014-09-28T09:21:39Z</time>
    </trkpt>
    <trkpt lat="48.496106" lon="2.785565">
      <ele>75.4</ele>
      <time>2014-09-28T09:21:41Z</time>
    </trkpt>
    <trkpt lat="48.496024" lon="2.785627">
      <ele>76.0</ele>
      <time>2014-09-28T09:21:45Z</time>
    </trkpt>
    <trkpt lat="48.495803" lon="2.78576">
      <ele>77.1</ele>
      <time>2014-09-28T09:21:50Z</time>
    </trkpt>
    <trkpt lat="48.495686" lon="2.785809">
      <ele>77.7</ele>
      <time>2014-09-28T09:21:54Z</time>
    </trkpt>
    <trkpt lat="48.495576" lon="2.785785">
      <ele>78.3</ele>
      <time>2014-09-28T09:21:57Z</time>
    </trkpt>
    <trkpt lat="48.495497" lon="2.78566">
      <ele>78.7</ele>
      <time>2014-09-28T09:22:00Z</time>
    </trkpt>
    <trkpt lat="48.495408" lon="2.785564">
      <ele>79.2</ele>
      <time>2014-09-28T09:22:03Z</time>
    </trkpt>
    <trkpt lat="48.495323" lon="2.785509">
      <ele>79.7</ele>
      <time>2014-09-28T09:22:05Z</time>
    </trkpt>
    <trkpt lat="48.495191" lon="2.785425">
      <ele>80.5</ele>
      <time>2014-09-28T09:22:09Z</time>
    </trkpt>
    <trkpt lat="48.495105" lon="2.785281">
      <ele>81.1</ele>
      <time>2014-09-28T09:22:13Z</time>
    </trkpt>
    <trkpt lat="48.495029" lon="2.785185">
      <ele>81.6</ele>
      <time>2014-09-28T09:22:18Z</time>
    </trkpt>
    <trkpt lat="48.494938" lon="2.785119">
      <ele>81.9</ele>
      <time>2014-09-28T09:22:22Z</time>
    </trkpt>
    <trkpt lat="48.494834" lon="2.785043">
      <ele>82.2</ele>
      <time>2014-09-28T09:22:26Z</time>
    </trkpt>
    <trkpt lat="48.494735" lon="2.784973">
      <ele>82.3</ele>
      <time>2014-09-28T09:22:31Z</time>
    </trkpt>
    <trkpt lat="48.49471" lon="2.784827">
      <ele>82.4</ele>
      <time>2014-09-28T09:22:37Z</time>
    </trkpt>
    <trkpt lat="48.494609" lon="2.784775">
      <ele>82.5</ele>
      <time>2014-09-28T09:22:40Z</time>
    </trkpt>
    <trkpt lat="48.494527" lon="2.784676">
      <ele>82.5</ele>
      <time>2014-09-28T09:22:45Z</time>
    </trkpt>
    <trkpt lat="48.494343" lon="2.784525">
      <ele>82.5</ele>
      <time>2014-09-28T09:22:53Z</time>
    </trkpt>
    <trkpt lat="48.494247" lon="2.784468">
      <ele>82.4</ele>
      <time>2014-09-28T09:22:57Z</time>
    </trkpt>
    <trkpt lat="48.494163" lon="2.784415">
      <ele>82.3</ele>
      <time>2014-09-28T09:23:01Z</time>
    </trkpt>
    <trkpt lat="48.49405" lon="2.784385">
      <ele>82.6</ele>
      <time>2014-09-28T09:23:05Z</time>
    </trkpt>
    <trkpt lat="48.493955" lon="2.784358">
      <ele>82.9</ele>
      <time>2014-09-28T09:23:09Z</time>
    </trkpt>
    <trkpt lat="48.493836" lon="2.78431">
      <ele>83.2</ele>
      <time>2014-09-28T09:23:14Z</time>
    </trkpt>
    <trkpt lat="48.493716" lon="2.784265">
      <ele>83.6</ele>
      <time>2014-09-28T09:23:17Z</time>
    </trkpt>
    <trkpt lat="48.493601" lon="2.784259">
      <ele>84.0</ele>
      <time>2014-09-28T09:23:20Z</time>
    </trkpt>
    <trkpt lat="48.493507" lon="2.784227">
      <ele>84.3</ele>
      <time>2014-09-28T09:23:23Z</time>
    </trkpt>
    <trkpt lat="48.493404" lon="2.784206">
      <ele>84.7</ele>
      <time>2014-09-28T09:23:26Z</time>
    </trkpt>
    <trkpt lat="48.493288" lon="2.78417">
      <ele>85.1</ele>
      <time>2014-09-28T09:23:29Z</time>
    </trkpt>
    <trkpt lat="48.49318" lon="2.784113">
      <ele>85.1</ele>
      <time>2014-09-28T09:23:32Z</time>
    </trkpt>
    <trkpt lat="48.493085" lon="2.784042">
      <ele>85.1</ele>
      <time>2014-09-28T09:23:35Z</time>
    </trkpt>
    <trkpt lat="48.492953" lon="2.783921">
      <ele>85.1</ele>
      <time>2014-09-28T09:23:39Z</time>
    </trkpt>
    <trkpt lat="48.492848" lon="2.78374">
      <ele>85.2</ele>
      <time>2014-09-28T09:23:43Z</time>
    </trkpt>
    <trkpt lat="48.492763" lon="2.783615">
      <ele>85.3</ele>
      <time>2014-09-28T09:23:46Z</time>
    </trkpt>
    <trkpt lat="48.492552" lon="2.783446">
      <ele>85.8</ele>
      <time>2014-09-28T09:23:52Z</time>
    </trkpt>
    <trkpt lat="48.492438" lon="2.783419">
      <ele>86.0</ele>
      <time>2014-09-28T09:23:55Z</time>
    </trkpt>
    <trkpt lat="48.492336" lon="2.7834">
      <ele>86.0</ele>
      <time>2014-09-28T09:23:58Z</time>
    </trkpt>
    <trkpt lat="48.492223" lon="2.783373">
      <ele>86.0</ele>
      <time>2014-09-28T09:24:01Z</time>
    </trkpt>
    <trkpt lat="48.492099" lon="2.783331">
      <ele>86.0</ele>
      <time>2014-09-28T09:24:04Z</time>
    </trkpt>
    <trkpt lat="48.491993" lon="2.78321">
      <ele>85.9</ele>
      <time>2014-09-28T09:24:07Z</time>
    </trkpt>
    <trkpt lat="48.491906" lon="2.783056">
      <ele>85.8</ele>
      <time>2014-09-28T09:24:10Z</time>
    </trkpt>
    <trkpt lat="48.491848" lon="2.782952">
      <ele>85.6</ele>
      <time>2014-09-28T09:24:12Z</time>
    </trkpt>
    <trkpt lat="48.491786" lon="2.782831">
      <ele>85.5</ele>
      <time>2014-09-28T09:24:14Z</time>
    </trkpt>
    <trkpt lat="48.491725" lon="2.782714">
      <ele>85.3</ele>
      <time>2014-09-28T09:24:16Z</time>
    </trkpt>
    <trkpt lat="48.491654" lon="2.782625">
      <ele>85.2</ele>
      <time>2014-09-28T09:24:18Z</time>
    </trkpt>
    <trkpt lat="48.491542" lon="2.782514">
      <ele>85.2</ele>
      <time>2014-09-28T09:24:21Z</time>
    </trkpt>
    <trkpt lat="48.491457" lon="2.782462">
      <ele>85.1</ele>
      <time>2014-09-28T09:24:23Z</time>
    </trkpt>
    <trkpt lat="48.491332" lon="2.782408">
      <ele>85.1</ele>
      <time>2014-09-28T09:24:26Z</time>
    </trkpt>
    <trkpt lat="48.491201" lon="2.78236">
      <ele>85.1</ele>
      <time>2014-09-28T09:24:29Z</time>
    </trkpt>
    <trkpt lat="48.491115" lon="2.782302">
      <ele>85.1</ele>
      <time>2014-09-28T09:24:31Z</time>
    </trkpt>
    <trkpt lat="48.491003" lon="2.782193">
      <ele>85.0</ele>
      <time>2014-09-28T09:24:34Z</time>
    </trkpt>
    <trkpt lat="48.490915" lon="2.782075">
      <ele>84.8</ele>
      <time>2014-09-28T09:24:37Z</time>
    </trkpt>
    <trkpt lat="48.490833" lon="2.781926">
      <ele>84.6</ele>
      <time>2014-09-28T09:24:40Z</time>
    </trkpt>
    <trkpt lat="48.490773" lon="2.781814">
      <ele>84.5</ele>
      <time>2014-09-28T09:24:42Z</time>
    </trkpt>
    <trkpt lat="48.490686" lon="2.781646">
      <ele>84.6</ele>
      <time>2014-09-28T09:24:45Z</time>
    </trkpt>
    <trkpt lat="48.490631" lon="2.78153">
      <ele>85.1</ele>
      <time>2014-09-28T09:24:47Z</time>
    </trkpt>
    <trkpt lat="48.490529" lon="2.781281">
      <ele>86.0</ele>
      <time>2014-09-28T09:24:51Z</time>
    </trkpt>
    <trkpt lat="48.490479" lon="2.781154">
      <ele>86.5</ele>
      <time>2014-09-28T09:24:53Z</time>
    </trkpt>
    <trkpt lat="48.490436" lon="2.781013">
      <ele>87.0</ele>
      <time>2014-09-28T09:24:55Z</time>
    </trkpt>
    <trkpt lat="48.490391" lon="2.780884">
      <ele>87.5</ele>
      <time>2014-09-28T09:24:57Z</time>
    </trkpt>
    <trkpt lat="48.490342" lon="2.780761">
      <ele>88.0</ele>
      <time>2014-09-28T09:24:59Z</time>
    </trkpt>
    <trkpt lat="48.490308" lon="2.780631">
      <ele>88.4</ele>
      <time>2014-09-28T09:25:01Z</time>
    </trkpt>
    <trkpt lat="48.490264" lon="2.780498">
      <ele>88.8</ele>
      <time>2014-09-28T09:25:03Z</time>
    </trkpt>
    <trkpt lat="48.490208" lon="2.780358">
      <ele>89.2</ele>
      <time>2014-09-28T09:25:05Z</time>
    </trkpt>
    <trkpt lat="48.490129" lon="2.78021">
      <ele>89.6</ele>
      <time>2014-09-28T09:25:07Z</time>
    </trkpt>
    <trkpt lat="48.490083" lon="2.780063">
      <ele>89.9</ele>
      <time>2014-09-28T09:25:09Z</time>
    </trkpt>
    <trkpt lat="48.490029" lon="2.779931">
      <ele>90.2</ele>
      <time>2014-09-28T09:25:11Z</time>
    </trkpt>
    <trkpt lat="48.48997" lon="2.779777">
      <ele>90.4</ele>
      <time>2014-09-28T09:25:14Z</time>
    </trkpt>
    <trkpt lat="48.489908" lon="2.779609">
      <ele>90.5</ele>
      <time>2014-09-28T09:25:17Z</time>
    </trkpt>
    <trkpt lat="48.489856" lon="2.779493">
      <ele>90.5</ele>
      <time>2014-09-28T09:25:19Z</time>
    </trkpt>
    <trkpt lat="48.489804" lon="2.779375">
      <ele>90.4</ele>
      <time>2014-09-28T09:25:21Z</time>
    </trkpt>
    <trkpt lat="48.489732" lon="2.779232">
      <ele>90.3</ele>
      <time>2014-09-28T09:25:23Z</time>
    </trkpt>
    <trkpt lat="48.489673" lon="2.779113">
      <ele>90.0</ele>
      <time>2014-09-28T09:25:25Z</time>
    </trkpt>
    <trkpt lat="48.489539" lon="2.778932">
      <ele>89.0</ele>
      <time>2014-09-28T09:25:28Z</time>
    </trkpt>
    <trkpt lat="48.489472" lon="2.778797">
      <ele>88.5</ele>
      <time>2014-09-28T09:25:30Z</time>
    </trkpt>
    <trkpt lat="48.489406" lon="2.778676">
      <ele>88.1</ele>
      <time>2014-09-28T09:25:32Z</time>
    </trkpt>
    <trkpt lat="48.489336" lon="2.778584">
      <ele>87.7</ele>
      <time>2014-09-28T09:25:34Z</time>
    </trkpt>
    <trkpt lat="48.489259" lon="2.778483">
      <ele>87.4</ele>
      <time>2014-09-28T09:25:36Z</time>
    </trkpt>
    <trkpt lat="48.489182" lon="2.778386">
      <ele>87.1</ele>
      <time>2014-09-28T09:25:38Z</time>
    </trkpt>
    <trkpt lat="48.489107" lon="2.778298">
      <ele>86.9</ele>
      <time>2014-09-28T09:25:40Z</time>
    </trkpt>
    <trkpt lat="48.489027" lon="2.778202">
      <ele>86.9</ele>
      <time>2014-09-28T09:25:42Z</time>
    </trkpt>
    <trkpt lat="48.488948" lon="2.778116">
      <ele>86.8</ele>
      <time>2014-09-28T09:25:44Z</time>
    </trkpt>
    <trkpt lat="48.488873" lon="2.778027">
      <ele>86.8</ele>
      <time>2014-09-28T09:25:46Z</time>
    </trkpt>
    <trkpt lat="48.488804" lon="2.777933">
      <ele>86.8</ele>
      <time>2014-09-28T09:25:48Z</time>
    </trkpt>
    <trkpt lat="48.488657" lon="2.777756">
      <ele>86.8</ele>
      <time>2014-09-28T09:25:52Z</time>
    </trkpt>
    <trkpt lat="48.488581" lon="2.777668">
      <ele>86.9</ele>
      <time>2014-09-28T09:25:54Z</time>
    </trkpt>
    <trkpt lat="48.488504" lon="2.777576">
      <ele>86.9</ele>
      <time>2014-09-28T09:25:56Z</time>
    </trkpt>
    <trkpt lat="48.488427" lon="2.77749">
      <ele>87.0</ele>
      <time>2014-09-28T09:25:58Z</time>
    </trkpt>
    <trkpt lat="48.488352" lon="2.777404">
      <ele>87.0</ele>
      <time>2014-09-28T09:26:00Z</time>
    </trkpt>
    <trkpt lat="48.488276" lon="2.777313">
      <ele>86.8</ele>
      <time>2014-09-28T09:26:02Z</time>
    </trkpt>
    <trkpt lat="48.4882" lon="2.777221">
      <ele>86.6</ele>
      <time>2014-09-28T09:26:04Z</time>
    </trkpt>
    <trkpt lat="48.488135" lon="2.777123">
      <ele>86.4</ele>
      <time>2014-09-28T09:26:06Z</time>
    </trkpt>
    <trkpt lat="48.488064" lon="2.777033">
      <ele>86.2</ele>
      <time>2014-09-28T09:26:08Z</time>
    </trkpt>
    <trkpt lat="48.487997" lon="2.776933">
      <ele>85.9</ele>
      <time>2014-09-28T09:26:10Z</time>
    </trkpt>
    <trkpt lat="48.487919" lon="2.776826">
      <ele>85.6</ele>
      <time>2014-09-28T09:26:12Z</time>
    </trkpt>
    <trkpt lat="48.487859" lon="2.77671">
      <ele>85.3</ele>
      <time>2014-09-28T09:26:14Z</time>
    </trkpt>
    <trkpt lat="48.487765" lon="2.77649">
      <ele>84.5</ele>
      <time>2014-09-28T09:26:17Z</time>
    </trkpt>
    <trkpt lat="48.487731" lon="2.776344">
      <ele>84.0</ele>
      <time>2014-09-28T09:26:19Z</time>
    </trkpt>
    <trkpt lat="48.487681" lon="2.77622">
      <ele>83.4</ele>
      <time>2014-09-28T09:26:21Z</time>
    </trkpt>
    <trkpt lat="48.487595" lon="2.77603">
      <ele>82.3</ele>
      <time>2014-09-28T09:26:24Z</time>
    </trkpt>
    <trkpt lat="48.487532" lon="2.775907">
      <ele>81.5</ele>
      <time>2014-09-28T09:26:26Z</time>
    </trkpt>
    <trkpt lat="48.487528" lon="2.775688">
      <ele>80.3</ele>
      <time>2014-09-28T09:26:28Z</time>
    </trkpt>
    <trkpt lat="48.487531" lon="2.775482">
      <ele>79.1</ele>
      <time>2014-09-28T09:26:31Z</time>
    </trkpt>
    <trkpt lat="48.487529" lon="2.775308">
      <ele>78.0</ele>
      <time>2014-09-28T09:26:33Z</time>
    </trkpt>
    <trkpt lat="48.487523" lon="2.775132">
      <ele>76.9</ele>
      <time>2014-09-28T09:26:34Z</time>
    </trkpt>
    <trkpt lat="48.487502" lon="2.774888">
      <ele>75.5</ele>
      <time>2014-09-28T09:26:36Z</time>
    </trkpt>
    <trkpt lat="48.487509" lon="2.774661">
      <ele>74.4</ele>
      <time>2014-09-28T09:26:38Z</time>
    </trkpt>
    <trkpt lat="48.487488" lon="2.774512">
      <ele>73.7</ele>
      <time>2014-09-28T09:26:39Z</time>
    </trkpt>
    <trkpt lat="48.48747" lon="2.774345">
      <ele>72.9</ele>
      <time>2014-09-28T09:26:40Z</time>
    </trkpt>
    <trkpt lat="48.487464" lon="2.774169">
      <ele>72.0</ele>
      <time>2014-09-28T09:26:41Z</time>
    </trkpt>
    <trkpt lat="48.487447" lon="2.774">
      <ele>72.4</ele>
      <time>2014-09-28T09:26:42Z</time>
    </trkpt>
    <trkpt lat="48.487418" lon="2.7737">
      <ele>73.2</ele>
      <time>2014-09-28T09:26:44Z</time>
    </trkpt>
    <trkpt lat="48.487408" lon="2.773464">
      <ele>73.8</ele>
      <time>2014-09-28T09:26:46Z</time>
    </trkpt>
    <trkpt lat="48.487401" lon="2.773253">
      <ele>74.5</ele>
      <time>2014-09-28T09:26:48Z</time>
    </trkpt>
    <trkpt lat="48.487378" lon="2.772896">
      <ele>76.2</ele>
      <time>2014-09-28T09:26:52Z</time>
    </trkpt>
    <trkpt lat="48.48736" lon="2.772733">
      <ele>77.0</ele>
      <time>2014-09-28T09:26:54Z</time>
    </trkpt>
    <trkpt lat="48.487338" lon="2.772576">
      <ele>77.8</ele>
      <time>2014-09-28T09:26:56Z</time>
    </trkpt>
    <trkpt lat="48.487318" lon="2.772415">
      <ele>78.3</ele>
      <time>2014-09-28T09:26:58Z</time>
    </trkpt>
    <trkpt lat="48.487306" lon="2.77227">
      <ele>78.6</ele>
      <time>2014-09-28T09:27:00Z</time>
    </trkpt>
    <trkpt lat="48.487291" lon="2.772131">
      <ele>78.8</ele>
      <time>2014-09-28T09:27:02Z</time>
    </trkpt>
    <trkpt lat="48.487288" lon="2.771986">
      <ele>79.0</ele>
      <time>2014-09-28T09:27:04Z</time>
    </trkpt>
    <trkpt lat="48.487282" lon="2.771848">
      <ele>79.2</ele>
      <time>2014-09-28T09:27:06Z</time>
    </trkpt>
    <trkpt lat="48.487285" lon="2.771664">
      <ele>79.5</ele>
      <time>2014-09-28T09:27:09Z</time>
    </trkpt>
    <trkpt lat="48.487273" lon="2.771468">
      <ele>79.7</ele>
      <time>2014-09-28T09:27:12Z</time>
    </trkpt>
    <trkpt lat="48.487266" lon="2.771289">
      <ele>79.9</ele>
      <time>2014-09-28T09:27:15Z</time>
    </trkpt>
    <trkpt lat="48.487262" lon="2.771116">
      <ele>80.0</ele>
      <time>2014-09-28T09:27:18Z</time>
    </trkpt>
    <trkpt lat="48.487261" lon="2.770939">
      <ele>80.2</ele>
      <time>2014-09-28T09:27:21Z</time>
    </trkpt>
    <trkpt lat="48.487259" lon="2.770751">
      <ele>80.5</ele>
      <time>2014-09-28T09:27:24Z</time>
    </trkpt>
    <trkpt lat="48.487254" lon="2.770567">
      <ele>81.1</ele>
      <time>2014-09-28T09:27:27Z</time>
    </trkpt>
    <trkpt lat="48.487263" lon="2.770394">
      <ele>81.6</ele>
      <time>2014-09-28T09:27:30Z</time>
    </trkpt>
    <trkpt lat="48.487253" lon="2.770211">
      <ele>82.1</ele>
      <time>2014-09-28T09:27:33Z</time>
    </trkpt>
    <trkpt lat="48.487233" lon="2.770033">
      <ele>82.6</ele>
      <time>2014-09-28T09:27:36Z</time>
    </trkpt>
    <trkpt lat="48.487197" lon="2.769851">
      <ele>82.6</ele>
      <time>2014-09-28T09:27:39Z</time>
    </trkpt>
    <trkpt lat="48.487183" lon="2.769664">
      <ele>82.6</ele>
      <time>2014-09-28T09:27:42Z</time>
    </trkpt>
    <trkpt lat="48.487166" lon="2.769488">
      <ele>82.6</ele>
      <time>2014-09-28T09:27:45Z</time>
    </trkpt>
    <trkpt lat="48.487154" lon="2.769288">
      <ele>82.6</ele>
      <time>2014-09-28T09:27:48Z</time>
    </trkpt>
    <trkpt lat="48.487134" lon="2.769103">
      <ele>82.6</ele>
      <time>2014-09-28T09:27:51Z</time>
    </trkpt>
    <trkpt lat="48.487131" lon="2.768718">
      <ele>82.5</ele>
      <time>2014-09-28T09:27:57Z</time>
    </trkpt>
    <trkpt lat="48.487123" lon="2.768559">
      <ele>82.5</ele>
      <time>2014-09-28T09:27:59Z</time>
    </trkpt>
    <trkpt lat="48.487139" lon="2.768333">
      <ele>82.4</ele>
      <time>2014-09-28T09:28:02Z</time>
    </trkpt>
    <trkpt lat="48.487166" lon="2.768167">
      <ele>82.2</ele>
      <time>2014-09-28T09:28:04Z</time>
    </trkpt>
    <trkpt lat="48.487212" lon="2.768046">
      <ele>81.9</ele>
      <time>2014-09-28T09:28:06Z</time>
    </trkpt>
    <trkpt lat="48.487237" lon="2.767899">
      <ele>81.6</ele>
      <time>2014-09-28T09:28:08Z</time>
    </trkpt>
    <trkpt lat="48.487253" lon="2.767752">
      <ele>81.3</ele>
      <time>2014-09-28T09:28:10Z</time>
    </trkpt>
    <trkpt lat="48.487259" lon="2.767602">
      <ele>81.0</ele>
      <time>2014-09-28T09:28:12Z</time>
    </trkpt>
    <trkpt lat="48.487249" lon="2.767447">
      <ele>80.8</ele>
      <time>2014-09-28T09:28:14Z</time>
    </trkpt>
    <trkpt lat="48.487222" lon="2.767298">
      <ele>80.8</ele>
      <time>2014-09-28T09:28:16Z</time>
    </trkpt>
    <trkpt lat="48.487192" lon="2.767147">
      <ele>80.7</ele>
      <time>2014-09-28T09:28:18Z</time>
    </trkpt>
    <trkpt lat="48.487156" lon="2.767001">
      <ele>80.6</ele>
      <time>2014-09-28T09:28:20Z</time>
    </trkpt>
    <trkpt lat="48.487122" lon="2.766852">
      <ele>80.6</ele>
      <time>2014-09-28T09:28:22Z</time>
    </trkpt>
    <trkpt lat="48.487089" lon="2.766714">
      <ele>80.5</ele>
      <time>2014-09-28T09:28:24Z</time>
    </trkpt>
    <trkpt lat="48.487058" lon="2.766585">
      <ele>80.5</ele>
      <time>2014-09-28T09:28:26Z</time>
    </trkpt>
    <trkpt lat="48.487015" lon="2.766426">
      <ele>80.6</ele>
      <time>2014-09-28T09:28:29Z</time>
    </trkpt>
    <trkpt lat="48.487" lon="2.766285">
      <ele>80.6</ele>
      <time>2014-09-28T09:28:32Z</time>
    </trkpt>
    <trkpt lat="48.486987" lon="2.766141">
      <ele>80.6</ele>
      <time>2014-09-28T09:28:35Z</time>
    </trkpt>
    <trkpt lat="48.486965" lon="2.766008">
      <ele>80.6</ele>
      <time>2014-09-28T09:28:38Z</time>
    </trkpt>
    <trkpt lat="48.48694" lon="2.765867">
      <ele>80.7</ele>
      <time>2014-09-28T09:28:41Z</time>
    </trkpt>
    <trkpt lat="48.486916" lon="2.765704">
      <ele>80.8</ele>
      <time>2014-09-28T09:28:44Z</time>
    </trkpt>
    <trkpt lat="48.486818" lon="2.765666">
      <ele>81.3</ele>
      <time>2014-09-28T09:28:47Z</time>
    </trkpt>
    <trkpt lat="48.486707" lon="2.765734">
      <ele>81.8</ele>
      <time>2014-09-28T09:28:50Z</time>
    </trkpt>
    <trkpt lat="48.486591" lon="2.765777">
      <ele>82.2</ele>
      <time>2014-09-28T09:28:53Z</time>
    </trkpt>
    <trkpt lat="48.486296" lon="2.76586">
      <ele>82.9</ele>
      <time>2014-09-28T09:29:00Z</time>
    </trkpt>
    <trkpt lat="48.486202" lon="2.765881">
      <ele>83.1</ele>
      <time>2014-09-28T09:29:02Z</time>
    </trkpt>
    <trkpt lat="48.486077" lon="2.765945">
      <ele>83.3</ele>
      <time>2014-09-28T09:29:05Z</time>
    </trkpt>
    <trkpt lat="48.485988" lon="2.765981">
      <ele>83.5</ele>
      <time>2014-09-28T09:29:07Z</time>
    </trkpt>
    <trkpt lat="48.485876" lon="2.765982">
      <ele>83.7</ele>
      <time>2014-09-28T09:29:10Z</time>
    </trkpt>
    <trkpt lat="48.485754" lon="2.766029">
      <ele>83.8</ele>
      <time>2014-09-28T09:29:13Z</time>
    </trkpt>
    <trkpt lat="48.48566" lon="2.76605">
      <ele>83.8</ele>
      <time>2014-09-28T09:29:16Z</time>
    </trkpt>
    <trkpt lat="48.485568" lon="2.766031">
      <ele>83.8</ele>
      <time>2014-09-28T09:29:18Z</time>
    </trkpt>
    <trkpt lat="48.485474" lon="2.76604">
      <ele>83.9</ele>
      <time>2014-09-28T09:29:20Z</time>
    </trkpt>
    <trkpt lat="48.485383" lon="2.766043">
      <ele>83.9</ele>
      <time>2014-09-28T09:29:22Z</time>
    </trkpt>
    <trkpt lat="48.485253" lon="2.766055">
      <ele>83.9</ele>
      <time>2014-09-28T09:29:25Z</time>
    </trkpt>
    <trkpt lat="48.485148" lon="2.766064">
      <ele>84.0</ele>
      <time>2014-09-28T09:29:27Z</time>
    </trkpt>
    <trkpt lat="48.485048" lon="2.766061">
      <ele>84.0</ele>
      <time>2014-09-28T09:29:29Z</time>
    </trkpt>
    <trkpt lat="48.484945" lon="2.766066">
      <ele>84.0</ele>
      <time>2014-09-28T09:29:31Z</time>
    </trkpt>
    <trkpt lat="48.484847" lon="2.766072">
      <ele>84.1</ele>
      <time>2014-09-28T09:29:33Z</time>
    </trkpt>
    <trkpt lat="48.484757" lon="2.766086">
      <ele>84.1</ele>
      <time>2014-09-28T09:29:35Z</time>
    </trkpt>
    <trkpt lat="48.484625" lon="2.766101">
      <ele>84.2</ele>
      <time>2014-09-28T09:29:38Z</time>
    </trkpt>
    <trkpt lat="48.484492" lon="2.766102">
      <ele>84.2</ele>
      <time>2014-09-28T09:29:41Z</time>
    </trkpt>
    <trkpt lat="48.48431" lon="2.766095">
      <ele>84.3</ele>
      <time>2014-09-28T09:29:45Z</time>
    </trkpt>
    <trkpt lat="48.48418" lon="2.766089">
      <ele>84.4</ele>
      <time>2014-09-28T09:29:48Z</time>
    </trkpt>
    <trkpt lat="48.484055" lon="2.766086">
      <ele>84.5</ele>
      <time>2014-09-28T09:29:51Z</time>
    </trkpt>
    <trkpt lat="48.483937" lon="2.766086">
      <ele>84.6</ele>
      <time>2014-09-28T09:29:54Z</time>
    </trkpt>
    <trkpt lat="48.483714" lon="2.766074">
      <ele>84.7</ele>
      <time>2014-09-28T09:29:59Z</time>
    </trkpt>
    <trkpt lat="48.483588" lon="2.766064">
      <ele>84.8</ele>
      <time>2014-09-28T09:30:02Z</time>
    </trkpt>
    <trkpt lat="48.483465" lon="2.766056">
      <ele>84.9</ele>
      <time>2014-09-28T09:30:05Z</time>
    </trkpt>
    <trkpt lat="48.483341" lon="2.766062">
      <ele>85.0</ele>
      <time>2014-09-28T09:30:08Z</time>
    </trkpt>
    <trkpt lat="48.483235" lon="2.766069">
      <ele>84.3</ele>
      <time>2014-09-28T09:30:11Z</time>
    </trkpt>
    <trkpt lat="48.48312" lon="2.766079">
      <ele>83.4</ele>
      <time>2014-09-28T09:30:15Z</time>
    </trkpt>
    <trkpt lat="48.482977" lon="2.766163">
      <ele>82.6</ele>
      <time>2014-09-28T09:30:19Z</time>
    </trkpt>
    <trkpt lat="48.482864" lon="2.766254">
      <ele>82.2</ele>
      <time>2014-09-28T09:30:22Z</time>
    </trkpt>
    <trkpt lat="48.482751" lon="2.766333">
      <ele>81.9</ele>
      <time>2014-09-28T09:30:25Z</time>
    </trkpt>
    <trkpt lat="48.48263" lon="2.766439">
      <ele>81.9</ele>
      <time>2014-09-28T09:30:28Z</time>
    </trkpt>
    <trkpt lat="48.482473" lon="2.766639">
      <ele>82.6</ele>
      <time>2014-09-28T09:30:31Z</time>
    </trkpt>
    <trkpt lat="48.482372" lon="2.766737">
      <ele>82.4</ele>
      <time>2014-09-28T09:30:34Z</time>
    </trkpt>
    <trkpt lat="48.482288" lon="2.766797">
      <ele>82.3</ele>
      <time>2014-09-28T09:30:36Z</time>
    </trkpt>
    <trkpt lat="48.482192" lon="2.766841">
      <ele>82.2</ele>
      <time>2014-09-28T09:30:38Z</time>
    </trkpt>
    <trkpt lat="48.482074" lon="2.766907">
      <ele>82.3</ele>
      <time>2014-09-28T09:30:40Z</time>
    </trkpt>
    <trkpt lat="48.481941" lon="2.767005">
      <ele>83.2</ele>
      <time>2014-09-28T09:30:41Z</time>
    </trkpt>
    <trkpt lat="48.481859" lon="2.76708">
      <ele>84.2</ele>
      <time>2014-09-28T09:30:44Z</time>
    </trkpt>
    <trkpt lat="48.481755" lon="2.767106">
      <ele>84.5</ele>
      <time>2014-09-28T09:30:46Z</time>
    </trkpt>
    <trkpt lat="48.481663" lon="2.767166">
      <ele>85.5</ele>
      <time>2014-09-28T09:30:48Z</time>
    </trkpt>
    <trkpt lat="48.481519" lon="2.76722">
      <ele>83.9</ele>
      <time>2014-09-28T09:30:50Z</time>
    </trkpt>
    <trkpt lat="48.481419" lon="2.767273">
      <ele>83.1</ele>
      <time>2014-09-28T09:30:52Z</time>
    </trkpt>
    <trkpt lat="48.481273" lon="2.767376">
      <ele>82.5</ele>
      <time>2014-09-28T09:30:54Z</time>
    </trkpt>
    <trkpt lat="48.481064" lon="2.767596">
      <ele>82.3</ele>
      <time>2014-09-28T09:30:58Z</time>
    </trkpt>
    <trkpt lat="48.480965" lon="2.767735">
      <ele>82.6</ele>
      <time>2014-09-28T09:31:00Z</time>
    </trkpt>
    <trkpt lat="48.48088" lon="2.767814">
      <ele>82.5</ele>
      <time>2014-09-28T09:31:01Z</time>
    </trkpt>
    <trkpt lat="48.480751" lon="2.767957">
      <ele>82.5</ele>
      <time>2014-09-28T09:31:03Z</time>
    </trkpt>
    <trkpt lat="48.480631" lon="2.768073">
      <ele>82.1</ele>
      <time>2014-09-28T09:31:05Z</time>
    </trkpt>
    <trkpt lat="48.480521" lon="2.768191">
      <ele>82.0</ele>
      <time>2014-09-28T09:31:07Z</time>
    </trkpt>
    <trkpt lat="48.480396" lon="2.768311">
      <ele>81.7</ele>
      <time>2014-09-28T09:31:09Z</time>
    </trkpt>
    <trkpt lat="48.480319" lon="2.768439">
      <ele>82.1</ele>
      <time>2014-09-28T09:31:12Z</time>
    </trkpt>
    <trkpt lat="48.480203" lon="2.768557">
      <ele>82.0</ele>
      <time>2014-09-28T09:31:15Z</time>
    </trkpt>
    <trkpt lat="48.480093" lon="2.768633">
      <ele>81.6</ele>
      <time>2014-09-28T09:31:18Z</time>
    </trkpt>
    <trkpt lat="48.480016" lon="2.76872">
      <ele>82.2</ele>
      <time>2014-09-28T09:31:19Z</time>
    </trkpt>
    <trkpt lat="48.47984" lon="2.768917">
      <ele>83.2</ele>
      <time>2014-09-28T09:31:21Z</time>
    </trkpt>
    <trkpt lat="48.479637" lon="2.769067">
      <ele>83.3</ele>
      <time>2014-09-28T09:31:25Z</time>
    </trkpt>
    <trkpt lat="48.479545" lon="2.769171">
      <ele>84.0</ele>
      <time>2014-09-28T09:31:27Z</time>
    </trkpt>
    <trkpt lat="48.479456" lon="2.769321">
      <ele>84.7</ele>
      <time>2014-09-28T09:31:30Z</time>
    </trkpt>
    <trkpt lat="48.479372" lon="2.769454">
      <ele>85.3</ele>
      <time>2014-09-28T09:31:32Z</time>
    </trkpt>
    <trkpt lat="48.47932" lon="2.769576">
      <ele>86.4</ele>
      <time>2014-09-28T09:31:34Z</time>
    </trkpt>
    <trkpt lat="48.479235" lon="2.76965">
      <ele>86.6</ele>
      <time>2014-09-28T09:31:36Z</time>
    </trkpt>
    <trkpt lat="48.479136" lon="2.769715">
      <ele>86.5</ele>
      <time>2014-09-28T09:31:38Z</time>
    </trkpt>
    <trkpt lat="48.479046" lon="2.769762">
      <ele>86.0</ele>
      <time>2014-09-28T09:31:40Z</time>
    </trkpt>
    <trkpt lat="48.478886" lon="2.769857">
      <ele>85.7</ele>
      <time>2014-09-28T09:31:43Z</time>
    </trkpt>
    <trkpt lat="48.478757" lon="2.769907">
      <ele>85.2</ele>
      <time>2014-09-28T09:31:46Z</time>
    </trkpt>
    <trkpt lat="48.478651" lon="2.769962">
      <ele>85.2</ele>
      <time>2014-09-28T09:31:48Z</time>
    </trkpt>
    <trkpt lat="48.478515" lon="2.77001">
      <ele>84.9</ele>
      <time>2014-09-28T09:31:52Z</time>
    </trkpt>
    <trkpt lat="48.478361" lon="2.770037">
      <ele>83.7</ele>
      <time>2014-09-28T09:31:55Z</time>
    </trkpt>
    <trkpt lat="48.478109" lon="2.770245">
      <ele>83.1</ele>
      <time>2014-09-28T09:32:01Z</time>
    </trkpt>
    <trkpt lat="48.47802" lon="2.770303">
      <ele>82.8</ele>
      <time>2014-09-28T09:32:03Z</time>
    </trkpt>
    <trkpt lat="48.477846" lon="2.770423">
      <ele>82.5</ele>
      <time>2014-09-28T09:32:06Z</time>
    </trkpt>
    <trkpt lat="48.477757" lon="2.77049">
      <ele>82.5</ele>
      <time>2014-09-28T09:32:08Z</time>
    </trkpt>
    <trkpt lat="48.477667" lon="2.770584">
      <ele>83.1</ele>
      <time>2014-09-28T09:32:11Z</time>
    </trkpt>
    <trkpt lat="48.477552" lon="2.770643">
      <ele>82.9</ele>
      <time>2014-09-28T09:32:13Z</time>
    </trkpt>
    <trkpt lat="48.477401" lon="2.770761">
      <ele>83.5</ele>
      <time>2014-09-28T09:32:17Z</time>
    </trkpt>
    <trkpt lat="48.47732" lon="2.770829">
      <ele>84.0</ele>
      <time>2014-09-28T09:32:19Z</time>
    </trkpt>
    <trkpt lat="48.477226" lon="2.770932">
      <ele>84.4</ele>
      <time>2014-09-28T09:32:22Z</time>
    </trkpt>
    <trkpt lat="48.477114" lon="2.77097">
      <ele>83.8</ele>
      <time>2014-09-28T09:32:24Z</time>
    </trkpt>
    <trkpt lat="48.476967" lon="2.771116">
      <ele>84.5</ele>
      <time>2014-09-28T09:32:27Z</time>
    </trkpt>
    <trkpt lat="48.476829" lon="2.771171">
      <ele>84.1</ele>
      <time>2014-09-28T09:32:30Z</time>
    </trkpt>
    <trkpt lat="48.476672" lon="2.771279">
      <ele>84.5</ele>
      <time>2014-09-28T09:32:33Z</time>
    </trkpt>
    <trkpt lat="48.476528" lon="2.771359">
      <ele>84.1</ele>
      <time>2014-09-28T09:32:36Z</time>
    </trkpt>
    <trkpt lat="48.476401" lon="2.771464">
      <ele>84.4</ele>
      <time>2014-09-28T09:32:39Z</time>
    </trkpt>
    <trkpt lat="48.476319" lon="2.771526">
      <ele>84.6</ele>
      <time>2014-09-28T09:32:41Z</time>
    </trkpt>
    <trkpt lat="48.476224" lon="2.771596">
      <ele>84.9</ele>
      <time>2014-09-28T09:32:43Z</time>
    </trkpt>
    <trkpt lat="48.476124" lon="2.771656">
      <ele>84.9</ele>
      <time>2014-09-28T09:32:45Z</time>
    </trkpt>
    <trkpt lat="48.476023" lon="2.771725">
      <ele>84.9</ele>
      <time>2014-09-28T09:32:48Z</time>
    </trkpt>
    <trkpt lat="48.475921" lon="2.771787">
      <ele>84.8</ele>
      <time>2014-09-28T09:32:51Z</time>
    </trkpt>
    <trkpt lat="48.475832" lon="2.771826">
      <ele>84.7</ele>
      <time>2014-09-28T09:32:54Z</time>
    </trkpt>
    <trkpt lat="48.475753" lon="2.771898">
      <ele>84.9</ele>
      <time>2014-09-28T09:32:57Z</time>
    </trkpt>
    <trkpt lat="48.475553" lon="2.772032">
      <ele>84.9</ele>
      <time>2014-09-28T09:33:01Z</time>
    </trkpt>
    <trkpt lat="48.475481" lon="2.772113">
      <ele>85.5</ele>
      <time>2014-09-28T09:33:03Z</time>
    </trkpt>
    <trkpt lat="48.475359" lon="2.772169">
      <ele>85.1</ele>
      <time>2014-09-28T09:33:08Z</time>
    </trkpt>
    <trkpt lat="48.475277" lon="2.772235">
      <ele>85.3</ele>
      <time>2014-09-28T09:33:12Z</time>
    </trkpt>
    <trkpt lat="48.47517" lon="2.77226">
      <ele>84.6</ele>
      <time>2014-09-28T09:33:15Z</time>
    </trkpt>
    <trkpt lat="48.475063" lon="2.77231">
      <ele>84.3</ele>
      <time>2014-09-28T09:33:17Z</time>
    </trkpt>
    <trkpt lat="48.474948" lon="2.772318">
      <ele>83.1</ele>
      <time>2014-09-28T09:33:19Z</time>
    </trkpt>
    <trkpt lat="48.474855" lon="2.77237">
      <ele>82.9</ele>
      <time>2014-09-28T09:33:22Z</time>
    </trkpt>
    <trkpt lat="48.474759" lon="2.772409">
      <ele>82.6</ele>
      <time>2014-09-28T09:33:24Z</time>
    </trkpt>
    <trkpt lat="48.474649" lon="2.772489">
      <ele>83.0</ele>
      <time>2014-09-28T09:33:26Z</time>
    </trkpt>
    <trkpt lat="48.474558" lon="2.772526">
      <ele>82.4</ele>
      <time>2014-09-28T09:33:30Z</time>
    </trkpt>
    <trkpt lat="48.474428" lon="2.772621">
      <ele>81.9</ele>
      <time>2014-09-28T09:33:34Z</time>
    </trkpt>
    <trkpt lat="48.474346" lon="2.772718">
      <ele>81.9</ele>
      <time>2014-09-28T09:33:38Z</time>
    </trkpt>
    <trkpt lat="48.474236" lon="2.772764">
      <ele>81.2</ele>
      <time>2014-09-28T09:33:40Z</time>
    </trkpt>
    <trkpt lat="48.474125" lon="2.772777">
      <ele>80.1</ele>
      <time>2014-09-28T09:33:42Z</time>
    </trkpt>
    <trkpt lat="48.474033" lon="2.772777">
      <ele>78.8</ele>
      <time>2014-09-28T09:33:45Z</time>
    </trkpt>
    <trkpt lat="48.473936" lon="2.772842">
      <ele>78.3</ele>
      <time>2014-09-28T09:33:48Z</time>
    </trkpt>
    <trkpt lat="48.473787" lon="2.772981">
      <ele>78.3</ele>
      <time>2014-09-28T09:33:52Z</time>
    </trkpt>
    <trkpt lat="48.47369" lon="2.773017">
      <ele>77.8</ele>
      <time>2014-09-28T09:33:54Z</time>
    </trkpt>
    <trkpt lat="48.473614" lon="2.773144">
      <ele>79.0</ele>
      <time>2014-09-28T09:33:56Z</time>
    </trkpt>
    <trkpt lat="48.473478" lon="2.773445">
      <ele>81.9</ele>
      <time>2014-09-28T09:34:04Z</time>
    </trkpt>
    <trkpt lat="48.473382" lon="2.773581">
      <ele>82.4</ele>
      <time>2014-09-28T09:34:07Z</time>
    </trkpt>
    <trkpt lat="48.473311" lon="2.773684">
      <ele>83.0</ele>
      <time>2014-09-28T09:34:11Z</time>
    </trkpt>
    <trkpt lat="48.473208" lon="2.773732">
      <ele>83.6</ele>
      <time>2014-09-28T09:34:14Z</time>
    </trkpt>
    <trkpt lat="48.473147" lon="2.773598">
      <ele>82.4</ele>
      <time>2014-09-28T09:34:19Z</time>
    </trkpt>
    <trkpt lat="48.47307" lon="2.773454">
      <ele>81.2</ele>
      <time>2014-09-28T09:34:23Z</time>
    </trkpt>
    <trkpt lat="48.472985" lon="2.773374">
      <ele>80.4</ele>
      <time>2014-09-28T09:34:28Z</time>
    </trkpt>
    <trkpt lat="48.472891" lon="2.773452">
      <ele>81.2</ele>
      <time>2014-09-28T09:34:32Z</time>
    </trkpt>
    <trkpt lat="48.472794" lon="2.773499">
      <ele>81.8</ele>
      <time>2014-09-28T09:34:37Z</time>
    </trkpt>
    <trkpt lat="48.472701" lon="2.773524">
      <ele>82.1</ele>
      <time>2014-09-28T09:34:40Z</time>
    </trkpt>
    <trkpt lat="48.472606" lon="2.773565">
      <ele>82.7</ele>
      <time>2014-09-28T09:34:43Z</time>
    </trkpt>
    <trkpt lat="48.472476" lon="2.773553">
      <ele>82.5</ele>
      <time>2014-09-28T09:34:47Z</time>
    </trkpt>
    <trkpt lat="48.47234" lon="2.7735">
      <ele>81.2</ele>
      <time>2014-09-28T09:34:50Z</time>
    </trkpt>
    <trkpt lat="48.472249" lon="2.77349">
      <ele>80.6</ele>
      <time>2014-09-28T09:34:52Z</time>
    </trkpt>
    <trkpt lat="48.472141" lon="2.773471">
      <ele>79.8</ele>
      <time>2014-09-28T09:34:54Z</time>
    </trkpt>
    <trkpt lat="48.472043" lon="2.773409">
      <ele>78.4</ele>
      <time>2014-09-28T09:34:57Z</time>
    </trkpt>
    <trkpt lat="48.47191" lon="2.773378">
      <ele>77.1</ele>
      <time>2014-09-28T09:35:01Z</time>
    </trkpt>
    <trkpt lat="48.471684" lon="2.773443">
      <ele>76.9</ele>
      <time>2014-09-28T09:35:10Z</time>
    </trkpt>
    <trkpt lat="48.471564" lon="2.773443">
      <ele>76.0</ele>
      <time>2014-09-28T09:35:15Z</time>
    </trkpt>
    <trkpt lat="48.471476" lon="2.773494">
      <ele>76.1</ele>
      <time>2014-09-28T09:35:18Z</time>
    </trkpt>
    <trkpt lat="48.471374" lon="2.773536">
      <ele>76.1</ele>
      <time>2014-09-28T09:35:22Z</time>
    </trkpt>
    <trkpt lat="48.471284" lon="2.773591">
      <ele>76.5</ele>
      <time>2014-09-28T09:35:26Z</time>
    </trkpt>
    <trkpt lat="48.471242" lon="2.773722">
      <ele>78.9</ele>
      <time>2014-09-28T09:35:33Z</time>
    </trkpt>
    <trkpt lat="48.471269" lon="2.773869">
      <ele>82.0</ele>
      <time>2014-09-28T09:35:38Z</time>
    </trkpt>
    <trkpt lat="48.471279" lon="2.774014">
      <ele>85.0</ele>
      <time>2014-09-28T09:35:46Z</time>
    </trkpt>
    <trkpt lat="48.471323" lon="2.774136">
      <ele>87.6</ele>
      <time>2014-09-28T09:35:51Z</time>
    </trkpt>
    <trkpt lat="48.471227" lon="2.774226">
      <ele>88.4</ele>
      <time>2014-09-28T09:36:00Z</time>
    </trkpt>
    <trkpt lat="48.471122" lon="2.774366">
      <ele>89.4</ele>
      <time>2014-09-28T09:36:09Z</time>
    </trkpt>
    <trkpt lat="48.470921" lon="2.774497">
      <ele>90.3</ele>
      <time>2014-09-28T09:36:21Z</time>
    </trkpt>
    <trkpt lat="48.47079" lon="2.774507">
      <ele>90.1</ele>
      <time>2014-09-28T09:36:25Z</time>
    </trkpt>
    <trkpt lat="48.470697" lon="2.774514">
      <ele>89.9</ele>
      <time>2014-09-28T09:36:31Z</time>
    </trkpt>
    <trkpt lat="48.470598" lon="2.774526">
      <ele>89.7</ele>
      <time>2014-09-28T09:36:37Z</time>
    </trkpt>
    <trkpt lat="48.470446" lon="2.774559">
      <ele>89.6</ele>
      <time>2014-09-28T09:36:43Z</time>
    </trkpt>
    <trkpt lat="48.470337" lon="2.774656">
      <ele>90.3</ele>
      <time>2014-09-28T09:36:55Z</time>
    </trkpt>
    <trkpt lat="48.470241" lon="2.774739">
      <ele>90.9</ele>
      <time>2014-09-28T09:36:57Z</time>
    </trkpt>
    <trkpt lat="48.47011" lon="2.774816">
      <ele>91.3</ele>
      <time>2014-09-28T09:37:02Z</time>
    </trkpt>
    <trkpt lat="48.470021" lon="2.774893">
      <ele>91.9</ele>
      <time>2014-09-28T09:37:05Z</time>
    </trkpt>
    <trkpt lat="48.469946" lon="2.774989">
      <ele>92.7</ele>
      <time>2014-09-28T09:37:08Z</time>
    </trkpt>
    <trkpt lat="48.469773" lon="2.77491">
      <ele>91.2</ele>
      <time>2014-09-28T09:37:36Z</time>
    </trkpt>
    <trkpt lat="48.469744" lon="2.775077">
      <ele>92.5</ele>
      <time>2014-09-28T09:37:58Z</time>
    </trkpt>
    <trkpt lat="48.46968" lon="2.775175">
      <ele>92.9</ele>
      <time>2014-09-28T09:38:13Z</time>
    </trkpt>
    <trkpt lat="48.469544" lon="2.775256">
      <ele>93.1</ele>
      <time>2014-09-28T09:39:17Z</time>
    </trkpt>
    <trkpt lat="48.469376" lon="2.775384">
      <ele>93.9</ele>
      <time>2014-09-28T09:39:39Z</time>
    </trkpt>
    <trkpt lat="48.469285" lon="2.775368">
      <ele>93.6</ele>
      <time>2014-09-28T09:39:59Z</time>
    </trkpt>
    <trkpt lat="48.469198" lon="2.77541">
      <ele>94.0</ele>
      <time>2014-09-28T09:40:13Z</time>
    </trkpt>
    <trkpt lat="48.469112" lon="2.775456">
      <ele>93.9</ele>
      <time>2014-09-28T09:40:23Z</time>
    </trkpt>
    <trkpt lat="48.469041" lon="2.775676">
      <ele>95.5</ele>
      <time>2014-09-28T09:41:10Z</time>
    </trkpt>
    <trkpt lat="48.468946" lon="2.775731">
      <ele>95.4</ele>
      <time>2014-09-28T09:41:25Z</time>
    </trkpt>
    <trkpt lat="48.468753" lon="2.775859">
      <ele>95.2</ele>
      <time>2014-09-28T09:41:35Z</time>
    </trkpt>
    <trkpt lat="48.468663" lon="2.775966">
      <ele>95.3</ele>
      <time>2014-09-28T09:41:38Z</time>
    </trkpt>
    <trkpt lat="48.468557" lon="2.776051">
      <ele>95.3</ele>
      <time>2014-09-28T09:41:43Z</time>
    </trkpt>
    <trkpt lat="48.468481" lon="2.77615">
      <ele>95.7</ele>
      <time>2014-09-28T09:41:47Z</time>
    </trkpt>
    <trkpt lat="48.468385" lon="2.776266">
      <ele>96.3</ele>
      <time>2014-09-28T09:41:50Z</time>
    </trkpt>
    <trkpt lat="48.468291" lon="2.77633">
      <ele>96.3</ele>
      <time>2014-09-28T09:41:53Z</time>
    </trkpt>
    <trkpt lat="48.468201" lon="2.776368">
      <ele>95.8</ele>
      <time>2014-09-28T09:41:55Z</time>
    </trkpt>
    <trkpt lat="48.4681" lon="2.776384">
      <ele>95.0</ele>
      <time>2014-09-28T09:41:58Z</time>
    </trkpt>
    <trkpt lat="48.467972" lon="2.776475">
      <ele>94.6</ele>
      <time>2014-09-28T09:42:01Z</time>
    </trkpt>
    <trkpt lat="48.467861" lon="2.776507">
      <ele>93.8</ele>
      <time>2014-09-28T09:42:03Z</time>
    </trkpt>
    <trkpt lat="48.467718" lon="2.776584">
      <ele>93.2</ele>
      <time>2014-09-28T09:42:07Z</time>
    </trkpt>
    <trkpt lat="48.467618" lon="2.776659">
      <ele>93.1</ele>
      <time>2014-09-28T09:42:09Z</time>
    </trkpt>
    <trkpt lat="48.467529" lon="2.776765">
      <ele>93.2</ele>
      <time>2014-09-28T09:42:12Z</time>
    </trkpt>
    <trkpt lat="48.467412" lon="2.776851">
      <ele>92.8</ele>
      <time>2014-09-28T09:42:15Z</time>
    </trkpt>
    <trkpt lat="48.467317" lon="2.776934">
      <ele>92.7</ele>
      <time>2014-09-28T09:42:18Z</time>
    </trkpt>
    <trkpt lat="48.467229" lon="2.777052">
      <ele>92.9</ele>
      <time>2014-09-28T09:42:21Z</time>
    </trkpt>
    <trkpt lat="48.46717" lon="2.777164">
      <ele>93.4</ele>
      <time>2014-09-28T09:42:23Z</time>
    </trkpt>
    <trkpt lat="48.467136" lon="2.777296">
      <ele>94.4</ele>
      <time>2014-09-28T09:42:25Z</time>
    </trkpt>
    <trkpt lat="48.46707" lon="2.777417">
      <ele>95.0</ele>
      <time>2014-09-28T09:42:28Z</time>
    </trkpt>
    <trkpt lat="48.466925" lon="2.777754">
      <ele>94.4</ele>
      <time>2014-09-28T09:42:35Z</time>
    </trkpt>
    <trkpt lat="48.466864" lon="2.777926">
      <ele>93.8</ele>
      <time>2014-09-28T09:42:38Z</time>
    </trkpt>
    <trkpt lat="48.466829" lon="2.778093">
      <ele>93.4</ele>
      <time>2014-09-28T09:42:41Z</time>
    </trkpt>
    <trkpt lat="48.466746" lon="2.778211">
      <ele>92.7</ele>
      <time>2014-09-28T09:42:44Z</time>
    </trkpt>
    <trkpt lat="48.466658" lon="2.778287">
      <ele>92.0</ele>
      <time>2014-09-28T09:42:47Z</time>
    </trkpt>
    <trkpt lat="48.46659" lon="2.77841">
      <ele>91.8</ele>
      <time>2014-09-28T09:42:51Z</time>
    </trkpt>
    <trkpt lat="48.466482" lon="2.778497">
      <ele>91.7</ele>
      <time>2014-09-28T09:42:56Z</time>
    </trkpt>
    <trkpt lat="48.466368" lon="2.778648">
      <ele>91.9</ele>
      <time>2014-09-28T09:42:59Z</time>
    </trkpt>
    <trkpt lat="48.466258" lon="2.778798">
      <ele>92.2</ele>
      <time>2014-09-28T09:43:02Z</time>
    </trkpt>
    <trkpt lat="48.466128" lon="2.778777">
      <ele>91.9</ele>
      <time>2014-09-28T09:43:06Z</time>
    </trkpt>
    <trkpt lat="48.465997" lon="2.778742">
      <ele>91.3</ele>
      <time>2014-09-28T09:43:10Z</time>
    </trkpt>
    <trkpt lat="48.465903" lon="2.77883">
      <ele>91.7</ele>
      <time>2014-09-28T09:43:14Z</time>
    </trkpt>
    <trkpt lat="48.465795" lon="2.778835">
      <ele>91.5</ele>
      <time>2014-09-28T09:43:16Z</time>
    </trkpt>
    <trkpt lat="48.465669" lon="2.778847">
      <ele>91.2</ele>
      <time>2014-09-28T09:43:19Z</time>
    </trkpt>
    <trkpt lat="48.465596" lon="2.778932">
      <ele>91.5</ele>
      <time>2014-09-28T09:43:23Z</time>
    </trkpt>
    <trkpt lat="48.465445" lon="2.778987">
      <ele>91.4</ele>
      <time>2014-09-28T09:43:29Z</time>
    </trkpt>
    <trkpt lat="48.465212" lon="2.77879">
      <ele>89.4</ele>
      <time>2014-09-28T09:43:36Z</time>
    </trkpt>
    <trkpt lat="48.465161" lon="2.778665">
      <ele>88.5</ele>
      <time>2014-09-28T09:43:39Z</time>
    </trkpt>
    <trkpt lat="48.465059" lon="2.778496">
      <ele>87.1</ele>
      <time>2014-09-28T09:43:42Z</time>
    </trkpt>
    <trkpt lat="48.464989" lon="2.778333">
      <ele>86.0</ele>
      <time>2014-09-28T09:43:45Z</time>
    </trkpt>
    <trkpt lat="48.464895" lon="2.77823">
      <ele>84.7</ele>
      <time>2014-09-28T09:43:48Z</time>
    </trkpt>
    <trkpt lat="48.464799" lon="2.77812">
      <ele>83.3</ele>
      <time>2014-09-28T09:43:51Z</time>
    </trkpt>
    <trkpt lat="48.464707" lon="2.778032">
      <ele>82.1</ele>
      <time>2014-09-28T09:43:54Z</time>
    </trkpt>
    <trkpt lat="48.464632" lon="2.777916">
      <ele>80.5</ele>
      <time>2014-09-28T09:43:56Z</time>
    </trkpt>
    <trkpt lat="48.464525" lon="2.777831">
      <ele>79.3</ele>
      <time>2014-09-28T09:44:00Z</time>
    </trkpt>
    <trkpt lat="48.464414" lon="2.777737">
      <ele>77.8</ele>
      <time>2014-09-28T09:44:04Z</time>
    </trkpt>
    <trkpt lat="48.464302" lon="2.777701">
      <ele>77.2</ele>
      <time>2014-09-28T09:44:09Z</time>
    </trkpt>
    <trkpt lat="48.464259" lon="2.777576">
      <ele>75.3</ele>
      <time>2014-09-28T09:44:30Z</time>
    </trkpt>
    <trkpt lat="48.464031" lon="2.777705">
      <ele>76.5</ele>
      <time>2014-09-28T09:44:39Z</time>
    </trkpt>
    <trkpt lat="48.463913" lon="2.777781">
      <ele>77.2</ele>
      <time>2014-09-28T09:44:45Z</time>
    </trkpt>
    <trkpt lat="48.463786" lon="2.777839">
      <ele>77.6</ele>
      <time>2014-09-28T09:44:53Z</time>
    </trkpt>
    <trkpt lat="48.463671" lon="2.777784">
      <ele>76.1</ele>
      <time>2014-09-28T09:44:56Z</time>
    </trkpt>
    <trkpt lat="48.463527" lon="2.777809">
      <ele>75.8</ele>
      <time>2014-09-28T09:45:00Z</time>
    </trkpt>
    <trkpt lat="48.463429" lon="2.777813">
      <ele>75.5</ele>
      <time>2014-09-28T09:45:02Z</time>
    </trkpt>
    <trkpt lat="48.463299" lon="2.777823">
      <ele>74.8</ele>
      <time>2014-09-28T09:45:05Z</time>
    </trkpt>
    <trkpt lat="48.463191" lon="2.777832">
      <ele>73.6</ele>
      <time>2014-09-28T09:45:09Z</time>
    </trkpt>
    <trkpt lat="48.463086" lon="2.777875">
      <ele>73.2</ele>
      <time>2014-09-28T09:45:13Z</time>
    </trkpt>
    <trkpt lat="48.46303" lon="2.777984">
      <ele>74.7</ele>
      <time>2014-09-28T09:45:19Z</time>
    </trkpt>
    <trkpt lat="48.462936" lon="2.778002">
      <ele>74.0</ele>
      <time>2014-09-28T09:45:23Z</time>
    </trkpt>
    <trkpt lat="48.462857" lon="2.778093">
      <ele>74.9</ele>
      <time>2014-09-28T09:45:29Z</time>
    </trkpt>
    <trkpt lat="48.462723" lon="2.778151">
      <ele>74.6</ele>
      <time>2014-09-28T09:45:34Z</time>
    </trkpt>
    <trkpt lat="48.462475" lon="2.7782">
      <ele>72.8</ele>
      <time>2014-09-28T09:45:40Z</time>
    </trkpt>
    <trkpt lat="48.462402" lon="2.77828">
      <ele>73.4</ele>
      <time>2014-09-28T09:45:43Z</time>
    </trkpt>
    <trkpt lat="48.46231" lon="2.778342">
      <ele>73.2</ele>
      <time>2014-09-28T09:45:47Z</time>
    </trkpt>
    <trkpt lat="48.462203" lon="2.778402">
      <ele>72.6</ele>
      <time>2014-09-28T09:45:52Z</time>
    </trkpt>
    <trkpt lat="48.462124" lon="2.778488">
      <ele>72.9</ele>
      <time>2014-09-28T09:45:56Z</time>
    </trkpt>
    <trkpt lat="48.462044" lon="2.778606">
      <ele>73.9</ele>
      <time>2014-09-28T09:46:00Z</time>
    </trkpt>
    <trkpt lat="48.461932" lon="2.778633">
      <ele>72.8</ele>
      <time>2014-09-28T09:46:05Z</time>
    </trkpt>
    <trkpt lat="48.461827" lon="2.778734">
      <ele>73.3</ele>
      <time>2014-09-28T09:46:10Z</time>
    </trkpt>
    <trkpt lat="48.461737" lon="2.778895">
      <ele>75.3</ele>
      <time>2014-09-28T09:46:15Z</time>
    </trkpt>
    <trkpt lat="48.461675" lon="2.778993">
      <ele>76.6</ele>
      <time>2014-09-28T09:46:19Z</time>
    </trkpt>
    <trkpt lat="48.46152" lon="2.779076">
      <ele>76.2</ele>
      <time>2014-09-28T09:46:32Z</time>
    </trkpt>
    <trkpt lat="48.461392" lon="2.779225">
      <ele>77.3</ele>
      <time>2014-09-28T09:46:35Z</time>
    </trkpt>
    <trkpt lat="48.461226" lon="2.779377">
      <ele>77.6</ele>
      <time>2014-09-28T09:46:40Z</time>
    </trkpt>
    <trkpt lat="48.461111" lon="2.779543">
      <ele>79.0</ele>
      <time>2014-09-28T09:46:43Z</time>
    </trkpt>
    <trkpt lat="48.461023" lon="2.779653">
      <ele>79.9</ele>
      <time>2014-09-28T09:46:46Z</time>
    </trkpt>
    <trkpt lat="48.460886" lon="2.77976">
      <ele>80.2</ele>
      <time>2014-09-28T09:46:50Z</time>
    </trkpt>
    <trkpt lat="48.460801" lon="2.77983">
      <ele>80.5</ele>
      <time>2014-09-28T09:46:56Z</time>
    </trkpt>
    <trkpt lat="48.460747" lon="2.779985">
      <ele>82.6</ele>
      <time>2014-09-28T09:47:05Z</time>
    </trkpt>
    <trkpt lat="48.460681" lon="2.780107">
      <ele>83.0</ele>
      <time>2014-09-28T09:47:10Z</time>
    </trkpt>
    <trkpt lat="48.460598" lon="2.780184">
      <ele>82.6</ele>
      <time>2014-09-28T09:47:14Z</time>
    </trkpt>
    <trkpt lat="48.460578" lon="2.780342">
      <ele>83.8</ele>
      <time>2014-09-28T09:47:19Z</time>
    </trkpt>
    <trkpt lat="48.460523" lon="2.780459">
      <ele>84.1</ele>
      <time>2014-09-28T09:47:28Z</time>
    </trkpt>
    <trkpt lat="48.460375" lon="2.780454">
      <ele>82.0</ele>
      <time>2014-09-28T09:47:34Z</time>
    </trkpt>
    <trkpt lat="48.460214" lon="2.780391">
      <ele>79.2</ele>
      <time>2014-09-28T09:47:37Z</time>
    </trkpt>
    <trkpt lat="48.459962" lon="2.78034">
      <ele>75.2</ele>
      <time>2014-09-28T09:47:42Z</time>
    </trkpt>
    <trkpt lat="48.459883" lon="2.780241">
      <ele>72.9</ele>
      <time>2014-09-28T09:47:45Z</time>
    </trkpt>
    <trkpt lat="48.459813" lon="2.780127">
      <ele>70.7</ele>
      <time>2014-09-28T09:47:48Z</time>
    </trkpt>
    <trkpt lat="48.459718" lon="2.780117">
      <ele>68.9</ele>
      <time>2014-09-28T09:47:58Z</time>
    </trkpt>
    <trkpt lat="48.459607" lon="2.780053">
      <ele>66.3</ele>
      <time>2014-09-28T09:48:01Z</time>
    </trkpt>
    <trkpt lat="48.459523" lon="2.779971">
      <ele>64.1</ele>
      <time>2014-09-28T09:48:04Z</time>
    </trkpt>
    <trkpt lat="48.459435" lon="2.779847">
      <ele>61.4</ele>
      <time>2014-09-28T09:48:07Z</time>
    </trkpt>
    <trkpt lat="48.459353" lon="2.779745">
      <ele>59.1</ele>
      <time>2014-09-28T09:48:11Z</time>
    </trkpt>
    <trkpt lat="48.459262" lon="2.779668">
      <ele>57.1</ele>
      <time>2014-09-28T09:48:28Z</time>
    </trkpt>
    <trkpt lat="48.459181" lon="2.779782">
      <ele>56.7</ele>
      <time>2014-09-28T09:48:30Z</time>
    </trkpt>
    <trkpt lat="48.459079" lon="2.779948">
      <ele>56.8</ele>
      <time>2014-09-28T09:48:35Z</time>
    </trkpt>
    <trkpt lat="48.458979" lon="2.78007">
      <ele>56.7</ele>
      <time>2014-09-28T09:48:40Z</time>
    </trkpt>
    <trkpt lat="48.458826" lon="2.780272">
      <ele>56.4</ele>
      <time>2014-09-28T09:48:46Z</time>
    </trkpt>
    <trkpt lat="48.45876" lon="2.780373">
      <ele>56.3</ele>
      <time>2014-09-28T09:48:49Z</time>
    </trkpt>
    <trkpt lat="48.45869" lon="2.780467">
      <ele>56.1</ele>
      <time>2014-09-28T09:48:52Z</time>
    </trkpt>
    <trkpt lat="48.458622" lon="2.780567">
      <ele>56.0</ele>
      <time>2014-09-28T09:48:54Z</time>
    </trkpt>
    <trkpt lat="48.458558" lon="2.780684">
      <ele>55.9</ele>
      <time>2014-09-28T09:48:56Z</time>
    </trkpt>
    <trkpt lat="48.458473" lon="2.780817">
      <ele>55.6</ele>
      <time>2014-09-28T09:48:59Z</time>
    </trkpt>
    <trkpt lat="48.45839" lon="2.780968">
      <ele>55.7</ele>
      <time>2014-09-28T09:49:02Z</time>
    </trkpt>
    <trkpt lat="48.458324" lon="2.78116">
      <ele>56.3</ele>
      <time>2014-09-28T09:49:05Z</time>
    </trkpt>
    <trkpt lat="48.458267" lon="2.781334">
      <ele>57.0</ele>
      <time>2014-09-28T09:49:07Z</time>
    </trkpt>
    <trkpt lat="48.458266" lon="2.781559">
      <ele>58.5</ele>
      <time>2014-09-28T09:49:09Z</time>
    </trkpt>
    <trkpt lat="48.458218" lon="2.781733">
      <ele>58.7</ele>
      <time>2014-09-28T09:49:11Z</time>
    </trkpt>
    <trkpt lat="48.458165" lon="2.781873">
      <ele>58.2</ele>
      <time>2014-09-28T09:49:12Z</time>
    </trkpt>
    <trkpt lat="48.458116" lon="2.781994">
      <ele>57.8</ele>
      <time>2014-09-28T09:49:13Z</time>
    </trkpt>
    <trkpt lat="48.458037" lon="2.782203">
      <ele>57.1</ele>
      <time>2014-09-28T09:49:15Z</time>
    </trkpt>
    <trkpt lat="48.457971" lon="2.782393">
      <ele>56.5</ele>
      <time>2014-09-28T09:49:17Z</time>
    </trkpt>
    <trkpt lat="48.457922" lon="2.782536">
      <ele>56.1</ele>
      <time>2014-09-28T09:49:19Z</time>
    </trkpt>
    <trkpt lat="48.457853" lon="2.782747">
      <ele>55.9</ele>
      <time>2014-09-28T09:49:22Z</time>
    </trkpt>
    <trkpt lat="48.457767" lon="2.782884">
      <ele>55.3</ele>
      <time>2014-09-28T09:49:25Z</time>
    </trkpt>
    <trkpt lat="48.457651" lon="2.782844">
      <ele>53.9</ele>
      <time>2014-09-28T09:49:28Z</time>
    </trkpt>
    <trkpt lat="48.457557" lon="2.782822">
      <ele>52.8</ele>
      <time>2014-09-28T09:49:31Z</time>
    </trkpt>
    <trkpt lat="48.457443" lon="2.782822">
      <ele>52.4</ele>
      <time>2014-09-28T09:49:35Z</time>
    </trkpt>
    <trkpt lat="48.457332" lon="2.782824">
      <ele>53.0</ele>
      <time>2014-09-28T09:49:39Z</time>
    </trkpt>
    <trkpt lat="48.457225" lon="2.782822">
      <ele>53.5</ele>
      <time>2014-09-28T09:49:43Z</time>
    </trkpt>
    <trkpt lat="48.457024" lon="2.782801">
      <ele>54.4</ele>
      <time>2014-09-28T09:49:51Z</time>
    </trkpt>
    <trkpt lat="48.456923" lon="2.782792">
      <ele>54.8</ele>
      <time>2014-09-28T09:49:55Z</time>
    </trkpt>
    <trkpt lat="48.456825" lon="2.782778">
      <ele>55.2</ele>
      <time>2014-09-28T09:49:59Z</time>
    </trkpt>
    <trkpt lat="48.456715" lon="2.782775">
      <ele>55.8</ele>
      <time>2014-09-28T09:50:04Z</time>
    </trkpt>
    <trkpt lat="48.456624" lon="2.782768">
      <ele>56.3</ele>
      <time>2014-09-28T09:50:08Z</time>
    </trkpt>
    <trkpt lat="48.456529" lon="2.782765">
      <ele>57.1</ele>
      <time>2014-09-28T09:50:13Z</time>
    </trkpt>
    <trkpt lat="48.456435" lon="2.782768">
      <ele>57.9</ele>
      <time>2014-09-28T09:50:18Z</time>
    </trkpt>
    <trkpt lat="48.456333" lon="2.782767">
      <ele>58.8</ele>
      <time>2014-09-28T09:50:24Z</time>
    </trkpt>
    <trkpt lat="48.456233" lon="2.782772">
      <ele>59.6</ele>
      <time>2014-09-28T09:50:30Z</time>
    </trkpt>
    <trkpt lat="48.456129" lon="2.782777">
      <ele>60.5</ele>
      <time>2014-09-28T09:50:36Z</time>
    </trkpt>
    <trkpt lat="48.456032" lon="2.782766">
      <ele>61.3</ele>
      <time>2014-09-28T09:50:42Z</time>
    </trkpt>
    <trkpt lat="48.455941" lon="2.782805">
      <ele>62.1</ele>
      <time>2014-09-28T09:50:48Z</time>
    </trkpt>
    <trkpt lat="48.455743" lon="2.782862">
      <ele>64.2</ele>
      <time>2014-09-28T09:51:00Z</time>
    </trkpt>
    <trkpt lat="48.455658" lon="2.782913">
      <ele>65.3</ele>
      <time>2014-09-28T09:51:06Z</time>
    </trkpt>
    <trkpt lat="48.455571" lon="2.782952">
      <ele>66.4</ele>
      <time>2014-09-28T09:51:13Z</time>
    </trkpt>
    <trkpt lat="48.455477" lon="2.783004">
      <ele>67.6</ele>
      <time>2014-09-28T09:51:21Z</time>
    </trkpt>
    <trkpt lat="48.455382" lon="2.783038">
      <ele>68.8</ele>
      <time>2014-09-28T09:51:28Z</time>
    </trkpt>
    <trkpt lat="48.455281" lon="2.783044">
      <ele>70.1</ele>
      <time>2014-09-28T09:51:35Z</time>
    </trkpt>
    <trkpt lat="48.455179" lon="2.78304">
      <ele>71.4</ele>
      <time>2014-09-28T09:51:42Z</time>
    </trkpt>
    <trkpt lat="48.455084" lon="2.783011">
      <ele>72.7</ele>
      <time>2014-09-28T09:51:49Z</time>
    </trkpt>
    <trkpt lat="48.454876" lon="2.782929">
      <ele>74.9</ele>
      <time>2014-09-28T09:52:05Z</time>
    </trkpt>
    <trkpt lat="48.454765" lon="2.782884">
      <ele>75.7</ele>
      <time>2014-09-28T09:52:13Z</time>
    </trkpt>
    <trkpt lat="48.454668" lon="2.782826">
      <ele>76.5</ele>
      <time>2014-09-28T09:52:20Z</time>
    </trkpt>
    <trkpt lat="48.454559" lon="2.782777">
      <ele>77.3</ele>
      <time>2014-09-28T09:52:27Z</time>
    </trkpt>
    <trkpt lat="48.454465" lon="2.782715">
      <ele>78.0</ele>
      <time>2014-09-28T09:52:33Z</time>
    </trkpt>
    <trkpt lat="48.454377" lon="2.782656">
      <ele>78.6</ele>
      <time>2014-09-28T09:52:38Z</time>
    </trkpt>
    <trkpt lat="48.454286" lon="2.782609">
      <ele>79.2</ele>
      <time>2014-09-28T09:52:44Z</time>
    </trkpt>
    <trkpt lat="48.454187" lon="2.782575">
      <ele>79.9</ele>
      <time>2014-09-28T09:52:50Z</time>
    </trkpt>
    <trkpt lat="48.453974" lon="2.782521">
      <ele>80.7</ele>
      <time>2014-09-28T09:53:00Z</time>
    </trkpt>
    <trkpt lat="48.453858" lon="2.782499">
      <ele>81.1</ele>
      <time>2014-09-28T09:53:05Z</time>
    </trkpt>
    <trkpt lat="48.453745" lon="2.782483">
      <ele>81.5</ele>
      <time>2014-09-28T09:53:10Z</time>
    </trkpt>
    <trkpt lat="48.453641" lon="2.782503">
      <ele>81.9</ele>
      <time>2014-09-28T09:53:15Z</time>
    </trkpt>
    <trkpt lat="48.453536" lon="2.782494">
      <ele>82.3</ele>
      <time>2014-09-28T09:53:20Z</time>
    </trkpt>
    <trkpt lat="48.453432" lon="2.782469">
      <ele>82.7</ele>
      <time>2014-09-28T09:53:25Z</time>
    </trkpt>
    <trkpt lat="48.453341" lon="2.782447">
      <ele>83.1</ele>
      <time>2014-09-28T09:53:29Z</time>
    </trkpt>
    <trkpt lat="48.453239" lon="2.782409">
      <ele>83.5</ele>
      <time>2014-09-28T09:53:34Z</time>
    </trkpt>
    <trkpt lat="48.453148" lon="2.782369">
      <ele>83.9</ele>
      <time>2014-09-28T09:53:38Z</time>
    </trkpt>
    <trkpt lat="48.453058" lon="2.782313">
      <ele>84.4</ele>
      <time>2014-09-28T09:53:42Z</time>
    </trkpt>
    <trkpt lat="48.452943" lon="2.782235">
      <ele>84.9</ele>
      <time>2014-09-28T09:53:47Z</time>
    </trkpt>
    <trkpt lat="48.452857" lon="2.78215">
      <ele>85.3</ele>
      <time>2014-09-28T09:53:51Z</time>
    </trkpt>
    <trkpt lat="48.452718" lon="2.781963">
      <ele>86.0</ele>
      <time>2014-09-28T09:53:59Z</time>
    </trkpt>
    <trkpt lat="48.452662" lon="2.781834">
      <ele>86.4</ele>
      <time>2014-09-28T09:54:03Z</time>
    </trkpt>
    <trkpt lat="48.452607" lon="2.781686">
      <ele>86.7</ele>
      <time>2014-09-28T09:54:07Z</time>
    </trkpt>
    <trkpt lat="48.452549" lon="2.781492">
      <ele>87.1</ele>
      <time>2014-09-28T09:54:12Z</time>
    </trkpt>
    <trkpt lat="48.452512" lon="2.781361">
      <ele>87.3</ele>
      <time>2014-09-28T09:54:15Z</time>
    </trkpt>
    <trkpt lat="48.452478" lon="2.781229">
      <ele>87.6</ele>
      <time>2014-09-28T09:54:18Z</time>
    </trkpt>
    <trkpt lat="48.452444" lon="2.781098">
      <ele>87.8</ele>
      <time>2014-09-28T09:54:21Z</time>
    </trkpt>
    <trkpt lat="48.452411" lon="2.780971">
      <ele>88.0</ele>
      <time>2014-09-28T09:54:24Z</time>
    </trkpt>
    <trkpt lat="48.452377" lon="2.780836">
      <ele>88.3</ele>
      <time>2014-09-28T09:54:27Z</time>
    </trkpt>
    <trkpt lat="48.452345" lon="2.780694">
      <ele>88.7</ele>
      <time>2014-09-28T09:54:30Z</time>
    </trkpt>
    <trkpt lat="48.45231" lon="2.78054">
      <ele>89.1</ele>
      <time>2014-09-28T09:54:33Z</time>
    </trkpt>
    <trkpt lat="48.452279" lon="2.780383">
      <ele>89.5</ele>
      <time>2014-09-28T09:54:36Z</time>
    </trkpt>
    <trkpt lat="48.452252" lon="2.780231">
      <ele>89.8</ele>
      <time>2014-09-28T09:54:39Z</time>
    </trkpt>
    <trkpt lat="48.452218" lon="2.780027">
      <ele>90.3</ele>
      <time>2014-09-28T09:54:43Z</time>
    </trkpt>
    <trkpt lat="48.452194" lon="2.779864">
      <ele>90.3</ele>
      <time>2014-09-28T09:54:46Z</time>
    </trkpt>
    <trkpt lat="48.45217" lon="2.779701">
      <ele>90.2</ele>
      <time>2014-09-28T09:54:49Z</time>
    </trkpt>
    <trkpt lat="48.452143" lon="2.779534">
      <ele>90.1</ele>
      <time>2014-09-28T09:54:52Z</time>
    </trkpt>
    <trkpt lat="48.452092" lon="2.779197">
      <ele>90.0</ele>
      <time>2014-09-28T09:54:58Z</time>
    </trkpt>
    <trkpt lat="48.452067" lon="2.779021">
      <ele>90.0</ele>
      <time>2014-09-28T09:55:01Z</time>
    </trkpt>
    <trkpt lat="48.452037" lon="2.778855">
      <ele>90.1</ele>
      <time>2014-09-28T09:55:04Z</time>
    </trkpt>
    <trkpt lat="48.452013" lon="2.778691">
      <ele>90.2</ele>
      <time>2014-09-28T09:55:07Z</time>
    </trkpt>
    <trkpt lat="48.451991" lon="2.778516">
      <ele>90.2</ele>
      <time>2014-09-28T09:55:10Z</time>
    </trkpt>
    <trkpt lat="48.45197" lon="2.778337">
      <ele>90.3</ele>
      <time>2014-09-28T09:55:13Z</time>
    </trkpt>
    <trkpt lat="48.451946" lon="2.778163">
      <ele>90.2</ele>
      <time>2014-09-28T09:55:16Z</time>
    </trkpt>
    <trkpt lat="48.451919" lon="2.777998">
      <ele>90.1</ele>
      <time>2014-09-28T09:55:19Z</time>
    </trkpt>
    <trkpt lat="48.451894" lon="2.777846">
      <ele>90.0</ele>
      <time>2014-09-28T09:55:22Z</time>
    </trkpt>
    <trkpt lat="48.451869" lon="2.777686">
      <ele>89.9</ele>
      <time>2014-09-28T09:55:25Z</time>
    </trkpt>
    <trkpt lat="48.451836" lon="2.777499">
      <ele>89.8</ele>
      <time>2014-09-28T09:55:28Z</time>
    </trkpt>
    <trkpt lat="48.451805" lon="2.777321">
      <ele>89.9</ele>
      <time>2014-09-28T09:55:31Z</time>
    </trkpt>
    <trkpt lat="48.451777" lon="2.777144">
      <ele>89.9</ele>
      <time>2014-09-28T09:55:34Z</time>
    </trkpt>
    <trkpt lat="48.451755" lon="2.777">
      <ele>90.0</ele>
      <time>2014-09-28T09:55:37Z</time>
    </trkpt>
    <trkpt lat="48.451728" lon="2.776843">
      <ele>90.0</ele>
      <time>2014-09-28T09:55:40Z</time>
    </trkpt>
    <trkpt lat="48.451694" lon="2.776702">
      <ele>90.0</ele>
      <time>2014-09-28T09:55:43Z</time>
    </trkpt>
    <trkpt lat="48.451663" lon="2.776563">
      <ele>90.1</ele>
      <time>2014-09-28T09:55:46Z</time>
    </trkpt>
    <trkpt lat="48.45163" lon="2.776412">
      <ele>90.3</ele>
      <time>2014-09-28T09:55:49Z</time>
    </trkpt>
    <trkpt lat="48.451594" lon="2.776253">
      <ele>90.5</ele>
      <time>2014-09-28T09:55:52Z</time>
    </trkpt>
    <trkpt lat="48.451525" lon="2.775944">
      <ele>90.7</ele>
      <time>2014-09-28T09:55:58Z</time>
    </trkpt>
    <trkpt lat="48.45149" lon="2.775784">
      <ele>90.8</ele>
      <time>2014-09-28T09:56:01Z</time>
    </trkpt>
    <trkpt lat="48.451452" lon="2.775622">
      <ele>90.9</ele>
      <time>2014-09-28T09:56:04Z</time>
    </trkpt>
    <trkpt lat="48.451424" lon="2.775472">
      <ele>90.9</ele>
      <time>2014-09-28T09:56:07Z</time>
    </trkpt>
    <trkpt lat="48.451394" lon="2.775326">
      <ele>90.9</ele>
      <time>2014-09-28T09:56:10Z</time>
    </trkpt>
    <trkpt lat="48.451362" lon="2.775164">
      <ele>90.9</ele>
      <time>2014-09-28T09:56:13Z</time>
    </trkpt>
    <trkpt lat="48.451344" lon="2.77503">
      <ele>90.8</ele>
      <time>2014-09-28T09:56:15Z</time>
    </trkpt>
    <trkpt lat="48.451313" lon="2.774843">
      <ele>90.7</ele>
      <time>2014-09-28T09:56:18Z</time>
    </trkpt>
    <trkpt lat="48.451297" lon="2.774684">
      <ele>90.6</ele>
      <time>2014-09-28T09:56:21Z</time>
    </trkpt>
    <trkpt lat="48.451274" lon="2.774503">
      <ele>90.6</ele>
      <time>2014-09-28T09:56:24Z</time>
    </trkpt>
    <trkpt lat="48.451258" lon="2.774317">
      <ele>90.5</ele>
      <time>2014-09-28T09:56:27Z</time>
    </trkpt>
    <trkpt lat="48.451236" lon="2.774177">
      <ele>90.5</ele>
      <time>2014-09-28T09:56:29Z</time>
    </trkpt>
    <trkpt lat="48.451238" lon="2.774018">
      <ele>90.6</ele>
      <time>2014-09-28T09:56:32Z</time>
    </trkpt>
    <trkpt lat="48.451252" lon="2.773848">
      <ele>90.7</ele>
      <time>2014-09-28T09:56:35Z</time>
    </trkpt>
    <trkpt lat="48.451241" lon="2.773677">
      <ele>90.8</ele>
      <time>2014-09-28T09:56:38Z</time>
    </trkpt>
    <trkpt lat="48.451255" lon="2.773499">
      <ele>90.9</ele>
      <time>2014-09-28T09:56:41Z</time>
    </trkpt>
    <trkpt lat="48.451273" lon="2.773351">
      <ele>91.0</ele>
      <time>2014-09-28T09:56:44Z</time>
    </trkpt>
    <trkpt lat="48.451252" lon="2.773524">
      <ele>90.9</ele>
      <time>2014-09-28T09:57:30Z</time>
    </trkpt>
    <trkpt lat="48.451131" lon="2.773788">
      <ele>90.5</ele>
      <time>2014-09-28T09:57:37Z</time>
    </trkpt>
    <trkpt lat="48.451034" lon="2.77386">
      <ele>90.3</ele>
      <time>2014-09-28T09:57:40Z</time>
    </trkpt>
    <trkpt lat="48.450936" lon="2.773889">
      <ele>90.2</ele>
      <time>2014-09-28T09:57:43Z</time>
    </trkpt>
    <trkpt lat="48.450829" lon="2.773948">
      <ele>90.0</ele>
      <time>2014-09-28T09:57:46Z</time>
    </trkpt>
    <trkpt lat="48.450719" lon="2.774021">
      <ele>90.2</ele>
      <time>2014-09-28T09:57:49Z</time>
    </trkpt>
    <trkpt lat="48.450605" lon="2.774064">
      <ele>90.5</ele>
      <time>2014-09-28T09:57:52Z</time>
    </trkpt>
    <trkpt lat="48.450487" lon="2.774107">
      <ele>90.8</ele>
      <time>2014-09-28T09:57:55Z</time>
    </trkpt>
    <trkpt lat="48.450375" lon="2.774146">
      <ele>91.1</ele>
      <time>2014-09-28T09:57:58Z</time>
    </trkpt>
    <trkpt lat="48.450258" lon="2.774182">
      <ele>91.4</ele>
      <time>2014-09-28T09:58:01Z</time>
    </trkpt>
    <trkpt lat="48.450139" lon="2.774205">
      <ele>91.6</ele>
      <time>2014-09-28T09:58:04Z</time>
    </trkpt>
    <trkpt lat="48.450018" lon="2.77424">
      <ele>91.9</ele>
      <time>2014-09-28T09:58:07Z</time>
    </trkpt>
    <trkpt lat="48.449898" lon="2.774271">
      <ele>91.8</ele>
      <time>2014-09-28T09:58:10Z</time>
    </trkpt>
    <trkpt lat="48.44978" lon="2.774305">
      <ele>91.7</ele>
      <time>2014-09-28T09:58:13Z</time>
    </trkpt>
    <trkpt lat="48.449654" lon="2.77432">
      <ele>91.7</ele>
      <time>2014-09-28T09:58:16Z</time>
    </trkpt>
    <trkpt lat="48.449535" lon="2.774347">
      <ele>91.7</ele>
      <time>2014-09-28T09:58:19Z</time>
    </trkpt>
    <trkpt lat="48.449413" lon="2.774366">
      <ele>91.7</ele>
      <time>2014-09-28T09:58:22Z</time>
    </trkpt>
    <trkpt lat="48.449299" lon="2.77437">
      <ele>91.7</ele>
      <time>2014-09-28T09:58:25Z</time>
    </trkpt>
    <trkpt lat="48.449144" lon="2.774397">
      <ele>91.8</ele>
      <time>2014-09-28T09:58:29Z</time>
    </trkpt>
    <trkpt lat="48.449028" lon="2.774411">
      <ele>92.0</ele>
      <time>2014-09-28T09:58:33Z</time>
    </trkpt>
    <trkpt lat="48.448704" lon="2.774404">
      <ele>92.3</ele>
      <time>2014-09-28T09:58:39Z</time>
    </trkpt>
    <trkpt lat="48.44861" lon="2.774386">
      <ele>92.3</ele>
      <time>2014-09-28T09:58:42Z</time>
    </trkpt>
    <trkpt lat="48.448448" lon="2.774391">
      <ele>92.4</ele>
      <time>2014-09-28T09:58:46Z</time>
    </trkpt>
    <trkpt lat="48.448295" lon="2.774474">
      <ele>92.7</ele>
      <time>2014-09-28T09:58:50Z</time>
    </trkpt>
    <trkpt lat="48.448195" lon="2.774503">
      <ele>92.8</ele>
      <time>2014-09-28T09:58:52Z</time>
    </trkpt>
    <trkpt lat="48.448063" lon="2.774554">
      <ele>92.9</ele>
      <time>2014-09-28T09:58:55Z</time>
    </trkpt>
    <trkpt lat="48.447844" lon="2.774596">
      <ele>93.0</ele>
      <time>2014-09-28T09:58:59Z</time>
    </trkpt>
    <trkpt lat="48.44772" lon="2.774633">
      <ele>93.1</ele>
      <time>2014-09-28T09:59:02Z</time>
    </trkpt>
    <trkpt lat="48.447598" lon="2.774662">
      <ele>93.2</ele>
      <time>2014-09-28T09:59:05Z</time>
    </trkpt>
    <trkpt lat="48.447491" lon="2.774659">
      <ele>93.2</ele>
      <time>2014-09-28T09:59:07Z</time>
    </trkpt>
    <trkpt lat="48.447365" lon="2.774647">
      <ele>92.9</ele>
      <time>2014-09-28T09:59:10Z</time>
    </trkpt>
    <trkpt lat="48.447278" lon="2.774686">
      <ele>92.8</ele>
      <time>2014-09-28T09:59:13Z</time>
    </trkpt>
    <trkpt lat="48.447162" lon="2.774666">
      <ele>92.5</ele>
      <time>2014-09-28T09:59:15Z</time>
    </trkpt>
    <trkpt lat="48.44705" lon="2.774658">
      <ele>92.3</ele>
      <time>2014-09-28T09:59:17Z</time>
    </trkpt>
    <trkpt lat="48.446946" lon="2.77467">
      <ele>92.1</ele>
      <time>2014-09-28T09:59:21Z</time>
    </trkpt>
    <trkpt lat="48.446861" lon="2.774832">
      <ele>92.2</ele>
      <time>2014-09-28T09:59:26Z</time>
    </trkpt>
    <trkpt lat="48.446741" lon="2.774932">
      <ele>92.1</ele>
      <time>2014-09-28T09:59:31Z</time>
    </trkpt>
    <trkpt lat="48.446658" lon="2.77502">
      <ele>92.1</ele>
      <time>2014-09-28T09:59:36Z</time>
    </trkpt>
    <trkpt lat="48.446473" lon="2.77519">
      <ele>92.6</ele>
      <time>2014-09-28T09:59:44Z</time>
    </trkpt>
    <trkpt lat="48.446372" lon="2.775306">
      <ele>92.8</ele>
      <time>2014-09-28T09:59:49Z</time>
    </trkpt>
    <trkpt lat="48.446451" lon="2.775228">
      <ele>92.7</ele>
      <time>2014-09-28T10:00:04Z</time>
    </trkpt>
    <trkpt lat="48.446528" lon="2.775133">
      <ele>92.4</ele>
      <time>2014-09-28T10:00:07Z</time>
    </trkpt>
    <trkpt lat="48.446553" lon="2.774993">
      <ele>92.1</ele>
      <time>2014-09-28T10:00:12Z</time>
    </trkpt>
    <trkpt lat="48.446514" lon="2.774868">
      <ele>92.0</ele>
      <time>2014-09-28T10:00:18Z</time>
    </trkpt>
    <trkpt lat="48.446451" lon="2.774764">
      <ele>91.8</ele>
      <time>2014-09-28T10:00:21Z</time>
    </trkpt>
    <trkpt lat="48.446367" lon="2.774641">
      <ele>91.6</ele>
      <time>2014-09-28T10:00:23Z</time>
    </trkpt>
    <trkpt lat="48.446272" lon="2.774539">
      <ele>91.4</ele>
      <time>2014-09-28T10:00:25Z</time>
    </trkpt>
    <trkpt lat="48.44619" lon="2.774412">
      <ele>91.1</ele>
      <time>2014-09-28T10:00:27Z</time>
    </trkpt>
    <trkpt lat="48.446067" lon="2.774406">
      <ele>91.0</ele>
      <time>2014-09-28T10:00:30Z</time>
    </trkpt>
    <trkpt lat="48.445975" lon="2.774496">
      <ele>91.2</ele>
      <time>2014-09-28T10:00:33Z</time>
    </trkpt>
    <trkpt lat="48.445877" lon="2.774401">
      <ele>90.9</ele>
      <time>2014-09-28T10:00:38Z</time>
    </trkpt>
    <trkpt lat="48.445815" lon="2.774019">
      <ele>89.8</ele>
      <time>2014-09-28T10:00:44Z</time>
    </trkpt>
    <trkpt lat="48.44577" lon="2.773791">
      <ele>89.3</ele>
      <time>2014-09-28T10:00:48Z</time>
    </trkpt>
    <trkpt lat="48.445677" lon="2.773661">
      <ele>88.8</ele>
      <time>2014-09-28T10:00:51Z</time>
    </trkpt>
    <trkpt lat="48.445581" lon="2.773613">
      <ele>88.4</ele>
      <time>2014-09-28T10:00:53Z</time>
    </trkpt>
    <trkpt lat="48.445481" lon="2.773598">
      <ele>88.0</ele>
      <time>2014-09-28T10:00:55Z</time>
    </trkpt>
    <trkpt lat="48.445359" lon="2.773587">
      <ele>87.6</ele>
      <time>2014-09-28T10:00:57Z</time>
    </trkpt>
    <trkpt lat="48.445243" lon="2.773592">
      <ele>87.2</ele>
      <time>2014-09-28T10:01:00Z</time>
    </trkpt>
    <trkpt lat="48.445151" lon="2.773565">
      <ele>86.8</ele>
      <time>2014-09-28T10:01:02Z</time>
    </trkpt>
    <trkpt lat="48.445056" lon="2.773467">
      <ele>86.4</ele>
      <time>2014-09-28T10:01:05Z</time>
    </trkpt>
    <trkpt lat="48.44497" lon="2.7734">
      <ele>86.1</ele>
      <time>2014-09-28T10:01:07Z</time>
    </trkpt>
    <trkpt lat="48.444827" lon="2.773329">
      <ele>86.0</ele>
      <time>2014-09-28T10:01:09Z</time>
    </trkpt>
    <trkpt lat="48.444715" lon="2.773224">
      <ele>86.1</ele>
      <time>2014-09-28T10:01:11Z</time>
    </trkpt>
    <trkpt lat="48.444646" lon="2.773126">
      <ele>86.4</ele>
      <time>2014-09-28T10:01:14Z</time>
    </trkpt>
    <trkpt lat="48.444661" lon="2.772972">
      <ele>86.6</ele>
      <time>2014-09-28T10:01:17Z</time>
    </trkpt>
    <trkpt lat="48.444567" lon="2.772864">
      <ele>87.2</ele>
      <time>2014-09-28T10:01:22Z</time>
    </trkpt>
    <trkpt lat="48.444505" lon="2.772757">
      <ele>87.8</ele>
      <time>2014-09-28T10:01:26Z</time>
    </trkpt>
    <trkpt lat="48.444414" lon="2.772713">
      <ele>88.4</ele>
      <time>2014-09-28T10:01:30Z</time>
    </trkpt>
    <trkpt lat="48.444321" lon="2.772658">
      <ele>89.2</ele>
      <time>2014-09-28T10:01:36Z</time>
    </trkpt>
    <trkpt lat="48.444265" lon="2.772535">
      <ele>90.1</ele>
      <time>2014-09-28T10:01:40Z</time>
    </trkpt>
    <trkpt lat="48.444126" lon="2.772347">
      <ele>91.7</ele>
      <time>2014-09-28T10:01:53Z</time>
    </trkpt>
    <trkpt lat="48.444052" lon="2.772247">
      <ele>92.3</ele>
      <time>2014-09-28T10:01:57Z</time>
    </trkpt>
    <trkpt lat="48.443983" lon="2.772097">
      <ele>93.1</ele>
      <time>2014-09-28T10:02:03Z</time>
    </trkpt>
    <trkpt lat="48.443926" lon="2.771972">
      <ele>93.8</ele>
      <time>2014-09-28T10:02:10Z</time>
    </trkpt>
    <trkpt lat="48.443953" lon="2.771804">
      <ele>94.3</ele>
      <time>2014-09-28T10:02:14Z</time>
    </trkpt>
    <trkpt lat="48.444013" lon="2.771677">
      <ele>94.5</ele>
      <time>2014-09-28T10:02:16Z</time>
    </trkpt>
    <trkpt lat="48.444051" lon="2.771498">
      <ele>94.6</ele>
      <time>2014-09-28T10:02:20Z</time>
    </trkpt>
    <trkpt lat="48.444127" lon="2.771391">
      <ele>94.5</ele>
      <time>2014-09-28T10:02:24Z</time>
    </trkpt>
    <trkpt lat="48.444186" lon="2.77128">
      <ele>94.3</ele>
      <time>2014-09-28T10:02:26Z</time>
    </trkpt>
    <trkpt lat="48.444252" lon="2.77111">
      <ele>93.9</ele>
      <time>2014-09-28T10:02:29Z</time>
    </trkpt>
    <trkpt lat="48.444303" lon="2.77098">
      <ele>93.6</ele>
      <time>2014-09-28T10:02:32Z</time>
    </trkpt>
    <trkpt lat="48.444305" lon="2.770829">
      <ele>93.7</ele>
      <time>2014-09-28T10:02:34Z</time>
    </trkpt>
    <trkpt lat="48.444379" lon="2.770659">
      <ele>93.4</ele>
      <time>2014-09-28T10:02:37Z</time>
    </trkpt>
    <trkpt lat="48.444417" lon="2.770525">
      <ele>93.3</ele>
      <time>2014-09-28T10:02:40Z</time>
    </trkpt>
    <trkpt lat="48.44446" lon="2.770342">
      <ele>93.4</ele>
      <time>2014-09-28T10:02:42Z</time>
    </trkpt>
    <trkpt lat="48.444509" lon="2.770062">
      <ele>93.6</ele>
      <time>2014-09-28T10:02:48Z</time>
    </trkpt>
    <trkpt lat="48.444568" lon="2.769958">
      <ele>93.2</ele>
      <time>2014-09-28T10:02:52Z</time>
    </trkpt>
    <trkpt lat="48.444412" lon="2.769807">
      <ele>94.8</ele>
      <time>2014-09-28T10:02:57Z</time>
    </trkpt>
    <trkpt lat="48.444281" lon="2.769678">
      <ele>95.8</ele>
      <time>2014-09-28T10:03:01Z</time>
    </trkpt>
    <trkpt lat="48.444181" lon="2.769542">
      <ele>96.4</ele>
      <time>2014-09-28T10:03:04Z</time>
    </trkpt>
    <trkpt lat="48.444108" lon="2.769445">
      <ele>96.3</ele>
      <time>2014-09-28T10:03:07Z</time>
    </trkpt>
    <trkpt lat="48.444016" lon="2.769357">
      <ele>96.1</ele>
      <time>2014-09-28T10:03:11Z</time>
    </trkpt>
    <trkpt lat="48.443965" lon="2.769239">
      <ele>95.9</ele>
      <time>2014-09-28T10:03:15Z</time>
    </trkpt>
    <trkpt lat="48.443798" lon="2.76915">
      <ele>95.5</ele>
      <time>2014-09-28T10:03:19Z</time>
    </trkpt>
    <trkpt lat="48.443719" lon="2.76906">
      <ele>95.4</ele>
      <time>2014-09-28T10:03:22Z</time>
    </trkpt>
    <trkpt lat="48.443626" lon="2.768993">
      <ele>95.3</ele>
      <time>2014-09-28T10:03:23Z</time>
    </trkpt>
    <trkpt lat="48.443537" lon="2.768944">
      <ele>95.3</ele>
      <time>2014-09-28T10:03:24Z</time>
    </trkpt>
    <trkpt lat="48.443398" lon="2.768887">
      <ele>95.3</ele>
      <time>2014-09-28T10:03:27Z</time>
    </trkpt>
    <trkpt lat="48.443287" lon="2.768792">
      <ele>95.5</ele>
      <time>2014-09-28T10:03:31Z</time>
    </trkpt>
    <trkpt lat="48.443242" lon="2.768671">
      <ele>95.7</ele>
      <time>2014-09-28T10:04:02Z</time>
    </trkpt>
    <trkpt lat="48.443011" lon="2.768524">
      <ele>95.7</ele>
      <time>2014-09-28T10:04:07Z</time>
    </trkpt>
    <trkpt lat="48.442939" lon="2.768416">
      <ele>95.6</ele>
      <time>2014-09-28T10:04:10Z</time>
    </trkpt>
    <trkpt lat="48.44283" lon="2.768323">
      <ele>95.4</ele>
      <time>2014-09-28T10:04:14Z</time>
    </trkpt>
    <trkpt lat="48.44274" lon="2.768219">
      <ele>94.8</ele>
      <time>2014-09-28T10:04:17Z</time>
    </trkpt>
    <trkpt lat="48.442642" lon="2.76816">
      <ele>94.4</ele>
      <time>2014-09-28T10:04:20Z</time>
    </trkpt>
    <trkpt lat="48.442525" lon="2.768045">
      <ele>93.7</ele>
      <time>2014-09-28T10:04:22Z</time>
    </trkpt>
    <trkpt lat="48.442439" lon="2.767995">
      <ele>93.2</ele>
      <time>2014-09-28T10:04:25Z</time>
    </trkpt>
    <trkpt lat="48.442441" lon="2.76784">
      <ele>92.5</ele>
      <time>2014-09-28T10:04:31Z</time>
    </trkpt>
    <trkpt lat="48.442484" lon="2.767715">
      <ele>92.0</ele>
      <time>2014-09-28T10:04:34Z</time>
    </trkpt>
    <trkpt lat="48.442527" lon="2.767592">
      <ele>91.5</ele>
      <time>2014-09-28T10:04:36Z</time>
    </trkpt>
    <trkpt lat="48.442578" lon="2.76746">
      <ele>91.0</ele>
      <time>2014-09-28T10:04:38Z</time>
    </trkpt>
    <trkpt lat="48.44263" lon="2.767325">
      <ele>90.5</ele>
      <time>2014-09-28T10:04:40Z</time>
    </trkpt>
    <trkpt lat="48.442685" lon="2.767183">
      <ele>89.9</ele>
      <time>2014-09-28T10:04:42Z</time>
    </trkpt>
    <trkpt lat="48.442752" lon="2.767055">
      <ele>89.5</ele>
      <time>2014-09-28T10:04:44Z</time>
    </trkpt>
    <trkpt lat="48.442813" lon="2.766908">
      <ele>88.9</ele>
      <time>2014-09-28T10:04:46Z</time>
    </trkpt>
    <trkpt lat="48.442886" lon="2.766743">
      <ele>88.3</ele>
      <time>2014-09-28T10:04:48Z</time>
    </trkpt>
    <trkpt lat="48.442913" lon="2.766539">
      <ele>87.6</ele>
      <time>2014-09-28T10:04:50Z</time>
    </trkpt>
    <trkpt lat="48.442953" lon="2.766346">
      <ele>87.1</ele>
      <time>2014-09-28T10:04:52Z</time>
    </trkpt>
    <trkpt lat="48.442996" lon="2.766198">
      <ele>86.6</ele>
      <time>2014-09-28T10:04:54Z</time>
    </trkpt>
    <trkpt lat="48.443039" lon="2.766036">
      <ele>86.1</ele>
      <time>2014-09-28T10:04:56Z</time>
    </trkpt>
    <trkpt lat="48.443066" lon="2.765904">
      <ele>85.6</ele>
      <time>2014-09-28T10:04:58Z</time>
    </trkpt>
    <trkpt lat="48.443121" lon="2.765759">
      <ele>85.0</ele>
      <time>2014-09-28T10:05:00Z</time>
    </trkpt>
    <trkpt lat="48.443188" lon="2.765594">
      <ele>84.3</ele>
      <time>2014-09-28T10:05:03Z</time>
    </trkpt>
    <trkpt lat="48.443209" lon="2.765257">
      <ele>82.9</ele>
      <time>2014-09-28T10:05:07Z</time>
    </trkpt>
    <trkpt lat="48.443222" lon="2.765108">
      <ele>82.2</ele>
      <time>2014-09-28T10:05:10Z</time>
    </trkpt>
    <trkpt lat="48.44311" lon="2.764973">
      <ele>82.3</ele>
      <time>2014-09-28T10:05:14Z</time>
    </trkpt>
    <trkpt lat="48.442989" lon="2.764924">
      <ele>82.8</ele>
      <time>2014-09-28T10:05:18Z</time>
    </trkpt>
    <trkpt lat="48.442866" lon="2.765043">
      <ele>84.4</ele>
      <time>2014-09-28T10:05:21Z</time>
    </trkpt>
    <trkpt lat="48.442757" lon="2.7651">
      <ele>85.2</ele>
      <time>2014-09-28T10:05:24Z</time>
    </trkpt>
    <trkpt lat="48.442651" lon="2.765183">
      <ele>85.9</ele>
      <time>2014-09-28T10:05:27Z</time>
    </trkpt>
    <trkpt lat="48.44257" lon="2.765257">
      <ele>86.3</ele>
      <time>2014-09-28T10:05:30Z</time>
    </trkpt>
    <trkpt lat="48.442475" lon="2.765336">
      <ele>86.8</ele>
      <time>2014-09-28T10:05:34Z</time>
    </trkpt>
    <trkpt lat="48.442394" lon="2.765428">
      <ele>87.4</ele>
      <time>2014-09-28T10:05:37Z</time>
    </trkpt>
    <trkpt lat="48.442302" lon="2.765479">
      <ele>88.1</ele>
      <time>2014-09-28T10:05:40Z</time>
    </trkpt>
    <trkpt lat="48.442216" lon="2.765536">
      <ele>88.7</ele>
      <time>2014-09-28T10:05:43Z</time>
    </trkpt>
    <trkpt lat="48.442091" lon="2.765594">
      <ele>89.7</ele>
      <time>2014-09-28T10:05:46Z</time>
    </trkpt>
    <trkpt lat="48.441986" lon="2.76567">
      <ele>90.5</ele>
      <time>2014-09-28T10:05:48Z</time>
    </trkpt>
    <trkpt lat="48.441874" lon="2.765749">
      <ele>91.4</ele>
      <time>2014-09-28T10:05:51Z</time>
    </trkpt>
    <trkpt lat="48.441785" lon="2.765782">
      <ele>92.1</ele>
      <time>2014-09-28T10:05:54Z</time>
    </trkpt>
    <trkpt lat="48.441699" lon="2.765865">
      <ele>92.7</ele>
      <time>2014-09-28T10:05:57Z</time>
    </trkpt>
    <trkpt lat="48.441599" lon="2.76587">
      <ele>92.9</ele>
      <time>2014-09-28T10:06:01Z</time>
    </trkpt>
    <trkpt lat="48.441455" lon="2.765917">
      <ele>92.8</ele>
      <time>2014-09-28T10:06:06Z</time>
    </trkpt>
    <trkpt lat="48.44124" lon="2.765978">
      <ele>92.7</ele>
      <time>2014-09-28T10:06:11Z</time>
    </trkpt>
    <trkpt lat="48.441148" lon="2.765964">
      <ele>92.7</ele>
      <time>2014-09-28T10:06:14Z</time>
    </trkpt>
    <trkpt lat="48.441031" lon="2.766026">
      <ele>92.5</ele>
      <time>2014-09-28T10:06:18Z</time>
    </trkpt>
    <trkpt lat="48.440917" lon="2.766098">
      <ele>92.4</ele>
      <time>2014-09-28T10:06:21Z</time>
    </trkpt>
    <trkpt lat="48.440775" lon="2.766155">
      <ele>92.1</ele>
      <time>2014-09-28T10:06:24Z</time>
    </trkpt>
    <trkpt lat="48.44067" lon="2.766213">
      <ele>91.8</ele>
      <time>2014-09-28T10:06:27Z</time>
    </trkpt>
    <trkpt lat="48.440514" lon="2.766264">
      <ele>91.4</ele>
      <time>2014-09-28T10:06:31Z</time>
    </trkpt>
    <trkpt lat="48.44039" lon="2.76629">
      <ele>91.2</ele>
      <time>2014-09-28T10:06:34Z</time>
    </trkpt>
    <trkpt lat="48.440288" lon="2.766309">
      <ele>91.0</ele>
      <time>2014-09-28T10:06:39Z</time>
    </trkpt>
    <trkpt lat="48.440178" lon="2.766192">
      <ele>90.8</ele>
      <time>2014-09-28T10:06:43Z</time>
    </trkpt>
    <trkpt lat="48.440106" lon="2.766041">
      <ele>90.5</ele>
      <time>2014-09-28T10:06:46Z</time>
    </trkpt>
    <trkpt lat="48.440051" lon="2.765922">
      <ele>90.3</ele>
      <time>2014-09-28T10:06:49Z</time>
    </trkpt>
    <trkpt lat="48.439982" lon="2.765716">
      <ele>89.7</ele>
      <time>2014-09-28T10:06:53Z</time>
    </trkpt>
    <trkpt lat="48.439946" lon="2.765536">
      <ele>89.2</ele>
      <time>2014-09-28T10:06:57Z</time>
    </trkpt>
    <trkpt lat="48.439963" lon="2.765394">
      <ele>88.6</ele>
      <time>2014-09-28T10:07:01Z</time>
    </trkpt>
    <trkpt lat="48.439959" lon="2.765242">
      <ele>88.2</ele>
      <time>2014-09-28T10:07:04Z</time>
    </trkpt>
    <trkpt lat="48.439972" lon="2.765094">
      <ele>87.6</ele>
      <time>2014-09-28T10:07:07Z</time>
    </trkpt>
    <trkpt lat="48.439822" lon="2.764707">
      <ele>87.8</ele>
      <time>2014-09-28T10:07:13Z</time>
    </trkpt>
    <trkpt lat="48.439815" lon="2.764566">
      <ele>87.5</ele>
      <time>2014-09-28T10:07:15Z</time>
    </trkpt>
    <trkpt lat="48.439801" lon="2.764325">
      <ele>87.1</ele>
      <time>2014-09-28T10:07:19Z</time>
    </trkpt>
    <trkpt lat="48.439813" lon="2.764146">
      <ele>86.5</ele>
      <time>2014-09-28T10:07:21Z</time>
    </trkpt>
    <trkpt lat="48.439835" lon="2.763949">
      <ele>85.6</ele>
      <time>2014-09-28T10:07:24Z</time>
    </trkpt>
    <trkpt lat="48.439875" lon="2.763762">
      <ele>84.5</ele>
      <time>2014-09-28T10:07:27Z</time>
    </trkpt>
    <trkpt lat="48.439795" lon="2.763667">
      <ele>84.8</ele>
      <time>2014-09-28T10:07:32Z</time>
    </trkpt>
    <trkpt lat="48.439696" lon="2.763613">
      <ele>85.3</ele>
      <time>2014-09-28T10:07:34Z</time>
    </trkpt>
    <trkpt lat="48.439595" lon="2.763561">
      <ele>85.9</ele>
      <time>2014-09-28T10:07:37Z</time>
    </trkpt>
    <trkpt lat="48.439498" lon="2.763538">
      <ele>86.5</ele>
      <time>2014-09-28T10:07:40Z</time>
    </trkpt>
    <trkpt lat="48.439403" lon="2.763512">
      <ele>87.1</ele>
      <time>2014-09-28T10:07:45Z</time>
    </trkpt>
    <trkpt lat="48.439296" lon="2.763543">
      <ele>88.0</ele>
      <time>2014-09-28T10:07:49Z</time>
    </trkpt>
    <trkpt lat="48.439195" lon="2.763564">
      <ele>88.9</ele>
      <time>2014-09-28T10:07:51Z</time>
    </trkpt>
    <trkpt lat="48.439062" lon="2.763572">
      <ele>89.3</ele>
      <time>2014-09-28T10:07:54Z</time>
    </trkpt>
    <trkpt lat="48.438915" lon="2.763585">
      <ele>89.6</ele>
      <time>2014-09-28T10:07:58Z</time>
    </trkpt>
    <trkpt lat="48.438823" lon="2.763584">
      <ele>89.7</ele>
      <time>2014-09-28T10:08:01Z</time>
    </trkpt>
    <trkpt lat="48.438729" lon="2.763551">
      <ele>89.7</ele>
      <time>2014-09-28T10:08:03Z</time>
    </trkpt>
    <trkpt lat="48.438637" lon="2.763524">
      <ele>89.7</ele>
      <time>2014-09-28T10:08:05Z</time>
    </trkpt>
    <trkpt lat="48.438495" lon="2.763453">
      <ele>89.5</ele>
      <time>2014-09-28T10:08:08Z</time>
    </trkpt>
    <trkpt lat="48.438249" lon="2.763368">
      <ele>89.4</ele>
      <time>2014-09-28T10:08:15Z</time>
    </trkpt>
    <trkpt lat="48.438087" lon="2.763299">
      <ele>89.5</ele>
      <time>2014-09-28T10:08:19Z</time>
    </trkpt>
    <trkpt lat="48.437955" lon="2.763274">
      <ele>89.8</ele>
      <time>2014-09-28T10:08:22Z</time>
    </trkpt>
    <trkpt lat="48.437834" lon="2.763234">
      <ele>90.0</ele>
      <time>2014-09-28T10:08:27Z</time>
    </trkpt>
    <trkpt lat="48.437719" lon="2.763188">
      <ele>90.2</ele>
      <time>2014-09-28T10:08:30Z</time>
    </trkpt>
    <trkpt lat="48.437625" lon="2.763135">
      <ele>90.4</ele>
      <time>2014-09-28T10:08:33Z</time>
    </trkpt>
    <trkpt lat="48.437547" lon="2.763047">
      <ele>90.5</ele>
      <time>2014-09-28T10:08:37Z</time>
    </trkpt>
    <trkpt lat="48.43746" lon="2.762946">
      <ele>90.6</ele>
      <time>2014-09-28T10:08:45Z</time>
    </trkpt>
    <trkpt lat="48.437358" lon="2.762822">
      <ele>90.5</ele>
      <time>2014-09-28T10:08:48Z</time>
    </trkpt>
    <trkpt lat="48.437268" lon="2.762738">
      <ele>90.4</ele>
      <time>2014-09-28T10:08:52Z</time>
    </trkpt>
    <trkpt lat="48.437085" lon="2.762659">
      <ele>90.4</ele>
      <time>2014-09-28T10:08:56Z</time>
    </trkpt>
    <trkpt lat="48.436998" lon="2.762611">
      <ele>90.3</ele>
      <time>2014-09-28T10:08:58Z</time>
    </trkpt>
    <trkpt lat="48.436876" lon="2.762595">
      <ele>90.3</ele>
      <time>2014-09-28T10:09:02Z</time>
    </trkpt>
    <trkpt lat="48.436755" lon="2.762589">
      <ele>90.3</ele>
      <time>2014-09-28T10:09:06Z</time>
    </trkpt>
    <trkpt lat="48.436646" lon="2.762568">
      <ele>90.1</ele>
      <time>2014-09-28T10:09:08Z</time>
    </trkpt>
    <trkpt lat="48.436517" lon="2.762563">
      <ele>89.5</ele>
      <time>2014-09-28T10:09:12Z</time>
    </trkpt>
    <trkpt lat="48.436286" lon="2.762552">
      <ele>88.4</ele>
      <time>2014-09-28T10:09:18Z</time>
    </trkpt>
    <trkpt lat="48.436181" lon="2.76255">
      <ele>87.8</ele>
      <time>2014-09-28T10:09:21Z</time>
    </trkpt>
    <trkpt lat="48.436074" lon="2.762546">
      <ele>87.3</ele>
      <time>2014-09-28T10:09:24Z</time>
    </trkpt>
    <trkpt lat="48.435915" lon="2.76254">
      <ele>86.5</ele>
      <time>2014-09-28T10:09:27Z</time>
    </trkpt>
    <trkpt lat="48.435756" lon="2.762605">
      <ele>86.4</ele>
      <time>2014-09-28T10:09:30Z</time>
    </trkpt>
    <trkpt lat="48.435632" lon="2.762603">
      <ele>86.3</ele>
      <time>2014-09-28T10:09:33Z</time>
    </trkpt>
    <trkpt lat="48.435508" lon="2.762617">
      <ele>86.4</ele>
      <time>2014-09-28T10:09:36Z</time>
    </trkpt>
    <trkpt lat="48.435405" lon="2.762617">
      <ele>86.3</ele>
      <time>2014-09-28T10:09:38Z</time>
    </trkpt>
    <trkpt lat="48.435294" lon="2.762634">
      <ele>86.4</ele>
      <time>2014-09-28T10:09:41Z</time>
    </trkpt>
    <trkpt lat="48.435184" lon="2.762656">
      <ele>86.4</ele>
      <time>2014-09-28T10:09:44Z</time>
    </trkpt>
    <trkpt lat="48.43504" lon="2.762703">
      <ele>86.5</ele>
      <time>2014-09-28T10:09:48Z</time>
    </trkpt>
    <trkpt lat="48.434937" lon="2.762706">
      <ele>86.4</ele>
      <time>2014-09-28T10:09:51Z</time>
    </trkpt>
    <trkpt lat="48.434839" lon="2.762686">
      <ele>86.3</ele>
      <time>2014-09-28T10:09:54Z</time>
    </trkpt>
    <trkpt lat="48.434721" lon="2.762647">
      <ele>86.1</ele>
      <time>2014-09-28T10:09:57Z</time>
    </trkpt>
    <trkpt lat="48.434601" lon="2.762611">
      <ele>85.9</ele>
      <time>2014-09-28T10:10:00Z</time>
    </trkpt>
    <trkpt lat="48.434492" lon="2.762563">
      <ele>85.6</ele>
      <time>2014-09-28T10:10:03Z</time>
    </trkpt>
    <trkpt lat="48.434369" lon="2.762522">
      <ele>85.3</ele>
      <time>2014-09-28T10:10:06Z</time>
    </trkpt>
    <trkpt lat="48.43428" lon="2.762503">
      <ele>85.1</ele>
      <time>2014-09-28T10:10:08Z</time>
    </trkpt>
    <trkpt lat="48.434159" lon="2.76247">
      <ele>84.9</ele>
      <time>2014-09-28T10:10:11Z</time>
    </trkpt>
    <trkpt lat="48.434038" lon="2.762456">
      <ele>85.0</ele>
      <time>2014-09-28T10:10:14Z</time>
    </trkpt>
    <trkpt lat="48.433975" lon="2.762175">
      <ele>84.1</ele>
      <time>2014-09-28T10:10:48Z</time>
    </trkpt>
    <trkpt lat="48.433977" lon="2.762003">
      <ele>83.4</ele>
      <time>2014-09-28T10:10:53Z</time>
    </trkpt>
    <trkpt lat="48.433912" lon="2.761781">
      <ele>82.7</ele>
      <time>2014-09-28T10:10:59Z</time>
    </trkpt>
    <trkpt lat="48.433834" lon="2.76169">
      <ele>82.5</ele>
      <time>2014-09-28T10:11:02Z</time>
    </trkpt>
    <trkpt lat="48.433741" lon="2.761568">
      <ele>82.4</ele>
      <time>2014-09-28T10:11:07Z</time>
    </trkpt>
    <trkpt lat="48.433651" lon="2.761534">
      <ele>82.5</ele>
      <time>2014-09-28T10:11:13Z</time>
    </trkpt>
    <trkpt lat="48.433642" lon="2.761389">
      <ele>82.3</ele>
      <time>2014-09-28T10:11:40Z</time>
    </trkpt>
    <trkpt lat="48.43365" lon="2.761098">
      <ele>81.9</ele>
      <time>2014-09-28T10:11:46Z</time>
    </trkpt>
    <trkpt lat="48.43366" lon="2.760903">
      <ele>81.7</ele>
      <time>2014-09-28T10:11:49Z</time>
    </trkpt>
    <trkpt lat="48.433692" lon="2.760697">
      <ele>80.9</ele>
      <time>2014-09-28T10:11:52Z</time>
    </trkpt>
    <trkpt lat="48.433719" lon="2.76048">
      <ele>79.8</ele>
      <time>2014-09-28T10:11:55Z</time>
    </trkpt>
    <trkpt lat="48.433741" lon="2.760346">
      <ele>79.2</ele>
      <time>2014-09-28T10:11:57Z</time>
    </trkpt>
    <trkpt lat="48.433688" lon="2.76019">
      <ele>78.5</ele>
      <time>2014-09-28T10:12:00Z</time>
    </trkpt>
    <trkpt lat="48.433586" lon="2.760106">
      <ele>78.2</ele>
      <time>2014-09-28T10:12:03Z</time>
    </trkpt>
    <trkpt lat="48.433483" lon="2.76005">
      <ele>78.1</ele>
      <time>2014-09-28T10:12:06Z</time>
    </trkpt>
    <trkpt lat="48.433376" lon="2.759999">
      <ele>77.9</ele>
      <time>2014-09-28T10:12:09Z</time>
    </trkpt>
    <trkpt lat="48.433283" lon="2.759978">
      <ele>78.0</ele>
      <time>2014-09-28T10:12:12Z</time>
    </trkpt>
    <trkpt lat="48.433182" lon="2.759938">
      <ele>78.2</ele>
      <time>2014-09-28T10:12:15Z</time>
    </trkpt>
    <trkpt lat="48.43308" lon="2.759891">
      <ele>78.3</ele>
      <time>2014-09-28T10:12:18Z</time>
    </trkpt>
    <trkpt lat="48.432972" lon="2.759855">
      <ele>78.4</ele>
      <time>2014-09-28T10:12:21Z</time>
    </trkpt>
    <trkpt lat="48.432861" lon="2.75981">
      <ele>78.6</ele>
      <time>2014-09-28T10:12:24Z</time>
    </trkpt>
    <trkpt lat="48.432746" lon="2.75977">
      <ele>78.8</ele>
      <time>2014-09-28T10:12:27Z</time>
    </trkpt>
    <trkpt lat="48.432638" lon="2.75972">
      <ele>78.9</ele>
      <time>2014-09-28T10:12:30Z</time>
    </trkpt>
    <trkpt lat="48.432528" lon="2.759668">
      <ele>79.1</ele>
      <time>2014-09-28T10:12:33Z</time>
    </trkpt>
    <trkpt lat="48.432429" lon="2.759638">
      <ele>79.2</ele>
      <time>2014-09-28T10:12:36Z</time>
    </trkpt>
    <trkpt lat="48.432338" lon="2.759598">
      <ele>79.1</ele>
      <time>2014-09-28T10:12:39Z</time>
    </trkpt>
    <trkpt lat="48.432236" lon="2.759547">
      <ele>79.1</ele>
      <time>2014-09-28T10:12:42Z</time>
    </trkpt>
    <trkpt lat="48.43201" lon="2.759442">
      <ele>78.9</ele>
      <time>2014-09-28T10:12:48Z</time>
    </trkpt>
    <trkpt lat="48.431919" lon="2.759386">
      <ele>78.7</ele>
      <time>2014-09-28T10:12:51Z</time>
    </trkpt>
    <trkpt lat="48.431828" lon="2.759376">
      <ele>78.7</ele>
      <time>2014-09-28T10:12:55Z</time>
    </trkpt>
    <trkpt lat="48.431724" lon="2.759339">
      <ele>78.6</ele>
      <time>2014-09-28T10:13:40Z</time>
    </trkpt>
    <trkpt lat="48.431689" lon="2.759207">
      <ele>78.1</ele>
      <time>2014-09-28T10:13:44Z</time>
    </trkpt>
    <trkpt lat="48.431715" lon="2.758884">
      <ele>77.3</ele>
      <time>2014-09-28T10:13:50Z</time>
    </trkpt>
    <trkpt lat="48.431742" lon="2.758706">
      <ele>76.8</ele>
      <time>2014-09-28T10:13:53Z</time>
    </trkpt>
    <trkpt lat="48.43172" lon="2.758555">
      <ele>76.5</ele>
      <time>2014-09-28T10:13:56Z</time>
    </trkpt>
    <trkpt lat="48.431632" lon="2.758463">
      <ele>76.4</ele>
      <time>2014-09-28T10:13:59Z</time>
    </trkpt>
    <trkpt lat="48.431531" lon="2.758388">
      <ele>76.3</ele>
      <time>2014-09-28T10:14:02Z</time>
    </trkpt>
    <trkpt lat="48.431433" lon="2.758319">
      <ele>76.2</ele>
      <time>2014-09-28T10:14:05Z</time>
    </trkpt>
    <trkpt lat="48.431331" lon="2.758242">
      <ele>76.0</ele>
      <time>2014-09-28T10:14:08Z</time>
    </trkpt>
    <trkpt lat="48.431243" lon="2.758213">
      <ele>76.0</ele>
      <time>2014-09-28T10:14:11Z</time>
    </trkpt>
    <trkpt lat="48.431144" lon="2.758163">
      <ele>75.9</ele>
      <time>2014-09-28T10:14:14Z</time>
    </trkpt>
    <trkpt lat="48.431036" lon="2.758129">
      <ele>76.0</ele>
      <time>2014-09-28T10:14:17Z</time>
    </trkpt>
    <trkpt lat="48.430908" lon="2.758078">
      <ele>76.0</ele>
      <time>2014-09-28T10:14:20Z</time>
    </trkpt>
    <trkpt lat="48.430783" lon="2.758049">
      <ele>75.8</ele>
      <time>2014-09-28T10:14:23Z</time>
    </trkpt>
    <trkpt lat="48.430692" lon="2.75803">
      <ele>75.4</ele>
      <time>2014-09-28T10:14:25Z</time>
    </trkpt>
    <trkpt lat="48.430569" lon="2.757989">
      <ele>74.8</ele>
      <time>2014-09-28T10:14:28Z</time>
    </trkpt>
    <trkpt lat="48.430446" lon="2.757927">
      <ele>74.1</ele>
      <time>2014-09-28T10:14:31Z</time>
    </trkpt>
    <trkpt lat="48.430351" lon="2.757895">
      <ele>73.7</ele>
      <time>2014-09-28T10:14:33Z</time>
    </trkpt>
    <trkpt lat="48.43026" lon="2.7578">
      <ele>73.0</ele>
      <time>2014-09-28T10:14:36Z</time>
    </trkpt>
    <trkpt lat="48.430251" lon="2.757598">
      <ele>72.3</ele>
      <time>2014-09-28T10:14:39Z</time>
    </trkpt>
    <trkpt lat="48.430254" lon="2.757425">
      <ele>71.7</ele>
      <time>2014-09-28T10:14:41Z</time>
    </trkpt>
    <trkpt lat="48.430285" lon="2.757264">
      <ele>71.3</ele>
      <time>2014-09-28T10:14:43Z</time>
    </trkpt>
    <trkpt lat="48.430289" lon="2.757089">
      <ele>70.7</ele>
      <time>2014-09-28T10:14:45Z</time>
    </trkpt>
    <trkpt lat="48.430309" lon="2.756776">
      <ele>69.7</ele>
      <time>2014-09-28T10:14:49Z</time>
    </trkpt>
    <trkpt lat="48.430306" lon="2.756622">
      <ele>69.1</ele>
      <time>2014-09-28T10:14:51Z</time>
    </trkpt>
    <trkpt lat="48.430321" lon="2.756469">
      <ele>68.3</ele>
      <time>2014-09-28T10:14:53Z</time>
    </trkpt>
    <trkpt lat="48.430323" lon="2.756324">
      <ele>67.4</ele>
      <time>2014-09-28T10:14:55Z</time>
    </trkpt>
    <trkpt lat="48.43035" lon="2.756135">
      <ele>66.3</ele>
      <time>2014-09-28T10:14:58Z</time>
    </trkpt>
    <trkpt lat="48.430375" lon="2.755943">
      <ele>65.2</ele>
      <time>2014-09-28T10:15:01Z</time>
    </trkpt>
    <trkpt lat="48.430395" lon="2.755807">
      <ele>64.4</ele>
      <time>2014-09-28T10:15:03Z</time>
    </trkpt>
    <trkpt lat="48.430427" lon="2.755631">
      <ele>63.4</ele>
      <time>2014-09-28T10:15:06Z</time>
    </trkpt>
    <trkpt lat="48.430462" lon="2.755488">
      <ele>62.6</ele>
      <time>2014-09-28T10:15:12Z</time>
    </trkpt>
    <trkpt lat="48.430346" lon="2.755433">
      <ele>62.4</ele>
      <time>2014-09-28T10:15:15Z</time>
    </trkpt>
    <trkpt lat="48.430258" lon="2.755391">
      <ele>62.2</ele>
      <time>2014-09-28T10:15:17Z</time>
    </trkpt>
    <trkpt lat="48.430169" lon="2.755351">
      <ele>62.0</ele>
      <time>2014-09-28T10:15:19Z</time>
    </trkpt>
    <trkpt lat="48.430034" lon="2.755319">
      <ele>61.9</ele>
      <time>2014-09-28T10:15:22Z</time>
    </trkpt>
    <trkpt lat="48.429943" lon="2.755305">
      <ele>61.9</ele>
      <time>2014-09-28T10:15:24Z</time>
    </trkpt>
    <trkpt lat="48.429817" lon="2.755322">
      <ele>62.1</ele>
      <time>2014-09-28T10:15:27Z</time>
    </trkpt>
    <trkpt lat="48.429661" lon="2.75531">
      <ele>62.2</ele>
      <time>2014-09-28T10:15:30Z</time>
    </trkpt>
    <trkpt lat="48.429555" lon="2.755298">
      <ele>62.3</ele>
      <time>2014-09-28T10:15:32Z</time>
    </trkpt>
    <trkpt lat="48.429473" lon="2.755242">
      <ele>62.2</ele>
      <time>2014-09-28T10:15:34Z</time>
    </trkpt>
    <trkpt lat="48.429453" lon="2.755066">
      <ele>61.6</ele>
      <time>2014-09-28T10:15:37Z</time>
    </trkpt>
    <trkpt lat="48.429457" lon="2.754915">
      <ele>61.1</ele>
      <time>2014-09-28T10:15:39Z</time>
    </trkpt>
    <trkpt lat="48.42948" lon="2.754749">
      <ele>60.5</ele>
      <time>2014-09-28T10:15:41Z</time>
    </trkpt>
    <trkpt lat="48.429487" lon="2.754572">
      <ele>60.0</ele>
      <time>2014-09-28T10:15:43Z</time>
    </trkpt>
    <trkpt lat="48.429496" lon="2.754397">
      <ele>59.5</ele>
      <time>2014-09-28T10:15:45Z</time>
    </trkpt>
    <trkpt lat="48.429505" lon="2.754226">
      <ele>59.0</ele>
      <time>2014-09-28T10:15:47Z</time>
    </trkpt>
    <trkpt lat="48.429527" lon="2.753879">
      <ele>57.6</ele>
      <time>2014-09-28T10:15:51Z</time>
    </trkpt>
    <trkpt lat="48.42952" lon="2.753717">
      <ele>57.0</ele>
      <time>2014-09-28T10:15:53Z</time>
    </trkpt>
    <trkpt lat="48.429541" lon="2.75353">
      <ele>56.3</ele>
      <time>2014-09-28T10:15:55Z</time>
    </trkpt>
    <trkpt lat="48.429553" lon="2.753338">
      <ele>55.6</ele>
      <time>2014-09-28T10:15:57Z</time>
    </trkpt>
    <trkpt lat="48.429551" lon="2.75315">
      <ele>55.1</ele>
      <time>2014-09-28T10:16:00Z</time>
    </trkpt>
    <trkpt lat="48.429546" lon="2.753009">
      <ele>54.7</ele>
      <time>2014-09-28T10:16:03Z</time>
    </trkpt>
    <trkpt lat="48.429596" lon="2.753136">
      <ele>55.0</ele>
      <time>2014-09-28T10:16:52Z</time>
    </trkpt>
    <trkpt lat="48.429819" lon="2.753273">
      <ele>55.1</ele>
      <time>2014-09-28T10:16:59Z</time>
    </trkpt>
    <trkpt lat="48.429925" lon="2.753307">
      <ele>55.1</ele>
      <time>2014-09-28T10:17:02Z</time>
    </trkpt>
    <trkpt lat="48.430015" lon="2.753339">
      <ele>55.0</ele>
      <time>2014-09-28T10:17:04Z</time>
    </trkpt>
    <trkpt lat="48.430135" lon="2.753374">
      <ele>54.9</ele>
      <time>2014-09-28T10:17:07Z</time>
    </trkpt>
    <trkpt lat="48.430223" lon="2.753432">
      <ele>55.0</ele>
      <time>2014-09-28T10:17:09Z</time>
    </trkpt>
    <trkpt lat="48.430323" lon="2.753453">
      <ele>54.9</ele>
      <time>2014-09-28T10:17:12Z</time>
    </trkpt>
    <trkpt lat="48.430417" lon="2.753426">
      <ele>54.7</ele>
      <time>2014-09-28T10:17:15Z</time>
    </trkpt>
    <trkpt lat="48.430471" lon="2.753294">
      <ele>54.4</ele>
      <time>2014-09-28T10:17:19Z</time>
    </trkpt>
    <trkpt lat="48.43051" lon="2.753163">
      <ele>54.1</ele>
      <time>2014-09-28T10:17:25Z</time>
    </trkpt>
    <trkpt lat="48.43043" lon="2.753064">
      <ele>54.0</ele>
      <time>2014-09-28T10:17:51Z</time>
    </trkpt>
    <trkpt lat="48.430341" lon="2.753025">
      <ele>54.1</ele>
      <time>2014-09-28T10:17:54Z</time>
    </trkpt>
    <trkpt lat="48.430347" lon="2.753006">
      <ele>54.0</ele>
      <time>2014-09-28T10:18:10Z</time>
    </trkpt>
    <trkpt lat="48.430456" lon="2.753036">
      <ele>53.9</ele>
      <time>2014-09-28T10:18:14Z</time>
    </trkpt>
    <trkpt lat="48.430459" lon="2.753173">
      <ele>54.2</ele>
      <time>2014-09-28T10:18:20Z</time>
    </trkpt>
    <trkpt lat="48.430368" lon="2.75314">
      <ele>54.2</ele>
      <time>2014-09-28T10:18:27Z</time>
    </trkpt>
    <trkpt lat="48.430252" lon="2.753105">
      <ele>54.3</ele>
      <time>2014-09-28T10:18:30Z</time>
    </trkpt>
    <trkpt lat="48.430156" lon="2.753044">
      <ele>54.4</ele>
      <time>2014-09-28T10:18:34Z</time>
    </trkpt>
    <trkpt lat="48.430078" lon="2.75297">
      <ele>54.4</ele>
      <time>2014-09-28T10:18:38Z</time>
    </trkpt>
    <trkpt lat="48.430133" lon="2.752851">
      <ele>54.2</ele>
      <time>2014-09-28T10:18:42Z</time>
    </trkpt>
    <trkpt lat="48.43009" lon="2.752697">
      <ele>54.0</ele>
      <time>2014-09-28T10:18:50Z</time>
    </trkpt>
    <trkpt lat="48.430006" lon="2.752626">
      <ele>54.1</ele>
      <time>2014-09-28T10:18:53Z</time>
    </trkpt>
    <trkpt lat="48.429916" lon="2.752581">
      <ele>54.0</ele>
      <time>2014-09-28T10:18:56Z</time>
    </trkpt>
    <trkpt lat="48.429729" lon="2.752483">
      <ele>53.7</ele>
      <time>2014-09-28T10:19:02Z</time>
    </trkpt>
    <trkpt lat="48.429645" lon="2.752404">
      <ele>53.5</ele>
      <time>2014-09-28T10:19:06Z</time>
    </trkpt>
    <trkpt lat="48.429632" lon="2.75227">
      <ele>53.4</ele>
      <time>2014-09-28T10:19:09Z</time>
    </trkpt>
    <trkpt lat="48.429639" lon="2.752094">
      <ele>53.2</ele>
      <time>2014-09-28T10:19:12Z</time>
    </trkpt>
    <trkpt lat="48.429648" lon="2.751916">
      <ele>53.1</ele>
      <time>2014-09-28T10:19:15Z</time>
    </trkpt>
    <trkpt lat="48.42965" lon="2.751738">
      <ele>52.9</ele>
      <time>2014-09-28T10:19:18Z</time>
    </trkpt>
    <trkpt lat="48.429654" lon="2.751576">
      <ele>52.8</ele>
      <time>2014-09-28T10:19:21Z</time>
    </trkpt>
    <trkpt lat="48.429679" lon="2.751415">
      <ele>52.8</ele>
      <time>2014-09-28T10:19:25Z</time>
    </trkpt>
    <trkpt lat="48.429663" lon="2.751273">
      <ele>52.8</ele>
      <time>2014-09-28T10:19:43Z</time>
    </trkpt>
    <trkpt lat="48.429652" lon="2.751094">
      <ele>52.8</ele>
      <time>2014-09-28T10:19:46Z</time>
    </trkpt>
    <trkpt lat="48.429663" lon="2.750955">
      <ele>52.8</ele>
      <time>2014-09-28T10:19:48Z</time>
    </trkpt>
    <trkpt lat="48.42967" lon="2.750813">
      <ele>52.8</ele>
      <time>2014-09-28T10:19:50Z</time>
    </trkpt>
    <trkpt lat="48.429687" lon="2.750652">
      <ele>52.8</ele>
      <time>2014-09-28T10:19:52Z</time>
    </trkpt>
    <trkpt lat="48.429693" lon="2.750464">
      <ele>52.7</ele>
      <time>2014-09-28T10:19:54Z</time>
    </trkpt>
    <trkpt lat="48.429701" lon="2.750283">
      <ele>52.7</ele>
      <time>2014-09-28T10:19:56Z</time>
    </trkpt>
    <trkpt lat="48.429717" lon="2.750119">
      <ele>52.7</ele>
      <time>2014-09-28T10:19:58Z</time>
    </trkpt>
    <trkpt lat="48.429746" lon="2.749632">
      <ele>51.2</ele>
      <time>2014-09-28T10:20:04Z</time>
    </trkpt>
    <trkpt lat="48.429726" lon="2.749495">
      <ele>50.6</ele>
      <time>2014-09-28T10:20:05Z</time>
    </trkpt>
    <trkpt lat="48.429728" lon="2.749329">
      <ele>50.0</ele>
      <time>2014-09-28T10:20:07Z</time>
    </trkpt>
    <trkpt lat="48.42976" lon="2.749116">
      <ele>49.1</ele>
      <time>2014-09-28T10:20:09Z</time>
    </trkpt>
    <trkpt lat="48.42978" lon="2.74889">
      <ele>48.4</ele>
      <time>2014-09-28T10:20:11Z</time>
    </trkpt>
    <trkpt lat="48.42976" lon="2.748675">
      <ele>47.9</ele>
      <time>2014-09-28T10:20:13Z</time>
    </trkpt>
    <trkpt lat="48.429796" lon="2.748465">
      <ele>47.1</ele>
      <time>2014-09-28T10:20:15Z</time>
    </trkpt>
    <trkpt lat="48.429777" lon="2.748264">
      <ele>46.9</ele>
      <time>2014-09-28T10:20:17Z</time>
    </trkpt>
    <trkpt lat="48.429804" lon="2.7481">
      <ele>47.0</ele>
      <time>2014-09-28T10:20:19Z</time>
    </trkpt>
    <trkpt lat="48.429817" lon="2.747903">
      <ele>47.2</ele>
      <time>2014-09-28T10:20:21Z</time>
    </trkpt>
    <trkpt lat="48.429827" lon="2.74775">
      <ele>47.4</ele>
      <time>2014-09-28T10:20:23Z</time>
    </trkpt>
    <trkpt lat="48.429837" lon="2.747589">
      <ele>47.7</ele>
      <time>2014-09-28T10:20:25Z</time>
    </trkpt>
    <trkpt lat="48.429857" lon="2.747446">
      <ele>47.8</ele>
      <time>2014-09-28T10:20:27Z</time>
    </trkpt>
    <trkpt lat="48.429869" lon="2.747308">
      <ele>47.6</ele>
      <time>2014-09-28T10:20:29Z</time>
    </trkpt>
    <trkpt lat="48.429879" lon="2.747116">
      <ele>47.5</ele>
      <time>2014-09-28T10:20:32Z</time>
    </trkpt>
    <trkpt lat="48.429896" lon="2.746953">
      <ele>47.3</ele>
      <time>2014-09-28T10:20:35Z</time>
    </trkpt>
    <trkpt lat="48.429937" lon="2.746774">
      <ele>47.1</ele>
      <time>2014-09-28T10:20:40Z</time>
    </trkpt>
    <trkpt lat="48.429836" lon="2.746723">
      <ele>47.1</ele>
      <time>2014-09-28T10:20:44Z</time>
    </trkpt>
    <trkpt lat="48.429754" lon="2.746656">
      <ele>47.0</ele>
      <time>2014-09-28T10:20:47Z</time>
    </trkpt>
    <trkpt lat="48.429737" lon="2.7465">
      <ele>46.5</ele>
      <time>2014-09-28T10:20:52Z</time>
    </trkpt>
    <trkpt lat="48.42972" lon="2.746328">
      <ele>46.1</ele>
      <time>2014-09-28T10:20:56Z</time>
    </trkpt>
    <trkpt lat="48.429701" lon="2.746104">
      <ele>45.5</ele>
      <time>2014-09-28T10:21:00Z</time>
    </trkpt>
    <trkpt lat="48.429673" lon="2.745767">
      <ele>44.6</ele>
      <time>2014-09-28T10:21:06Z</time>
    </trkpt>
    <trkpt lat="48.42966" lon="2.745597">
      <ele>44.3</ele>
      <time>2014-09-28T10:21:09Z</time>
    </trkpt>
    <trkpt lat="48.429649" lon="2.74542">
      <ele>43.9</ele>
      <time>2014-09-28T10:21:12Z</time>
    </trkpt>
    <trkpt lat="48.429635" lon="2.745241">
      <ele>43.5</ele>
      <time>2014-09-28T10:21:15Z</time>
    </trkpt>
    <trkpt lat="48.429623" lon="2.745056">
      <ele>43.1</ele>
      <time>2014-09-28T10:21:18Z</time>
    </trkpt>
    <trkpt lat="48.429614" lon="2.744862">
      <ele>44.1</ele>
      <time>2014-09-28T10:21:21Z</time>
    </trkpt>
    <trkpt lat="48.429609" lon="2.744671">
      <ele>45.6</ele>
      <time>2014-09-28T10:21:24Z</time>
    </trkpt>
    <trkpt lat="48.429598" lon="2.744485">
      <ele>47.0</ele>
      <time>2014-09-28T10:21:27Z</time>
    </trkpt>
    <trkpt lat="48.429622" lon="2.744335">
      <ele>48.3</ele>
      <time>2014-09-28T10:21:31Z</time>
    </trkpt>
    <trkpt lat="48.429701" lon="2.744262">
      <ele>49.1</ele>
      <time>2014-09-28T10:21:35Z</time>
    </trkpt>
    <trkpt lat="48.429746" lon="2.744141">
      <ele>50.2</ele>
      <time>2014-09-28T10:22:29Z</time>
    </trkpt>
    <trkpt lat="48.42995" lon="2.744169">
      <ele>50.8</ele>
      <time>2014-09-28T10:22:59Z</time>
    </trkpt>
    <trkpt lat="48.430073" lon="2.744227">
      <ele>50.3</ele>
      <time>2014-09-28T10:23:04Z</time>
    </trkpt>
    <trkpt lat="48.43019" lon="2.744233">
      <ele>50.2</ele>
      <time>2014-09-28T10:23:07Z</time>
    </trkpt>
    <trkpt lat="48.430341" lon="2.744233">
      <ele>50.0</ele>
      <time>2014-09-28T10:23:09Z</time>
    </trkpt>
    <trkpt lat="48.430449" lon="2.744231">
      <ele>49.9</ele>
      <time>2014-09-28T10:23:11Z</time>
    </trkpt>
    <trkpt lat="48.430575" lon="2.744214">
      <ele>49.9</ele>
      <time>2014-09-28T10:23:13Z</time>
    </trkpt>
    <trkpt lat="48.430724" lon="2.744213">
      <ele>49.7</ele>
      <time>2014-09-28T10:23:15Z</time>
    </trkpt>
    <trkpt lat="48.430852" lon="2.744202">
      <ele>49.6</ele>
      <time>2014-09-28T10:23:17Z</time>
    </trkpt>
    <trkpt lat="48.430978" lon="2.744206">
      <ele>49.2</ele>
      <time>2014-09-28T10:23:19Z</time>
    </trkpt>
    <trkpt lat="48.431132" lon="2.744243">
      <ele>48.3</ele>
      <time>2014-09-28T10:23:22Z</time>
    </trkpt>
    <trkpt lat="48.431259" lon="2.74424">
      <ele>47.9</ele>
      <time>2014-09-28T10:23:24Z</time>
    </trkpt>
    <trkpt lat="48.431349" lon="2.744222">
      <ele>47.8</ele>
      <time>2014-09-28T10:23:26Z</time>
    </trkpt>
    <trkpt lat="48.431492" lon="2.744226">
      <ele>47.2</ele>
      <time>2014-09-28T10:23:29Z</time>
    </trkpt>
    <trkpt lat="48.431717" lon="2.744224">
      <ele>46.8</ele>
      <time>2014-09-28T10:23:33Z</time>
    </trkpt>
    <trkpt lat="48.431833" lon="2.744224">
      <ele>47.1</ele>
      <time>2014-09-28T10:23:35Z</time>
    </trkpt>
    <trkpt lat="48.431968" lon="2.744209">
      <ele>47.5</ele>
      <time>2014-09-28T10:23:38Z</time>
    </trkpt>
    <trkpt lat="48.432066" lon="2.744204">
      <ele>47.8</ele>
      <time>2014-09-28T10:23:40Z</time>
    </trkpt>
    <trkpt lat="48.432194" lon="2.744211">
      <ele>48.1</ele>
      <time>2014-09-28T10:23:43Z</time>
    </trkpt>
    <trkpt lat="48.432318" lon="2.744189">
      <ele>48.5</ele>
      <time>2014-09-28T10:23:46Z</time>
    </trkpt>
    <trkpt lat="48.43241" lon="2.744157">
      <ele>48.9</ele>
      <time>2014-09-28T10:23:48Z</time>
    </trkpt>
    <trkpt lat="48.432551" lon="2.744174">
      <ele>48.9</ele>
      <time>2014-09-28T10:23:50Z</time>
    </trkpt>
    <trkpt lat="48.432719" lon="2.744176">
      <ele>48.7</ele>
      <time>2014-09-28T10:23:53Z</time>
    </trkpt>
    <trkpt lat="48.432828" lon="2.744169">
      <ele>48.6</ele>
      <time>2014-09-28T10:23:55Z</time>
    </trkpt>
    <trkpt lat="48.432928" lon="2.744163">
      <ele>48.5</ele>
      <time>2014-09-28T10:23:57Z</time>
    </trkpt>
    <trkpt lat="48.433046" lon="2.744173">
      <ele>48.3</ele>
      <time>2014-09-28T10:23:59Z</time>
    </trkpt>
    <trkpt lat="48.433142" lon="2.744178">
      <ele>48.1</ele>
      <time>2014-09-28T10:24:01Z</time>
    </trkpt>
    <trkpt lat="48.433242" lon="2.744184">
      <ele>48.0</ele>
      <time>2014-09-28T10:24:03Z</time>
    </trkpt>
    <trkpt lat="48.433341" lon="2.744194">
      <ele>47.8</ele>
      <time>2014-09-28T10:24:05Z</time>
    </trkpt>
    <trkpt lat="48.433458" lon="2.744162">
      <ele>48.4</ele>
      <time>2014-09-28T10:24:08Z</time>
    </trkpt>
    <trkpt lat="48.433575" lon="2.744143">
      <ele>49.0</ele>
      <time>2014-09-28T10:24:11Z</time>
    </trkpt>
    <trkpt lat="48.433667" lon="2.744175">
      <ele>48.7</ele>
      <time>2014-09-28T10:24:13Z</time>
    </trkpt>
    <trkpt lat="48.433755" lon="2.744198">
      <ele>48.8</ele>
      <time>2014-09-28T10:24:15Z</time>
    </trkpt>
    <trkpt lat="48.433862" lon="2.744223">
      <ele>48.9</ele>
      <time>2014-09-28T10:24:17Z</time>
    </trkpt>
    <trkpt lat="48.433955" lon="2.744218">
      <ele>49.2</ele>
      <time>2014-09-28T10:24:19Z</time>
    </trkpt>
    <trkpt lat="48.434145" lon="2.744232">
      <ele>49.6</ele>
      <time>2014-09-28T10:24:22Z</time>
    </trkpt>
    <trkpt lat="48.434249" lon="2.74425">
      <ele>50.1</ele>
      <time>2014-09-28T10:24:25Z</time>
    </trkpt>
    <trkpt lat="48.434389" lon="2.74426">
      <ele>50.8</ele>
      <time>2014-09-28T10:24:28Z</time>
    </trkpt>
    <trkpt lat="48.434485" lon="2.744267">
      <ele>51.2</ele>
      <time>2014-09-28T10:24:30Z</time>
    </trkpt>
    <trkpt lat="48.434744" lon="2.74428">
      <ele>52.5</ele>
      <time>2014-09-28T10:24:36Z</time>
    </trkpt>
    <trkpt lat="48.434838" lon="2.744292">
      <ele>52.9</ele>
      <time>2014-09-28T10:24:38Z</time>
    </trkpt>
    <trkpt lat="48.43493" lon="2.744303">
      <ele>53.3</ele>
      <time>2014-09-28T10:24:40Z</time>
    </trkpt>
    <trkpt lat="48.435076" lon="2.74432">
      <ele>54.1</ele>
      <time>2014-09-28T10:24:44Z</time>
    </trkpt>
    <trkpt lat="48.435215" lon="2.744382">
      <ele>54.4</ele>
      <time>2014-09-28T10:24:47Z</time>
    </trkpt>
    <trkpt lat="48.435321" lon="2.744407">
      <ele>54.8</ele>
      <time>2014-09-28T10:24:49Z</time>
    </trkpt>
    <trkpt lat="48.43542" lon="2.744426">
      <ele>55.3</ele>
      <time>2014-09-28T10:24:51Z</time>
    </trkpt>
    <trkpt lat="48.435535" lon="2.74445">
      <ele>55.7</ele>
      <time>2014-09-28T10:24:53Z</time>
    </trkpt>
    <trkpt lat="48.435668" lon="2.744496">
      <ele>55.9</ele>
      <time>2014-09-28T10:24:56Z</time>
    </trkpt>
    <trkpt lat="48.435829" lon="2.74454">
      <ele>56.2</ele>
      <time>2014-09-28T10:24:59Z</time>
    </trkpt>
    <trkpt lat="48.435958" lon="2.744565">
      <ele>56.6</ele>
      <time>2014-09-28T10:25:01Z</time>
    </trkpt>
    <trkpt lat="48.436078" lon="2.744611">
      <ele>56.6</ele>
      <time>2014-09-28T10:25:03Z</time>
    </trkpt>
    <trkpt lat="48.436208" lon="2.744646">
      <ele>56.8</ele>
      <time>2014-09-28T10:25:06Z</time>
    </trkpt>
    <trkpt lat="48.436342" lon="2.744687">
      <ele>56.9</ele>
      <time>2014-09-28T10:25:09Z</time>
    </trkpt>
    <trkpt lat="48.436465" lon="2.74478">
      <ele>55.7</ele>
      <time>2014-09-28T10:25:11Z</time>
    </trkpt>
    <trkpt lat="48.436571" lon="2.744855">
      <ele>54.7</ele>
      <time>2014-09-28T10:25:13Z</time>
    </trkpt>
    <trkpt lat="48.436697" lon="2.744916">
      <ele>54.0</ele>
      <time>2014-09-28T10:25:16Z</time>
    </trkpt>
    <trkpt lat="48.436801" lon="2.744966">
      <ele>53.4</ele>
      <time>2014-09-28T10:25:18Z</time>
    </trkpt>
    <trkpt lat="48.436908" lon="2.745013">
      <ele>53.1</ele>
      <time>2014-09-28T10:25:20Z</time>
    </trkpt>
    <trkpt lat="48.437048" lon="2.745084">
      <ele>53.2</ele>
      <time>2014-09-28T10:25:23Z</time>
    </trkpt>
    <trkpt lat="48.437147" lon="2.745119">
      <ele>53.3</ele>
      <time>2014-09-28T10:25:25Z</time>
    </trkpt>
    <trkpt lat="48.437275" lon="2.745175">
      <ele>53.3</ele>
      <time>2014-09-28T10:25:28Z</time>
    </trkpt>
    <trkpt lat="48.437374" lon="2.745226">
      <ele>53.2</ele>
      <time>2014-09-28T10:25:30Z</time>
    </trkpt>
    <trkpt lat="48.437504" lon="2.745268">
      <ele>53.1</ele>
      <time>2014-09-28T10:25:33Z</time>
    </trkpt>
    <trkpt lat="48.43772" lon="2.745403">
      <ele>53.4</ele>
      <time>2014-09-28T10:25:38Z</time>
    </trkpt>
    <trkpt lat="48.437865" lon="2.74548">
      <ele>53.3</ele>
      <time>2014-09-28T10:25:41Z</time>
    </trkpt>
    <trkpt lat="48.437956" lon="2.745553">
      <ele>52.6</ele>
      <time>2014-09-28T10:25:43Z</time>
    </trkpt>
    <trkpt lat="48.43805" lon="2.745571">
      <ele>52.8</ele>
      <time>2014-09-28T10:25:45Z</time>
    </trkpt>
    <trkpt lat="48.438157" lon="2.745615">
      <ele>52.4</ele>
      <time>2014-09-28T10:25:47Z</time>
    </trkpt>
    <trkpt lat="48.438278" lon="2.745671">
      <ele>51.7</ele>
      <time>2014-09-28T10:25:50Z</time>
    </trkpt>
    <trkpt lat="48.438406" lon="2.745734">
      <ele>51.3</ele>
      <time>2014-09-28T10:25:55Z</time>
    </trkpt>
    <trkpt lat="48.438495" lon="2.74577">
      <ele>51.7</ele>
      <time>2014-09-28T10:25:56Z</time>
    </trkpt>
    <trkpt lat="48.438601" lon="2.745816">
      <ele>51.9</ele>
      <time>2014-09-28T10:25:58Z</time>
    </trkpt>
    <trkpt lat="48.438696" lon="2.745871">
      <ele>52.3</ele>
      <time>2014-09-28T10:26:00Z</time>
    </trkpt>
    <trkpt lat="48.438799" lon="2.745909">
      <ele>53.1</ele>
      <time>2014-09-28T10:26:02Z</time>
    </trkpt>
    <trkpt lat="48.438894" lon="2.745934">
      <ele>53.9</ele>
      <time>2014-09-28T10:26:04Z</time>
    </trkpt>
    <trkpt lat="48.438996" lon="2.745963">
      <ele>54.6</ele>
      <time>2014-09-28T10:26:06Z</time>
    </trkpt>
    <trkpt lat="48.439098" lon="2.746016">
      <ele>54.8</ele>
      <time>2014-09-28T10:26:08Z</time>
    </trkpt>
    <trkpt lat="48.439201" lon="2.746057">
      <ele>55.2</ele>
      <time>2014-09-28T10:26:10Z</time>
    </trkpt>
    <trkpt lat="48.439296" lon="2.746106">
      <ele>55.7</ele>
      <time>2014-09-28T10:26:12Z</time>
    </trkpt>
    <trkpt lat="48.43939" lon="2.746159">
      <ele>56.1</ele>
      <time>2014-09-28T10:26:14Z</time>
    </trkpt>
    <trkpt lat="48.439517" lon="2.746219">
      <ele>56.7</ele>
      <time>2014-09-28T10:26:17Z</time>
    </trkpt>
    <trkpt lat="48.439622" lon="2.746267">
      <ele>57.2</ele>
      <time>2014-09-28T10:26:19Z</time>
    </trkpt>
    <trkpt lat="48.439718" lon="2.746323">
      <ele>57.3</ele>
      <time>2014-09-28T10:26:21Z</time>
    </trkpt>
    <trkpt lat="48.439865" lon="2.746392">
      <ele>57.8</ele>
      <time>2014-09-28T10:26:24Z</time>
    </trkpt>
    <trkpt lat="48.439952" lon="2.746442">
      <ele>57.8</ele>
      <time>2014-09-28T10:26:26Z</time>
    </trkpt>
    <trkpt lat="48.440061" lon="2.746448">
      <ele>59.3</ele>
      <time>2014-09-28T10:26:28Z</time>
    </trkpt>
    <trkpt lat="48.440218" lon="2.746547">
      <ele>59.8</ele>
      <time>2014-09-28T10:26:31Z</time>
    </trkpt>
    <trkpt lat="48.440302" lon="2.746627">
      <ele>59.4</ele>
      <time>2014-09-28T10:26:34Z</time>
    </trkpt>
    <trkpt lat="48.440604" lon="2.746821">
      <ele>61.4</ele>
      <time>2014-09-28T10:26:39Z</time>
    </trkpt>
    <trkpt lat="48.44073" lon="2.746898">
      <ele>62.0</ele>
      <time>2014-09-28T10:26:42Z</time>
    </trkpt>
    <trkpt lat="48.440833" lon="2.746984">
      <ele>61.9</ele>
      <time>2014-09-28T10:26:44Z</time>
    </trkpt>
    <trkpt lat="48.440912" lon="2.747049">
      <ele>61.7</ele>
      <time>2014-09-28T10:26:46Z</time>
    </trkpt>
    <trkpt lat="48.441035" lon="2.747146">
      <ele>61.3</ele>
      <time>2014-09-28T10:26:49Z</time>
    </trkpt>
    <trkpt lat="48.441143" lon="2.747227">
      <ele>61.0</ele>
      <time>2014-09-28T10:26:51Z</time>
    </trkpt>
    <trkpt lat="48.441234" lon="2.747304">
      <ele>60.4</ele>
      <time>2014-09-28T10:26:53Z</time>
    </trkpt>
    <trkpt lat="48.441336" lon="2.747364">
      <ele>60.3</ele>
      <time>2014-09-28T10:26:55Z</time>
    </trkpt>
    <trkpt lat="48.441454" lon="2.747445">
      <ele>59.9</ele>
      <time>2014-09-28T10:26:58Z</time>
    </trkpt>
    <trkpt lat="48.441537" lon="2.747517">
      <ele>59.4</ele>
      <time>2014-09-28T10:27:00Z</time>
    </trkpt>
    <trkpt lat="48.44164" lon="2.747612">
      <ele>59.4</ele>
      <time>2014-09-28T10:27:02Z</time>
    </trkpt>
    <trkpt lat="48.441819" lon="2.747738">
      <ele>60.4</ele>
      <time>2014-09-28T10:27:05Z</time>
    </trkpt>
    <trkpt lat="48.441903" lon="2.747806">
      <ele>60.6</ele>
      <time>2014-09-28T10:27:07Z</time>
    </trkpt>
    <trkpt lat="48.441989" lon="2.747892">
      <ele>60.5</ele>
      <time>2014-09-28T10:27:09Z</time>
    </trkpt>
    <trkpt lat="48.442068" lon="2.747978">
      <ele>60.0</ele>
      <time>2014-09-28T10:27:11Z</time>
    </trkpt>
    <trkpt lat="48.442213" lon="2.748072">
      <ele>59.9</ele>
      <time>2014-09-28T10:27:14Z</time>
    </trkpt>
    <trkpt lat="48.4423" lon="2.748139">
      <ele>59.5</ele>
      <time>2014-09-28T10:27:16Z</time>
    </trkpt>
    <trkpt lat="48.44242" lon="2.748229">
      <ele>58.7</ele>
      <time>2014-09-28T10:27:19Z</time>
    </trkpt>
    <trkpt lat="48.442509" lon="2.748291">
      <ele>58.1</ele>
      <time>2014-09-28T10:27:21Z</time>
    </trkpt>
    <trkpt lat="48.442606" lon="2.748364">
      <ele>58.2</ele>
      <time>2014-09-28T10:27:23Z</time>
    </trkpt>
    <trkpt lat="48.442706" lon="2.748424">
      <ele>58.9</ele>
      <time>2014-09-28T10:27:25Z</time>
    </trkpt>
    <trkpt lat="48.442798" lon="2.748498">
      <ele>59.1</ele>
      <time>2014-09-28T10:27:27Z</time>
    </trkpt>
    <trkpt lat="48.442947" lon="2.748635">
      <ele>59.0</ele>
      <time>2014-09-28T10:27:29Z</time>
    </trkpt>
    <trkpt lat="48.443055" lon="2.748725">
      <ele>58.9</ele>
      <time>2014-09-28T10:27:32Z</time>
    </trkpt>
    <trkpt lat="48.443155" lon="2.748795">
      <ele>58.9</ele>
      <time>2014-09-28T10:27:34Z</time>
    </trkpt>
    <trkpt lat="48.443353" lon="2.748936">
      <ele>58.6</ele>
      <time>2014-09-28T10:27:38Z</time>
    </trkpt>
    <trkpt lat="48.443433" lon="2.749">
      <ele>58.2</ele>
      <time>2014-09-28T10:27:40Z</time>
    </trkpt>
    <trkpt lat="48.443557" lon="2.749098">
      <ele>57.4</ele>
      <time>2014-09-28T10:27:43Z</time>
    </trkpt>
    <trkpt lat="48.443693" lon="2.749229">
      <ele>56.1</ele>
      <time>2014-09-28T10:27:47Z</time>
    </trkpt>
    <trkpt lat="48.443798" lon="2.749302">
      <ele>55.9</ele>
      <time>2014-09-28T10:27:49Z</time>
    </trkpt>
    <trkpt lat="48.443893" lon="2.749345">
      <ele>56.0</ele>
      <time>2014-09-28T10:27:51Z</time>
    </trkpt>
    <trkpt lat="48.444002" lon="2.749456">
      <ele>55.2</ele>
      <time>2014-09-28T10:27:55Z</time>
    </trkpt>
    <trkpt lat="48.444104" lon="2.749535">
      <ele>54.8</ele>
      <time>2014-09-28T10:27:57Z</time>
    </trkpt>
    <trkpt lat="48.444196" lon="2.749618">
      <ele>54.2</ele>
      <time>2014-09-28T10:28:02Z</time>
    </trkpt>
    <trkpt lat="48.444299" lon="2.749637">
      <ele>55.0</ele>
      <time>2014-09-28T10:28:05Z</time>
    </trkpt>
    <trkpt lat="48.444389" lon="2.749593">
      <ele>56.5</ele>
      <time>2014-09-28T10:28:23Z</time>
    </trkpt>
    <trkpt lat="48.444456" lon="2.749479">
      <ele>58.8</ele>
      <time>2014-09-28T10:28:36Z</time>
    </trkpt>
    <trkpt lat="48.444546" lon="2.749245">
      <ele>63.0</ele>
      <time>2014-09-28T10:30:03Z</time>
    </trkpt>
    <trkpt lat="48.444613" lon="2.748939">
      <ele>70.6</ele>
      <time>2014-09-28T10:30:30Z</time>
    </trkpt>
    <trkpt lat="48.444655" lon="2.748779">
      <ele>75.0</ele>
      <time>2014-09-28T10:31:53Z</time>
    </trkpt>
    <trkpt lat="48.444776" lon="2.748547">
      <ele>81.6</ele>
      <time>2014-09-28T10:32:09Z</time>
    </trkpt>
    <trkpt lat="48.444795" lon="2.748399">
      <ele>85.4</ele>
      <time>2014-09-28T10:32:16Z</time>
    </trkpt>
    <trkpt lat="48.444865" lon="2.748265">
      <ele>87.9</ele>
      <time>2014-09-28T10:32:24Z</time>
    </trkpt>
    <trkpt lat="48.444875" lon="2.748089">
      <ele>89.3</ele>
      <time>2014-09-28T10:32:32Z</time>
    </trkpt>
    <trkpt lat="48.444943" lon="2.747994">
      <ele>90.3</ele>
      <time>2014-09-28T10:32:38Z</time>
    </trkpt>
    <trkpt lat="48.445001" lon="2.74788">
      <ele>91.3</ele>
      <time>2014-09-28T10:32:46Z</time>
    </trkpt>
    <trkpt lat="48.445005" lon="2.747729">
      <ele>92.3</ele>
      <time>2014-09-28T10:32:53Z</time>
    </trkpt>
    <trkpt lat="48.445048" lon="2.747444">
      <ele>93.7</ele>
      <time>2014-09-28T10:33:09Z</time>
    </trkpt>
    <trkpt lat="48.44504" lon="2.747269">
      <ele>93.8</ele>
      <time>2014-09-28T10:33:16Z</time>
    </trkpt>
    <trkpt lat="48.445097" lon="2.74714">
      <ele>93.5</ele>
      <time>2014-09-28T10:33:23Z</time>
    </trkpt>
    <trkpt lat="48.445122" lon="2.74697">
      <ele>93.5</ele>
      <time>2014-09-28T10:35:53Z</time>
    </trkpt>
    <trkpt lat="48.445001" lon="2.746746">
      <ele>94.0</ele>
      <time>2014-09-28T10:36:01Z</time>
    </trkpt>
    <trkpt lat="48.445034" lon="2.74659">
      <ele>94.3</ele>
      <time>2014-09-28T10:36:08Z</time>
    </trkpt>
    <trkpt lat="48.445071" lon="2.746459">
      <ele>94.8</ele>
      <time>2014-09-28T10:36:12Z</time>
    </trkpt>
    <trkpt lat="48.445139" lon="2.746341">
      <ele>95.3</ele>
      <time>2014-09-28T10:36:15Z</time>
    </trkpt>
    <trkpt lat="48.445091" lon="2.746203">
      <ele>96.1</ele>
      <time>2014-09-28T10:36:19Z</time>
    </trkpt>
    <trkpt lat="48.445169" lon="2.746097">
      <ele>96.5</ele>
      <time>2014-09-28T10:36:24Z</time>
    </trkpt>
    <trkpt lat="48.445253" lon="2.746015">
      <ele>96.8</ele>
      <time>2014-09-28T10:36:29Z</time>
    </trkpt>
    <trkpt lat="48.445368" lon="2.746028">
      <ele>96.5</ele>
      <time>2014-09-28T10:36:34Z</time>
    </trkpt>
    <trkpt lat="48.445463" lon="2.746007">
      <ele>96.5</ele>
      <time>2014-09-28T10:36:40Z</time>
    </trkpt>
    <trkpt lat="48.445559" lon="2.745877">
      <ele>97.1</ele>
      <time>2014-09-28T10:36:46Z</time>
    </trkpt>
    <trkpt lat="48.445653" lon="2.74574">
      <ele>97.4</ele>
      <time>2014-09-28T10:36:50Z</time>
    </trkpt>
    <trkpt lat="48.445704" lon="2.745554">
      <ele>97.8</ele>
      <time>2014-09-28T10:36:53Z</time>
    </trkpt>
    <trkpt lat="48.445642" lon="2.745093">
      <ele>99.0</ele>
      <time>2014-09-28T10:37:00Z</time>
    </trkpt>
    <trkpt lat="48.445655" lon="2.744925">
      <ele>99.3</ele>
      <time>2014-09-28T10:37:05Z</time>
    </trkpt>
    <trkpt lat="48.445695" lon="2.744763">
      <ele>99.4</ele>
      <time>2014-09-28T10:37:08Z</time>
    </trkpt>
    <trkpt lat="48.44574" lon="2.744615">
      <ele>99.5</ele>
      <time>2014-09-28T10:37:11Z</time>
    </trkpt>
    <trkpt lat="48.445761" lon="2.744468">
      <ele>99.6</ele>
      <time>2014-09-28T10:37:14Z</time>
    </trkpt>
    <trkpt lat="48.445752" lon="2.744302">
      <ele>99.8</ele>
      <time>2014-09-28T10:37:17Z</time>
    </trkpt>
    <trkpt lat="48.445763" lon="2.744165">
      <ele>99.9</ele>
      <time>2014-09-28T10:37:22Z</time>
    </trkpt>
    <trkpt lat="48.445795" lon="2.744028">
      <ele>99.6</ele>
      <time>2014-09-28T10:37:25Z</time>
    </trkpt>
    <trkpt lat="48.445801" lon="2.74385">
      <ele>99.2</ele>
      <time>2014-09-28T10:37:30Z</time>
    </trkpt>
    <trkpt lat="48.44571" lon="2.743704">
      <ele>98.8</ele>
      <time>2014-09-28T10:37:35Z</time>
    </trkpt>
    <trkpt lat="48.445646" lon="2.743576">
      <ele>98.5</ele>
      <time>2014-09-28T10:37:38Z</time>
    </trkpt>
    <trkpt lat="48.445572" lon="2.743465">
      <ele>98.3</ele>
      <time>2014-09-28T10:37:41Z</time>
    </trkpt>
    <trkpt lat="48.445582" lon="2.743299">
      <ele>98.0</ele>
      <time>2014-09-28T10:37:45Z</time>
    </trkpt>
    <trkpt lat="48.445541" lon="2.743175">
      <ele>97.8</ele>
      <time>2014-09-28T10:37:50Z</time>
    </trkpt>
    <trkpt lat="48.445448" lon="2.743204">
      <ele>97.8</ele>
      <time>2014-09-28T10:38:01Z</time>
    </trkpt>
    <trkpt lat="48.445148" lon="2.743218">
      <ele>97.9</ele>
      <time>2014-09-28T10:38:10Z</time>
    </trkpt>
    <trkpt lat="48.445052" lon="2.743138">
      <ele>97.8</ele>
      <time>2014-09-28T10:38:12Z</time>
    </trkpt>
    <trkpt lat="48.444923" lon="2.743026">
      <ele>97.6</ele>
      <time>2014-09-28T10:38:14Z</time>
    </trkpt>
    <trkpt lat="48.444843" lon="2.742963">
      <ele>97.6</ele>
      <time>2014-09-28T10:38:23Z</time>
    </trkpt>
    <trkpt lat="48.444713" lon="2.743139">
      <ele>97.8</ele>
      <time>2014-09-28T10:38:39Z</time>
    </trkpt>
    <trkpt lat="48.444801" lon="2.743053">
      <ele>97.7</ele>
      <time>2014-09-28T10:38:47Z</time>
    </trkpt>
    <trkpt lat="48.444921" lon="2.742993">
      <ele>97.6</ele>
      <time>2014-09-28T10:38:54Z</time>
    </trkpt>
    <trkpt lat="48.44521" lon="2.742983">
      <ele>97.6</ele>
      <time>2014-09-28T10:38:59Z</time>
    </trkpt>
    <trkpt lat="48.445323" lon="2.743087">
      <ele>97.7</ele>
      <time>2014-09-28T10:39:03Z</time>
    </trkpt>
    <trkpt lat="48.445506" lon="2.743328">
      <ele>98.0</ele>
      <time>2014-09-28T10:39:10Z</time>
    </trkpt>
    <trkpt lat="48.445604" lon="2.743405">
      <ele>98.1</ele>
      <time>2014-09-28T10:39:13Z</time>
    </trkpt>
    <trkpt lat="48.445661" lon="2.743521">
      <ele>98.4</ele>
      <time>2014-09-28T10:39:15Z</time>
    </trkpt>
    <trkpt lat="48.44569" lon="2.743657">
      <ele>98.7</ele>
      <time>2014-09-28T10:39:19Z</time>
    </trkpt>
    <trkpt lat="48.44572" lon="2.743787">
      <ele>99.0</ele>
      <time>2014-09-28T10:39:22Z</time>
    </trkpt>
    <trkpt lat="48.445808" lon="2.743854">
      <ele>99.2</ele>
      <time>2014-09-28T10:39:26Z</time>
    </trkpt>
    <trkpt lat="48.445913" lon="2.743871">
      <ele>99.4</ele>
      <time>2014-09-28T10:39:33Z</time>
    </trkpt>
    <trkpt lat="48.445984" lon="2.743789">
      <ele>99.4</ele>
      <time>2014-09-28T10:39:55Z</time>
    </trkpt>
    <trkpt lat="48.446077" lon="2.743588">
      <ele>99.4</ele>
      <time>2014-09-28T10:40:00Z</time>
    </trkpt>
    <trkpt lat="48.445985" lon="2.743529">
      <ele>99.0</ele>
      <time>2014-09-28T10:40:02Z</time>
    </trkpt>
    <trkpt lat="48.446008" lon="2.743384">
      <ele>98.9</ele>
      <time>2014-09-28T10:40:05Z</time>
    </trkpt>
    <trkpt lat="48.446045" lon="2.743079">
      <ele>98.6</ele>
      <time>2014-09-28T10:40:11Z</time>
    </trkpt>
    <trkpt lat="48.446049" lon="2.742913">
      <ele>98.4</ele>
      <time>2014-09-28T10:40:14Z</time>
    </trkpt>
    <trkpt lat="48.446083" lon="2.742782">
      <ele>98.3</ele>
      <time>2014-09-28T10:40:17Z</time>
    </trkpt>
    <trkpt lat="48.446099" lon="2.742629">
      <ele>98.2</ele>
      <time>2014-09-28T10:40:24Z</time>
    </trkpt>
    <trkpt lat="48.446066" lon="2.742476">
      <ele>97.8</ele>
      <time>2014-09-28T10:40:31Z</time>
    </trkpt>
    <trkpt lat="48.446108" lon="2.742343">
      <ele>97.7</ele>
      <time>2014-09-28T10:40:34Z</time>
    </trkpt>
    <trkpt lat="48.446161" lon="2.742203">
      <ele>97.5</ele>
      <time>2014-09-28T10:40:38Z</time>
    </trkpt>
    <trkpt lat="48.4462" lon="2.742059">
      <ele>97.3</ele>
      <time>2014-09-28T10:40:43Z</time>
    </trkpt>
    <trkpt lat="48.446343" lon="2.742016">
      <ele>97.5</ele>
      <time>2014-09-28T10:40:50Z</time>
    </trkpt>
    <trkpt lat="48.446469" lon="2.742016">
      <ele>97.8</ele>
      <time>2014-09-28T10:40:53Z</time>
    </trkpt>
    <trkpt lat="48.446595" lon="2.742096">
      <ele>98.4</ele>
      <time>2014-09-28T10:40:55Z</time>
    </trkpt>
    <trkpt lat="48.446693" lon="2.742097">
      <ele>98.6</ele>
      <time>2014-09-28T10:40:57Z</time>
    </trkpt>
    <trkpt lat="48.446789" lon="2.742154">
      <ele>99.2</ele>
      <time>2014-09-28T10:41:02Z</time>
    </trkpt>
    <trkpt lat="48.446878" lon="2.742114">
      <ele>99.4</ele>
      <time>2014-09-28T10:41:21Z</time>
    </trkpt>
    <trkpt lat="48.446823" lon="2.741904">
      <ele>98.5</ele>
      <time>2014-09-28T10:42:00Z</time>
    </trkpt>
    <trkpt lat="48.446742" lon="2.741804">
      <ele>97.8</ele>
      <time>2014-09-28T10:42:06Z</time>
    </trkpt>
    <trkpt lat="48.446592" lon="2.741692">
      <ele>97.0</ele>
      <time>2014-09-28T10:42:11Z</time>
    </trkpt>
    <trkpt lat="48.446533" lon="2.741581">
      <ele>97.0</ele>
      <time>2014-09-28T10:42:14Z</time>
    </trkpt>
    <trkpt lat="48.446466" lon="2.741451">
      <ele>97.3</ele>
      <time>2014-09-28T10:42:17Z</time>
    </trkpt>
    <trkpt lat="48.446381" lon="2.741326">
      <ele>97.5</ele>
      <time>2014-09-28T10:42:20Z</time>
    </trkpt>
    <trkpt lat="48.446282" lon="2.741209">
      <ele>97.6</ele>
      <time>2014-09-28T10:42:24Z</time>
    </trkpt>
    <trkpt lat="48.446118" lon="2.741101">
      <ele>97.7</ele>
      <time>2014-09-28T10:42:28Z</time>
    </trkpt>
    <trkpt lat="48.446021" lon="2.740938">
      <ele>98.0</ele>
      <time>2014-09-28T10:42:31Z</time>
    </trkpt>
    <trkpt lat="48.445959" lon="2.740792">
      <ele>98.2</ele>
      <time>2014-09-28T10:42:34Z</time>
    </trkpt>
    <trkpt lat="48.445884" lon="2.740703">
      <ele>98.2</ele>
      <time>2014-09-28T10:42:36Z</time>
    </trkpt>
    <trkpt lat="48.445748" lon="2.740556">
      <ele>98.1</ele>
      <time>2014-09-28T10:42:40Z</time>
    </trkpt>
    <trkpt lat="48.445667" lon="2.740466">
      <ele>98.0</ele>
      <time>2014-09-28T10:42:44Z</time>
    </trkpt>
    <trkpt lat="48.4456" lon="2.740361">
      <ele>98.0</ele>
      <time>2014-09-28T10:42:48Z</time>
    </trkpt>
    <trkpt lat="48.445503" lon="2.740263">
      <ele>97.9</ele>
      <time>2014-09-28T10:42:52Z</time>
    </trkpt>
    <trkpt lat="48.445409" lon="2.740115">
      <ele>97.8</ele>
      <time>2014-09-28T10:42:56Z</time>
    </trkpt>
    <trkpt lat="48.445286" lon="2.740028">
      <ele>97.7</ele>
      <time>2014-09-28T10:42:58Z</time>
    </trkpt>
    <trkpt lat="48.44518" lon="2.739938">
      <ele>97.4</ele>
      <time>2014-09-28T10:43:00Z</time>
    </trkpt>
    <trkpt lat="48.445094" lon="2.739837">
      <ele>97.2</ele>
      <time>2014-09-28T10:43:02Z</time>
    </trkpt>
    <trkpt lat="48.445" lon="2.739756">
      <ele>97.0</ele>
      <time>2014-09-28T10:43:04Z</time>
    </trkpt>
    <trkpt lat="48.444931" lon="2.739648">
      <ele>97.0</ele>
      <time>2014-09-28T10:43:07Z</time>
    </trkpt>
    <trkpt lat="48.444851" lon="2.73953">
      <ele>97.1</ele>
      <time>2014-09-28T10:43:10Z</time>
    </trkpt>
    <trkpt lat="48.44478" lon="2.739428">
      <ele>97.2</ele>
      <time>2014-09-28T10:43:12Z</time>
    </trkpt>
    <trkpt lat="48.444696" lon="2.739343">
      <ele>97.3</ele>
      <time>2014-09-28T10:43:14Z</time>
    </trkpt>
    <trkpt lat="48.444545" lon="2.739243">
      <ele>97.5</ele>
      <time>2014-09-28T10:43:17Z</time>
    </trkpt>
    <trkpt lat="48.444473" lon="2.739142">
      <ele>97.6</ele>
      <time>2014-09-28T10:43:19Z</time>
    </trkpt>
    <trkpt lat="48.444408" lon="2.738916">
      <ele>97.7</ele>
      <time>2014-09-28T10:43:22Z</time>
    </trkpt>
    <trkpt lat="48.444425" lon="2.738782">
      <ele>97.7</ele>
      <time>2014-09-28T10:43:24Z</time>
    </trkpt>
    <trkpt lat="48.444592" lon="2.738443">
      <ele>97.5</ele>
      <time>2014-09-28T10:43:32Z</time>
    </trkpt>
    <trkpt lat="48.44462" lon="2.738264">
      <ele>97.5</ele>
      <time>2014-09-28T10:43:37Z</time>
    </trkpt>
    <trkpt lat="48.444676" lon="2.738123">
      <ele>97.4</ele>
      <time>2014-09-28T10:43:40Z</time>
    </trkpt>
    <trkpt lat="48.444732" lon="2.737991">
      <ele>97.5</ele>
      <time>2014-09-28T10:43:43Z</time>
    </trkpt>
    <trkpt lat="48.444882" lon="2.737914">
      <ele>97.5</ele>
      <time>2014-09-28T10:43:45Z</time>
    </trkpt>
    <trkpt lat="48.444996" lon="2.737835">
      <ele>97.6</ele>
      <time>2014-09-28T10:43:49Z</time>
    </trkpt>
    <trkpt lat="48.445083" lon="2.737748">
      <ele>97.8</ele>
      <time>2014-09-28T10:43:53Z</time>
    </trkpt>
    <trkpt lat="48.445129" lon="2.737603">
      <ele>98.0</ele>
      <time>2014-09-28T10:43:57Z</time>
    </trkpt>
    <trkpt lat="48.445215" lon="2.737513">
      <ele>98.2</ele>
      <time>2014-09-28T10:44:00Z</time>
    </trkpt>
    <trkpt lat="48.445251" lon="2.737326">
      <ele>98.4</ele>
      <time>2014-09-28T10:44:04Z</time>
    </trkpt>
    <trkpt lat="48.445318" lon="2.737217">
      <ele>98.5</ele>
      <time>2014-09-28T10:44:06Z</time>
    </trkpt>
    <trkpt lat="48.445407" lon="2.737097">
      <ele>98.7</ele>
      <time>2014-09-28T10:44:08Z</time>
    </trkpt>
    <trkpt lat="48.44548" lon="2.736977">
      <ele>98.9</ele>
      <time>2014-09-28T10:44:12Z</time>
    </trkpt>
    <trkpt lat="48.445557" lon="2.736868">
      <ele>99.2</ele>
      <time>2014-09-28T10:44:15Z</time>
    </trkpt>
    <trkpt lat="48.445614" lon="2.736734">
      <ele>99.4</ele>
      <time>2014-09-28T10:44:19Z</time>
    </trkpt>
    <trkpt lat="48.445688" lon="2.736579">
      <ele>99.7</ele>
      <time>2014-09-28T10:44:22Z</time>
    </trkpt>
    <trkpt lat="48.445669" lon="2.736413">
      <ele>99.6</ele>
      <time>2014-09-28T10:44:25Z</time>
    </trkpt>
    <trkpt lat="48.445828" lon="2.736207">
      <ele>100.0</ele>
      <time>2014-09-28T10:44:31Z</time>
    </trkpt>
    <trkpt lat="48.445894" lon="2.736067">
      <ele>99.9</ele>
      <time>2014-09-28T10:44:34Z</time>
    </trkpt>
    <trkpt lat="48.445922" lon="2.735897">
      <ele>99.9</ele>
      <time>2014-09-28T10:44:37Z</time>
    </trkpt>
    <trkpt lat="48.445959" lon="2.735761">
      <ele>99.9</ele>
      <time>2014-09-28T10:44:40Z</time>
    </trkpt>
    <trkpt lat="48.446013" lon="2.735597">
      <ele>100.1</ele>
      <time>2014-09-28T10:44:44Z</time>
    </trkpt>
    <trkpt lat="48.446102" lon="2.735564">
      <ele>100.0</ele>
      <time>2014-09-28T10:44:45Z</time>
    </trkpt>
    <trkpt lat="48.446218" lon="2.735552">
      <ele>99.9</ele>
      <time>2014-09-28T10:44:46Z</time>
    </trkpt>
    <trkpt lat="48.446316" lon="2.735459">
      <ele>99.9</ele>
      <time>2014-09-28T10:44:49Z</time>
    </trkpt>
    <trkpt lat="48.446407" lon="2.735352">
      <ele>99.9</ele>
      <time>2014-09-28T10:44:52Z</time>
    </trkpt>
    <trkpt lat="48.446366" lon="2.735213">
      <ele>100.1</ele>
      <time>2014-09-28T10:44:54Z</time>
    </trkpt>
    <trkpt lat="48.44644" lon="2.735082">
      <ele>100.2</ele>
      <time>2014-09-28T10:44:57Z</time>
    </trkpt>
    <trkpt lat="48.446518" lon="2.734994">
      <ele>100.2</ele>
      <time>2014-09-28T10:45:00Z</time>
    </trkpt>
    <trkpt lat="48.44651" lon="2.734828">
      <ele>100.2</ele>
      <time>2014-09-28T10:45:04Z</time>
    </trkpt>
    <trkpt lat="48.446546" lon="2.734676">
      <ele>100.1</ele>
      <time>2014-09-28T10:45:08Z</time>
    </trkpt>
    <trkpt lat="48.446389" lon="2.734565">
      <ele>100.3</ele>
      <time>2014-09-28T10:45:09Z</time>
    </trkpt>
    <trkpt lat="48.446323" lon="2.734432">
      <ele>100.4</ele>
      <time>2014-09-28T10:45:12Z</time>
    </trkpt>
    <trkpt lat="48.446322" lon="2.734239">
      <ele>100.4</ele>
      <time>2014-09-28T10:45:16Z</time>
    </trkpt>
    <trkpt lat="48.446388" lon="2.734125">
      <ele>100.3</ele>
      <time>2014-09-28T10:45:19Z</time>
    </trkpt>
    <trkpt lat="48.446428" lon="2.733989">
      <ele>100.2</ele>
      <time>2014-09-28T10:45:22Z</time>
    </trkpt>
    <trkpt lat="48.446555" lon="2.733946">
      <ele>100.1</ele>
      <time>2014-09-28T10:45:23Z</time>
    </trkpt>
    <trkpt lat="48.446662" lon="2.733826">
      <ele>100.0</ele>
      <time>2014-09-28T10:45:26Z</time>
    </trkpt>
    <trkpt lat="48.446809" lon="2.733616">
      <ele>99.8</ele>
      <time>2014-09-28T10:45:31Z</time>
    </trkpt>
    <trkpt lat="48.446892" lon="2.733516">
      <ele>99.7</ele>
      <time>2014-09-28T10:45:34Z</time>
    </trkpt>
    <trkpt lat="48.446998" lon="2.733481">
      <ele>99.6</ele>
      <time>2014-09-28T10:45:35Z</time>
    </trkpt>
    <trkpt lat="48.4471" lon="2.733322">
      <ele>99.5</ele>
      <time>2014-09-28T10:45:38Z</time>
    </trkpt>
    <trkpt lat="48.447194" lon="2.733338">
      <ele>99.4</ele>
      <time>2014-09-28T10:45:39Z</time>
    </trkpt>
    <trkpt lat="48.447275" lon="2.733243">
      <ele>99.4</ele>
      <time>2014-09-28T10:45:42Z</time>
    </trkpt>
    <trkpt lat="48.447342" lon="2.733086">
      <ele>99.5</ele>
      <time>2014-09-28T10:45:44Z</time>
    </trkpt>
    <trkpt lat="48.447323" lon="2.732942">
      <ele>99.8</ele>
      <time>2014-09-28T10:45:47Z</time>
    </trkpt>
    <trkpt lat="48.447306" lon="2.732768">
      <ele>100.1</ele>
      <time>2014-09-28T10:45:50Z</time>
    </trkpt>
    <trkpt lat="48.447389" lon="2.73263">
      <ele>100.1</ele>
      <time>2014-09-28T10:45:53Z</time>
    </trkpt>
    <trkpt lat="48.447433" lon="2.732505">
      <ele>100.2</ele>
      <time>2014-09-28T10:45:55Z</time>
    </trkpt>
    <trkpt lat="48.447319" lon="2.73235">
      <ele>100.4</ele>
      <time>2014-09-28T10:45:57Z</time>
    </trkpt>
    <trkpt lat="48.447398" lon="2.732253">
      <ele>100.4</ele>
      <time>2014-09-28T10:45:59Z</time>
    </trkpt>
    <trkpt lat="48.447487" lon="2.732162">
      <ele>100.4</ele>
      <time>2014-09-28T10:46:01Z</time>
    </trkpt>
    <trkpt lat="48.447649" lon="2.732032">
      <ele>100.6</ele>
      <time>2014-09-28T10:46:05Z</time>
    </trkpt>
    <trkpt lat="48.447652" lon="2.731873">
      <ele>100.8</ele>
      <time>2014-09-28T10:46:07Z</time>
    </trkpt>
    <trkpt lat="48.447662" lon="2.731683">
      <ele>101.0</ele>
      <time>2014-09-28T10:46:10Z</time>
    </trkpt>
    <trkpt lat="48.447762" lon="2.731559">
      <ele>100.9</ele>
      <time>2014-09-28T10:46:14Z</time>
    </trkpt>
    <trkpt lat="48.447856" lon="2.731441">
      <ele>100.8</ele>
      <time>2014-09-28T10:46:17Z</time>
    </trkpt>
    <trkpt lat="48.448008" lon="2.731395">
      <ele>100.9</ele>
      <time>2014-09-28T10:46:19Z</time>
    </trkpt>
    <trkpt lat="48.448061" lon="2.731253">
      <ele>101.0</ele>
      <time>2014-09-28T10:46:22Z</time>
    </trkpt>
    <trkpt lat="48.448128" lon="2.731111">
      <ele>101.2</ele>
      <time>2014-09-28T10:46:25Z</time>
    </trkpt>
    <trkpt lat="48.448209" lon="2.730959">
      <ele>101.5</ele>
      <time>2014-09-28T10:46:28Z</time>
    </trkpt>
    <trkpt lat="48.448243" lon="2.73061">
      <ele>101.1</ele>
      <time>2014-09-28T10:46:35Z</time>
    </trkpt>
    <trkpt lat="48.448367" lon="2.730578">
      <ele>101.3</ele>
      <time>2014-09-28T10:46:36Z</time>
    </trkpt>
    <trkpt lat="48.44842" lon="2.730443">
      <ele>100.8</ele>
      <time>2014-09-28T10:46:39Z</time>
    </trkpt>
    <trkpt lat="48.448506" lon="2.730285">
      <ele>100.3</ele>
      <time>2014-09-28T10:46:42Z</time>
    </trkpt>
    <trkpt lat="48.448516" lon="2.730135">
      <ele>100.0</ele>
      <time>2014-09-28T10:46:45Z</time>
    </trkpt>
    <trkpt lat="48.448588" lon="2.730002">
      <ele>99.7</ele>
      <time>2014-09-28T10:46:48Z</time>
    </trkpt>
    <trkpt lat="48.448676" lon="2.729912">
      <ele>99.2</ele>
      <time>2014-09-28T10:46:50Z</time>
    </trkpt>
    <trkpt lat="48.44875" lon="2.729788">
      <ele>98.6</ele>
      <time>2014-09-28T10:46:53Z</time>
    </trkpt>
    <trkpt lat="48.448804" lon="2.729655">
      <ele>98.1</ele>
      <time>2014-09-28T10:46:56Z</time>
    </trkpt>
    <trkpt lat="48.448852" lon="2.729486">
      <ele>97.6</ele>
      <time>2014-09-28T10:46:59Z</time>
    </trkpt>
    <trkpt lat="48.448919" lon="2.729372">
      <ele>97.4</ele>
      <time>2014-09-28T10:47:02Z</time>
    </trkpt>
    <trkpt lat="48.44901" lon="2.729308">
      <ele>97.6</ele>
      <time>2014-09-28T10:47:09Z</time>
    </trkpt>
    <trkpt lat="48.449127" lon="2.729297">
      <ele>98.0</ele>
      <time>2014-09-28T10:47:14Z</time>
    </trkpt>
    <trkpt lat="48.449222" lon="2.729276">
      <ele>98.2</ele>
      <time>2014-09-28T10:47:24Z</time>
    </trkpt>
    <trkpt lat="48.449341" lon="2.729256">
      <ele>98.3</ele>
      <time>2014-09-28T10:47:45Z</time>
    </trkpt>
    <trkpt lat="48.449443" lon="2.729047">
      <ele>97.9</ele>
      <time>2014-09-28T10:47:54Z</time>
    </trkpt>
    <trkpt lat="48.449493" lon="2.728905">
      <ele>97.4</ele>
      <time>2014-09-28T10:47:59Z</time>
    </trkpt>
    <trkpt lat="48.449553" lon="2.728731">
      <ele>96.9</ele>
      <time>2014-09-28T10:48:03Z</time>
    </trkpt>
    <trkpt lat="48.449646" lon="2.728593">
      <ele>96.6</ele>
      <time>2014-09-28T10:48:06Z</time>
    </trkpt>
    <trkpt lat="48.449689" lon="2.728437">
      <ele>96.2</ele>
      <time>2014-09-28T10:48:09Z</time>
    </trkpt>
    <trkpt lat="48.449827" lon="2.728404">
      <ele>96.6</ele>
      <time>2014-09-28T10:48:11Z</time>
    </trkpt>
    <trkpt lat="48.449927" lon="2.72831">
      <ele>96.7</ele>
      <time>2014-09-28T10:48:13Z</time>
    </trkpt>
    <trkpt lat="48.45" lon="2.728217">
      <ele>97.0</ele>
      <time>2014-09-28T10:48:15Z</time>
    </trkpt>
    <trkpt lat="48.450047" lon="2.728062">
      <ele>97.2</ele>
      <time>2014-09-28T10:48:18Z</time>
    </trkpt>
    <trkpt lat="48.45009" lon="2.727915">
      <ele>97.4</ele>
      <time>2014-09-28T10:48:20Z</time>
    </trkpt>
    <trkpt lat="48.450177" lon="2.727851">
      <ele>97.8</ele>
      <time>2014-09-28T10:48:22Z</time>
    </trkpt>
    <trkpt lat="48.450289" lon="2.727759">
      <ele>98.4</ele>
      <time>2014-09-28T10:48:24Z</time>
    </trkpt>
    <trkpt lat="48.450299" lon="2.727608">
      <ele>98.4</ele>
      <time>2014-09-28T10:48:26Z</time>
    </trkpt>
    <trkpt lat="48.450296" lon="2.727467">
      <ele>98.4</ele>
      <time>2014-09-28T10:48:29Z</time>
    </trkpt>
    <trkpt lat="48.450364" lon="2.727323">
      <ele>98.4</ele>
      <time>2014-09-28T10:48:33Z</time>
    </trkpt>
    <trkpt lat="48.450406" lon="2.727155">
      <ele>98.3</ele>
      <time>2014-09-28T10:48:37Z</time>
    </trkpt>
    <trkpt lat="48.450452" lon="2.726943">
      <ele>98.1</ele>
      <time>2014-09-28T10:48:40Z</time>
    </trkpt>
    <trkpt lat="48.45053" lon="2.72687">
      <ele>98.3</ele>
      <time>2014-09-28T10:48:43Z</time>
    </trkpt>
    <trkpt lat="48.450582" lon="2.726694">
      <ele>98.2</ele>
      <time>2014-09-28T10:48:49Z</time>
    </trkpt>
    <trkpt lat="48.450679" lon="2.726379">
      <ele>97.7</ele>
      <time>2014-09-28T10:48:56Z</time>
    </trkpt>
    <trkpt lat="48.45091" lon="2.726225">
      <ele>97.7</ele>
      <time>2014-09-28T10:49:00Z</time>
    </trkpt>
    <trkpt lat="48.451027" lon="2.726078">
      <ele>97.7</ele>
      <time>2014-09-28T10:49:03Z</time>
    </trkpt>
    <trkpt lat="48.451126" lon="2.726036">
      <ele>98.0</ele>
      <time>2014-09-28T10:49:05Z</time>
    </trkpt>
    <trkpt lat="48.451223" lon="2.726019">
      <ele>98.3</ele>
      <time>2014-09-28T10:49:08Z</time>
    </trkpt>
    <trkpt lat="48.451314" lon="2.72598">
      <ele>98.6</ele>
      <time>2014-09-28T10:49:11Z</time>
    </trkpt>
    <trkpt lat="48.451374" lon="2.725878">
      <ele>98.7</ele>
      <time>2014-09-28T10:49:22Z</time>
    </trkpt>
    <trkpt lat="48.45158" lon="2.725766">
      <ele>99.5</ele>
      <time>2014-09-28T10:49:29Z</time>
    </trkpt>
    <trkpt lat="48.45166" lon="2.725647">
      <ele>99.5</ele>
      <time>2014-09-28T10:49:40Z</time>
    </trkpt>
    <trkpt lat="48.451707" lon="2.725526">
      <ele>99.4</ele>
      <time>2014-09-28T10:50:03Z</time>
    </trkpt>
    <trkpt lat="48.451852" lon="2.725237">
      <ele>99.5</ele>
      <time>2014-09-28T10:50:11Z</time>
    </trkpt>
    <trkpt lat="48.451813" lon="2.725102">
      <ele>99.1</ele>
      <time>2014-09-28T10:50:14Z</time>
    </trkpt>
    <trkpt lat="48.451796" lon="2.724942">
      <ele>98.7</ele>
      <time>2014-09-28T10:50:17Z</time>
    </trkpt>
    <trkpt lat="48.451877" lon="2.724849">
      <ele>99.1</ele>
      <time>2014-09-28T10:50:20Z</time>
    </trkpt>
    <trkpt lat="48.451969" lon="2.724731">
      <ele>99.3</ele>
      <time>2014-09-28T10:50:23Z</time>
    </trkpt>
    <trkpt lat="48.452035" lon="2.724572">
      <ele>99.3</ele>
      <time>2014-09-28T10:50:27Z</time>
    </trkpt>
    <trkpt lat="48.452074" lon="2.724393">
      <ele>99.0</ele>
      <time>2014-09-28T10:50:30Z</time>
    </trkpt>
    <trkpt lat="48.452163" lon="2.724301">
      <ele>99.0</ele>
      <time>2014-09-28T10:50:32Z</time>
    </trkpt>
    <trkpt lat="48.452287" lon="2.724214">
      <ele>98.9</ele>
      <time>2014-09-28T10:50:34Z</time>
    </trkpt>
    <trkpt lat="48.452382" lon="2.724102">
      <ele>98.7</ele>
      <time>2014-09-28T10:50:37Z</time>
    </trkpt>
    <trkpt lat="48.452442" lon="2.724">
      <ele>98.4</ele>
      <time>2014-09-28T10:50:45Z</time>
    </trkpt>
    <trkpt lat="48.452471" lon="2.72386">
      <ele>98.0</ele>
      <time>2014-09-28T10:50:55Z</time>
    </trkpt>
    <trkpt lat="48.452539" lon="2.723728">
      <ele>97.5</ele>
      <time>2014-09-28T10:50:59Z</time>
    </trkpt>
    <trkpt lat="48.452629" lon="2.723594">
      <ele>97.0</ele>
      <time>2014-09-28T10:51:03Z</time>
    </trkpt>
    <trkpt lat="48.452658" lon="2.723462">
      <ele>96.4</ele>
      <time>2014-09-28T10:51:05Z</time>
    </trkpt>
    <trkpt lat="48.452814" lon="2.723248">
      <ele>95.6</ele>
      <time>2014-09-28T10:51:12Z</time>
    </trkpt>
    <trkpt lat="48.452904" lon="2.723108">
      <ele>95.4</ele>
      <time>2014-09-28T10:51:16Z</time>
    </trkpt>
    <trkpt lat="48.452984" lon="2.723033">
      <ele>95.2</ele>
      <time>2014-09-28T10:51:18Z</time>
    </trkpt>
    <trkpt lat="48.453061" lon="2.722961">
      <ele>94.9</ele>
      <time>2014-09-28T10:51:32Z</time>
    </trkpt>
    <trkpt lat="48.45305" lon="2.722823">
      <ele>94.7</ele>
      <time>2014-09-28T10:51:50Z</time>
    </trkpt>
    <trkpt lat="48.452968" lon="2.722765">
      <ele>95.0</ele>
      <time>2014-09-28T10:51:54Z</time>
    </trkpt>
    <trkpt lat="48.453011" lon="2.722626">
      <ele>94.7</ele>
      <time>2014-09-28T10:52:01Z</time>
    </trkpt>
    <trkpt lat="48.453061" lon="2.722503">
      <ele>94.3</ele>
      <time>2014-09-28T10:52:05Z</time>
    </trkpt>
    <trkpt lat="48.453177" lon="2.722228">
      <ele>95.3</ele>
      <time>2014-09-28T10:52:12Z</time>
    </trkpt>
    <trkpt lat="48.453258" lon="2.722147">
      <ele>95.4</ele>
      <time>2014-09-28T10:52:15Z</time>
    </trkpt>
    <trkpt lat="48.453335" lon="2.722064">
      <ele>95.6</ele>
      <time>2014-09-28T10:52:18Z</time>
    </trkpt>
    <trkpt lat="48.453382" lon="2.721945">
      <ele>96.3</ele>
      <time>2014-09-28T10:52:22Z</time>
    </trkpt>
    <trkpt lat="48.453396" lon="2.721799">
      <ele>97.1</ele>
      <time>2014-09-28T10:52:26Z</time>
    </trkpt>
    <trkpt lat="48.453455" lon="2.721662">
      <ele>97.7</ele>
      <time>2014-09-28T10:52:30Z</time>
    </trkpt>
    <trkpt lat="48.453496" lon="2.721513">
      <ele>97.9</ele>
      <time>2014-09-28T10:52:33Z</time>
    </trkpt>
    <trkpt lat="48.453572" lon="2.72142">
      <ele>97.9</ele>
      <time>2014-09-28T10:52:35Z</time>
    </trkpt>
    <trkpt lat="48.453695" lon="2.721335">
      <ele>97.8</ele>
      <time>2014-09-28T10:52:38Z</time>
    </trkpt>
    <trkpt lat="48.453783" lon="2.721216">
      <ele>97.7</ele>
      <time>2014-09-28T10:52:41Z</time>
    </trkpt>
    <trkpt lat="48.453877" lon="2.72109">
      <ele>97.6</ele>
      <time>2014-09-28T10:52:44Z</time>
    </trkpt>
    <trkpt lat="48.453961" lon="2.721015">
      <ele>97.5</ele>
      <time>2014-09-28T10:52:46Z</time>
    </trkpt>
    <trkpt lat="48.454112" lon="2.720912">
      <ele>97.1</ele>
      <time>2014-09-28T10:52:49Z</time>
    </trkpt>
    <trkpt lat="48.454205" lon="2.720835">
      <ele>96.8</ele>
      <time>2014-09-28T10:52:51Z</time>
    </trkpt>
    <trkpt lat="48.454312" lon="2.720778">
      <ele>96.5</ele>
      <time>2014-09-28T10:52:53Z</time>
    </trkpt>
    <trkpt lat="48.454395" lon="2.720708">
      <ele>96.4</ele>
      <time>2014-09-28T10:52:55Z</time>
    </trkpt>
    <trkpt lat="48.454482" lon="2.720646">
      <ele>96.2</ele>
      <time>2014-09-28T10:52:57Z</time>
    </trkpt>
    <trkpt lat="48.454587" lon="2.720535">
      <ele>96.1</ele>
      <time>2014-09-28T10:53:00Z</time>
    </trkpt>
    <trkpt lat="48.45465" lon="2.720437">
      <ele>96.1</ele>
      <time>2014-09-28T10:53:02Z</time>
    </trkpt>
    <trkpt lat="48.454722" lon="2.720308">
      <ele>96.2</ele>
      <time>2014-09-28T10:53:05Z</time>
    </trkpt>
    <trkpt lat="48.454786" lon="2.720198">
      <ele>96.3</ele>
      <time>2014-09-28T10:53:07Z</time>
    </trkpt>
    <trkpt lat="48.454963" lon="2.719962">
      <ele>96.3</ele>
      <time>2014-09-28T10:53:12Z</time>
    </trkpt>
    <trkpt lat="48.455069" lon="2.719862">
      <ele>96.3</ele>
      <time>2014-09-28T10:53:14Z</time>
    </trkpt>
    <trkpt lat="48.45515" lon="2.719707">
      <ele>96.5</ele>
      <time>2014-09-28T10:53:17Z</time>
    </trkpt>
    <trkpt lat="48.45522" lon="2.719594">
      <ele>96.5</ele>
      <time>2014-09-28T10:53:20Z</time>
    </trkpt>
    <trkpt lat="48.455278" lon="2.719427">
      <ele>96.7</ele>
      <time>2014-09-28T10:53:23Z</time>
    </trkpt>
    <trkpt lat="48.455411" lon="2.719413">
      <ele>96.1</ele>
      <time>2014-09-28T10:53:24Z</time>
    </trkpt>
    <trkpt lat="48.455469" lon="2.719266">
      <ele>96.0</ele>
      <time>2014-09-28T10:53:27Z</time>
    </trkpt>
    <trkpt lat="48.455496" lon="2.719061">
      <ele>96.2</ele>
      <time>2014-09-28T10:53:31Z</time>
    </trkpt>
    <trkpt lat="48.455519" lon="2.718916">
      <ele>96.3</ele>
      <time>2014-09-28T10:53:34Z</time>
    </trkpt>
    <trkpt lat="48.455558" lon="2.718774">
      <ele>96.3</ele>
      <time>2014-09-28T10:53:37Z</time>
    </trkpt>
    <trkpt lat="48.455737" lon="2.718779">
      <ele>95.4</ele>
      <time>2014-09-28T10:53:38Z</time>
    </trkpt>
    <trkpt lat="48.455731" lon="2.718635">
      <ele>95.7</ele>
      <time>2014-09-28T10:53:40Z</time>
    </trkpt>
    <trkpt lat="48.455688" lon="2.718431">
      <ele>96.3</ele>
      <time>2014-09-28T10:53:43Z</time>
    </trkpt>
    <trkpt lat="48.455731" lon="2.718226">
      <ele>96.6</ele>
      <time>2014-09-28T10:53:46Z</time>
    </trkpt>
    <trkpt lat="48.455745" lon="2.718001">
      <ele>97.1</ele>
      <time>2014-09-28T10:53:50Z</time>
    </trkpt>
    <trkpt lat="48.455709" lon="2.717785">
      <ele>97.8</ele>
      <time>2014-09-28T10:53:54Z</time>
    </trkpt>
    <trkpt lat="48.455761" lon="2.717546">
      <ele>98.1</ele>
      <time>2014-09-28T10:53:58Z</time>
    </trkpt>
    <trkpt lat="48.455757" lon="2.717384">
      <ele>98.4</ele>
      <time>2014-09-28T10:54:01Z</time>
    </trkpt>
    <trkpt lat="48.455745" lon="2.71719">
      <ele>98.7</ele>
      <time>2014-09-28T10:54:04Z</time>
    </trkpt>
    <trkpt lat="48.45578" lon="2.716998">
      <ele>98.8</ele>
      <time>2014-09-28T10:54:06Z</time>
    </trkpt>
    <trkpt lat="48.45572" lon="2.716811">
      <ele>99.1</ele>
      <time>2014-09-28T10:54:09Z</time>
    </trkpt>
    <trkpt lat="48.455784" lon="2.716669">
      <ele>99.1</ele>
      <time>2014-09-28T10:54:12Z</time>
    </trkpt>
    <trkpt lat="48.45585" lon="2.716517">
      <ele>99.0</ele>
      <time>2014-09-28T10:54:15Z</time>
    </trkpt>
    <trkpt lat="48.455868" lon="2.71635">
      <ele>99.0</ele>
      <time>2014-09-28T10:54:18Z</time>
    </trkpt>
    <trkpt lat="48.455846" lon="2.71613">
      <ele>99.0</ele>
      <time>2014-09-28T10:54:21Z</time>
    </trkpt>
    <trkpt lat="48.455825" lon="2.715923">
      <ele>99.0</ele>
      <time>2014-09-28T10:54:24Z</time>
    </trkpt>
    <trkpt lat="48.455811" lon="2.715778">
      <ele>99.1</ele>
      <time>2014-09-28T10:54:26Z</time>
    </trkpt>
    <trkpt lat="48.455791" lon="2.715583">
      <ele>99.3</ele>
      <time>2014-09-28T10:54:29Z</time>
    </trkpt>
    <trkpt lat="48.455764" lon="2.715394">
      <ele>99.5</ele>
      <time>2014-09-28T10:54:31Z</time>
    </trkpt>
    <trkpt lat="48.455662" lon="2.715131">
      <ele>99.8</ele>
      <time>2014-09-28T10:54:34Z</time>
    </trkpt>
    <trkpt lat="48.455691" lon="2.714964">
      <ele>100.0</ele>
      <time>2014-09-28T10:54:37Z</time>
    </trkpt>
    <trkpt lat="48.455679" lon="2.714785">
      <ele>99.7</ele>
      <time>2014-09-28T10:54:39Z</time>
    </trkpt>
    <trkpt lat="48.455645" lon="2.71459">
      <ele>99.5</ele>
      <time>2014-09-28T10:54:41Z</time>
    </trkpt>
    <trkpt lat="48.455689" lon="2.714426">
      <ele>99.3</ele>
      <time>2014-09-28T10:54:44Z</time>
    </trkpt>
    <trkpt lat="48.4557" lon="2.714157">
      <ele>99.0</ele>
      <time>2014-09-28T10:54:48Z</time>
    </trkpt>
    <trkpt lat="48.455749" lon="2.713983">
      <ele>99.0</ele>
      <time>2014-09-28T10:54:52Z</time>
    </trkpt>
    <trkpt lat="48.455854" lon="2.713846">
      <ele>99.0</ele>
      <time>2014-09-28T10:54:55Z</time>
    </trkpt>
    <trkpt lat="48.45588" lon="2.713672">
      <ele>99.0</ele>
      <time>2014-09-28T10:54:57Z</time>
    </trkpt>
    <trkpt lat="48.455874" lon="2.713502">
      <ele>99.0</ele>
      <time>2014-09-28T10:54:59Z</time>
    </trkpt>
    <trkpt lat="48.455876" lon="2.713307">
      <ele>99.0</ele>
      <time>2014-09-28T10:55:02Z</time>
    </trkpt>
    <trkpt lat="48.455848" lon="2.713128">
      <ele>98.8</ele>
      <time>2014-09-28T10:55:05Z</time>
    </trkpt>
    <trkpt lat="48.455869" lon="2.712902">
      <ele>98.5</ele>
      <time>2014-09-28T10:55:08Z</time>
    </trkpt>
    <trkpt lat="48.45586" lon="2.712744">
      <ele>98.3</ele>
      <time>2014-09-28T10:55:10Z</time>
    </trkpt>
    <trkpt lat="48.455998" lon="2.712412">
      <ele>98.0</ele>
      <time>2014-09-28T10:55:15Z</time>
    </trkpt>
    <trkpt lat="48.456012" lon="2.712178">
      <ele>98.1</ele>
      <time>2014-09-28T10:55:18Z</time>
    </trkpt>
    <trkpt lat="48.45602" lon="2.71204">
      <ele>98.1</ele>
      <time>2014-09-28T10:55:21Z</time>
    </trkpt>
    <trkpt lat="48.456042" lon="2.711899">
      <ele>98.2</ele>
      <time>2014-09-28T10:55:23Z</time>
    </trkpt>
    <trkpt lat="48.456151" lon="2.711675">
      <ele>98.4</ele>
      <time>2014-09-28T10:55:26Z</time>
    </trkpt>
    <trkpt lat="48.456283" lon="2.711558">
      <ele>98.6</ele>
      <time>2014-09-28T10:55:28Z</time>
    </trkpt>
    <trkpt lat="48.456394" lon="2.711495">
      <ele>98.8</ele>
      <time>2014-09-28T10:55:29Z</time>
    </trkpt>
    <trkpt lat="48.456491" lon="2.71132">
      <ele>99.1</ele>
      <time>2014-09-28T10:55:32Z</time>
    </trkpt>
    <trkpt lat="48.456542" lon="2.711204">
      <ele>99.3</ele>
      <time>2014-09-28T10:55:34Z</time>
    </trkpt>
    <trkpt lat="48.456526" lon="2.711029">
      <ele>99.5</ele>
      <time>2014-09-28T10:55:36Z</time>
    </trkpt>
    <trkpt lat="48.456566" lon="2.710892">
      <ele>99.7</ele>
      <time>2014-09-28T10:55:38Z</time>
    </trkpt>
    <trkpt lat="48.456603" lon="2.710722">
      <ele>100.0</ele>
      <time>2014-09-28T10:55:41Z</time>
    </trkpt>
    <trkpt lat="48.456633" lon="2.71055">
      <ele>100.2</ele>
      <time>2014-09-28T10:55:44Z</time>
    </trkpt>
    <trkpt lat="48.456675" lon="2.71041">
      <ele>100.5</ele>
      <time>2014-09-28T10:55:46Z</time>
    </trkpt>
    <trkpt lat="48.456763" lon="2.710339">
      <ele>100.3</ele>
      <time>2014-09-28T10:55:48Z</time>
    </trkpt>
    <trkpt lat="48.456807" lon="2.710189">
      <ele>100.4</ele>
      <time>2014-09-28T10:55:50Z</time>
    </trkpt>
    <trkpt lat="48.45683" lon="2.709999">
      <ele>100.6</ele>
      <time>2014-09-28T10:55:53Z</time>
    </trkpt>
    <trkpt lat="48.45681" lon="2.709788">
      <ele>100.7</ele>
      <time>2014-09-28T10:55:56Z</time>
    </trkpt>
    <trkpt lat="48.456734" lon="2.709563">
      <ele>100.9</ele>
      <time>2014-09-28T10:55:58Z</time>
    </trkpt>
    <trkpt lat="48.456695" lon="2.709408">
      <ele>101.0</ele>
      <time>2014-09-28T10:56:00Z</time>
    </trkpt>
    <trkpt lat="48.456658" lon="2.709281">
      <ele>101.0</ele>
      <time>2014-09-28T10:56:02Z</time>
    </trkpt>
    <trkpt lat="48.456678" lon="2.709066">
      <ele>100.7</ele>
      <time>2014-09-28T10:56:05Z</time>
    </trkpt>
    <trkpt lat="48.456684" lon="2.708913">
      <ele>100.4</ele>
      <time>2014-09-28T10:56:07Z</time>
    </trkpt>
    <trkpt lat="48.456651" lon="2.708754">
      <ele>100.0</ele>
      <time>2014-09-28T10:56:09Z</time>
    </trkpt>
    <trkpt lat="48.456606" lon="2.708566">
      <ele>99.4</ele>
      <time>2014-09-28T10:56:11Z</time>
    </trkpt>
    <trkpt lat="48.456705" lon="2.70831">
      <ele>99.0</ele>
      <time>2014-09-28T10:56:16Z</time>
    </trkpt>
    <trkpt lat="48.456758" lon="2.708113">
      <ele>98.8</ele>
      <time>2014-09-28T10:56:19Z</time>
    </trkpt>
    <trkpt lat="48.456833" lon="2.707931">
      <ele>98.5</ele>
      <time>2014-09-28T10:56:21Z</time>
    </trkpt>
    <trkpt lat="48.456874" lon="2.707792">
      <ele>98.3</ele>
      <time>2014-09-28T10:56:23Z</time>
    </trkpt>
    <trkpt lat="48.456934" lon="2.707653">
      <ele>98.0</ele>
      <time>2014-09-28T10:56:25Z</time>
    </trkpt>
    <trkpt lat="48.456996" lon="2.707516">
      <ele>97.6</ele>
      <time>2014-09-28T10:56:27Z</time>
    </trkpt>
    <trkpt lat="48.457055" lon="2.707384">
      <ele>97.3</ele>
      <time>2014-09-28T10:56:29Z</time>
    </trkpt>
    <trkpt lat="48.457073" lon="2.707248">
      <ele>96.9</ele>
      <time>2014-09-28T10:56:31Z</time>
    </trkpt>
    <trkpt lat="48.457163" lon="2.707095">
      <ele>96.3</ele>
      <time>2014-09-28T10:56:34Z</time>
    </trkpt>
    <trkpt lat="48.457186" lon="2.706931">
      <ele>95.8</ele>
      <time>2014-09-28T10:56:37Z</time>
    </trkpt>
    <trkpt lat="48.457251" lon="2.706764">
      <ele>95.2</ele>
      <time>2014-09-28T10:56:41Z</time>
    </trkpt>
    <trkpt lat="48.457275" lon="2.706581">
      <ele>94.8</ele>
      <time>2014-09-28T10:56:44Z</time>
    </trkpt>
    <trkpt lat="48.457227" lon="2.706448">
      <ele>94.9</ele>
      <time>2014-09-28T10:56:45Z</time>
    </trkpt>
    <trkpt lat="48.457231" lon="2.706281">
      <ele>94.8</ele>
      <time>2014-09-28T10:56:47Z</time>
    </trkpt>
    <trkpt lat="48.457243" lon="2.706139">
      <ele>94.7</ele>
      <time>2014-09-28T10:56:49Z</time>
    </trkpt>
    <trkpt lat="48.457236" lon="2.705947">
      <ele>94.7</ele>
      <time>2014-09-28T10:56:52Z</time>
    </trkpt>
    <trkpt lat="48.457271" lon="2.705756">
      <ele>94.5</ele>
      <time>2014-09-28T10:56:55Z</time>
    </trkpt>
    <trkpt lat="48.457373" lon="2.705678">
      <ele>94.2</ele>
      <time>2014-09-28T10:56:57Z</time>
    </trkpt>
    <trkpt lat="48.457436" lon="2.705485">
      <ele>94.1</ele>
      <time>2014-09-28T10:57:01Z</time>
    </trkpt>
    <trkpt lat="48.457465" lon="2.705277">
      <ele>94.0</ele>
      <time>2014-09-28T10:57:04Z</time>
    </trkpt>
    <trkpt lat="48.457554" lon="2.705189">
      <ele>94.1</ele>
      <time>2014-09-28T10:57:06Z</time>
    </trkpt>
    <trkpt lat="48.457622" lon="2.705012">
      <ele>94.1</ele>
      <time>2014-09-28T10:57:09Z</time>
    </trkpt>
    <trkpt lat="48.457646" lon="2.704844">
      <ele>94.1</ele>
      <time>2014-09-28T10:57:11Z</time>
    </trkpt>
    <trkpt lat="48.457691" lon="2.704688">
      <ele>94.1</ele>
      <time>2014-09-28T10:57:14Z</time>
    </trkpt>
    <trkpt lat="48.457601" lon="2.704355">
      <ele>94.0</ele>
      <time>2014-09-28T10:57:18Z</time>
    </trkpt>
    <trkpt lat="48.457605" lon="2.704169">
      <ele>94.0</ele>
      <time>2014-09-28T10:57:21Z</time>
    </trkpt>
    <trkpt lat="48.457641" lon="2.704031">
      <ele>93.7</ele>
      <time>2014-09-28T10:57:23Z</time>
    </trkpt>
    <trkpt lat="48.457655" lon="2.70389">
      <ele>93.4</ele>
      <time>2014-09-28T10:57:25Z</time>
    </trkpt>
    <trkpt lat="48.457731" lon="2.70377">
      <ele>93.2</ele>
      <time>2014-09-28T10:57:28Z</time>
    </trkpt>
    <trkpt lat="48.457781" lon="2.703642">
      <ele>93.0</ele>
      <time>2014-09-28T10:57:31Z</time>
    </trkpt>
    <trkpt lat="48.457775" lon="2.703423">
      <ele>92.5</ele>
      <time>2014-09-28T10:57:34Z</time>
    </trkpt>
    <trkpt lat="48.457768" lon="2.703235">
      <ele>92.6</ele>
      <time>2014-09-28T10:57:37Z</time>
    </trkpt>
    <trkpt lat="48.457738" lon="2.703086">
      <ele>93.0</ele>
      <time>2014-09-28T10:57:39Z</time>
    </trkpt>
    <trkpt lat="48.457757" lon="2.702876">
      <ele>93.6</ele>
      <time>2014-09-28T10:57:43Z</time>
    </trkpt>
    <trkpt lat="48.457804" lon="2.702695">
      <ele>94.2</ele>
      <time>2014-09-28T10:57:48Z</time>
    </trkpt>
    <trkpt lat="48.45782" lon="2.702543">
      <ele>94.6</ele>
      <time>2014-09-28T10:57:50Z</time>
    </trkpt>
    <trkpt lat="48.457872" lon="2.702404">
      <ele>94.9</ele>
      <time>2014-09-28T10:57:52Z</time>
    </trkpt>
    <trkpt lat="48.457865" lon="2.702221">
      <ele>94.8</ele>
      <time>2014-09-28T10:57:55Z</time>
    </trkpt>
    <trkpt lat="48.457941" lon="2.702068">
      <ele>94.8</ele>
      <time>2014-09-28T10:58:00Z</time>
    </trkpt>
    <trkpt lat="48.457946" lon="2.701813">
      <ele>94.6</ele>
      <time>2014-09-28T10:58:04Z</time>
    </trkpt>
    <trkpt lat="48.458004" lon="2.701687">
      <ele>94.4</ele>
      <time>2014-09-28T10:58:08Z</time>
    </trkpt>
    <trkpt lat="48.458032" lon="2.701554">
      <ele>93.9</ele>
      <time>2014-09-28T10:58:11Z</time>
    </trkpt>
    <trkpt lat="48.45805" lon="2.701355">
      <ele>93.0</ele>
      <time>2014-09-28T10:58:14Z</time>
    </trkpt>
    <trkpt lat="48.45805" lon="2.7012">
      <ele>92.3</ele>
      <time>2014-09-28T10:58:16Z</time>
    </trkpt>
    <trkpt lat="48.457979" lon="2.700926">
      <ele>91.5</ele>
      <time>2014-09-28T10:58:20Z</time>
    </trkpt>
    <trkpt lat="48.45802" lon="2.700779">
      <ele>90.9</ele>
      <time>2014-09-28T10:58:23Z</time>
    </trkpt>
    <trkpt lat="48.458063" lon="2.700634">
      <ele>90.8</ele>
      <time>2014-09-28T10:58:25Z</time>
    </trkpt>
    <trkpt lat="48.458083" lon="2.700464">
      <ele>90.8</ele>
      <time>2014-09-28T10:58:28Z</time>
    </trkpt>
    <trkpt lat="48.458164" lon="2.700358">
      <ele>90.2</ele>
      <time>2014-09-28T10:58:31Z</time>
    </trkpt>
    <trkpt lat="48.458242" lon="2.700256">
      <ele>89.7</ele>
      <time>2014-09-28T10:58:34Z</time>
    </trkpt>
    <trkpt lat="48.458324" lon="2.700156">
      <ele>89.1</ele>
      <time>2014-09-28T10:58:38Z</time>
    </trkpt>
    <trkpt lat="48.458252" lon="2.70004">
      <ele>89.7</ele>
      <time>2014-09-28T10:58:53Z</time>
    </trkpt>
    <trkpt lat="48.458183" lon="2.699909">
      <ele>90.1</ele>
      <time>2014-09-28T10:58:56Z</time>
    </trkpt>
    <trkpt lat="48.458104" lon="2.69979">
      <ele>90.5</ele>
      <time>2014-09-28T10:59:00Z</time>
    </trkpt>
    <trkpt lat="48.458028" lon="2.699674">
      <ele>90.9</ele>
      <time>2014-09-28T10:59:03Z</time>
    </trkpt>
    <trkpt lat="48.457942" lon="2.699549">
      <ele>91.2</ele>
      <time>2014-09-28T10:59:06Z</time>
    </trkpt>
    <trkpt lat="48.457883" lon="2.69942">
      <ele>91.3</ele>
      <time>2014-09-28T10:59:11Z</time>
    </trkpt>
    <trkpt lat="48.457825" lon="2.69931">
      <ele>91.4</ele>
      <time>2014-09-28T10:59:14Z</time>
    </trkpt>
    <trkpt lat="48.457756" lon="2.699188">
      <ele>91.5</ele>
      <time>2014-09-28T10:59:18Z</time>
    </trkpt>
    <trkpt lat="48.457616" lon="2.698959">
      <ele>91.3</ele>
      <time>2014-09-28T10:59:24Z</time>
    </trkpt>
    <trkpt lat="48.457556" lon="2.698837">
      <ele>91.1</ele>
      <time>2014-09-28T10:59:27Z</time>
    </trkpt>
    <trkpt lat="48.457481" lon="2.698707">
      <ele>90.9</ele>
      <time>2014-09-28T10:59:31Z</time>
    </trkpt>
    <trkpt lat="48.457426" lon="2.698599">
      <ele>90.6</ele>
      <time>2014-09-28T10:59:34Z</time>
    </trkpt>
    <trkpt lat="48.457362" lon="2.698481">
      <ele>90.5</ele>
      <time>2014-09-28T10:59:37Z</time>
    </trkpt>
    <trkpt lat="48.457303" lon="2.698362">
      <ele>90.5</ele>
      <time>2014-09-28T10:59:40Z</time>
    </trkpt>
    <trkpt lat="48.457242" lon="2.698252">
      <ele>90.5</ele>
      <time>2014-09-28T10:59:43Z</time>
    </trkpt>
    <trkpt lat="48.457175" lon="2.69812">
      <ele>90.3</ele>
      <time>2014-09-28T10:59:47Z</time>
    </trkpt>
    <trkpt lat="48.457255" lon="2.698203">
      <ele>90.1</ele>
      <time>2014-09-28T11:00:23Z</time>
    </trkpt>
    <trkpt lat="48.457392" lon="2.69846">
      <ele>90.3</ele>
      <time>2014-09-28T11:00:30Z</time>
    </trkpt>
    <trkpt lat="48.457473" lon="2.698582">
      <ele>90.3</ele>
      <time>2014-09-28T11:00:33Z</time>
    </trkpt>
    <trkpt lat="48.457545" lon="2.698702">
      <ele>90.5</ele>
      <time>2014-09-28T11:00:36Z</time>
    </trkpt>
    <trkpt lat="48.457623" lon="2.698853">
      <ele>90.8</ele>
      <time>2014-09-28T11:00:40Z</time>
    </trkpt>
    <trkpt lat="48.45769" lon="2.698976">
      <ele>91.0</ele>
      <time>2014-09-28T11:00:43Z</time>
    </trkpt>
    <trkpt lat="48.457783" lon="2.6991">
      <ele>91.0</ele>
      <time>2014-09-28T11:00:46Z</time>
    </trkpt>
    <trkpt lat="48.457857" lon="2.699221">
      <ele>91.0</ele>
      <time>2014-09-28T11:00:49Z</time>
    </trkpt>
    <trkpt lat="48.457933" lon="2.699348">
      <ele>90.8</ele>
      <time>2014-09-28T11:00:52Z</time>
    </trkpt>
    <trkpt lat="48.457991" lon="2.69948">
      <ele>90.7</ele>
      <time>2014-09-28T11:00:55Z</time>
    </trkpt>
    <trkpt lat="48.458063" lon="2.699604">
      <ele>90.5</ele>
      <time>2014-09-28T11:00:58Z</time>
    </trkpt>
    <trkpt lat="48.458148" lon="2.699734">
      <ele>90.1</ele>
      <time>2014-09-28T11:01:01Z</time>
    </trkpt>
    <trkpt lat="48.458217" lon="2.699842">
      <ele>89.7</ele>
      <time>2014-09-28T11:01:04Z</time>
    </trkpt>
    <trkpt lat="48.458312" lon="2.69979">
      <ele>88.9</ele>
      <time>2014-09-28T11:01:08Z</time>
    </trkpt>
    <trkpt lat="48.458312" lon="2.699609">
      <ele>88.7</ele>
      <time>2014-09-28T11:01:12Z</time>
    </trkpt>
    <trkpt lat="48.458351" lon="2.699469">
      <ele>88.4</ele>
      <time>2014-09-28T11:01:15Z</time>
    </trkpt>
    <trkpt lat="48.458357" lon="2.699317">
      <ele>88.2</ele>
      <time>2014-09-28T11:01:18Z</time>
    </trkpt>
    <trkpt lat="48.4584" lon="2.699193">
      <ele>88.0</ele>
      <time>2014-09-28T11:01:20Z</time>
    </trkpt>
    <trkpt lat="48.458461" lon="2.699029">
      <ele>87.6</ele>
      <time>2014-09-28T11:01:23Z</time>
    </trkpt>
    <trkpt lat="48.458516" lon="2.698858">
      <ele>87.1</ele>
      <time>2014-09-28T11:01:26Z</time>
    </trkpt>
    <trkpt lat="48.458625" lon="2.698566">
      <ele>86.3</ele>
      <time>2014-09-28T11:01:31Z</time>
    </trkpt>
    <trkpt lat="48.458649" lon="2.698433">
      <ele>86.0</ele>
      <time>2014-09-28T11:01:33Z</time>
    </trkpt>
    <trkpt lat="48.458563" lon="2.698297">
      <ele>85.5</ele>
      <time>2014-09-28T11:01:34Z</time>
    </trkpt>
    <trkpt lat="48.458588" lon="2.698148">
      <ele>85.3</ele>
      <time>2014-09-28T11:01:36Z</time>
    </trkpt>
    <trkpt lat="48.458629" lon="2.698013">
      <ele>85.1</ele>
      <time>2014-09-28T11:01:38Z</time>
    </trkpt>
    <trkpt lat="48.458735" lon="2.697907">
      <ele>85.0</ele>
      <time>2014-09-28T11:01:41Z</time>
    </trkpt>
    <trkpt lat="48.458799" lon="2.697798">
      <ele>84.8</ele>
      <time>2014-09-28T11:01:43Z</time>
    </trkpt>
    <trkpt lat="48.45882" lon="2.697615">
      <ele>84.3</ele>
      <time>2014-09-28T11:01:45Z</time>
    </trkpt>
    <trkpt lat="48.458854" lon="2.697446">
      <ele>84.1</ele>
      <time>2014-09-28T11:01:47Z</time>
    </trkpt>
    <trkpt lat="48.458927" lon="2.697327">
      <ele>84.2</ele>
      <time>2014-09-28T11:01:49Z</time>
    </trkpt>
    <trkpt lat="48.459007" lon="2.697204">
      <ele>84.3</ele>
      <time>2014-09-28T11:01:51Z</time>
    </trkpt>
    <trkpt lat="48.459113" lon="2.69715">
      <ele>84.1</ele>
      <time>2014-09-28T11:01:53Z</time>
    </trkpt>
    <trkpt lat="48.459095" lon="2.696941">
      <ele>84.2</ele>
      <time>2014-09-28T11:01:55Z</time>
    </trkpt>
    <trkpt lat="48.45913" lon="2.696789">
      <ele>84.2</ele>
      <time>2014-09-28T11:01:57Z</time>
    </trkpt>
    <trkpt lat="48.459173" lon="2.696577">
      <ele>84.5</ele>
      <time>2014-09-28T11:01:59Z</time>
    </trkpt>
    <trkpt lat="48.459183" lon="2.696426">
      <ele>85.2</ele>
      <time>2014-09-28T11:02:02Z</time>
    </trkpt>
    <trkpt lat="48.459226" lon="2.696296">
      <ele>85.9</ele>
      <time>2014-09-28T11:02:04Z</time>
    </trkpt>
    <trkpt lat="48.459255" lon="2.696164">
      <ele>86.5</ele>
      <time>2014-09-28T11:02:06Z</time>
    </trkpt>
    <trkpt lat="48.459277" lon="2.696026">
      <ele>87.2</ele>
      <time>2014-09-28T11:02:08Z</time>
    </trkpt>
    <trkpt lat="48.459289" lon="2.69585">
      <ele>87.9</ele>
      <time>2014-09-28T11:02:11Z</time>
    </trkpt>
    <trkpt lat="48.459268" lon="2.69564">
      <ele>88.5</ele>
      <time>2014-09-28T11:02:14Z</time>
    </trkpt>
    <trkpt lat="48.459269" lon="2.695471">
      <ele>88.9</ele>
      <time>2014-09-28T11:02:16Z</time>
    </trkpt>
    <trkpt lat="48.459317" lon="2.695306">
      <ele>89.3</ele>
      <time>2014-09-28T11:02:19Z</time>
    </trkpt>
    <trkpt lat="48.459227" lon="2.69501">
      <ele>90.0</ele>
      <time>2014-09-28T11:02:22Z</time>
    </trkpt>
    <trkpt lat="48.459189" lon="2.694843">
      <ele>89.4</ele>
      <time>2014-09-28T11:02:24Z</time>
    </trkpt>
    <trkpt lat="48.459211" lon="2.694662">
      <ele>88.8</ele>
      <time>2014-09-28T11:02:26Z</time>
    </trkpt>
    <trkpt lat="48.459254" lon="2.694528">
      <ele>88.4</ele>
      <time>2014-09-28T11:02:28Z</time>
    </trkpt>
    <trkpt lat="48.459392" lon="2.694229">
      <ele>87.5</ele>
      <time>2014-09-28T11:02:32Z</time>
    </trkpt>
    <trkpt lat="48.459401" lon="2.694079">
      <ele>87.3</ele>
      <time>2014-09-28T11:02:35Z</time>
    </trkpt>
    <trkpt lat="48.459412" lon="2.693865">
      <ele>87.2</ele>
      <time>2014-09-28T11:02:39Z</time>
    </trkpt>
    <trkpt lat="48.459522" lon="2.693834">
      <ele>87.1</ele>
      <time>2014-09-28T11:02:40Z</time>
    </trkpt>
    <trkpt lat="48.459509" lon="2.693687">
      <ele>87.0</ele>
      <time>2014-09-28T11:02:42Z</time>
    </trkpt>
    <trkpt lat="48.459586" lon="2.693431">
      <ele>86.6</ele>
      <time>2014-09-28T11:02:46Z</time>
    </trkpt>
    <trkpt lat="48.45959" lon="2.693262">
      <ele>86.6</ele>
      <time>2014-09-28T11:02:48Z</time>
    </trkpt>
    <trkpt lat="48.459594" lon="2.693091">
      <ele>86.7</ele>
      <time>2014-09-28T11:02:50Z</time>
    </trkpt>
    <trkpt lat="48.459526" lon="2.69292">
      <ele>87.3</ele>
      <time>2014-09-28T11:02:52Z</time>
    </trkpt>
    <trkpt lat="48.45952" lon="2.692755">
      <ele>87.6</ele>
      <time>2014-09-28T11:02:54Z</time>
    </trkpt>
    <trkpt lat="48.459501" lon="2.692604">
      <ele>88.0</ele>
      <time>2014-09-28T11:02:56Z</time>
    </trkpt>
    <trkpt lat="48.459453" lon="2.692399">
      <ele>88.9</ele>
      <time>2014-09-28T11:02:58Z</time>
    </trkpt>
    <trkpt lat="48.459407" lon="2.6922">
      <ele>89.9</ele>
      <time>2014-09-28T11:03:01Z</time>
    </trkpt>
    <trkpt lat="48.459389" lon="2.692042">
      <ele>90.5</ele>
      <time>2014-09-28T11:03:03Z</time>
    </trkpt>
    <trkpt lat="48.459478" lon="2.691913">
      <ele>90.0</ele>
      <time>2014-09-28T11:03:06Z</time>
    </trkpt>
    <trkpt lat="48.459494" lon="2.691716">
      <ele>90.3</ele>
      <time>2014-09-28T11:03:09Z</time>
    </trkpt>
    <trkpt lat="48.459524" lon="2.691584">
      <ele>90.3</ele>
      <time>2014-09-28T11:03:11Z</time>
    </trkpt>
    <trkpt lat="48.459569" lon="2.691392">
      <ele>90.3</ele>
      <time>2014-09-28T11:03:14Z</time>
    </trkpt>
    <trkpt lat="48.459587" lon="2.691236">
      <ele>90.5</ele>
      <time>2014-09-28T11:03:16Z</time>
    </trkpt>
    <trkpt lat="48.459627" lon="2.691062">
      <ele>90.6</ele>
      <time>2014-09-28T11:03:18Z</time>
    </trkpt>
    <trkpt lat="48.459671" lon="2.69091">
      <ele>90.8</ele>
      <time>2014-09-28T11:03:20Z</time>
    </trkpt>
    <trkpt lat="48.459693" lon="2.690762">
      <ele>90.8</ele>
      <time>2014-09-28T11:03:22Z</time>
    </trkpt>
    <trkpt lat="48.459783" lon="2.690614">
      <ele>90.4</ele>
      <time>2014-09-28T11:03:25Z</time>
    </trkpt>
    <trkpt lat="48.459841" lon="2.69049">
      <ele>90.1</ele>
      <time>2014-09-28T11:03:27Z</time>
    </trkpt>
    <trkpt lat="48.459959" lon="2.690373">
      <ele>89.7</ele>
      <time>2014-09-28T11:03:30Z</time>
    </trkpt>
    <trkpt lat="48.460105" lon="2.690088">
      <ele>90.1</ele>
      <time>2014-09-28T11:03:36Z</time>
    </trkpt>
    <trkpt lat="48.460118" lon="2.689807">
      <ele>90.9</ele>
      <time>2014-09-28T11:03:40Z</time>
    </trkpt>
    <trkpt lat="48.460177" lon="2.689681">
      <ele>91.5</ele>
      <time>2014-09-28T11:03:45Z</time>
    </trkpt>
    <trkpt lat="48.460207" lon="2.689514">
      <ele>92.1</ele>
      <time>2014-09-28T11:03:47Z</time>
    </trkpt>
    <trkpt lat="48.460289" lon="2.68933">
      <ele>92.8</ele>
      <time>2014-09-28T11:03:50Z</time>
    </trkpt>
    <trkpt lat="48.460336" lon="2.689155">
      <ele>93.4</ele>
      <time>2014-09-28T11:03:53Z</time>
    </trkpt>
    <trkpt lat="48.460333" lon="2.688971">
      <ele>93.7</ele>
      <time>2014-09-28T11:03:55Z</time>
    </trkpt>
    <trkpt lat="48.460336" lon="2.688826">
      <ele>94.0</ele>
      <time>2014-09-28T11:03:57Z</time>
    </trkpt>
    <trkpt lat="48.460344" lon="2.688689">
      <ele>94.2</ele>
      <time>2014-09-28T11:03:59Z</time>
    </trkpt>
    <trkpt lat="48.460389" lon="2.688459">
      <ele>94.7</ele>
      <time>2014-09-28T11:04:03Z</time>
    </trkpt>
    <trkpt lat="48.460505" lon="2.688375">
      <ele>95.1</ele>
      <time>2014-09-28T11:04:06Z</time>
    </trkpt>
    <trkpt lat="48.460634" lon="2.688358">
      <ele>95.5</ele>
      <time>2014-09-28T11:04:08Z</time>
    </trkpt>
    <trkpt lat="48.460723" lon="2.688313">
      <ele>95.7</ele>
      <time>2014-09-28T11:04:10Z</time>
    </trkpt>
    <trkpt lat="48.460729" lon="2.688175">
      <ele>95.4</ele>
      <time>2014-09-28T11:04:12Z</time>
    </trkpt>
    <trkpt lat="48.460725" lon="2.688034">
      <ele>95.1</ele>
      <time>2014-09-28T11:04:14Z</time>
    </trkpt>
    <trkpt lat="48.460719" lon="2.687814">
      <ele>94.6</ele>
      <time>2014-09-28T11:04:17Z</time>
    </trkpt>
    <trkpt lat="48.460748" lon="2.687685">
      <ele>94.3</ele>
      <time>2014-09-28T11:04:19Z</time>
    </trkpt>
    <trkpt lat="48.460778" lon="2.687556">
      <ele>94.1</ele>
      <time>2014-09-28T11:04:21Z</time>
    </trkpt>
    <trkpt lat="48.460677" lon="2.687417">
      <ele>93.6</ele>
      <time>2014-09-28T11:04:22Z</time>
    </trkpt>
    <trkpt lat="48.460644" lon="2.687201">
      <ele>93.1</ele>
      <time>2014-09-28T11:04:24Z</time>
    </trkpt>
    <trkpt lat="48.460687" lon="2.687002">
      <ele>92.6</ele>
      <time>2014-09-28T11:04:27Z</time>
    </trkpt>
    <trkpt lat="48.460792" lon="2.686867">
      <ele>92.4</ele>
      <time>2014-09-28T11:04:30Z</time>
    </trkpt>
    <trkpt lat="48.460878" lon="2.68675">
      <ele>92.2</ele>
      <time>2014-09-28T11:04:33Z</time>
    </trkpt>
    <trkpt lat="48.460843" lon="2.686365">
      <ele>91.6</ele>
      <time>2014-09-28T11:04:38Z</time>
    </trkpt>
    <trkpt lat="48.460836" lon="2.686225">
      <ele>91.5</ele>
      <time>2014-09-28T11:04:40Z</time>
    </trkpt>
    <trkpt lat="48.460819" lon="2.686066">
      <ele>91.3</ele>
      <time>2014-09-28T11:04:42Z</time>
    </trkpt>
    <trkpt lat="48.460823" lon="2.685903">
      <ele>91.1</ele>
      <time>2014-09-28T11:04:44Z</time>
    </trkpt>
    <trkpt lat="48.460843" lon="2.68576">
      <ele>91.0</ele>
      <time>2014-09-28T11:04:46Z</time>
    </trkpt>
    <trkpt lat="48.460866" lon="2.685628">
      <ele>91.0</ele>
      <time>2014-09-28T11:04:48Z</time>
    </trkpt>
    <trkpt lat="48.460889" lon="2.685489">
      <ele>91.0</ele>
      <time>2014-09-28T11:04:50Z</time>
    </trkpt>
    <trkpt lat="48.460911" lon="2.685294">
      <ele>91.1</ele>
      <time>2014-09-28T11:04:53Z</time>
    </trkpt>
    <trkpt lat="48.460958" lon="2.685047">
      <ele>91.3</ele>
      <time>2014-09-28T11:04:57Z</time>
    </trkpt>
    <trkpt lat="48.460974" lon="2.684894">
      <ele>91.5</ele>
      <time>2014-09-28T11:04:59Z</time>
    </trkpt>
    <trkpt lat="48.461057" lon="2.68464">
      <ele>92.0</ele>
      <time>2014-09-28T11:05:03Z</time>
    </trkpt>
    <trkpt lat="48.461096" lon="2.684475">
      <ele>92.3</ele>
      <time>2014-09-28T11:05:06Z</time>
    </trkpt>
    <trkpt lat="48.461119" lon="2.684258">
      <ele>92.6</ele>
      <time>2014-09-28T11:05:10Z</time>
    </trkpt>
    <trkpt lat="48.461069" lon="2.68408">
      <ele>92.5</ele>
      <time>2014-09-28T11:05:13Z</time>
    </trkpt>
    <trkpt lat="48.461019" lon="2.68394">
      <ele>92.3</ele>
      <time>2014-09-28T11:05:15Z</time>
    </trkpt>
    <trkpt lat="48.460972" lon="2.683788">
      <ele>92.0</ele>
      <time>2014-09-28T11:05:18Z</time>
    </trkpt>
    <trkpt lat="48.460897" lon="2.68362">
      <ele>91.6</ele>
      <time>2014-09-28T11:05:21Z</time>
    </trkpt>
    <trkpt lat="48.460816" lon="2.6835">
      <ele>91.2</ele>
      <time>2014-09-28T11:05:23Z</time>
    </trkpt>
    <trkpt lat="48.460731" lon="2.68336">
      <ele>91.0</ele>
      <time>2014-09-28T11:05:25Z</time>
    </trkpt>
    <trkpt lat="48.46067" lon="2.683171">
      <ele>91.2</ele>
      <time>2014-09-28T11:05:28Z</time>
    </trkpt>
    <trkpt lat="48.46061" lon="2.683056">
      <ele>91.4</ele>
      <time>2014-09-28T11:05:30Z</time>
    </trkpt>
    <trkpt lat="48.460564" lon="2.682897">
      <ele>91.8</ele>
      <time>2014-09-28T11:05:34Z</time>
    </trkpt>
    <trkpt lat="48.460519" lon="2.682629">
      <ele>92.6</ele>
      <time>2014-09-28T11:05:40Z</time>
    </trkpt>
    <trkpt lat="48.460487" lon="2.68247">
      <ele>93.1</ele>
      <time>2014-09-28T11:05:43Z</time>
    </trkpt>
    <trkpt lat="48.460486" lon="2.682287">
      <ele>93.3</ele>
      <time>2014-09-28T11:05:46Z</time>
    </trkpt>
    <trkpt lat="48.460531" lon="2.682153">
      <ele>93.0</ele>
      <time>2014-09-28T11:05:48Z</time>
    </trkpt>
    <trkpt lat="48.460562" lon="2.682017">
      <ele>92.8</ele>
      <time>2014-09-28T11:05:50Z</time>
    </trkpt>
    <trkpt lat="48.460591" lon="2.681872">
      <ele>92.6</ele>
      <time>2014-09-28T11:05:52Z</time>
    </trkpt>
    <trkpt lat="48.460642" lon="2.681685">
      <ele>92.1</ele>
      <time>2014-09-28T11:05:55Z</time>
    </trkpt>
    <trkpt lat="48.460685" lon="2.681551">
      <ele>91.8</ele>
      <time>2014-09-28T11:05:57Z</time>
    </trkpt>
    <trkpt lat="48.460762" lon="2.681409">
      <ele>91.1</ele>
      <time>2014-09-28T11:05:59Z</time>
    </trkpt>
    <trkpt lat="48.460801" lon="2.681227">
      <ele>90.9</ele>
      <time>2014-09-28T11:06:02Z</time>
    </trkpt>
    <trkpt lat="48.460865" lon="2.681097">
      <ele>90.6</ele>
      <time>2014-09-28T11:06:04Z</time>
    </trkpt>
    <trkpt lat="48.46093" lon="2.680963">
      <ele>90.5</ele>
      <time>2014-09-28T11:06:06Z</time>
    </trkpt>
    <trkpt lat="48.460998" lon="2.680824">
      <ele>90.2</ele>
      <time>2014-09-28T11:06:08Z</time>
    </trkpt>
    <trkpt lat="48.461052" lon="2.68069">
      <ele>89.7</ele>
      <time>2014-09-28T11:06:10Z</time>
    </trkpt>
    <trkpt lat="48.461111" lon="2.680561">
      <ele>89.1</ele>
      <time>2014-09-28T11:06:12Z</time>
    </trkpt>
    <trkpt lat="48.461183" lon="2.680443">
      <ele>88.6</ele>
      <time>2014-09-28T11:06:14Z</time>
    </trkpt>
    <trkpt lat="48.461247" lon="2.680319">
      <ele>88.1</ele>
      <time>2014-09-28T11:06:16Z</time>
    </trkpt>
    <trkpt lat="48.461304" lon="2.680207">
      <ele>87.7</ele>
      <time>2014-09-28T11:06:18Z</time>
    </trkpt>
    <trkpt lat="48.461372" lon="2.680091">
      <ele>87.2</ele>
      <time>2014-09-28T11:06:20Z</time>
    </trkpt>
    <trkpt lat="48.461429" lon="2.679968">
      <ele>86.9</ele>
      <time>2014-09-28T11:06:22Z</time>
    </trkpt>
    <trkpt lat="48.461484" lon="2.679835">
      <ele>86.9</ele>
      <time>2014-09-28T11:06:24Z</time>
    </trkpt>
    <trkpt lat="48.46154" lon="2.679719">
      <ele>86.8</ele>
      <time>2014-09-28T11:06:26Z</time>
    </trkpt>
    <trkpt lat="48.461606" lon="2.679604">
      <ele>86.7</ele>
      <time>2014-09-28T11:06:28Z</time>
    </trkpt>
    <trkpt lat="48.461694" lon="2.679437">
      <ele>86.7</ele>
      <time>2014-09-28T11:06:30Z</time>
    </trkpt>
    <trkpt lat="48.461789" lon="2.679269">
      <ele>86.7</ele>
      <time>2014-09-28T11:06:34Z</time>
    </trkpt>
    <trkpt lat="48.461971" lon="2.678997">
      <ele>87.0</ele>
      <time>2014-09-28T11:06:38Z</time>
    </trkpt>
    <trkpt lat="48.462046" lon="2.678863">
      <ele>87.1</ele>
      <time>2014-09-28T11:06:40Z</time>
    </trkpt>
    <trkpt lat="48.462131" lon="2.678745">
      <ele>87.1</ele>
      <time>2014-09-28T11:06:42Z</time>
    </trkpt>
    <trkpt lat="48.462206" lon="2.678636">
      <ele>87.0</ele>
      <time>2014-09-28T11:06:44Z</time>
    </trkpt>
    <trkpt lat="48.462277" lon="2.678519">
      <ele>86.9</ele>
      <time>2014-09-28T11:06:46Z</time>
    </trkpt>
    <trkpt lat="48.462405" lon="2.678383">
      <ele>86.4</ele>
      <time>2014-09-28T11:06:48Z</time>
    </trkpt>
    <trkpt lat="48.462477" lon="2.678257">
      <ele>86.2</ele>
      <time>2014-09-28T11:06:50Z</time>
    </trkpt>
    <trkpt lat="48.462544" lon="2.678144">
      <ele>86.3</ele>
      <time>2014-09-28T11:06:52Z</time>
    </trkpt>
    <trkpt lat="48.462649" lon="2.678026">
      <ele>86.6</ele>
      <time>2014-09-28T11:06:54Z</time>
    </trkpt>
    <trkpt lat="48.462736" lon="2.677914">
      <ele>86.9</ele>
      <time>2014-09-28T11:06:56Z</time>
    </trkpt>
    <trkpt lat="48.462832" lon="2.677811">
      <ele>87.3</ele>
      <time>2014-09-28T11:06:58Z</time>
    </trkpt>
    <trkpt lat="48.462911" lon="2.677717">
      <ele>87.6</ele>
      <time>2014-09-28T11:07:00Z</time>
    </trkpt>
    <trkpt lat="48.462962" lon="2.677562">
      <ele>88.0</ele>
      <time>2014-09-28T11:07:02Z</time>
    </trkpt>
    <trkpt lat="48.463056" lon="2.677424">
      <ele>88.3</ele>
      <time>2014-09-28T11:07:05Z</time>
    </trkpt>
    <trkpt lat="48.463126" lon="2.677309">
      <ele>88.4</ele>
      <time>2014-09-28T11:07:07Z</time>
    </trkpt>
    <trkpt lat="48.463201" lon="2.677187">
      <ele>88.5</ele>
      <time>2014-09-28T11:07:09Z</time>
    </trkpt>
    <trkpt lat="48.46327" lon="2.677051">
      <ele>88.4</ele>
      <time>2014-09-28T11:07:11Z</time>
    </trkpt>
    <trkpt lat="48.463359" lon="2.67693">
      <ele>88.4</ele>
      <time>2014-09-28T11:07:13Z</time>
    </trkpt>
    <trkpt lat="48.4634" lon="2.676785">
      <ele>88.4</ele>
      <time>2014-09-28T11:07:15Z</time>
    </trkpt>
    <trkpt lat="48.463453" lon="2.676666">
      <ele>88.6</ele>
      <time>2014-09-28T11:07:17Z</time>
    </trkpt>
    <trkpt lat="48.463549" lon="2.676549">
      <ele>89.1</ele>
      <time>2014-09-28T11:07:19Z</time>
    </trkpt>
    <trkpt lat="48.463616" lon="2.676421">
      <ele>89.6</ele>
      <time>2014-09-28T11:07:21Z</time>
    </trkpt>
    <trkpt lat="48.463655" lon="2.676292">
      <ele>89.9</ele>
      <time>2014-09-28T11:07:23Z</time>
    </trkpt>
    <trkpt lat="48.463696" lon="2.676117">
      <ele>90.3</ele>
      <time>2014-09-28T11:07:26Z</time>
    </trkpt>
    <trkpt lat="48.463752" lon="2.675987">
      <ele>90.8</ele>
      <time>2014-09-28T11:07:28Z</time>
    </trkpt>
    <trkpt lat="48.463821" lon="2.675865">
      <ele>91.5</ele>
      <time>2014-09-28T11:07:30Z</time>
    </trkpt>
    <trkpt lat="48.46389" lon="2.675748">
      <ele>92.2</ele>
      <time>2014-09-28T11:07:32Z</time>
    </trkpt>
    <trkpt lat="48.463958" lon="2.675622">
      <ele>93.0</ele>
      <time>2014-09-28T11:07:34Z</time>
    </trkpt>
    <trkpt lat="48.464019" lon="2.675507">
      <ele>93.7</ele>
      <time>2014-09-28T11:07:36Z</time>
    </trkpt>
    <trkpt lat="48.464165" lon="2.675286">
      <ele>95.3</ele>
      <time>2014-09-28T11:07:41Z</time>
    </trkpt>
    <trkpt lat="48.464241" lon="2.675204">
      <ele>95.1</ele>
      <time>2014-09-28T11:07:43Z</time>
    </trkpt>
    <trkpt lat="48.464308" lon="2.675101">
      <ele>95.0</ele>
      <time>2014-09-28T11:07:45Z</time>
    </trkpt>
    <trkpt lat="48.464362" lon="2.674989">
      <ele>94.8</ele>
      <time>2014-09-28T11:07:47Z</time>
    </trkpt>
    <trkpt lat="48.464408" lon="2.674853">
      <ele>93.9</ele>
      <time>2014-09-28T11:07:50Z</time>
    </trkpt>
    <trkpt lat="48.464486" lon="2.67471">
      <ele>92.8</ele>
      <time>2014-09-28T11:07:53Z</time>
    </trkpt>
    <trkpt lat="48.464581" lon="2.674586">
      <ele>91.8</ele>
      <time>2014-09-28T11:07:55Z</time>
    </trkpt>
    <trkpt lat="48.464649" lon="2.674487">
      <ele>91.0</ele>
      <time>2014-09-28T11:07:57Z</time>
    </trkpt>
    <trkpt lat="48.464721" lon="2.674392">
      <ele>90.2</ele>
      <time>2014-09-28T11:07:59Z</time>
    </trkpt>
    <trkpt lat="48.464777" lon="2.674282">
      <ele>89.5</ele>
      <time>2014-09-28T11:08:01Z</time>
    </trkpt>
    <trkpt lat="48.464837" lon="2.674169">
      <ele>88.8</ele>
      <time>2014-09-28T11:08:03Z</time>
    </trkpt>
    <trkpt lat="48.464914" lon="2.674063">
      <ele>88.3</ele>
      <time>2014-09-28T11:08:05Z</time>
    </trkpt>
    <trkpt lat="48.464982" lon="2.673899">
      <ele>87.8</ele>
      <time>2014-09-28T11:08:08Z</time>
    </trkpt>
    <trkpt lat="48.465033" lon="2.673783">
      <ele>87.4</ele>
      <time>2014-09-28T11:08:10Z</time>
    </trkpt>
    <trkpt lat="48.465101" lon="2.673672">
      <ele>87.1</ele>
      <time>2014-09-28T11:08:12Z</time>
    </trkpt>
    <trkpt lat="48.465173" lon="2.673565">
      <ele>86.7</ele>
      <time>2014-09-28T11:08:14Z</time>
    </trkpt>
    <trkpt lat="48.465223" lon="2.673451">
      <ele>86.5</ele>
      <time>2014-09-28T11:08:16Z</time>
    </trkpt>
    <trkpt lat="48.465272" lon="2.673289">
      <ele>86.5</ele>
      <time>2014-09-28T11:08:19Z</time>
    </trkpt>
    <trkpt lat="48.46534" lon="2.67319">
      <ele>86.6</ele>
      <time>2014-09-28T11:08:21Z</time>
    </trkpt>
    <trkpt lat="48.465392" lon="2.673075">
      <ele>86.8</ele>
      <time>2014-09-28T11:08:23Z</time>
    </trkpt>
    <trkpt lat="48.465447" lon="2.67295">
      <ele>87.1</ele>
      <time>2014-09-28T11:08:25Z</time>
    </trkpt>
    <trkpt lat="48.465517" lon="2.672852">
      <ele>87.3</ele>
      <time>2014-09-28T11:08:27Z</time>
    </trkpt>
    <trkpt lat="48.465554" lon="2.672717">
      <ele>87.6</ele>
      <time>2014-09-28T11:08:30Z</time>
    </trkpt>
    <trkpt lat="48.465616" lon="2.672578">
      <ele>88.0</ele>
      <time>2014-09-28T11:08:34Z</time>
    </trkpt>
    <trkpt lat="48.465662" lon="2.672444">
      <ele>88.4</ele>
      <time>2014-09-28T11:08:37Z</time>
    </trkpt>
    <trkpt lat="48.465704" lon="2.67213">
      <ele>89.1</ele>
      <time>2014-09-28T11:08:45Z</time>
    </trkpt>
    <trkpt lat="48.465774" lon="2.672031">
      <ele>89.2</ele>
      <time>2014-09-28T11:08:47Z</time>
    </trkpt>
    <trkpt lat="48.465852" lon="2.671916">
      <ele>89.3</ele>
      <time>2014-09-28T11:08:50Z</time>
    </trkpt>
    <trkpt lat="48.465924" lon="2.671784">
      <ele>89.2</ele>
      <time>2014-09-28T11:08:53Z</time>
    </trkpt>
    <trkpt lat="48.46601" lon="2.671706">
      <ele>88.9</ele>
      <time>2014-09-28T11:08:56Z</time>
    </trkpt>
    <trkpt lat="48.466093" lon="2.671596">
      <ele>88.5</ele>
      <time>2014-09-28T11:08:58Z</time>
    </trkpt>
    <trkpt lat="48.466164" lon="2.671489">
      <ele>88.1</ele>
      <time>2014-09-28T11:09:00Z</time>
    </trkpt>
    <trkpt lat="48.466239" lon="2.671371">
      <ele>87.7</ele>
      <time>2014-09-28T11:09:02Z</time>
    </trkpt>
    <trkpt lat="48.466302" lon="2.671253">
      <ele>87.4</ele>
      <time>2014-09-28T11:09:04Z</time>
    </trkpt>
    <trkpt lat="48.466372" lon="2.671138">
      <ele>87.0</ele>
      <time>2014-09-28T11:09:06Z</time>
    </trkpt>
    <trkpt lat="48.466435" lon="2.671022">
      <ele>86.6</ele>
      <time>2014-09-28T11:09:08Z</time>
    </trkpt>
    <trkpt lat="48.466496" lon="2.670918">
      <ele>86.2</ele>
      <time>2014-09-28T11:09:10Z</time>
    </trkpt>
    <trkpt lat="48.466554" lon="2.670814">
      <ele>85.8</ele>
      <time>2014-09-28T11:09:12Z</time>
    </trkpt>
    <trkpt lat="48.466613" lon="2.67071">
      <ele>85.3</ele>
      <time>2014-09-28T11:09:14Z</time>
    </trkpt>
    <trkpt lat="48.466696" lon="2.670556">
      <ele>84.8</ele>
      <time>2014-09-28T11:09:17Z</time>
    </trkpt>
    <trkpt lat="48.466783" lon="2.670411">
      <ele>84.9</ele>
      <time>2014-09-28T11:09:20Z</time>
    </trkpt>
    <trkpt lat="48.466842" lon="2.670271">
      <ele>85.0</ele>
      <time>2014-09-28T11:09:23Z</time>
    </trkpt>
    <trkpt lat="48.466912" lon="2.670154">
      <ele>85.1</ele>
      <time>2014-09-28T11:09:26Z</time>
    </trkpt>
    <trkpt lat="48.467005" lon="2.670011">
      <ele>85.2</ele>
      <time>2014-09-28T11:09:29Z</time>
    </trkpt>
    <trkpt lat="48.46708" lon="2.669889">
      <ele>85.7</ele>
      <time>2014-09-28T11:09:32Z</time>
    </trkpt>
    <trkpt lat="48.467145" lon="2.669748">
      <ele>86.1</ele>
      <time>2014-09-28T11:09:36Z</time>
    </trkpt>
    <trkpt lat="48.467204" lon="2.669633">
      <ele>86.4</ele>
      <time>2014-09-28T11:09:40Z</time>
    </trkpt>
    <trkpt lat="48.467351" lon="2.669426">
      <ele>86.8</ele>
      <time>2014-09-28T11:09:46Z</time>
    </trkpt>
    <trkpt lat="48.46743" lon="2.669309">
      <ele>87.0</ele>
      <time>2014-09-28T11:09:49Z</time>
    </trkpt>
    <trkpt lat="48.467468" lon="2.669152">
      <ele>87.1</ele>
      <time>2014-09-28T11:09:53Z</time>
    </trkpt>
    <trkpt lat="48.467543" lon="2.669024">
      <ele>87.7</ele>
      <time>2014-09-28T11:09:57Z</time>
    </trkpt>
    <trkpt lat="48.467622" lon="2.668915">
      <ele>88.2</ele>
      <time>2014-09-28T11:10:01Z</time>
    </trkpt>
    <trkpt lat="48.467669" lon="2.668798">
      <ele>88.7</ele>
      <time>2014-09-28T11:10:04Z</time>
    </trkpt>
    <trkpt lat="48.467726" lon="2.66867">
      <ele>89.2</ele>
      <time>2014-09-28T11:10:08Z</time>
    </trkpt>
    <trkpt lat="48.467778" lon="2.668541">
      <ele>89.8</ele>
      <time>2014-09-28T11:10:11Z</time>
    </trkpt>
    <trkpt lat="48.46784" lon="2.668436">
      <ele>90.1</ele>
      <time>2014-09-28T11:10:14Z</time>
    </trkpt>
    <trkpt lat="48.467907" lon="2.668293">
      <ele>90.7</ele>
      <time>2014-09-28T11:10:18Z</time>
    </trkpt>
    <trkpt lat="48.467988" lon="2.668166">
      <ele>91.1</ele>
      <time>2014-09-28T11:10:22Z</time>
    </trkpt>
    <trkpt lat="48.468041" lon="2.668054">
      <ele>91.4</ele>
      <time>2014-09-28T11:10:25Z</time>
    </trkpt>
    <trkpt lat="48.468135" lon="2.667913">
      <ele>91.6</ele>
      <time>2014-09-28T11:10:30Z</time>
    </trkpt>
    <trkpt lat="48.468225" lon="2.667814">
      <ele>91.6</ele>
      <time>2014-09-28T11:10:35Z</time>
    </trkpt>
    <trkpt lat="48.468282" lon="2.667707">
      <ele>91.7</ele>
      <time>2014-09-28T11:10:40Z</time>
    </trkpt>
    <trkpt lat="48.468427" lon="2.667477">
      <ele>92.1</ele>
      <time>2014-09-28T11:10:50Z</time>
    </trkpt>
    <trkpt lat="48.468481" lon="2.667363">
      <ele>92.6</ele>
      <time>2014-09-28T11:10:55Z</time>
    </trkpt>
    <trkpt lat="48.468598" lon="2.66725">
      <ele>93.1</ele>
      <time>2014-09-28T11:11:04Z</time>
    </trkpt>
    <trkpt lat="48.468656" lon="2.667137">
      <ele>93.6</ele>
      <time>2014-09-28T11:11:09Z</time>
    </trkpt>
    <trkpt lat="48.468716" lon="2.667011">
      <ele>94.1</ele>
      <time>2014-09-28T11:11:13Z</time>
    </trkpt>
    <trkpt lat="48.468746" lon="2.666872">
      <ele>94.6</ele>
      <time>2014-09-28T11:11:16Z</time>
    </trkpt>
    <trkpt lat="48.468785" lon="2.666732">
      <ele>95.2</ele>
      <time>2014-09-28T11:11:20Z</time>
    </trkpt>
    <trkpt lat="48.468851" lon="2.666578">
      <ele>95.5</ele>
      <time>2014-09-28T11:11:24Z</time>
    </trkpt>
    <trkpt lat="48.468898" lon="2.666453">
      <ele>95.7</ele>
      <time>2014-09-28T11:11:29Z</time>
    </trkpt>
    <trkpt lat="48.46898" lon="2.666359">
      <ele>95.8</ele>
      <time>2014-09-28T11:11:33Z</time>
    </trkpt>
    <trkpt lat="48.469041" lon="2.666255">
      <ele>96.0</ele>
      <time>2014-09-28T11:11:37Z</time>
    </trkpt>
    <trkpt lat="48.46912" lon="2.666111">
      <ele>96.3</ele>
      <time>2014-09-28T11:11:40Z</time>
    </trkpt>
    <trkpt lat="48.469279" lon="2.665874">
      <ele>96.6</ele>
      <time>2014-09-28T11:11:46Z</time>
    </trkpt>
    <trkpt lat="48.469359" lon="2.665794">
      <ele>96.5</ele>
      <time>2014-09-28T11:11:49Z</time>
    </trkpt>
    <trkpt lat="48.469438" lon="2.66568">
      <ele>96.4</ele>
      <time>2014-09-28T11:11:52Z</time>
    </trkpt>
    <trkpt lat="48.469488" lon="2.665507">
      <ele>96.4</ele>
      <time>2014-09-28T11:11:55Z</time>
    </trkpt>
    <trkpt lat="48.46953" lon="2.665357">
      <ele>96.4</ele>
      <time>2014-09-28T11:11:58Z</time>
    </trkpt>
    <trkpt lat="48.469574" lon="2.665204">
      <ele>96.4</ele>
      <time>2014-09-28T11:12:01Z</time>
    </trkpt>
    <trkpt lat="48.469616" lon="2.665018">
      <ele>96.4</ele>
      <time>2014-09-28T11:12:04Z</time>
    </trkpt>
    <trkpt lat="48.469652" lon="2.664857">
      <ele>96.2</ele>
      <time>2014-09-28T11:12:07Z</time>
    </trkpt>
    <trkpt lat="48.469673" lon="2.664696">
      <ele>95.9</ele>
      <time>2014-09-28T11:12:11Z</time>
    </trkpt>
    <trkpt lat="48.469698" lon="2.664555">
      <ele>95.6</ele>
      <time>2014-09-28T11:12:14Z</time>
    </trkpt>
    <trkpt lat="48.469775" lon="2.664465">
      <ele>95.5</ele>
      <time>2014-09-28T11:12:16Z</time>
    </trkpt>
    <trkpt lat="48.469851" lon="2.664345">
      <ele>95.3</ele>
      <time>2014-09-28T11:12:19Z</time>
    </trkpt>
    <trkpt lat="48.469927" lon="2.664225">
      <ele>95.1</ele>
      <time>2014-09-28T11:12:21Z</time>
    </trkpt>
    <trkpt lat="48.470026" lon="2.6641">
      <ele>95.0</ele>
      <time>2014-09-28T11:12:24Z</time>
    </trkpt>
    <trkpt lat="48.470106" lon="2.663961">
      <ele>95.0</ele>
      <time>2014-09-28T11:12:27Z</time>
    </trkpt>
    <trkpt lat="48.470224" lon="2.663846">
      <ele>94.7</ele>
      <time>2014-09-28T11:12:30Z</time>
    </trkpt>
    <trkpt lat="48.47031" lon="2.663728">
      <ele>94.6</ele>
      <time>2014-09-28T11:12:33Z</time>
    </trkpt>
    <trkpt lat="48.470397" lon="2.66364">
      <ele>94.4</ele>
      <time>2014-09-28T11:12:36Z</time>
    </trkpt>
    <trkpt lat="48.470466" lon="2.663517">
      <ele>94.2</ele>
      <time>2014-09-28T11:12:39Z</time>
    </trkpt>
    <trkpt lat="48.470516" lon="2.663378">
      <ele>94.1</ele>
      <time>2014-09-28T11:12:42Z</time>
    </trkpt>
    <trkpt lat="48.470676" lon="2.663089">
      <ele>93.7</ele>
      <time>2014-09-28T11:12:48Z</time>
    </trkpt>
    <trkpt lat="48.470718" lon="2.66294">
      <ele>93.7</ele>
      <time>2014-09-28T11:12:52Z</time>
    </trkpt>
    <trkpt lat="48.470769" lon="2.662821">
      <ele>93.7</ele>
      <time>2014-09-28T11:12:55Z</time>
    </trkpt>
    <trkpt lat="48.470816" lon="2.662659">
      <ele>93.8</ele>
      <time>2014-09-28T11:12:59Z</time>
    </trkpt>
    <trkpt lat="48.470894" lon="2.662549">
      <ele>94.0</ele>
      <time>2014-09-28T11:13:03Z</time>
    </trkpt>
    <trkpt lat="48.47096" lon="2.662423">
      <ele>94.2</ele>
      <time>2014-09-28T11:13:08Z</time>
    </trkpt>
    <trkpt lat="48.471046" lon="2.66232">
      <ele>94.4</ele>
      <time>2014-09-28T11:13:12Z</time>
    </trkpt>
    <trkpt lat="48.4711" lon="2.662191">
      <ele>94.6</ele>
      <time>2014-09-28T11:13:16Z</time>
    </trkpt>
    <trkpt lat="48.47112" lon="2.662035">
      <ele>94.7</ele>
      <time>2014-09-28T11:13:21Z</time>
    </trkpt>
    <trkpt lat="48.471175" lon="2.661888">
      <ele>94.8</ele>
      <time>2014-09-28T11:13:26Z</time>
    </trkpt>
    <trkpt lat="48.471264" lon="2.66185">
      <ele>94.9</ele>
      <time>2014-09-28T11:13:39Z</time>
    </trkpt>
    <trkpt lat="48.47135" lon="2.661787">
      <ele>94.9</ele>
      <time>2014-09-28T11:13:53Z</time>
    </trkpt>
    <trkpt lat="48.471488" lon="2.661565">
      <ele>94.7</ele>
      <time>2014-09-28T11:14:06Z</time>
    </trkpt>
    <trkpt lat="48.471569" lon="2.661491">
      <ele>94.4</ele>
      <time>2014-09-28T11:14:09Z</time>
    </trkpt>
    <trkpt lat="48.471633" lon="2.661365">
      <ele>93.9</ele>
      <time>2014-09-28T11:14:12Z</time>
    </trkpt>
    <trkpt lat="48.471718" lon="2.661249">
      <ele>93.4</ele>
      <time>2014-09-28T11:14:15Z</time>
    </trkpt>
    <trkpt lat="48.471798" lon="2.66112">
      <ele>92.8</ele>
      <time>2014-09-28T11:14:18Z</time>
    </trkpt>
    <trkpt lat="48.471865" lon="2.66102">
      <ele>92.3</ele>
      <time>2014-09-28T11:14:21Z</time>
    </trkpt>
    <trkpt lat="48.471921" lon="2.6609">
      <ele>91.7</ele>
      <time>2014-09-28T11:14:26Z</time>
    </trkpt>
    <trkpt lat="48.472065" lon="2.660862">
      <ele>91.2</ele>
      <time>2014-09-28T11:14:31Z</time>
    </trkpt>
    <trkpt lat="48.472188" lon="2.660859">
      <ele>90.9</ele>
      <time>2014-09-28T11:14:34Z</time>
    </trkpt>
    <trkpt lat="48.472288" lon="2.660857">
      <ele>90.6</ele>
      <time>2014-09-28T11:14:37Z</time>
    </trkpt>
    <trkpt lat="48.472416" lon="2.660872">
      <ele>90.4</ele>
      <time>2014-09-28T11:14:40Z</time>
    </trkpt>
    <trkpt lat="48.472506" lon="2.660873">
      <ele>90.3</ele>
      <time>2014-09-28T11:14:42Z</time>
    </trkpt>
    <trkpt lat="48.472612" lon="2.660875">
      <ele>90.9</ele>
      <time>2014-09-28T11:14:44Z</time>
    </trkpt>
    <trkpt lat="48.472714" lon="2.660886">
      <ele>91.5</ele>
      <time>2014-09-28T11:14:46Z</time>
    </trkpt>
    <trkpt lat="48.472814" lon="2.660904">
      <ele>92.1</ele>
      <time>2014-09-28T11:14:48Z</time>
    </trkpt>
    <trkpt lat="48.47291" lon="2.660916">
      <ele>92.7</ele>
      <time>2014-09-28T11:14:50Z</time>
    </trkpt>
    <trkpt lat="48.473008" lon="2.660941">
      <ele>93.3</ele>
      <time>2014-09-28T11:14:52Z</time>
    </trkpt>
    <trkpt lat="48.473117" lon="2.660911">
      <ele>93.8</ele>
      <time>2014-09-28T11:14:55Z</time>
    </trkpt>
    <trkpt lat="48.473368" lon="2.660924">
      <ele>94.8</ele>
      <time>2014-09-28T11:15:01Z</time>
    </trkpt>
    <trkpt lat="48.473494" lon="2.660951">
      <ele>94.2</ele>
      <time>2014-09-28T11:15:04Z</time>
    </trkpt>
    <trkpt lat="48.473606" lon="2.660964">
      <ele>93.7</ele>
      <time>2014-09-28T11:15:06Z</time>
    </trkpt>
    <trkpt lat="48.473708" lon="2.660979">
      <ele>93.2</ele>
      <time>2014-09-28T11:15:08Z</time>
    </trkpt>
    <trkpt lat="48.473825" lon="2.660984">
      <ele>92.6</ele>
      <time>2014-09-28T11:15:10Z</time>
    </trkpt>
    <trkpt lat="48.473926" lon="2.661007">
      <ele>92.2</ele>
      <time>2014-09-28T11:15:12Z</time>
    </trkpt>
    <trkpt lat="48.474042" lon="2.661029">
      <ele>91.6</ele>
      <time>2014-09-28T11:15:15Z</time>
    </trkpt>
    <trkpt lat="48.474134" lon="2.661029">
      <ele>91.2</ele>
      <time>2014-09-28T11:15:17Z</time>
    </trkpt>
    <trkpt lat="48.474224" lon="2.661037">
      <ele>90.7</ele>
      <time>2014-09-28T11:15:19Z</time>
    </trkpt>
    <trkpt lat="48.474354" lon="2.66107">
      <ele>90.1</ele>
      <time>2014-09-28T11:15:22Z</time>
    </trkpt>
    <trkpt lat="48.474445" lon="2.661088">
      <ele>89.7</ele>
      <time>2014-09-28T11:15:24Z</time>
    </trkpt>
    <trkpt lat="48.474539" lon="2.661094">
      <ele>89.3</ele>
      <time>2014-09-28T11:15:26Z</time>
    </trkpt>
    <trkpt lat="48.47464" lon="2.661109">
      <ele>88.9</ele>
      <time>2014-09-28T11:15:28Z</time>
    </trkpt>
    <trkpt lat="48.474732" lon="2.66112">
      <ele>88.5</ele>
      <time>2014-09-28T11:15:30Z</time>
    </trkpt>
    <trkpt lat="48.474856" lon="2.661129">
      <ele>88.0</ele>
      <time>2014-09-28T11:15:33Z</time>
    </trkpt>
    <trkpt lat="48.474981" lon="2.661124">
      <ele>87.5</ele>
      <time>2014-09-28T11:15:36Z</time>
    </trkpt>
    <trkpt lat="48.475068" lon="2.661156">
      <ele>87.6</ele>
      <time>2014-09-28T11:15:38Z</time>
    </trkpt>
    <trkpt lat="48.475184" lon="2.661168">
      <ele>87.8</ele>
      <time>2014-09-28T11:15:41Z</time>
    </trkpt>
    <trkpt lat="48.475275" lon="2.661179">
      <ele>88.0</ele>
      <time>2014-09-28T11:15:43Z</time>
    </trkpt>
    <trkpt lat="48.475405" lon="2.661196">
      <ele>88.2</ele>
      <time>2014-09-28T11:15:46Z</time>
    </trkpt>
    <trkpt lat="48.475528" lon="2.66121">
      <ele>88.4</ele>
      <time>2014-09-28T11:15:49Z</time>
    </trkpt>
    <trkpt lat="48.475621" lon="2.661237">
      <ele>88.7</ele>
      <time>2014-09-28T11:15:51Z</time>
    </trkpt>
    <trkpt lat="48.475737" lon="2.661235">
      <ele>88.8</ele>
      <time>2014-09-28T11:15:54Z</time>
    </trkpt>
    <trkpt lat="48.475869" lon="2.66127">
      <ele>89.2</ele>
      <time>2014-09-28T11:15:57Z</time>
    </trkpt>
    <trkpt lat="48.476062" lon="2.661289">
      <ele>90.1</ele>
      <time>2014-09-28T11:16:01Z</time>
    </trkpt>
    <trkpt lat="48.476152" lon="2.661306">
      <ele>90.6</ele>
      <time>2014-09-28T11:16:03Z</time>
    </trkpt>
    <trkpt lat="48.47625" lon="2.66132">
      <ele>91.0</ele>
      <time>2014-09-28T11:16:05Z</time>
    </trkpt>
    <trkpt lat="48.47638" lon="2.661334">
      <ele>91.6</ele>
      <time>2014-09-28T11:16:08Z</time>
    </trkpt>
    <trkpt lat="48.476472" lon="2.661345">
      <ele>92.1</ele>
      <time>2014-09-28T11:16:10Z</time>
    </trkpt>
    <trkpt lat="48.476599" lon="2.66136">
      <ele>92.6</ele>
      <time>2014-09-28T11:16:13Z</time>
    </trkpt>
    <trkpt lat="48.476701" lon="2.66129">
      <ele>92.7</ele>
      <time>2014-09-28T11:16:16Z</time>
    </trkpt>
    <trkpt lat="48.476757" lon="2.661112">
      <ele>92.1</ele>
      <time>2014-09-28T11:16:19Z</time>
    </trkpt>
    <trkpt lat="48.476827" lon="2.660939">
      <ele>91.7</ele>
      <time>2014-09-28T11:16:22Z</time>
    </trkpt>
    <trkpt lat="48.476872" lon="2.660732">
      <ele>91.3</ele>
      <time>2014-09-28T11:16:26Z</time>
    </trkpt>
    <trkpt lat="48.476928" lon="2.660574">
      <ele>91.1</ele>
      <time>2014-09-28T11:16:29Z</time>
    </trkpt>
    <trkpt lat="48.476983" lon="2.660378">
      <ele>90.8</ele>
      <time>2014-09-28T11:16:33Z</time>
    </trkpt>
    <trkpt lat="48.477044" lon="2.66026">
      <ele>90.6</ele>
      <time>2014-09-28T11:16:36Z</time>
    </trkpt>
    <trkpt lat="48.477074" lon="2.660083">
      <ele>90.2</ele>
      <time>2014-09-28T11:16:39Z</time>
    </trkpt>
    <trkpt lat="48.477126" lon="2.659867">
      <ele>89.9</ele>
      <time>2014-09-28T11:16:42Z</time>
    </trkpt>
    <trkpt lat="48.477167" lon="2.659727">
      <ele>89.9</ele>
      <time>2014-09-28T11:16:44Z</time>
    </trkpt>
    <trkpt lat="48.477202" lon="2.659581">
      <ele>90.0</ele>
      <time>2014-09-28T11:16:46Z</time>
    </trkpt>
    <trkpt lat="48.477208" lon="2.659402">
      <ele>90.0</ele>
      <time>2014-09-28T11:16:48Z</time>
    </trkpt>
    <trkpt lat="48.477232" lon="2.659238">
      <ele>90.0</ele>
      <time>2014-09-28T11:16:50Z</time>
    </trkpt>
    <trkpt lat="48.477365" lon="2.65921">
      <ele>90.5</ele>
      <time>2014-09-28T11:16:52Z</time>
    </trkpt>
    <trkpt lat="48.477423" lon="2.659097">
      <ele>90.6</ele>
      <time>2014-09-28T11:16:54Z</time>
    </trkpt>
    <trkpt lat="48.477474" lon="2.658982">
      <ele>90.7</ele>
      <time>2014-09-28T11:16:56Z</time>
    </trkpt>
    <trkpt lat="48.477516" lon="2.658804">
      <ele>90.6</ele>
      <time>2014-09-28T11:16:58Z</time>
    </trkpt>
    <trkpt lat="48.477624" lon="2.65849">
      <ele>90.6</ele>
      <time>2014-09-28T11:17:02Z</time>
    </trkpt>
    <trkpt lat="48.477647" lon="2.658313">
      <ele>90.5</ele>
      <time>2014-09-28T11:17:04Z</time>
    </trkpt>
    <trkpt lat="48.477676" lon="2.658162">
      <ele>90.7</ele>
      <time>2014-09-28T11:17:06Z</time>
    </trkpt>
    <trkpt lat="48.477709" lon="2.657983">
      <ele>90.9</ele>
      <time>2014-09-28T11:17:08Z</time>
    </trkpt>
    <trkpt lat="48.477706" lon="2.657845">
      <ele>90.9</ele>
      <time>2014-09-28T11:17:10Z</time>
    </trkpt>
    <trkpt lat="48.477752" lon="2.657696">
      <ele>91.1</ele>
      <time>2014-09-28T11:17:13Z</time>
    </trkpt>
    <trkpt lat="48.477829" lon="2.657552">
      <ele>91.6</ele>
      <time>2014-09-28T11:17:16Z</time>
    </trkpt>
    <trkpt lat="48.477851" lon="2.657413">
      <ele>91.7</ele>
      <time>2014-09-28T11:17:18Z</time>
    </trkpt>
    <trkpt lat="48.477861" lon="2.657277">
      <ele>91.7</ele>
      <time>2014-09-28T11:17:20Z</time>
    </trkpt>
    <trkpt lat="48.477885" lon="2.657125">
      <ele>91.7</ele>
      <time>2014-09-28T11:17:22Z</time>
    </trkpt>
    <trkpt lat="48.477913" lon="2.656979">
      <ele>91.7</ele>
      <time>2014-09-28T11:17:24Z</time>
    </trkpt>
    <trkpt lat="48.477965" lon="2.656798">
      <ele>91.7</ele>
      <time>2014-09-28T11:17:26Z</time>
    </trkpt>
    <trkpt lat="48.478006" lon="2.656658">
      <ele>91.6</ele>
      <time>2014-09-28T11:17:28Z</time>
    </trkpt>
    <trkpt lat="48.478021" lon="2.65644">
      <ele>90.9</ele>
      <time>2014-09-28T11:17:31Z</time>
    </trkpt>
    <trkpt lat="48.47805" lon="2.656258">
      <ele>90.4</ele>
      <time>2014-09-28T11:17:33Z</time>
    </trkpt>
    <trkpt lat="48.478084" lon="2.65611">
      <ele>89.9</ele>
      <time>2014-09-28T11:17:35Z</time>
    </trkpt>
    <trkpt lat="48.478156" lon="2.656026">
      <ele>89.6</ele>
      <time>2014-09-28T11:17:37Z</time>
    </trkpt>
    <trkpt lat="48.478212" lon="2.655814">
      <ele>89.0</ele>
      <time>2014-09-28T11:17:41Z</time>
    </trkpt>
    <trkpt lat="48.478246" lon="2.655662">
      <ele>89.4</ele>
      <time>2014-09-28T11:17:43Z</time>
    </trkpt>
    <trkpt lat="48.478279" lon="2.655469">
      <ele>89.8</ele>
      <time>2014-09-28T11:17:46Z</time>
    </trkpt>
    <trkpt lat="48.478283" lon="2.655314">
      <ele>90.2</ele>
      <time>2014-09-28T11:17:48Z</time>
    </trkpt>
    <trkpt lat="48.478318" lon="2.655163">
      <ele>90.6</ele>
      <time>2014-09-28T11:17:50Z</time>
    </trkpt>
    <trkpt lat="48.478327" lon="2.654945">
      <ele>91.1</ele>
      <time>2014-09-28T11:17:53Z</time>
    </trkpt>
    <trkpt lat="48.478376" lon="2.654828">
      <ele>91.4</ele>
      <time>2014-09-28T11:17:56Z</time>
    </trkpt>
    <trkpt lat="48.478435" lon="2.654662">
      <ele>91.8</ele>
      <time>2014-09-28T11:17:59Z</time>
    </trkpt>
    <trkpt lat="48.478454" lon="2.654333">
      <ele>92.5</ele>
      <time>2014-09-28T11:18:03Z</time>
    </trkpt>
    <trkpt lat="48.478485" lon="2.6542">
      <ele>92.7</ele>
      <time>2014-09-28T11:18:05Z</time>
    </trkpt>
    <trkpt lat="48.478517" lon="2.653976">
      <ele>92.9</ele>
      <time>2014-09-28T11:18:08Z</time>
    </trkpt>
    <trkpt lat="48.478573" lon="2.653822">
      <ele>92.9</ele>
      <time>2014-09-28T11:18:11Z</time>
    </trkpt>
    <trkpt lat="48.478695" lon="2.653807">
      <ele>92.6</ele>
      <time>2014-09-28T11:18:14Z</time>
    </trkpt>
    <trkpt lat="48.478742" lon="2.653685">
      <ele>92.5</ele>
      <time>2014-09-28T11:18:17Z</time>
    </trkpt>
    <trkpt lat="48.478794" lon="2.653566">
      <ele>92.4</ele>
      <time>2014-09-28T11:18:20Z</time>
    </trkpt>
    <trkpt lat="48.478812" lon="2.653391">
      <ele>92.3</ele>
      <time>2014-09-28T11:18:23Z</time>
    </trkpt>
    <trkpt lat="48.478836" lon="2.653115">
      <ele>91.7</ele>
      <time>2014-09-28T11:18:27Z</time>
    </trkpt>
    <trkpt lat="48.478872" lon="2.652985">
      <ele>91.3</ele>
      <time>2014-09-28T11:18:30Z</time>
    </trkpt>
    <trkpt lat="48.478917" lon="2.652862">
      <ele>91.0</ele>
      <time>2014-09-28T11:18:33Z</time>
    </trkpt>
    <trkpt lat="48.478978" lon="2.652742">
      <ele>90.6</ele>
      <time>2014-09-28T11:18:36Z</time>
    </trkpt>
    <trkpt lat="48.479039" lon="2.652616">
      <ele>90.3</ele>
      <time>2014-09-28T11:18:39Z</time>
    </trkpt>
    <trkpt lat="48.479125" lon="2.652444">
      <ele>90.1</ele>
      <time>2014-09-28T11:18:43Z</time>
    </trkpt>
    <trkpt lat="48.479167" lon="2.652288">
      <ele>90.3</ele>
      <time>2014-09-28T11:18:48Z</time>
    </trkpt>
    <trkpt lat="48.479222" lon="2.652179">
      <ele>90.5</ele>
      <time>2014-09-28T11:18:52Z</time>
    </trkpt>
    <trkpt lat="48.479294" lon="2.652074">
      <ele>90.8</ele>
      <time>2014-09-28T11:18:55Z</time>
    </trkpt>
    <trkpt lat="48.479385" lon="2.651969">
      <ele>91.2</ele>
      <time>2014-09-28T11:18:58Z</time>
    </trkpt>
    <trkpt lat="48.479499" lon="2.651866">
      <ele>91.8</ele>
      <time>2014-09-28T11:19:01Z</time>
    </trkpt>
    <trkpt lat="48.47969" lon="2.651711">
      <ele>92.8</ele>
      <time>2014-09-28T11:19:06Z</time>
    </trkpt>
    <trkpt lat="48.479801" lon="2.651622">
      <ele>93.3</ele>
      <time>2014-09-28T11:19:09Z</time>
    </trkpt>
    <trkpt lat="48.479894" lon="2.651508">
      <ele>93.6</ele>
      <time>2014-09-28T11:19:12Z</time>
    </trkpt>
    <trkpt lat="48.479973" lon="2.651356">
      <ele>93.9</ele>
      <time>2014-09-28T11:19:17Z</time>
    </trkpt>
    <trkpt lat="48.48004" lon="2.65125">
      <ele>94.1</ele>
      <time>2014-09-28T11:19:20Z</time>
    </trkpt>
    <trkpt lat="48.480087" lon="2.651117">
      <ele>94.2</ele>
      <time>2014-09-28T11:19:24Z</time>
    </trkpt>
    <trkpt lat="48.480203" lon="2.651063">
      <ele>94.5</ele>
      <time>2014-09-28T11:19:27Z</time>
    </trkpt>
    <trkpt lat="48.480309" lon="2.650984">
      <ele>94.7</ele>
      <time>2014-09-28T11:19:30Z</time>
    </trkpt>
    <trkpt lat="48.480423" lon="2.650909">
      <ele>95.0</ele>
      <time>2014-09-28T11:19:33Z</time>
    </trkpt>
    <trkpt lat="48.48052" lon="2.65083">
      <ele>95.2</ele>
      <time>2014-09-28T11:19:36Z</time>
    </trkpt>
    <trkpt lat="48.480599" lon="2.650757">
      <ele>95.4</ele>
      <time>2014-09-28T11:19:39Z</time>
    </trkpt>
    <trkpt lat="48.480709" lon="2.650669">
      <ele>95.5</ele>
      <time>2014-09-28T11:19:43Z</time>
    </trkpt>
    <trkpt lat="48.480773" lon="2.650568">
      <ele>95.6</ele>
      <time>2014-09-28T11:19:47Z</time>
    </trkpt>
    <trkpt lat="48.480881" lon="2.650462">
      <ele>95.8</ele>
      <time>2014-09-28T11:19:51Z</time>
    </trkpt>
    <trkpt lat="48.48096" lon="2.650383">
      <ele>96.2</ele>
      <time>2014-09-28T11:19:54Z</time>
    </trkpt>
    <trkpt lat="48.481066" lon="2.650294">
      <ele>96.7</ele>
      <time>2014-09-28T11:19:57Z</time>
    </trkpt>
    <trkpt lat="48.481175" lon="2.650217">
      <ele>97.3</ele>
      <time>2014-09-28T11:20:00Z</time>
    </trkpt>
    <trkpt lat="48.481275" lon="2.65015">
      <ele>97.8</ele>
      <time>2014-09-28T11:20:03Z</time>
    </trkpt>
    <trkpt lat="48.481451" lon="2.649971">
      <ele>98.8</ele>
      <time>2014-09-28T11:20:10Z</time>
    </trkpt>
    <trkpt lat="48.481535" lon="2.649915">
      <ele>99.4</ele>
      <time>2014-09-28T11:20:13Z</time>
    </trkpt>
    <trkpt lat="48.481632" lon="2.649823">
      <ele>100.2</ele>
      <time>2014-09-28T11:20:17Z</time>
    </trkpt>
    <trkpt lat="48.481733" lon="2.649723">
      <ele>101.0</ele>
      <time>2014-09-28T11:20:21Z</time>
    </trkpt>
    <trkpt lat="48.481834" lon="2.649646">
      <ele>101.7</ele>
      <time>2014-09-28T11:20:24Z</time>
    </trkpt>
    <trkpt lat="48.481939" lon="2.649581">
      <ele>102.3</ele>
      <time>2014-09-28T11:20:27Z</time>
    </trkpt>
    <trkpt lat="48.482025" lon="2.649512">
      <ele>102.8</ele>
      <time>2014-09-28T11:20:30Z</time>
    </trkpt>
    <trkpt lat="48.482109" lon="2.649454">
      <ele>103.3</ele>
      <time>2014-09-28T11:20:33Z</time>
    </trkpt>
    <trkpt lat="48.482194" lon="2.649345">
      <ele>103.7</ele>
      <time>2014-09-28T11:20:37Z</time>
    </trkpt>
    <trkpt lat="48.482283" lon="2.649285">
      <ele>104.1</ele>
      <time>2014-09-28T11:20:40Z</time>
    </trkpt>
    <trkpt lat="48.482369" lon="2.649222">
      <ele>104.5</ele>
      <time>2014-09-28T11:20:43Z</time>
    </trkpt>
    <trkpt lat="48.482473" lon="2.64914">
      <ele>104.9</ele>
      <time>2014-09-28T11:20:47Z</time>
    </trkpt>
    <trkpt lat="48.482597" lon="2.649077">
      <ele>104.6</ele>
      <time>2014-09-28T11:20:50Z</time>
    </trkpt>
    <trkpt lat="48.482677" lon="2.648992">
      <ele>104.3</ele>
      <time>2014-09-28T11:20:53Z</time>
    </trkpt>
    <trkpt lat="48.482763" lon="2.648916">
      <ele>103.9</ele>
      <time>2014-09-28T11:20:56Z</time>
    </trkpt>
    <trkpt lat="48.482868" lon="2.648838">
      <ele>103.5</ele>
      <time>2014-09-28T11:20:59Z</time>
    </trkpt>
    <trkpt lat="48.482964" lon="2.648746">
      <ele>103.0</ele>
      <time>2014-09-28T11:21:02Z</time>
    </trkpt>
    <trkpt lat="48.483071" lon="2.648653">
      <ele>102.5</ele>
      <time>2014-09-28T11:21:05Z</time>
    </trkpt>
    <trkpt lat="48.483343" lon="2.648441">
      <ele>101.0</ele>
      <time>2014-09-28T11:21:12Z</time>
    </trkpt>
    <trkpt lat="48.483448" lon="2.648365">
      <ele>100.4</ele>
      <time>2014-09-28T11:21:15Z</time>
    </trkpt>
    <trkpt lat="48.48355" lon="2.648273">
      <ele>99.9</ele>
      <time>2014-09-28T11:21:18Z</time>
    </trkpt>
    <trkpt lat="48.483632" lon="2.648207">
      <ele>99.5</ele>
      <time>2014-09-28T11:21:20Z</time>
    </trkpt>
    <trkpt lat="48.483714" lon="2.648128">
      <ele>99.0</ele>
      <time>2014-09-28T11:21:22Z</time>
    </trkpt>
    <trkpt lat="48.483825" lon="2.648021">
      <ele>98.5</ele>
      <time>2014-09-28T11:21:25Z</time>
    </trkpt>
    <trkpt lat="48.483927" lon="2.647925">
      <ele>98.0</ele>
      <time>2014-09-28T11:21:28Z</time>
    </trkpt>
    <trkpt lat="48.484028" lon="2.64783">
      <ele>97.6</ele>
      <time>2014-09-28T11:21:31Z</time>
    </trkpt>
    <trkpt lat="48.484134" lon="2.647779">
      <ele>97.1</ele>
      <time>2014-09-28T11:21:33Z</time>
    </trkpt>
    <trkpt lat="48.484228" lon="2.647677">
      <ele>97.0</ele>
      <time>2014-09-28T11:21:36Z</time>
    </trkpt>
    <trkpt lat="48.484325" lon="2.647588">
      <ele>97.0</ele>
      <time>2014-09-28T11:21:39Z</time>
    </trkpt>
    <trkpt lat="48.484432" lon="2.647486">
      <ele>97.0</ele>
      <time>2014-09-28T11:21:42Z</time>
    </trkpt>
    <trkpt lat="48.484539" lon="2.647376">
      <ele>97.2</ele>
      <time>2014-09-28T11:21:45Z</time>
    </trkpt>
    <trkpt lat="48.484632" lon="2.647316">
      <ele>97.3</ele>
      <time>2014-09-28T11:21:47Z</time>
    </trkpt>
    <trkpt lat="48.484727" lon="2.647237">
      <ele>97.5</ele>
      <time>2014-09-28T11:21:49Z</time>
    </trkpt>
    <trkpt lat="48.484824" lon="2.647158">
      <ele>97.7</ele>
      <time>2014-09-28T11:21:51Z</time>
    </trkpt>
    <trkpt lat="48.484921" lon="2.647072">
      <ele>98.0</ele>
      <time>2014-09-28T11:21:53Z</time>
    </trkpt>
    <trkpt lat="48.485027" lon="2.646991">
      <ele>98.1</ele>
      <time>2014-09-28T11:21:55Z</time>
    </trkpt>
    <trkpt lat="48.485135" lon="2.646916">
      <ele>98.0</ele>
      <time>2014-09-28T11:21:57Z</time>
    </trkpt>
    <trkpt lat="48.485249" lon="2.646828">
      <ele>97.8</ele>
      <time>2014-09-28T11:21:59Z</time>
    </trkpt>
    <trkpt lat="48.48536" lon="2.646744">
      <ele>97.6</ele>
      <time>2014-09-28T11:22:01Z</time>
    </trkpt>
    <trkpt lat="48.485456" lon="2.646639">
      <ele>97.4</ele>
      <time>2014-09-28T11:22:03Z</time>
    </trkpt>
    <trkpt lat="48.485573" lon="2.64653">
      <ele>96.9</ele>
      <time>2014-09-28T11:22:05Z</time>
    </trkpt>
    <trkpt lat="48.485683" lon="2.646415">
      <ele>96.5</ele>
      <time>2014-09-28T11:22:07Z</time>
    </trkpt>
    <trkpt lat="48.485928" lon="2.646213">
      <ele>95.5</ele>
      <time>2014-09-28T11:22:11Z</time>
    </trkpt>
    <trkpt lat="48.486049" lon="2.646078">
      <ele>94.9</ele>
      <time>2014-09-28T11:22:13Z</time>
    </trkpt>
    <trkpt lat="48.486167" lon="2.64596">
      <ele>94.1</ele>
      <time>2014-09-28T11:22:15Z</time>
    </trkpt>
    <trkpt lat="48.486289" lon="2.645874">
      <ele>93.3</ele>
      <time>2014-09-28T11:22:17Z</time>
    </trkpt>
    <trkpt lat="48.486411" lon="2.645791">
      <ele>92.6</ele>
      <time>2014-09-28T11:22:19Z</time>
    </trkpt>
    <trkpt lat="48.48652" lon="2.645702">
      <ele>92.1</ele>
      <time>2014-09-28T11:22:21Z</time>
    </trkpt>
    <trkpt lat="48.486626" lon="2.645626">
      <ele>91.7</ele>
      <time>2014-09-28T11:22:23Z</time>
    </trkpt>
    <trkpt lat="48.486719" lon="2.645561">
      <ele>91.9</ele>
      <time>2014-09-28T11:22:25Z</time>
    </trkpt>
    <trkpt lat="48.486819" lon="2.64545">
      <ele>92.5</ele>
      <time>2014-09-28T11:22:28Z</time>
    </trkpt>
    <trkpt lat="48.486919" lon="2.645347">
      <ele>93.0</ele>
      <time>2014-09-28T11:22:31Z</time>
    </trkpt>
    <trkpt lat="48.48701" lon="2.645278">
      <ele>93.4</ele>
      <time>2014-09-28T11:22:33Z</time>
    </trkpt>
    <trkpt lat="48.487097" lon="2.645203">
      <ele>93.8</ele>
      <time>2014-09-28T11:22:35Z</time>
    </trkpt>
    <trkpt lat="48.487177" lon="2.645114">
      <ele>94.1</ele>
      <time>2014-09-28T11:22:37Z</time>
    </trkpt>
    <trkpt lat="48.487278" lon="2.645042">
      <ele>94.4</ele>
      <time>2014-09-28T11:22:39Z</time>
    </trkpt>
    <trkpt lat="48.487374" lon="2.644961">
      <ele>94.7</ele>
      <time>2014-09-28T11:22:41Z</time>
    </trkpt>
    <trkpt lat="48.487459" lon="2.644883">
      <ele>94.9</ele>
      <time>2014-09-28T11:22:43Z</time>
    </trkpt>
    <trkpt lat="48.487573" lon="2.644781">
      <ele>95.0</ele>
      <time>2014-09-28T11:22:46Z</time>
    </trkpt>
    <trkpt lat="48.487671" lon="2.644721">
      <ele>95.1</ele>
      <time>2014-09-28T11:22:49Z</time>
    </trkpt>
    <trkpt lat="48.487744" lon="2.644623">
      <ele>95.3</ele>
      <time>2014-09-28T11:22:52Z</time>
    </trkpt>
    <trkpt lat="48.48783" lon="2.644525">
      <ele>95.5</ele>
      <time>2014-09-28T11:22:55Z</time>
    </trkpt>
    <trkpt lat="48.487909" lon="2.64446">
      <ele>95.6</ele>
      <time>2014-09-28T11:22:57Z</time>
    </trkpt>
    <trkpt lat="48.488011" lon="2.644345">
      <ele>96.0</ele>
      <time>2014-09-28T11:23:00Z</time>
    </trkpt>
    <trkpt lat="48.488092" lon="2.644281">
      <ele>96.2</ele>
      <time>2014-09-28T11:23:02Z</time>
    </trkpt>
    <trkpt lat="48.488176" lon="2.644214">
      <ele>96.5</ele>
      <time>2014-09-28T11:23:04Z</time>
    </trkpt>
    <trkpt lat="48.488258" lon="2.644154">
      <ele>96.8</ele>
      <time>2014-09-28T11:23:06Z</time>
    </trkpt>
    <trkpt lat="48.488346" lon="2.644096">
      <ele>97.1</ele>
      <time>2014-09-28T11:23:08Z</time>
    </trkpt>
    <trkpt lat="48.488545" lon="2.643912">
      <ele>97.3</ele>
      <time>2014-09-28T11:23:13Z</time>
    </trkpt>
    <trkpt lat="48.488645" lon="2.643881">
      <ele>97.3</ele>
      <time>2014-09-28T11:23:16Z</time>
    </trkpt>
    <trkpt lat="48.488742" lon="2.643851">
      <ele>97.4</ele>
      <time>2014-09-28T11:23:19Z</time>
    </trkpt>
    <trkpt lat="48.488854" lon="2.643783">
      <ele>97.5</ele>
      <time>2014-09-28T11:23:23Z</time>
    </trkpt>
    <trkpt lat="48.488966" lon="2.643736">
      <ele>97.5</ele>
      <time>2014-09-28T11:23:26Z</time>
    </trkpt>
    <trkpt lat="48.489071" lon="2.643702">
      <ele>97.6</ele>
      <time>2014-09-28T11:23:29Z</time>
    </trkpt>
    <trkpt lat="48.489197" lon="2.643671">
      <ele>97.7</ele>
      <time>2014-09-28T11:23:32Z</time>
    </trkpt>
    <trkpt lat="48.489298" lon="2.643638">
      <ele>98.3</ele>
      <time>2014-09-28T11:23:35Z</time>
    </trkpt>
    <trkpt lat="48.489417" lon="2.643563">
      <ele>98.9</ele>
      <time>2014-09-28T11:23:39Z</time>
    </trkpt>
    <trkpt lat="48.489514" lon="2.643515">
      <ele>99.4</ele>
      <time>2014-09-28T11:23:42Z</time>
    </trkpt>
    <trkpt lat="48.489614" lon="2.643434">
      <ele>100.0</ele>
      <time>2014-09-28T11:23:46Z</time>
    </trkpt>
    <trkpt lat="48.489697" lon="2.643332">
      <ele>100.5</ele>
      <time>2014-09-28T11:23:49Z</time>
    </trkpt>
    <trkpt lat="48.489783" lon="2.643225">
      <ele>100.9</ele>
      <time>2014-09-28T11:23:52Z</time>
    </trkpt>
    <trkpt lat="48.489885" lon="2.643107">
      <ele>101.2</ele>
      <time>2014-09-28T11:23:55Z</time>
    </trkpt>
    <trkpt lat="48.489961" lon="2.642977">
      <ele>101.4</ele>
      <time>2014-09-28T11:23:58Z</time>
    </trkpt>
    <trkpt lat="48.490054" lon="2.642886">
      <ele>101.5</ele>
      <time>2014-09-28T11:24:01Z</time>
    </trkpt>
    <trkpt lat="48.490122" lon="2.642755">
      <ele>101.4</ele>
      <time>2014-09-28T11:24:04Z</time>
    </trkpt>
    <trkpt lat="48.490203" lon="2.642659">
      <ele>101.4</ele>
      <time>2014-09-28T11:24:07Z</time>
    </trkpt>
    <trkpt lat="48.490322" lon="2.642625">
      <ele>101.5</ele>
      <time>2014-09-28T11:24:09Z</time>
    </trkpt>
    <trkpt lat="48.490507" lon="2.642381">
      <ele>101.4</ele>
      <time>2014-09-28T11:24:15Z</time>
    </trkpt>
    <trkpt lat="48.490586" lon="2.642288">
      <ele>101.4</ele>
      <time>2014-09-28T11:24:17Z</time>
    </trkpt>
    <trkpt lat="48.490654" lon="2.642195">
      <ele>101.3</ele>
      <time>2014-09-28T11:24:19Z</time>
    </trkpt>
    <trkpt lat="48.490749" lon="2.642101">
      <ele>101.4</ele>
      <time>2014-09-28T11:24:21Z</time>
    </trkpt>
    <trkpt lat="48.490832" lon="2.642011">
      <ele>101.4</ele>
      <time>2014-09-28T11:24:23Z</time>
    </trkpt>
    <trkpt lat="48.490895" lon="2.641882">
      <ele>101.2</ele>
      <time>2014-09-28T11:24:25Z</time>
    </trkpt>
    <trkpt lat="48.490985" lon="2.641804">
      <ele>101.1</ele>
      <time>2014-09-28T11:24:27Z</time>
    </trkpt>
    <trkpt lat="48.4911" lon="2.641749">
      <ele>101.1</ele>
      <time>2014-09-28T11:24:29Z</time>
    </trkpt>
    <trkpt lat="48.49119" lon="2.64165">
      <ele>101.0</ele>
      <time>2014-09-28T11:24:31Z</time>
    </trkpt>
    <trkpt lat="48.491268" lon="2.641569">
      <ele>101.1</ele>
      <time>2014-09-28T11:24:33Z</time>
    </trkpt>
    <trkpt lat="48.491376" lon="2.641472">
      <ele>101.2</ele>
      <time>2014-09-28T11:24:36Z</time>
    </trkpt>
    <trkpt lat="48.491451" lon="2.641341">
      <ele>101.3</ele>
      <time>2014-09-28T11:24:38Z</time>
    </trkpt>
    <trkpt lat="48.491531" lon="2.641216">
      <ele>101.5</ele>
      <time>2014-09-28T11:24:41Z</time>
    </trkpt>
    <trkpt lat="48.491642" lon="2.641142">
      <ele>101.6</ele>
      <time>2014-09-28T11:24:44Z</time>
    </trkpt>
    <trkpt lat="48.491716" lon="2.640979">
      <ele>101.8</ele>
      <time>2014-09-28T11:24:48Z</time>
    </trkpt>
    <trkpt lat="48.491787" lon="2.640883">
      <ele>101.8</ele>
      <time>2014-09-28T11:24:50Z</time>
    </trkpt>
    <trkpt lat="48.491868" lon="2.640803">
      <ele>101.7</ele>
      <time>2014-09-28T11:24:52Z</time>
    </trkpt>
    <trkpt lat="48.491942" lon="2.64071">
      <ele>101.6</ele>
      <time>2014-09-28T11:24:54Z</time>
    </trkpt>
    <trkpt lat="48.492042" lon="2.640594">
      <ele>101.4</ele>
      <time>2014-09-28T11:24:57Z</time>
    </trkpt>
    <trkpt lat="48.492159" lon="2.64049">
      <ele>101.2</ele>
      <time>2014-09-28T11:25:00Z</time>
    </trkpt>
    <trkpt lat="48.492246" lon="2.640359">
      <ele>100.9</ele>
      <time>2014-09-28T11:25:03Z</time>
    </trkpt>
    <trkpt lat="48.49233" lon="2.640259">
      <ele>100.7</ele>
      <time>2014-09-28T11:25:06Z</time>
    </trkpt>
    <trkpt lat="48.492391" lon="2.640152">
      <ele>100.4</ele>
      <time>2014-09-28T11:25:09Z</time>
    </trkpt>
    <trkpt lat="48.492554" lon="2.63993">
      <ele>99.9</ele>
      <time>2014-09-28T11:25:14Z</time>
    </trkpt>
    <trkpt lat="48.492619" lon="2.639798">
      <ele>99.8</ele>
      <time>2014-09-28T11:25:17Z</time>
    </trkpt>
    <trkpt lat="48.49269" lon="2.639707">
      <ele>99.7</ele>
      <time>2014-09-28T11:25:19Z</time>
    </trkpt>
    <trkpt lat="48.492783" lon="2.639619">
      <ele>99.4</ele>
      <time>2014-09-28T11:25:21Z</time>
    </trkpt>
    <trkpt lat="48.492915" lon="2.639526">
      <ele>99.1</ele>
      <time>2014-09-28T11:25:24Z</time>
    </trkpt>
    <trkpt lat="48.49302" lon="2.639402">
      <ele>98.8</ele>
      <time>2014-09-28T11:25:27Z</time>
    </trkpt>
    <trkpt lat="48.493091" lon="2.63931">
      <ele>98.7</ele>
      <time>2014-09-28T11:25:29Z</time>
    </trkpt>
    <trkpt lat="48.49316" lon="2.639221">
      <ele>98.6</ele>
      <time>2014-09-28T11:25:31Z</time>
    </trkpt>
    <trkpt lat="48.493239" lon="2.639146">
      <ele>98.3</ele>
      <time>2014-09-28T11:25:33Z</time>
    </trkpt>
    <trkpt lat="48.49332" lon="2.639055">
      <ele>98.0</ele>
      <time>2014-09-28T11:25:35Z</time>
    </trkpt>
    <trkpt lat="48.493389" lon="2.638949">
      <ele>97.8</ele>
      <time>2014-09-28T11:25:37Z</time>
    </trkpt>
    <trkpt lat="48.493458" lon="2.638843">
      <ele>97.6</ele>
      <time>2014-09-28T11:25:39Z</time>
    </trkpt>
    <trkpt lat="48.493543" lon="2.63872">
      <ele>97.4</ele>
      <time>2014-09-28T11:25:41Z</time>
    </trkpt>
    <trkpt lat="48.49361" lon="2.638594">
      <ele>97.2</ele>
      <time>2014-09-28T11:25:43Z</time>
    </trkpt>
    <trkpt lat="48.493686" lon="2.638483">
      <ele>97.1</ele>
      <time>2014-09-28T11:25:45Z</time>
    </trkpt>
    <trkpt lat="48.493767" lon="2.638377">
      <ele>96.9</ele>
      <time>2014-09-28T11:25:47Z</time>
    </trkpt>
    <trkpt lat="48.493839" lon="2.63828">
      <ele>96.6</ele>
      <time>2014-09-28T11:25:49Z</time>
    </trkpt>
    <trkpt lat="48.493912" lon="2.638171">
      <ele>96.1</ele>
      <time>2014-09-28T11:25:51Z</time>
    </trkpt>
    <trkpt lat="48.493994" lon="2.638083">
      <ele>95.7</ele>
      <time>2014-09-28T11:25:53Z</time>
    </trkpt>
    <trkpt lat="48.494081" lon="2.638006">
      <ele>95.3</ele>
      <time>2014-09-28T11:25:55Z</time>
    </trkpt>
    <trkpt lat="48.494147" lon="2.637902">
      <ele>95.0</ele>
      <time>2014-09-28T11:25:57Z</time>
    </trkpt>
    <trkpt lat="48.494238" lon="2.637822">
      <ele>94.6</ele>
      <time>2014-09-28T11:25:59Z</time>
    </trkpt>
    <trkpt lat="48.494327" lon="2.63774">
      <ele>94.3</ele>
      <time>2014-09-28T11:26:01Z</time>
    </trkpt>
    <trkpt lat="48.494411" lon="2.637641">
      <ele>93.9</ele>
      <time>2014-09-28T11:26:03Z</time>
    </trkpt>
    <trkpt lat="48.494495" lon="2.637534">
      <ele>93.7</ele>
      <time>2014-09-28T11:26:05Z</time>
    </trkpt>
    <trkpt lat="48.494577" lon="2.63743">
      <ele>93.5</ele>
      <time>2014-09-28T11:26:07Z</time>
    </trkpt>
    <trkpt lat="48.494665" lon="2.637318">
      <ele>93.5</ele>
      <time>2014-09-28T11:26:09Z</time>
    </trkpt>
    <trkpt lat="48.494755" lon="2.637205">
      <ele>93.5</ele>
      <time>2014-09-28T11:26:11Z</time>
    </trkpt>
    <trkpt lat="48.494934" lon="2.636984">
      <ele>93.6</ele>
      <time>2014-09-28T11:26:15Z</time>
    </trkpt>
    <trkpt lat="48.495018" lon="2.636859">
      <ele>93.8</ele>
      <time>2014-09-28T11:26:17Z</time>
    </trkpt>
    <trkpt lat="48.495111" lon="2.63674">
      <ele>93.8</ele>
      <time>2014-09-28T11:26:19Z</time>
    </trkpt>
    <trkpt lat="48.495198" lon="2.636623">
      <ele>93.7</ele>
      <time>2014-09-28T11:26:21Z</time>
    </trkpt>
    <trkpt lat="48.49529" lon="2.63651">
      <ele>93.3</ele>
      <time>2014-09-28T11:26:23Z</time>
    </trkpt>
    <trkpt lat="48.495391" lon="2.636386">
      <ele>92.9</ele>
      <time>2014-09-28T11:26:25Z</time>
    </trkpt>
    <trkpt lat="48.495474" lon="2.636279">
      <ele>92.5</ele>
      <time>2014-09-28T11:26:27Z</time>
    </trkpt>
    <trkpt lat="48.495555" lon="2.636173">
      <ele>92.1</ele>
      <time>2014-09-28T11:26:29Z</time>
    </trkpt>
    <trkpt lat="48.495632" lon="2.636059">
      <ele>91.8</ele>
      <time>2014-09-28T11:26:31Z</time>
    </trkpt>
    <trkpt lat="48.495719" lon="2.635947">
      <ele>91.4</ele>
      <time>2014-09-28T11:26:33Z</time>
    </trkpt>
    <trkpt lat="48.495801" lon="2.635836">
      <ele>91.0</ele>
      <time>2014-09-28T11:26:35Z</time>
    </trkpt>
    <trkpt lat="48.495867" lon="2.635725">
      <ele>91.2</ele>
      <time>2014-09-28T11:26:37Z</time>
    </trkpt>
    <trkpt lat="48.495949" lon="2.635649">
      <ele>91.5</ele>
      <time>2014-09-28T11:26:39Z</time>
    </trkpt>
    <trkpt lat="48.496027" lon="2.635578">
      <ele>91.8</ele>
      <time>2014-09-28T11:26:41Z</time>
    </trkpt>
    <trkpt lat="48.496115" lon="2.635524">
      <ele>92.1</ele>
      <time>2014-09-28T11:26:43Z</time>
    </trkpt>
    <trkpt lat="48.496214" lon="2.635486">
      <ele>92.4</ele>
      <time>2014-09-28T11:26:45Z</time>
    </trkpt>
    <trkpt lat="48.496295" lon="2.635367">
      <ele>92.6</ele>
      <time>2014-09-28T11:26:48Z</time>
    </trkpt>
    <trkpt lat="48.496367" lon="2.63525">
      <ele>92.7</ele>
      <time>2014-09-28T11:26:51Z</time>
    </trkpt>
    <trkpt lat="48.496448" lon="2.635131">
      <ele>92.7</ele>
      <time>2014-09-28T11:26:54Z</time>
    </trkpt>
    <trkpt lat="48.496542" lon="2.635036">
      <ele>92.8</ele>
      <time>2014-09-28T11:26:57Z</time>
    </trkpt>
    <trkpt lat="48.496657" lon="2.634898">
      <ele>92.9</ele>
      <time>2014-09-28T11:27:01Z</time>
    </trkpt>
    <trkpt lat="48.496754" lon="2.634828">
      <ele>93.2</ele>
      <time>2014-09-28T11:27:05Z</time>
    </trkpt>
    <trkpt lat="48.496691" lon="2.634939">
      <ele>93.1</ele>
      <time>2014-09-28T11:29:33Z</time>
    </trkpt>
  </trkseg>
</trk>
</gpx>
